<?xml version='1.0' encoding='UTF-8'?><gpx version="1.1" creator="JPX - https://github.com/jenetics/jpx" xmlns="http://www.topografix.com/GPX/1/1"><trk><trkseg><trkpt lat="44.7725937" lon="9.3874207"><ele>268.0</ele><time>2026-04-19T14:27:25.727Z</time></trkpt><trkpt lat="44.7725179" lon="9.3873985"><ele>268.0</ele><time>2026-04-19T14:27:31.727Z</time></trkpt><trkpt lat="44.7724188" lon="9.3873755"><ele>268.0</ele><time>2026-04-19T14:27:33.726Z</time></trkpt><trkpt lat="44.7723235" lon="9.3873556"><ele>268.0</ele><time>2026-04-19T14:27:35.727Z</time></trkpt><trkpt lat="44.7722131" lon="9.3873482"><ele>268.0</ele><time>2026-04-19T14:27:37.727Z</time></trkpt><trkpt lat="44.7721063" lon="9.3873343"><ele>268.0</ele><time>2026-04-19T14:27:39.726Z</time></trkpt><trkpt lat="44.7720127" lon="9.3873179"><ele>268.0</ele><time>2026-04-19T14:27:41.727Z</time></trkpt><trkpt lat="44.7719104" lon="9.3873115"><ele>268.0</ele><time>2026-04-19T14:27:43.727Z</time></trkpt><trkpt lat="44.7718184" lon="9.387298"><ele>268.0</ele><time>2026-04-19T14:27:45.727Z</time></trkpt><trkpt lat="44.7717355" lon="9.3872908"><ele>268.0</ele><time>2026-04-19T14:27:47.727Z</time></trkpt><trkpt lat="44.7716383" lon="9.3872771"><ele>268.2</ele><time>2026-04-19T14:27:49.727Z</time></trkpt><trkpt lat="44.7715" lon="9.387257"><ele>268.4</ele><time>2026-04-19T14:27:51.727Z</time></trkpt><trkpt lat="44.7714282" lon="9.3872529"><ele>268.59999999999997</ele><time>2026-04-19T14:27:52.727Z</time></trkpt><trkpt lat="44.771304" lon="9.3872215"><ele>268.8</ele><time>2026-04-19T14:27:54.727Z</time></trkpt><trkpt lat="44.7712279" lon="9.3872035"><ele>269.0</ele><time>2026-04-19T14:27:55.727Z</time></trkpt><trkpt lat="44.7711595" lon="9.3871888"><ele>270.0</ele><time>2026-04-19T14:27:56.726Z</time></trkpt><trkpt lat="44.7710285" lon="9.387165"><ele>271.0</ele><time>2026-04-19T14:27:58.727Z</time></trkpt><trkpt lat="44.7709574" lon="9.3871587"><ele>272.0</ele><time>2026-04-19T14:27:59.727Z</time></trkpt><trkpt lat="44.7708325" lon="9.3871256"><ele>273.0</ele><time>2026-04-19T14:28:01.727Z</time></trkpt><trkpt lat="44.7707067" lon="9.3870704"><ele>274.2</ele><time>2026-04-19T14:28:03.727Z</time></trkpt><trkpt lat="44.7706354" lon="9.3870289"><ele>275.4</ele><time>2026-04-19T14:28:04.726Z</time></trkpt><trkpt lat="44.7705452" lon="9.3869858"><ele>276.59999999999997</ele><time>2026-04-19T14:28:05.727Z</time></trkpt><trkpt lat="44.7704539" lon="9.3869313"><ele>277.8</ele><time>2026-04-19T14:28:06.727Z</time></trkpt><trkpt lat="44.7703578" lon="9.3868762"><ele>279.0</ele><time>2026-04-19T14:28:07.727Z</time></trkpt><trkpt lat="44.7702798" lon="9.3868097"><ele>279.0</ele><time>2026-04-19T14:28:08.727Z</time></trkpt><trkpt lat="44.7702037" lon="9.3867498"><ele>279.0</ele><time>2026-04-19T14:28:09.727Z</time></trkpt><trkpt lat="44.7701248" lon="9.3867056"><ele>279.0</ele><time>2026-04-19T14:28:10.727Z</time></trkpt><trkpt lat="44.7700392" lon="9.3866736"><ele>279.0</ele><time>2026-04-19T14:28:11.727Z</time></trkpt><trkpt lat="44.7699602" lon="9.3866519"><ele>279.0</ele><time>2026-04-19T14:28:12.727Z</time></trkpt><trkpt lat="44.7698912" lon="9.3866486"><ele>279.0</ele><time>2026-04-19T14:28:13.727Z</time></trkpt><trkpt lat="44.7698235" lon="9.3866398"><ele>278.99999999999994</ele><time>2026-04-19T14:28:14.726Z</time></trkpt><trkpt lat="44.7697507" lon="9.3866193"><ele>279.0</ele><time>2026-04-19T14:28:15.726Z</time></trkpt><trkpt lat="44.7696867" lon="9.3865818"><ele>279.0</ele><time>2026-04-19T14:28:16.727Z</time></trkpt><trkpt lat="44.769617" lon="9.386551"><ele>279.0</ele><time>2026-04-19T14:28:17.727Z</time></trkpt><trkpt lat="44.7695535" lon="9.3865244"><ele>279.0</ele><time>2026-04-19T14:28:18.726Z</time></trkpt><trkpt lat="44.7694819" lon="9.3864767"><ele>278.99999999999994</ele><time>2026-04-19T14:28:20.727Z</time></trkpt><trkpt lat="44.769475" lon="9.3863828"><ele>279.0</ele><time>2026-04-19T14:28:23.727Z</time></trkpt><trkpt lat="44.7695189" lon="9.3863092"><ele>279.8333333333333</ele><time>2026-04-19T14:28:25.727Z</time></trkpt><trkpt lat="44.7695779" lon="9.3862646"><ele>280.6666666666667</ele><time>2026-04-19T14:28:26.727Z</time></trkpt><trkpt lat="44.7696423" lon="9.3862239"><ele>281.5</ele><time>2026-04-19T14:28:27.727Z</time></trkpt><trkpt lat="44.7697214" lon="9.3861826"><ele>282.33333333333337</ele><time>2026-04-19T14:28:28.727Z</time></trkpt><trkpt lat="44.7698118" lon="9.3861429"><ele>283.1666666666667</ele><time>2026-04-19T14:28:29.727Z</time></trkpt><trkpt lat="44.7698992" lon="9.3861046"><ele>284.0</ele><time>2026-04-19T14:28:30.727Z</time></trkpt><trkpt lat="44.7699871" lon="9.3860752"><ele>284.0</ele><time>2026-04-19T14:28:31.727Z</time></trkpt><trkpt lat="44.7700603" lon="9.3860384"><ele>284.0</ele><time>2026-04-19T14:28:32.726Z</time></trkpt><trkpt lat="44.770118" lon="9.3859702"><ele>284.0</ele><time>2026-04-19T14:28:33.727Z</time></trkpt><trkpt lat="44.7701617" lon="9.3858743"><ele>284.0</ele><time>2026-04-19T14:28:34.727Z</time></trkpt><trkpt lat="44.7701888" lon="9.3857424"><ele>284.0</ele><time>2026-04-19T14:28:35.727Z</time></trkpt><trkpt lat="44.7702066" lon="9.3855843"><ele>284.0</ele><time>2026-04-19T14:28:36.727Z</time></trkpt><trkpt lat="44.7702182" lon="9.3854237"><ele>285.0</ele><time>2026-04-19T14:28:37.727Z</time></trkpt><trkpt lat="44.7702048" lon="9.3852681"><ele>286.0</ele><time>2026-04-19T14:28:38.727Z</time></trkpt><trkpt lat="44.7701728" lon="9.3851195"><ele>287.0</ele><time>2026-04-19T14:28:39.727Z</time></trkpt><trkpt lat="44.7701216" lon="9.3849764"><ele>288.0</ele><time>2026-04-19T14:28:40.727Z</time></trkpt><trkpt lat="44.7700563" lon="9.3848459"><ele>289.0</ele><time>2026-04-19T14:28:41.727Z</time></trkpt><trkpt lat="44.7699864" lon="9.3847063"><ele>291.5</ele><time>2026-04-19T14:28:42.727Z</time></trkpt><trkpt lat="44.7699115" lon="9.3845425"><ele>294.0</ele><time>2026-04-19T14:28:43.727Z</time></trkpt><trkpt lat="44.7698358" lon="9.3843733"><ele>296.5</ele><time>2026-04-19T14:28:44.727Z</time></trkpt><trkpt lat="44.7697444" lon="9.3842096"><ele>299.0</ele><time>2026-04-19T14:28:45.727Z</time></trkpt><trkpt lat="44.769657" lon="9.3840418"><ele>299.0</ele><time>2026-04-19T14:28:46.727Z</time></trkpt><trkpt lat="44.7695702" lon="9.3838661"><ele>299.0</ele><time>2026-04-19T14:28:47.727Z</time></trkpt><trkpt lat="44.7694821" lon="9.3836895"><ele>299.0</ele><time>2026-04-19T14:28:48.727Z</time></trkpt><trkpt lat="44.7693965" lon="9.3835165"><ele>300.33333333333337</ele><time>2026-04-19T14:28:49.726Z</time></trkpt><trkpt lat="44.7693212" lon="9.3833389"><ele>301.6666666666667</ele><time>2026-04-19T14:28:50.726Z</time></trkpt><trkpt lat="44.7692305" lon="9.3831617"><ele>303.0</ele><time>2026-04-19T14:28:51.727Z</time></trkpt><trkpt lat="44.769145" lon="9.3829872"><ele>304.6666666666667</ele><time>2026-04-19T14:28:52.727Z</time></trkpt><trkpt lat="44.7690488" lon="9.3828025"><ele>306.33333333333337</ele><time>2026-04-19T14:28:53.726Z</time></trkpt><trkpt lat="44.7689653" lon="9.3826251"><ele>308.0</ele><time>2026-04-19T14:28:54.727Z</time></trkpt><trkpt lat="44.7688783" lon="9.3824472"><ele>308.0</ele><time>2026-04-19T14:28:55.726Z</time></trkpt><trkpt lat="44.7687963" lon="9.3822646"><ele>308.0</ele><time>2026-04-19T14:28:56.726Z</time></trkpt><trkpt lat="44.7687231" lon="9.3821001"><ele>308.0</ele><time>2026-04-19T14:28:57.726Z</time></trkpt><trkpt lat="44.7686683" lon="9.3819353"><ele>308.0</ele><time>2026-04-19T14:28:58.727Z</time></trkpt><trkpt lat="44.7686359" lon="9.3817603"><ele>309.25</ele><time>2026-04-19T14:28:59.727Z</time></trkpt><trkpt lat="44.7686093" lon="9.3815745"><ele>310.5</ele><time>2026-04-19T14:29:00.727Z</time></trkpt><trkpt lat="44.7685937" lon="9.3813879"><ele>311.75</ele><time>2026-04-19T14:29:01.726Z</time></trkpt><trkpt lat="44.7685884" lon="9.3811891"><ele>313.0</ele><time>2026-04-19T14:29:02.727Z</time></trkpt><trkpt lat="44.7685865" lon="9.3809842"><ele>316.0</ele><time>2026-04-19T14:29:03.727Z</time></trkpt><trkpt lat="44.7685763" lon="9.3807719"><ele>319.0</ele><time>2026-04-19T14:29:04.726Z</time></trkpt><trkpt lat="44.7685624" lon="9.3805523"><ele>322.0</ele><time>2026-04-19T14:29:05.726Z</time></trkpt><trkpt lat="44.7685513" lon="9.3803446"><ele>320.3333333333333</ele><time>2026-04-19T14:29:06.726Z</time></trkpt><trkpt lat="44.7685369" lon="9.3801404"><ele>318.6666666666667</ele><time>2026-04-19T14:29:07.727Z</time></trkpt><trkpt lat="44.7685103" lon="9.379923"><ele>317.0</ele><time>2026-04-19T14:29:08.727Z</time></trkpt><trkpt lat="44.7684582" lon="9.3797031"><ele>318.0</ele><time>2026-04-19T14:29:09.727Z</time></trkpt><trkpt lat="44.7683902" lon="9.3794942"><ele>319.0</ele><time>2026-04-19T14:29:10.727Z</time></trkpt><trkpt lat="44.7683376" lon="9.3793108"><ele>320.0</ele><time>2026-04-19T14:29:11.727Z</time></trkpt><trkpt lat="44.7683048" lon="9.3791474"><ele>321.0</ele><time>2026-04-19T14:29:12.727Z</time></trkpt><trkpt lat="44.7682949" lon="9.379007"><ele>321.0</ele><time>2026-04-19T14:29:13.727Z</time></trkpt><trkpt lat="44.7683206" lon="9.3788592"><ele>321.0</ele><time>2026-04-19T14:29:14.726Z</time></trkpt><trkpt lat="44.7683847" lon="9.3786965"><ele>321.0</ele><time>2026-04-19T14:29:15.727Z</time></trkpt><trkpt lat="44.7684806" lon="9.3785354"><ele>321.0</ele><time>2026-04-19T14:29:16.726Z</time></trkpt><trkpt lat="44.7685686" lon="9.3783597"><ele>325.25</ele><time>2026-04-19T14:29:17.727Z</time></trkpt><trkpt lat="44.768641" lon="9.3781629"><ele>329.5</ele><time>2026-04-19T14:29:18.727Z</time></trkpt><trkpt lat="44.7686907" lon="9.3779625"><ele>333.75</ele><time>2026-04-19T14:29:19.727Z</time></trkpt><trkpt lat="44.7687325" lon="9.3777782"><ele>338.0</ele><time>2026-04-19T14:29:20.727Z</time></trkpt><trkpt lat="44.7687866" lon="9.3776301"><ele>338.0</ele><time>2026-04-19T14:29:21.727Z</time></trkpt><trkpt lat="44.7688583" lon="9.3775091"><ele>338.0</ele><time>2026-04-19T14:29:22.727Z</time></trkpt><trkpt lat="44.7689573" lon="9.3774026"><ele>338.0</ele><time>2026-04-19T14:29:23.727Z</time></trkpt><trkpt lat="44.7690695" lon="9.3772875"><ele>338.0</ele><time>2026-04-19T14:29:24.727Z</time></trkpt><trkpt lat="44.7691811" lon="9.3771585"><ele>337.25</ele><time>2026-04-19T14:29:25.727Z</time></trkpt><trkpt lat="44.7692995" lon="9.3770322"><ele>336.5</ele><time>2026-04-19T14:29:26.727Z</time></trkpt><trkpt lat="44.7694134" lon="9.3769206"><ele>335.75</ele><time>2026-04-19T14:29:27.727Z</time></trkpt><trkpt lat="44.7694972" lon="9.3767892"><ele>335.0</ele><time>2026-04-19T14:29:28.727Z</time></trkpt><trkpt lat="44.7695479" lon="9.3766273"><ele>338.0</ele><time>2026-04-19T14:29:29.727Z</time></trkpt><trkpt lat="44.769577" lon="9.3764339"><ele>341.0</ele><time>2026-04-19T14:29:30.726Z</time></trkpt><trkpt lat="44.7696056" lon="9.3762608"><ele>344.0</ele><time>2026-04-19T14:29:31.727Z</time></trkpt><trkpt lat="44.7696549" lon="9.3761195"><ele>347.0</ele><time>2026-04-19T14:29:32.727Z</time></trkpt><trkpt lat="44.7697171" lon="9.3759982"><ele>347.0</ele><time>2026-04-19T14:29:33.726Z</time></trkpt><trkpt lat="44.7698049" lon="9.3758828"><ele>347.0</ele><time>2026-04-19T14:29:34.727Z</time></trkpt><trkpt lat="44.7699024" lon="9.3757616"><ele>347.0</ele><time>2026-04-19T14:29:35.727Z</time></trkpt><trkpt lat="44.7700031" lon="9.3756448"><ele>347.0</ele><time>2026-04-19T14:29:36.727Z</time></trkpt><trkpt lat="44.7700784" lon="9.3755075"><ele>347.20000000000005</ele><time>2026-04-19T14:29:37.727Z</time></trkpt><trkpt lat="44.7701274" lon="9.3753567"><ele>347.4</ele><time>2026-04-19T14:29:38.727Z</time></trkpt><trkpt lat="44.7701654" lon="9.37521"><ele>347.6</ele><time>2026-04-19T14:29:39.727Z</time></trkpt><trkpt lat="44.7702085" lon="9.3751143"><ele>347.79999999999995</ele><time>2026-04-19T14:29:40.726Z</time></trkpt><trkpt lat="44.7702743" lon="9.3750655"><ele>348.0</ele><time>2026-04-19T14:29:41.726Z</time></trkpt><trkpt lat="44.7703719" lon="9.3750387"><ele>349.25</ele><time>2026-04-19T14:29:42.726Z</time></trkpt><trkpt lat="44.7704859" lon="9.3750402"><ele>350.5</ele><time>2026-04-19T14:29:43.727Z</time></trkpt><trkpt lat="44.7706247" lon="9.3750615"><ele>351.75</ele><time>2026-04-19T14:29:44.727Z</time></trkpt><trkpt lat="44.7707704" lon="9.375093"><ele>353.0</ele><time>2026-04-19T14:29:45.727Z</time></trkpt><trkpt lat="44.7709072" lon="9.3751121"><ele>353.0</ele><time>2026-04-19T14:29:46.727Z</time></trkpt><trkpt lat="44.771021" lon="9.3751182"><ele>353.0</ele><time>2026-04-19T14:29:47.727Z</time></trkpt><trkpt lat="44.7711245" lon="9.3751072"><ele>353.0</ele><time>2026-04-19T14:29:48.727Z</time></trkpt><trkpt lat="44.7712118" lon="9.375053"><ele>353.0</ele><time>2026-04-19T14:29:49.727Z</time></trkpt><trkpt lat="44.7712799" lon="9.3749507"><ele>353.0</ele><time>2026-04-19T14:29:50.727Z</time></trkpt><trkpt lat="44.7713279" lon="9.3748154"><ele>354.75</ele><time>2026-04-19T14:29:51.727Z</time></trkpt><trkpt lat="44.7713508" lon="9.3746409"><ele>356.5</ele><time>2026-04-19T14:29:52.727Z</time></trkpt><trkpt lat="44.7713642" lon="9.3744413"><ele>358.25</ele><time>2026-04-19T14:29:53.726Z</time></trkpt><trkpt lat="44.7713842" lon="9.3742766"><ele>360.0</ele><time>2026-04-19T14:29:54.727Z</time></trkpt><trkpt lat="44.771426" lon="9.3741557"><ele>360.0</ele><time>2026-04-19T14:29:55.727Z</time></trkpt><trkpt lat="44.7714917" lon="9.3740701"><ele>360.0</ele><time>2026-04-19T14:29:56.727Z</time></trkpt><trkpt lat="44.7715889" lon="9.3740284"><ele>360.0</ele><time>2026-04-19T14:29:57.727Z</time></trkpt><trkpt lat="44.7717135" lon="9.3740132"><ele>360.0</ele><time>2026-04-19T14:29:58.727Z</time></trkpt><trkpt lat="44.7718553" lon="9.3740038"><ele>363.25</ele><time>2026-04-19T14:29:59.727Z</time></trkpt><trkpt lat="44.7719922" lon="9.373988"><ele>366.5</ele><time>2026-04-19T14:30:00.727Z</time></trkpt><trkpt lat="44.7721079" lon="9.3739665"><ele>369.75</ele><time>2026-04-19T14:30:01.727Z</time></trkpt><trkpt lat="44.7722162" lon="9.3739313"><ele>373.0</ele><time>2026-04-19T14:30:02.726Z</time></trkpt><trkpt lat="44.7723277" lon="9.3738555"><ele>372.25</ele><time>2026-04-19T14:30:03.727Z</time></trkpt><trkpt lat="44.772412" lon="9.373736"><ele>371.5</ele><time>2026-04-19T14:30:04.727Z</time></trkpt><trkpt lat="44.7724789" lon="9.3735682"><ele>370.75</ele><time>2026-04-19T14:30:05.727Z</time></trkpt><trkpt lat="44.7725366" lon="9.3733709"><ele>370.0</ele><time>2026-04-19T14:30:06.727Z</time></trkpt><trkpt lat="44.7725954" lon="9.373181"><ele>370.0</ele><time>2026-04-19T14:30:07.727Z</time></trkpt><trkpt lat="44.7726637" lon="9.372998"><ele>370.0</ele><time>2026-04-19T14:30:08.727Z</time></trkpt><trkpt lat="44.7727271" lon="9.372824"><ele>370.0</ele><time>2026-04-19T14:30:09.727Z</time></trkpt><trkpt lat="44.7727913" lon="9.3726492"><ele>370.0</ele><time>2026-04-19T14:30:10.727Z</time></trkpt><trkpt lat="44.7728516" lon="9.3724893"><ele>375.0</ele><time>2026-04-19T14:30:11.727Z</time></trkpt><trkpt lat="44.7729022" lon="9.3723354"><ele>380.0</ele><time>2026-04-19T14:30:12.727Z</time></trkpt><trkpt lat="44.7729322" lon="9.3721635"><ele>385.0</ele><time>2026-04-19T14:30:13.727Z</time></trkpt><trkpt lat="44.7729313" lon="9.3719605"><ele>390.0</ele><time>2026-04-19T14:30:14.726Z</time></trkpt><trkpt lat="44.7729107" lon="9.3717419"><ele>391.25</ele><time>2026-04-19T14:30:15.727Z</time></trkpt><trkpt lat="44.7728944" lon="9.3715384"><ele>392.5</ele><time>2026-04-19T14:30:16.727Z</time></trkpt><trkpt lat="44.7728949" lon="9.3713575"><ele>393.75</ele><time>2026-04-19T14:30:17.727Z</time></trkpt><trkpt lat="44.7728977" lon="9.3711841"><ele>395.0</ele><time>2026-04-19T14:30:18.727Z</time></trkpt><trkpt lat="44.772877" lon="9.3710285"><ele>393.75</ele><time>2026-04-19T14:30:19.727Z</time></trkpt><trkpt lat="44.7728219" lon="9.3708835"><ele>392.5</ele><time>2026-04-19T14:30:20.727Z</time></trkpt><trkpt lat="44.7727455" lon="9.3707467"><ele>391.25</ele><time>2026-04-19T14:30:21.727Z</time></trkpt><trkpt lat="44.7726697" lon="9.3706042"><ele>390.0</ele><time>2026-04-19T14:30:22.727Z</time></trkpt><trkpt lat="44.7726158" lon="9.3704526"><ele>390.0</ele><time>2026-04-19T14:30:23.727Z</time></trkpt><trkpt lat="44.7725829" lon="9.3702959"><ele>390.0</ele><time>2026-04-19T14:30:24.727Z</time></trkpt><trkpt lat="44.7725761" lon="9.3701277"><ele>390.0</ele><time>2026-04-19T14:30:25.727Z</time></trkpt><trkpt lat="44.7725815" lon="9.3699459"><ele>390.0</ele><time>2026-04-19T14:30:26.727Z</time></trkpt><trkpt lat="44.7725922" lon="9.369754"><ele>391.0</ele><time>2026-04-19T14:30:27.727Z</time></trkpt><trkpt lat="44.7725999" lon="9.3695715"><ele>392.0</ele><time>2026-04-19T14:30:28.726Z</time></trkpt><trkpt lat="44.7726168" lon="9.3694039"><ele>393.0</ele><time>2026-04-19T14:30:29.727Z</time></trkpt><trkpt lat="44.7726369" lon="9.369238"><ele>394.0</ele><time>2026-04-19T14:30:30.727Z</time></trkpt><trkpt lat="44.7726754" lon="9.3690731"><ele>399.75</ele><time>2026-04-19T14:30:31.726Z</time></trkpt><trkpt lat="44.7727346" lon="9.3689024"><ele>405.5</ele><time>2026-04-19T14:30:32.726Z</time></trkpt><trkpt lat="44.7728138" lon="9.3687298"><ele>411.25</ele><time>2026-04-19T14:30:33.727Z</time></trkpt><trkpt lat="44.7729119" lon="9.3685531"><ele>417.0</ele><time>2026-04-19T14:30:34.727Z</time></trkpt><trkpt lat="44.7730149" lon="9.3683764"><ele>417.0</ele><time>2026-04-19T14:30:35.727Z</time></trkpt><trkpt lat="44.7731156" lon="9.3682044"><ele>417.0</ele><time>2026-04-19T14:30:36.727Z</time></trkpt><trkpt lat="44.7731922" lon="9.3680599"><ele>417.0</ele><time>2026-04-19T14:30:37.726Z</time></trkpt><trkpt lat="44.7732472" lon="9.3679269"><ele>417.0</ele><time>2026-04-19T14:30:38.726Z</time></trkpt><trkpt lat="44.7732635" lon="9.3677857"><ele>416.5</ele><time>2026-04-19T14:30:39.727Z</time></trkpt><trkpt lat="44.7732499" lon="9.3676327"><ele>416.0</ele><time>2026-04-19T14:30:40.726Z</time></trkpt><trkpt lat="44.7732191" lon="9.3674715"><ele>415.5</ele><time>2026-04-19T14:30:41.727Z</time></trkpt><trkpt lat="44.7731724" lon="9.3673126"><ele>415.0</ele><time>2026-04-19T14:30:42.726Z</time></trkpt><trkpt lat="44.7730954" lon="9.3671832"><ele>415.0</ele><time>2026-04-19T14:30:43.727Z</time></trkpt><trkpt lat="44.7729984" lon="9.3670971"><ele>415.0</ele><time>2026-04-19T14:30:44.727Z</time></trkpt><trkpt lat="44.7728885" lon="9.367021"><ele>415.0</ele><time>2026-04-19T14:30:45.727Z</time></trkpt><trkpt lat="44.7727791" lon="9.366946"><ele>415.0</ele><time>2026-04-19T14:30:46.727Z</time></trkpt><trkpt lat="44.7726984" lon="9.3668667"><ele>414.2</ele><time>2026-04-19T14:30:47.727Z</time></trkpt><trkpt lat="44.7726559" lon="9.3667609"><ele>413.4</ele><time>2026-04-19T14:30:48.727Z</time></trkpt><trkpt lat="44.7726488" lon="9.3666146"><ele>412.6</ele><time>2026-04-19T14:30:49.727Z</time></trkpt><trkpt lat="44.7726604" lon="9.3664396"><ele>411.8</ele><time>2026-04-19T14:30:50.727Z</time></trkpt><trkpt lat="44.772665" lon="9.3662549"><ele>411.0</ele><time>2026-04-19T14:30:51.727Z</time></trkpt><trkpt lat="44.7726815" lon="9.3660816"><ele>413.5</ele><time>2026-04-19T14:30:52.727Z</time></trkpt><trkpt lat="44.7727272" lon="9.3659113"><ele>416.0</ele><time>2026-04-19T14:30:53.727Z</time></trkpt><trkpt lat="44.7728036" lon="9.365737"><ele>418.5</ele><time>2026-04-19T14:30:54.726Z</time></trkpt><trkpt lat="44.7728925" lon="9.3655685"><ele>421.0</ele><time>2026-04-19T14:30:55.727Z</time></trkpt><trkpt lat="44.7729805" lon="9.3654175"><ele>421.8</ele><time>2026-04-19T14:30:56.727Z</time></trkpt><trkpt lat="44.773058" lon="9.365285"><ele>422.6</ele><time>2026-04-19T14:30:57.727Z</time></trkpt><trkpt lat="44.7731213" lon="9.3651582"><ele>423.4</ele><time>2026-04-19T14:30:58.727Z</time></trkpt><trkpt lat="44.7731667" lon="9.3650462"><ele>424.2</ele><time>2026-04-19T14:30:59.727Z</time></trkpt><trkpt lat="44.7731818" lon="9.3649093"><ele>425.0</ele><time>2026-04-19T14:31:00.727Z</time></trkpt><trkpt lat="44.7731631" lon="9.3647625"><ele>425.5</ele><time>2026-04-19T14:31:01.727Z</time></trkpt><trkpt lat="44.7731158" lon="9.3645898"><ele>426.0</ele><time>2026-04-19T14:31:02.727Z</time></trkpt><trkpt lat="44.7730644" lon="9.364402"><ele>426.5</ele><time>2026-04-19T14:31:03.727Z</time></trkpt><trkpt lat="44.7730245" lon="9.3642197"><ele>427.0</ele><time>2026-04-19T14:31:04.726Z</time></trkpt><trkpt lat="44.7730012" lon="9.3640584"><ele>427.0</ele><time>2026-04-19T14:31:05.726Z</time></trkpt><trkpt lat="44.7730041" lon="9.3639152"><ele>427.00000000000006</ele><time>2026-04-19T14:31:06.726Z</time></trkpt><trkpt lat="44.7730472" lon="9.3638039"><ele>427.00000000000006</ele><time>2026-04-19T14:31:07.726Z</time></trkpt><trkpt lat="44.7731301" lon="9.3637219"><ele>427.0</ele><time>2026-04-19T14:31:08.727Z</time></trkpt><trkpt lat="44.7732436" lon="9.3636516"><ele>427.0</ele><time>2026-04-19T14:31:09.727Z</time></trkpt><trkpt lat="44.7733803" lon="9.3635809"><ele>426.75</ele><time>2026-04-19T14:31:10.727Z</time></trkpt><trkpt lat="44.7735147" lon="9.3635101"><ele>426.5</ele><time>2026-04-19T14:31:11.727Z</time></trkpt><trkpt lat="44.77364" lon="9.3634502"><ele>426.25</ele><time>2026-04-19T14:31:12.727Z</time></trkpt><trkpt lat="44.773767" lon="9.3634105"><ele>426.0</ele><time>2026-04-19T14:31:13.726Z</time></trkpt><trkpt lat="44.7739002" lon="9.3634132"><ele>430.33333333333337</ele><time>2026-04-19T14:31:14.726Z</time></trkpt><trkpt lat="44.7740395" lon="9.3634548"><ele>434.6666666666667</ele><time>2026-04-19T14:31:15.727Z</time></trkpt><trkpt lat="44.7741882" lon="9.363529"><ele>439.0</ele><time>2026-04-19T14:31:16.727Z</time></trkpt><trkpt lat="44.7743358" lon="9.3636194"><ele>440.75</ele><time>2026-04-19T14:31:17.727Z</time></trkpt><trkpt lat="44.7744707" lon="9.3636943"><ele>442.5</ele><time>2026-04-19T14:31:18.727Z</time></trkpt><trkpt lat="44.7745926" lon="9.3637599"><ele>444.25</ele><time>2026-04-19T14:31:19.726Z</time></trkpt><trkpt lat="44.7746922" lon="9.3638365"><ele>446.0</ele><time>2026-04-19T14:31:20.727Z</time></trkpt><trkpt lat="44.7747694" lon="9.3639587"><ele>446.0</ele><time>2026-04-19T14:31:21.727Z</time></trkpt><trkpt lat="44.7748377" lon="9.3641247"><ele>446.0</ele><time>2026-04-19T14:31:22.727Z</time></trkpt><trkpt lat="44.7749071" lon="9.3643125"><ele>446.0</ele><time>2026-04-19T14:31:23.727Z</time></trkpt><trkpt lat="44.7749771" lon="9.364491"><ele>446.0</ele><time>2026-04-19T14:31:24.727Z</time></trkpt><trkpt lat="44.7750425" lon="9.3646489"><ele>444.75</ele><time>2026-04-19T14:31:25.727Z</time></trkpt><trkpt lat="44.7751204" lon="9.3647748"><ele>443.5</ele><time>2026-04-19T14:31:26.726Z</time></trkpt><trkpt lat="44.7752198" lon="9.3648542"><ele>442.25</ele><time>2026-04-19T14:31:27.727Z</time></trkpt><trkpt lat="44.7753417" lon="9.36492"><ele>441.0</ele><time>2026-04-19T14:31:28.727Z</time></trkpt><trkpt lat="44.7754512" lon="9.3650046"><ele>443.8</ele><time>2026-04-19T14:31:29.726Z</time></trkpt><trkpt lat="44.7755279" lon="9.3651063"><ele>446.6</ele><time>2026-04-19T14:31:30.727Z</time></trkpt><trkpt lat="44.7755644" lon="9.3652309"><ele>449.4</ele><time>2026-04-19T14:31:31.727Z</time></trkpt><trkpt lat="44.7755882" lon="9.3653697"><ele>452.2</ele><time>2026-04-19T14:31:32.727Z</time></trkpt><trkpt lat="44.7756194" lon="9.3654996"><ele>455.0</ele><time>2026-04-19T14:31:33.726Z</time></trkpt><trkpt lat="44.7756867" lon="9.365589"><ele>455.0</ele><time>2026-04-19T14:31:34.727Z</time></trkpt><trkpt lat="44.7757708" lon="9.3656503"><ele>455.0</ele><time>2026-04-19T14:31:35.727Z</time></trkpt><trkpt lat="44.7758562" lon="9.3656614"><ele>455.0</ele><time>2026-04-19T14:31:36.727Z</time></trkpt><trkpt lat="44.7759415" lon="9.3656222"><ele>455.0</ele><time>2026-04-19T14:31:37.727Z</time></trkpt><trkpt lat="44.7760342" lon="9.3655135"><ele>455.0</ele><time>2026-04-19T14:31:38.727Z</time></trkpt><trkpt lat="44.7761157" lon="9.3653438"><ele>460.0</ele><time>2026-04-19T14:31:39.727Z</time></trkpt><trkpt lat="44.7762003" lon="9.365139"><ele>465.0</ele><time>2026-04-19T14:31:40.727Z</time></trkpt><trkpt lat="44.7762883" lon="9.3649382"><ele>470.0</ele><time>2026-04-19T14:31:41.727Z</time></trkpt><trkpt lat="44.7763883" lon="9.3647471"><ele>469.3333333333333</ele><time>2026-04-19T14:31:42.727Z</time></trkpt><trkpt lat="44.7764831" lon="9.364561"><ele>468.66666666666663</ele><time>2026-04-19T14:31:43.726Z</time></trkpt><trkpt lat="44.7765765" lon="9.3643884"><ele>468.0</ele><time>2026-04-19T14:31:44.727Z</time></trkpt><trkpt lat="44.7766618" lon="9.3642297"><ele>468.0</ele><time>2026-04-19T14:31:45.727Z</time></trkpt><trkpt lat="44.7767416" lon="9.3640671"><ele>468.0</ele><time>2026-04-19T14:31:46.727Z</time></trkpt><trkpt lat="44.7768001" lon="9.3638907"><ele>468.0</ele><time>2026-04-19T14:31:47.727Z</time></trkpt><trkpt lat="44.7768427" lon="9.363695"><ele>468.0</ele><time>2026-04-19T14:31:48.727Z</time></trkpt><trkpt lat="44.7768755" lon="9.3634854"><ele>473.0</ele><time>2026-04-19T14:31:49.726Z</time></trkpt><trkpt lat="44.7769047" lon="9.3632714"><ele>478.0</ele><time>2026-04-19T14:31:50.727Z</time></trkpt><trkpt lat="44.7769353" lon="9.3630637"><ele>483.0</ele><time>2026-04-19T14:31:51.727Z</time></trkpt><trkpt lat="44.7769675" lon="9.3628714"><ele>488.0</ele><time>2026-04-19T14:31:52.727Z</time></trkpt><trkpt lat="44.7770014" lon="9.3627023"><ele>488.0</ele><time>2026-04-19T14:31:53.727Z</time></trkpt><trkpt lat="44.7770273" lon="9.3625521"><ele>487.99999999999994</ele><time>2026-04-19T14:31:54.727Z</time></trkpt><trkpt lat="44.777034" lon="9.3624158"><ele>487.99999999999994</ele><time>2026-04-19T14:31:55.726Z</time></trkpt><trkpt lat="44.7770172" lon="9.3622889"><ele>488.0</ele><time>2026-04-19T14:31:56.727Z</time></trkpt><trkpt lat="44.7769718" lon="9.3621845"><ele>488.0</ele><time>2026-04-19T14:31:57.727Z</time></trkpt><trkpt lat="44.7768998" lon="9.3620987"><ele>486.0</ele><time>2026-04-19T14:31:58.727Z</time></trkpt><trkpt lat="44.7768129" lon="9.3620073"><ele>483.99999999999994</ele><time>2026-04-19T14:31:59.727Z</time></trkpt><trkpt lat="44.7767267" lon="9.3619165"><ele>481.99999999999994</ele><time>2026-04-19T14:32:00.727Z</time></trkpt><trkpt lat="44.7766476" lon="9.3618183"><ele>480.0</ele><time>2026-04-19T14:32:01.727Z</time></trkpt><trkpt lat="44.77659" lon="9.361693"><ele>478.0</ele><time>2026-04-19T14:32:02.727Z</time></trkpt><trkpt lat="44.7765684" lon="9.3615577"><ele>478.0</ele><time>2026-04-19T14:32:03.727Z</time></trkpt><trkpt lat="44.77659" lon="9.3614199"><ele>478.0</ele><time>2026-04-19T14:32:04.727Z</time></trkpt><trkpt lat="44.7766582" lon="9.3612738"><ele>478.0</ele><time>2026-04-19T14:32:05.726Z</time></trkpt><trkpt lat="44.7767564" lon="9.361122"><ele>478.0</ele><time>2026-04-19T14:32:06.727Z</time></trkpt><trkpt lat="44.7768604" lon="9.3609712"><ele>482.5</ele><time>2026-04-19T14:32:07.727Z</time></trkpt><trkpt lat="44.7769483" lon="9.360836"><ele>487.0</ele><time>2026-04-19T14:32:08.727Z</time></trkpt><trkpt lat="44.7770037" lon="9.3606953"><ele>491.5</ele><time>2026-04-19T14:32:09.727Z</time></trkpt><trkpt lat="44.7770277" lon="9.3605493"><ele>496.0</ele><time>2026-04-19T14:32:10.727Z</time></trkpt><trkpt lat="44.7770173" lon="9.3604047"><ele>497.0</ele><time>2026-04-19T14:32:11.727Z</time></trkpt><trkpt lat="44.7769796" lon="9.3602741"><ele>498.0</ele><time>2026-04-19T14:32:12.727Z</time></trkpt><trkpt lat="44.7769013" lon="9.3601687"><ele>499.0</ele><time>2026-04-19T14:32:13.727Z</time></trkpt><trkpt lat="44.7767874" lon="9.3600988"><ele>500.0</ele><time>2026-04-19T14:32:14.727Z</time></trkpt><trkpt lat="44.7766577" lon="9.3600392"><ele>498.25</ele><time>2026-04-19T14:32:15.727Z</time></trkpt><trkpt lat="44.7765356" lon="9.359967"><ele>496.5</ele><time>2026-04-19T14:32:16.727Z</time></trkpt><trkpt lat="44.776432" lon="9.3598641"><ele>494.75</ele><time>2026-04-19T14:32:17.727Z</time></trkpt><trkpt lat="44.7763425" lon="9.3597415"><ele>493.0</ele><time>2026-04-19T14:32:18.727Z</time></trkpt><trkpt lat="44.7762509" lon="9.3596023"><ele>493.0</ele><time>2026-04-19T14:32:19.727Z</time></trkpt><trkpt lat="44.7761722" lon="9.3594508"><ele>493.0</ele><time>2026-04-19T14:32:20.726Z</time></trkpt><trkpt lat="44.7760888" lon="9.3592935"><ele>493.0</ele><time>2026-04-19T14:32:21.727Z</time></trkpt><trkpt lat="44.7759975" lon="9.3591288"><ele>493.0</ele><time>2026-04-19T14:32:22.727Z</time></trkpt><trkpt lat="44.7759061" lon="9.3589691"><ele>493.0</ele><time>2026-04-19T14:32:23.727Z</time></trkpt><trkpt lat="44.7758101" lon="9.3588154"><ele>493.0</ele><time>2026-04-19T14:32:24.727Z</time></trkpt><trkpt lat="44.7757225" lon="9.3586809"><ele>493.0</ele><time>2026-04-19T14:32:25.727Z</time></trkpt><trkpt lat="44.7756265" lon="9.3585729"><ele>493.0</ele><time>2026-04-19T14:32:26.727Z</time></trkpt><trkpt lat="44.7755413" lon="9.358496"><ele>493.0</ele><time>2026-04-19T14:32:27.727Z</time></trkpt><trkpt lat="44.7754537" lon="9.3584407"><ele>492.99999999999994</ele><time>2026-04-19T14:32:28.727Z</time></trkpt><trkpt lat="44.7753744" lon="9.3583905"><ele>492.99999999999994</ele><time>2026-04-19T14:32:29.727Z</time></trkpt><trkpt lat="44.775307" lon="9.3583141"><ele>493.0</ele><time>2026-04-19T14:32:30.727Z</time></trkpt><trkpt lat="44.7752693" lon="9.3581976"><ele>493.0</ele><time>2026-04-19T14:32:31.727Z</time></trkpt><trkpt lat="44.7752668" lon="9.358034"><ele>494.75</ele><time>2026-04-19T14:32:32.727Z</time></trkpt><trkpt lat="44.7752857" lon="9.3578424"><ele>496.5</ele><time>2026-04-19T14:32:33.727Z</time></trkpt><trkpt lat="44.7752999" lon="9.3576317"><ele>498.25</ele><time>2026-04-19T14:32:34.727Z</time></trkpt><trkpt lat="44.7752869" lon="9.3574093"><ele>500.0</ele><time>2026-04-19T14:32:35.727Z</time></trkpt><trkpt lat="44.775252" lon="9.3571894"><ele>501.66666666666663</ele><time>2026-04-19T14:32:36.727Z</time></trkpt><trkpt lat="44.7751964" lon="9.3569585"><ele>503.33333333333337</ele><time>2026-04-19T14:32:37.727Z</time></trkpt><trkpt lat="44.7751381" lon="9.3567187"><ele>505.0</ele><time>2026-04-19T14:32:38.727Z</time></trkpt><trkpt lat="44.7750845" lon="9.3564779"><ele>503.0</ele><time>2026-04-19T14:32:39.727Z</time></trkpt><trkpt lat="44.7750278" lon="9.3562366"><ele>501.0</ele><time>2026-04-19T14:32:40.727Z</time></trkpt><trkpt lat="44.7749732" lon="9.3560171"><ele>499.0</ele><time>2026-04-19T14:32:41.727Z</time></trkpt><trkpt lat="44.7749187" lon="9.355813"><ele>499.0</ele><time>2026-04-19T14:32:42.727Z</time></trkpt><trkpt lat="44.7748683" lon="9.3556194"><ele>499.0</ele><time>2026-04-19T14:32:43.727Z</time></trkpt><trkpt lat="44.7748226" lon="9.3554365"><ele>499.0</ele><time>2026-04-19T14:32:44.727Z</time></trkpt><trkpt lat="44.7747855" lon="9.3552613"><ele>499.0</ele><time>2026-04-19T14:32:45.727Z</time></trkpt><trkpt lat="44.774757" lon="9.3551093"><ele>499.0</ele><time>2026-04-19T14:32:46.726Z</time></trkpt><trkpt lat="44.774756" lon="9.3549609"><ele>499.0</ele><time>2026-04-19T14:32:47.727Z</time></trkpt><trkpt lat="44.7747816" lon="9.3548222"><ele>499.0</ele><time>2026-04-19T14:32:48.727Z</time></trkpt><trkpt lat="44.7748301" lon="9.3547048"><ele>499.0</ele><time>2026-04-19T14:32:49.727Z</time></trkpt><trkpt lat="44.7748908" lon="9.354622"><ele>499.0</ele><time>2026-04-19T14:32:50.727Z</time></trkpt><trkpt lat="44.7749595" lon="9.3545704"><ele>499.00000000000006</ele><time>2026-04-19T14:32:51.727Z</time></trkpt><trkpt lat="44.7750243" lon="9.3545521"><ele>499.0</ele><time>2026-04-19T14:32:52.727Z</time></trkpt><trkpt lat="44.7751114" lon="9.3544976"><ele>499.0</ele><time>2026-04-19T14:32:54.727Z</time></trkpt><trkpt lat="44.7751398" lon="9.3544115"><ele>499.0</ele><time>2026-04-19T14:32:55.727Z</time></trkpt><trkpt lat="44.7751777" lon="9.3543132"><ele>499.00000000000006</ele><time>2026-04-19T14:32:56.727Z</time></trkpt><trkpt lat="44.775237" lon="9.3542047"><ele>499.0</ele><time>2026-04-19T14:32:57.727Z</time></trkpt><trkpt lat="44.7753173" lon="9.3541034"><ele>497.25</ele><time>2026-04-19T14:32:58.727Z</time></trkpt><trkpt lat="44.7754186" lon="9.3540038"><ele>495.5</ele><time>2026-04-19T14:32:59.727Z</time></trkpt><trkpt lat="44.7755297" lon="9.3538965"><ele>493.75</ele><time>2026-04-19T14:33:00.726Z</time></trkpt><trkpt lat="44.7756441" lon="9.3537932"><ele>492.0</ele><time>2026-04-19T14:33:01.726Z</time></trkpt><trkpt lat="44.7757486" lon="9.3537063"><ele>492.0</ele><time>2026-04-19T14:33:02.727Z</time></trkpt><trkpt lat="44.7758555" lon="9.3536485"><ele>492.00000000000006</ele><time>2026-04-19T14:33:03.727Z</time></trkpt><trkpt lat="44.7759554" lon="9.3536148"><ele>492.00000000000006</ele><time>2026-04-19T14:33:04.727Z</time></trkpt><trkpt lat="44.7760607" lon="9.3536202"><ele>492.0</ele><time>2026-04-19T14:33:05.727Z</time></trkpt><trkpt lat="44.7761796" lon="9.3536387"><ele>492.0</ele><time>2026-04-19T14:33:06.726Z</time></trkpt><trkpt lat="44.7763032" lon="9.3536543"><ele>493.25</ele><time>2026-04-19T14:33:07.726Z</time></trkpt><trkpt lat="44.7764328" lon="9.3536492"><ele>494.5</ele><time>2026-04-19T14:33:08.726Z</time></trkpt><trkpt lat="44.7765736" lon="9.3536223"><ele>495.75</ele><time>2026-04-19T14:33:09.727Z</time></trkpt><trkpt lat="44.7767217" lon="9.3535911"><ele>497.0</ele><time>2026-04-19T14:33:10.727Z</time></trkpt><trkpt lat="44.7768796" lon="9.3535592"><ele>499.25</ele><time>2026-04-19T14:33:11.727Z</time></trkpt><trkpt lat="44.777022" lon="9.3535352"><ele>501.5</ele><time>2026-04-19T14:33:12.727Z</time></trkpt><trkpt lat="44.7771446" lon="9.3535141"><ele>503.75</ele><time>2026-04-19T14:33:13.727Z</time></trkpt><trkpt lat="44.7772309" lon="9.3534567"><ele>506.0</ele><time>2026-04-19T14:33:14.726Z</time></trkpt><trkpt lat="44.7773051" lon="9.3533918"><ele>506.0</ele><time>2026-04-19T14:33:15.726Z</time></trkpt><trkpt lat="44.7773549" lon="9.3533054"><ele>506.0</ele><time>2026-04-19T14:33:16.727Z</time></trkpt><trkpt lat="44.7773877" lon="9.3531821"><ele>506.0</ele><time>2026-04-19T14:33:17.727Z</time></trkpt><trkpt lat="44.7774007" lon="9.3530305"><ele>506.0</ele><time>2026-04-19T14:33:18.727Z</time></trkpt><trkpt lat="44.7774003" lon="9.352869"><ele>506.0</ele><time>2026-04-19T14:33:19.727Z</time></trkpt><trkpt lat="44.7773802" lon="9.3527201"><ele>507.6</ele><time>2026-04-19T14:33:20.727Z</time></trkpt><trkpt lat="44.7773476" lon="9.3525939"><ele>509.20000000000005</ele><time>2026-04-19T14:33:21.727Z</time></trkpt><trkpt lat="44.7772891" lon="9.3524719"><ele>510.79999999999995</ele><time>2026-04-19T14:33:22.727Z</time></trkpt><trkpt lat="44.7772079" lon="9.3523519"><ele>512.4</ele><time>2026-04-19T14:33:23.727Z</time></trkpt><trkpt lat="44.7771284" lon="9.3522412"><ele>514.0</ele><time>2026-04-19T14:33:24.726Z</time></trkpt><trkpt lat="44.7770559" lon="9.3521472"><ele>517.8</ele><time>2026-04-19T14:33:25.727Z</time></trkpt><trkpt lat="44.7769871" lon="9.3520834"><ele>521.5999999999999</ele><time>2026-04-19T14:33:26.727Z</time></trkpt><trkpt lat="44.7769042" lon="9.3520499"><ele>525.4</ele><time>2026-04-19T14:33:27.727Z</time></trkpt><trkpt lat="44.7768096" lon="9.3520624"><ele>529.1999999999999</ele><time>2026-04-19T14:33:28.727Z</time></trkpt><trkpt lat="44.7766916" lon="9.3521085"><ele>533.0</ele><time>2026-04-19T14:33:29.727Z</time></trkpt><trkpt lat="44.7765423" lon="9.3521547"><ele>534.0</ele><time>2026-04-19T14:33:30.727Z</time></trkpt><trkpt lat="44.7763909" lon="9.3521977"><ele>535.0</ele><time>2026-04-19T14:33:31.726Z</time></trkpt><trkpt lat="44.7762588" lon="9.3522352"><ele>536.0</ele><time>2026-04-19T14:33:32.727Z</time></trkpt><trkpt lat="44.7761411" lon="9.3522511"><ele>537.0</ele><time>2026-04-19T14:33:33.727Z</time></trkpt><trkpt lat="44.7760331" lon="9.3522518"><ele>536.0</ele><time>2026-04-19T14:33:34.726Z</time></trkpt><trkpt lat="44.7759231" lon="9.3522135"><ele>535.0</ele><time>2026-04-19T14:33:35.726Z</time></trkpt><trkpt lat="44.7758151" lon="9.3521499"><ele>534.0</ele><time>2026-04-19T14:33:36.727Z</time></trkpt><trkpt lat="44.7757134" lon="9.3520721"><ele>533.0</ele><time>2026-04-19T14:33:37.726Z</time></trkpt><trkpt lat="44.7756121" lon="9.3519695"><ele>533.0</ele><time>2026-04-19T14:33:38.727Z</time></trkpt><trkpt lat="44.7755046" lon="9.3518653"><ele>533.0</ele><time>2026-04-19T14:33:39.727Z</time></trkpt><trkpt lat="44.7753954" lon="9.3517642"><ele>533.0</ele><time>2026-04-19T14:33:40.727Z</time></trkpt><trkpt lat="44.7752797" lon="9.3516749"><ele>533.0</ele><time>2026-04-19T14:33:41.727Z</time></trkpt><trkpt lat="44.7751738" lon="9.35161"><ele>528.5</ele><time>2026-04-19T14:33:42.727Z</time></trkpt><trkpt lat="44.7750665" lon="9.3515591"><ele>524.0</ele><time>2026-04-19T14:33:43.727Z</time></trkpt><trkpt lat="44.7749541" lon="9.3515322"><ele>519.5</ele><time>2026-04-19T14:33:44.727Z</time></trkpt><trkpt lat="44.7748362" lon="9.3515039"><ele>515.0</ele><time>2026-04-19T14:33:45.726Z</time></trkpt><trkpt lat="44.7747272" lon="9.3514601"><ele>515.0</ele><time>2026-04-19T14:33:46.726Z</time></trkpt><trkpt lat="44.7746276" lon="9.3513878"><ele>515.0</ele><time>2026-04-19T14:33:47.727Z</time></trkpt><trkpt lat="44.7745401" lon="9.351317"><ele>515.0</ele><time>2026-04-19T14:33:48.727Z</time></trkpt><trkpt lat="44.7744705" lon="9.3512519"><ele>515.0</ele><time>2026-04-19T14:33:49.727Z</time></trkpt><trkpt lat="44.7744224" lon="9.3511878"><ele>515.0</ele><time>2026-04-19T14:33:50.727Z</time></trkpt><trkpt lat="44.7744476" lon="9.3510365"><ele>518.0</ele><time>2026-04-19T14:33:52.727Z</time></trkpt><trkpt lat="44.774516" lon="9.3509471"><ele>521.0</ele><time>2026-04-19T14:33:53.726Z</time></trkpt><trkpt lat="44.7746097" lon="9.3508619"><ele>524.0</ele><time>2026-04-19T14:33:54.727Z</time></trkpt><trkpt lat="44.7747278" lon="9.3507666"><ele>527.0</ele><time>2026-04-19T14:33:55.727Z</time></trkpt><trkpt lat="44.7748451" lon="9.3506604"><ele>527.0</ele><time>2026-04-19T14:33:56.727Z</time></trkpt><trkpt lat="44.7749514" lon="9.3505475"><ele>527.0</ele><time>2026-04-19T14:33:57.727Z</time></trkpt><trkpt lat="44.7750627" lon="9.3504309"><ele>527.0</ele><time>2026-04-19T14:33:58.727Z</time></trkpt><trkpt lat="44.7751676" lon="9.3503317"><ele>527.0</ele><time>2026-04-19T14:33:59.727Z</time></trkpt><trkpt lat="44.7752596" lon="9.3502508"><ele>530.4</ele><time>2026-04-19T14:34:00.726Z</time></trkpt><trkpt lat="44.7753436" lon="9.3502055"><ele>533.8000000000001</ele><time>2026-04-19T14:34:01.727Z</time></trkpt><trkpt lat="44.7754117" lon="9.3502037"><ele>537.2</ele><time>2026-04-19T14:34:02.727Z</time></trkpt><trkpt lat="44.7754777" lon="9.3502825"><ele>540.6</ele><time>2026-04-19T14:34:04.727Z</time></trkpt><trkpt lat="44.7754211" lon="9.3504427"><ele>544.0</ele><time>2026-04-19T14:34:06.727Z</time></trkpt><trkpt lat="44.7753746" lon="9.350565"><ele>544.0</ele><time>2026-04-19T14:34:07.727Z</time></trkpt><trkpt lat="44.775333" lon="9.3507061"><ele>544.0</ele><time>2026-04-19T14:34:08.727Z</time></trkpt><trkpt lat="44.7753099" lon="9.3508496"><ele>544.0</ele><time>2026-04-19T14:34:09.727Z</time></trkpt><trkpt lat="44.7752823" lon="9.3509941"><ele>544.0</ele><time>2026-04-19T14:34:10.726Z</time></trkpt><trkpt lat="44.7752524" lon="9.3511177"><ele>544.0</ele><time>2026-04-19T14:34:11.726Z</time></trkpt><trkpt lat="44.7752478" lon="9.3512154"><ele>544.0</ele><time>2026-04-19T14:34:12.727Z</time></trkpt><trkpt lat="44.7753154" lon="9.3513459"><ele>544.0</ele><time>2026-04-19T14:34:14.727Z</time></trkpt><trkpt lat="44.7753788" lon="9.3513578"><ele>544.0</ele><time>2026-04-19T14:34:15.727Z</time></trkpt><trkpt lat="44.7754675" lon="9.3513307"><ele>544.0</ele><time>2026-04-19T14:34:16.727Z</time></trkpt><trkpt lat="44.7755786" lon="9.3512501"><ele>544.0</ele><time>2026-04-19T14:34:17.727Z</time></trkpt><trkpt lat="44.7756905" lon="9.3511575"><ele>544.0</ele><time>2026-04-19T14:34:18.726Z</time></trkpt><trkpt lat="44.7757754" lon="9.3510425"><ele>544.0</ele><time>2026-04-19T14:34:19.727Z</time></trkpt><trkpt lat="44.7758376" lon="9.3509028"><ele>544.0</ele><time>2026-04-19T14:34:20.727Z</time></trkpt><trkpt lat="44.7758816" lon="9.3507432"><ele>544.0</ele><time>2026-04-19T14:34:21.727Z</time></trkpt><trkpt lat="44.7759319" lon="9.3505662"><ele>544.0</ele><time>2026-04-19T14:34:22.727Z</time></trkpt><trkpt lat="44.7759931" lon="9.3503835"><ele>544.0</ele><time>2026-04-19T14:34:23.727Z</time></trkpt><trkpt lat="44.7760506" lon="9.3502055"><ele>544.0</ele><time>2026-04-19T14:34:24.727Z</time></trkpt><trkpt lat="44.7761111" lon="9.3500609"><ele>544.0</ele><time>2026-04-19T14:34:25.727Z</time></trkpt><trkpt lat="44.7761683" lon="9.3499156"><ele>547.75</ele><time>2026-04-19T14:34:26.727Z</time></trkpt><trkpt lat="44.7762321" lon="9.3497548"><ele>551.5</ele><time>2026-04-19T14:34:27.727Z</time></trkpt><trkpt lat="44.7762917" lon="9.3495882"><ele>555.25</ele><time>2026-04-19T14:34:28.726Z</time></trkpt><trkpt lat="44.7763484" lon="9.3494261"><ele>559.0</ele><time>2026-04-19T14:34:29.727Z</time></trkpt><trkpt lat="44.7764068" lon="9.3492604"><ele>559.0</ele><time>2026-04-19T14:34:30.726Z</time></trkpt><trkpt lat="44.7764756" lon="9.349081"><ele>559.0</ele><time>2026-04-19T14:34:31.727Z</time></trkpt><trkpt lat="44.7765499" lon="9.3488818"><ele>559.0</ele><time>2026-04-19T14:34:32.726Z</time></trkpt><trkpt lat="44.7766291" lon="9.3486639"><ele>559.3333333333334</ele><time>2026-04-19T14:34:33.727Z</time></trkpt><trkpt lat="44.7767049" lon="9.3484426"><ele>559.6666666666666</ele><time>2026-04-19T14:34:34.727Z</time></trkpt><trkpt lat="44.7767891" lon="9.3482077"><ele>560.0</ele><time>2026-04-19T14:34:35.727Z</time></trkpt><trkpt lat="44.7768788" lon="9.3479697"><ele>564.3333333333333</ele><time>2026-04-19T14:34:36.726Z</time></trkpt><trkpt lat="44.776968" lon="9.3477282"><ele>568.6666666666666</ele><time>2026-04-19T14:34:37.727Z</time></trkpt><trkpt lat="44.777047" lon="9.347504"><ele>573.0</ele><time>2026-04-19T14:34:38.727Z</time></trkpt><trkpt lat="44.7771217" lon="9.3473025"><ele>573.3333333333334</ele><time>2026-04-19T14:34:39.726Z</time></trkpt><trkpt lat="44.7771853" lon="9.3471064"><ele>573.6666666666667</ele><time>2026-04-19T14:34:40.727Z</time></trkpt><trkpt lat="44.7772329" lon="9.3469069"><ele>574.0</ele><time>2026-04-19T14:34:41.727Z</time></trkpt><trkpt lat="44.7772705" lon="9.3466896"><ele>574.0</ele><time>2026-04-19T14:34:42.727Z</time></trkpt><trkpt lat="44.777301" lon="9.3464717"><ele>574.0</ele><time>2026-04-19T14:34:43.727Z</time></trkpt><trkpt lat="44.7773443" lon="9.3462425"><ele>574.0</ele><time>2026-04-19T14:34:44.726Z</time></trkpt><trkpt lat="44.7773882" lon="9.3460133"><ele>574.3333333333334</ele><time>2026-04-19T14:34:45.727Z</time></trkpt><trkpt lat="44.7774429" lon="9.3457876"><ele>574.6666666666666</ele><time>2026-04-19T14:34:46.727Z</time></trkpt><trkpt lat="44.7774928" lon="9.3455609"><ele>575.0</ele><time>2026-04-19T14:34:47.727Z</time></trkpt><trkpt lat="44.7775339" lon="9.3453491"><ele>576.0</ele><time>2026-04-19T14:34:48.727Z</time></trkpt><trkpt lat="44.7775692" lon="9.3451832"><ele>577.0</ele><time>2026-04-19T14:34:49.727Z</time></trkpt><trkpt lat="44.7775704" lon="9.3450494"><ele>578.0</ele><time>2026-04-19T14:34:50.727Z</time></trkpt><trkpt lat="44.7775446" lon="9.3449241"><ele>579.0</ele><time>2026-04-19T14:34:51.727Z</time></trkpt><trkpt lat="44.7774978" lon="9.3447949"><ele>580.0</ele><time>2026-04-19T14:34:52.727Z</time></trkpt><trkpt lat="44.777443" lon="9.3446489"><ele>581.75</ele><time>2026-04-19T14:34:53.727Z</time></trkpt><trkpt lat="44.7773832" lon="9.3444777"><ele>583.5</ele><time>2026-04-19T14:34:54.727Z</time></trkpt><trkpt lat="44.7773183" lon="9.3442943"><ele>585.25</ele><time>2026-04-19T14:34:55.727Z</time></trkpt><trkpt lat="44.7772538" lon="9.3441123"><ele>587.0</ele><time>2026-04-19T14:34:56.727Z</time></trkpt><trkpt lat="44.7771885" lon="9.3439459"><ele>589.0</ele><time>2026-04-19T14:34:57.727Z</time></trkpt><trkpt lat="44.777149" lon="9.3438036"><ele>591.0</ele><time>2026-04-19T14:34:58.727Z</time></trkpt><trkpt lat="44.777131" lon="9.3436817"><ele>593.0</ele><time>2026-04-19T14:34:59.727Z</time></trkpt><trkpt lat="44.7771387" lon="9.3435644"><ele>595.0</ele><time>2026-04-19T14:35:00.727Z</time></trkpt><trkpt lat="44.7771827" lon="9.3434451"><ele>597.0</ele><time>2026-04-19T14:35:01.726Z</time></trkpt><trkpt lat="44.7772427" lon="9.3433265"><ele>597.0</ele><time>2026-04-19T14:35:02.727Z</time></trkpt><trkpt lat="44.7772876" lon="9.3432138"><ele>597.0</ele><time>2026-04-19T14:35:03.727Z</time></trkpt><trkpt lat="44.7773291" lon="9.3431173"><ele>597.0</ele><time>2026-04-19T14:35:04.727Z</time></trkpt><trkpt lat="44.7773757" lon="9.3430372"><ele>597.0</ele><time>2026-04-19T14:35:05.726Z</time></trkpt><trkpt lat="44.7774404" lon="9.3429848"><ele>597.0</ele><time>2026-04-19T14:35:06.726Z</time></trkpt><trkpt lat="44.7775103" lon="9.3429901"><ele>597.0</ele><time>2026-04-19T14:35:07.726Z</time></trkpt><trkpt lat="44.7775839" lon="9.3430374"><ele>597.0</ele><time>2026-04-19T14:35:08.726Z</time></trkpt><trkpt lat="44.7776566" lon="9.3431285"><ele>597.0</ele><time>2026-04-19T14:35:09.726Z</time></trkpt><trkpt lat="44.7777316" lon="9.3432396"><ele>597.0</ele><time>2026-04-19T14:35:10.727Z</time></trkpt><trkpt lat="44.7777949" lon="9.3433171"><ele>597.0</ele><time>2026-04-19T14:35:11.727Z</time></trkpt><trkpt lat="44.7779181" lon="9.3433074"><ele>597.0</ele><time>2026-04-19T14:35:13.727Z</time></trkpt><trkpt lat="44.7779951" lon="9.3432376"><ele>597.8000000000001</ele><time>2026-04-19T14:35:14.727Z</time></trkpt><trkpt lat="44.7780608" lon="9.3431408"><ele>598.6</ele><time>2026-04-19T14:35:15.727Z</time></trkpt><trkpt lat="44.7780982" lon="9.3430298"><ele>599.4000000000001</ele><time>2026-04-19T14:35:16.727Z</time></trkpt><trkpt lat="44.7781006" lon="9.3429196"><ele>600.2</ele><time>2026-04-19T14:35:17.726Z</time></trkpt><trkpt lat="44.7780673" lon="9.342804"><ele>601.0</ele><time>2026-04-19T14:35:18.726Z</time></trkpt><trkpt lat="44.7779878" lon="9.3426924"><ele>604.75</ele><time>2026-04-19T14:35:19.727Z</time></trkpt><trkpt lat="44.7778618" lon="9.3425918"><ele>608.5</ele><time>2026-04-19T14:35:20.727Z</time></trkpt><trkpt lat="44.7777235" lon="9.3424976"><ele>612.25</ele><time>2026-04-19T14:35:21.726Z</time></trkpt><trkpt lat="44.7775865" lon="9.3424249"><ele>616.0</ele><time>2026-04-19T14:35:22.727Z</time></trkpt><trkpt lat="44.7774702" lon="9.3423513"><ele>616.0</ele><time>2026-04-19T14:35:23.727Z</time></trkpt><trkpt lat="44.7773587" lon="9.3422993"><ele>616.0</ele><time>2026-04-19T14:35:24.727Z</time></trkpt><trkpt lat="44.7772376" lon="9.3422818"><ele>616.0</ele><time>2026-04-19T14:35:25.727Z</time></trkpt><trkpt lat="44.7771045" lon="9.342284"><ele>616.0</ele><time>2026-04-19T14:35:26.727Z</time></trkpt><trkpt lat="44.7769681" lon="9.3422867"><ele>614.6</ele><time>2026-04-19T14:35:27.727Z</time></trkpt><trkpt lat="44.7768454" lon="9.3422768"><ele>613.2</ele><time>2026-04-19T14:35:28.727Z</time></trkpt><trkpt lat="44.7767338" lon="9.3422435"><ele>611.8</ele><time>2026-04-19T14:35:29.727Z</time></trkpt><trkpt lat="44.7766414" lon="9.3421962"><ele>610.4</ele><time>2026-04-19T14:35:30.727Z</time></trkpt><trkpt lat="44.7765556" lon="9.3421056"><ele>609.0</ele><time>2026-04-19T14:35:31.727Z</time></trkpt><trkpt lat="44.7764648" lon="9.342002"><ele>614.75</ele><time>2026-04-19T14:35:32.727Z</time></trkpt><trkpt lat="44.7763534" lon="9.3419088"><ele>620.5</ele><time>2026-04-19T14:35:33.727Z</time></trkpt><trkpt lat="44.7762352" lon="9.3418382"><ele>626.25</ele><time>2026-04-19T14:35:34.727Z</time></trkpt><trkpt lat="44.7761243" lon="9.3418146"><ele>632.0</ele><time>2026-04-19T14:35:35.727Z</time></trkpt><trkpt lat="44.7760062" lon="9.3418348"><ele>632.0</ele><time>2026-04-19T14:35:36.727Z</time></trkpt><trkpt lat="44.7758856" lon="9.3418648"><ele>632.0</ele><time>2026-04-19T14:35:37.727Z</time></trkpt><trkpt lat="44.7757699" lon="9.3418732"><ele>632.0</ele><time>2026-04-19T14:35:38.727Z</time></trkpt><trkpt lat="44.775652" lon="9.3418252"><ele>632.0</ele><time>2026-04-19T14:35:39.727Z</time></trkpt><trkpt lat="44.7755413" lon="9.3417519"><ele>632.0</ele><time>2026-04-19T14:35:40.727Z</time></trkpt><trkpt lat="44.7754273" lon="9.3416744"><ele>632.0</ele><time>2026-04-19T14:35:41.727Z</time></trkpt><trkpt lat="44.7753259" lon="9.3415861"><ele>632.0</ele><time>2026-04-19T14:35:42.727Z</time></trkpt><trkpt lat="44.7752203" lon="9.3415018"><ele>632.0</ele><time>2026-04-19T14:35:43.727Z</time></trkpt><trkpt lat="44.7751148" lon="9.3414509"><ele>630.75</ele><time>2026-04-19T14:35:44.726Z</time></trkpt><trkpt lat="44.775016" lon="9.3413847"><ele>629.5</ele><time>2026-04-19T14:35:45.727Z</time></trkpt><trkpt lat="44.7749105" lon="9.341297"><ele>628.25</ele><time>2026-04-19T14:35:46.727Z</time></trkpt><trkpt lat="44.7748093" lon="9.3412032"><ele>627.0</ele><time>2026-04-19T14:35:47.727Z</time></trkpt><trkpt lat="44.7747134" lon="9.3411124"><ele>631.0</ele><time>2026-04-19T14:35:48.726Z</time></trkpt><trkpt lat="44.7746283" lon="9.3410279"><ele>635.0</ele><time>2026-04-19T14:35:49.727Z</time></trkpt><trkpt lat="44.7745596" lon="9.3409398"><ele>639.0</ele><time>2026-04-19T14:35:50.727Z</time></trkpt><trkpt lat="44.7745079" lon="9.3408441"><ele>643.0</ele><time>2026-04-19T14:35:51.727Z</time></trkpt><trkpt lat="44.7744703" lon="9.3407177"><ele>647.0</ele><time>2026-04-19T14:35:52.727Z</time></trkpt><trkpt lat="44.7744378" lon="9.3405741"><ele>648.0</ele><time>2026-04-19T14:35:53.727Z</time></trkpt><trkpt lat="44.7744031" lon="9.3404257"><ele>649.0</ele><time>2026-04-19T14:35:54.727Z</time></trkpt><trkpt lat="44.7743618" lon="9.3402807"><ele>650.0</ele><time>2026-04-19T14:35:55.727Z</time></trkpt><trkpt lat="44.7742831" lon="9.3401518"><ele>651.0</ele><time>2026-04-19T14:35:56.727Z</time></trkpt><trkpt lat="44.7741745" lon="9.3400341"><ele>651.0</ele><time>2026-04-19T14:35:57.727Z</time></trkpt><trkpt lat="44.7740477" lon="9.3399148"><ele>651.0</ele><time>2026-04-19T14:35:58.727Z</time></trkpt><trkpt lat="44.7739186" lon="9.3398031"><ele>651.0</ele><time>2026-04-19T14:35:59.727Z</time></trkpt><trkpt lat="44.7737862" lon="9.3397155"><ele>651.0</ele><time>2026-04-19T14:36:00.727Z</time></trkpt><trkpt lat="44.773676" lon="9.3396316"><ele>651.0</ele><time>2026-04-19T14:36:01.727Z</time></trkpt><trkpt lat="44.773578" lon="9.3395442"><ele>651.0</ele><time>2026-04-19T14:36:02.727Z</time></trkpt><trkpt lat="44.7735002" lon="9.3394381"><ele>651.0</ele><time>2026-04-19T14:36:03.727Z</time></trkpt><trkpt lat="44.7734307" lon="9.3393089"><ele>651.0</ele><time>2026-04-19T14:36:04.727Z</time></trkpt><trkpt lat="44.7733782" lon="9.3391552"><ele>651.0</ele><time>2026-04-19T14:36:05.727Z</time></trkpt><trkpt lat="44.7733309" lon="9.3389897"><ele>651.0</ele><time>2026-04-19T14:36:06.727Z</time></trkpt><trkpt lat="44.773289" lon="9.3388235"><ele>651.0</ele><time>2026-04-19T14:36:07.727Z</time></trkpt><trkpt lat="44.7732511" lon="9.3386662"><ele>651.5</ele><time>2026-04-19T14:36:08.727Z</time></trkpt><trkpt lat="44.7732311" lon="9.3385254"><ele>652.0</ele><time>2026-04-19T14:36:09.727Z</time></trkpt><trkpt lat="44.7732234" lon="9.3383977"><ele>652.5</ele><time>2026-04-19T14:36:10.727Z</time></trkpt><trkpt lat="44.7732348" lon="9.3382827"><ele>653.0</ele><time>2026-04-19T14:36:11.727Z</time></trkpt><trkpt lat="44.7732767" lon="9.3381875"><ele>653.5</ele><time>2026-04-19T14:36:12.727Z</time></trkpt><trkpt lat="44.7733406" lon="9.3381229"><ele>654.0</ele><time>2026-04-19T14:36:13.727Z</time></trkpt><trkpt lat="44.7734285" lon="9.3380814"><ele>658.0</ele><time>2026-04-19T14:36:14.727Z</time></trkpt><trkpt lat="44.773529" lon="9.3380714"><ele>662.0</ele><time>2026-04-19T14:36:15.727Z</time></trkpt><trkpt lat="44.773616" lon="9.3380549"><ele>666.0</ele><time>2026-04-19T14:36:16.727Z</time></trkpt><trkpt lat="44.7737007" lon="9.3380172"><ele>670.0</ele><time>2026-04-19T14:36:17.727Z</time></trkpt><trkpt lat="44.7737598" lon="9.3379356"><ele>674.0</ele><time>2026-04-19T14:36:18.727Z</time></trkpt><trkpt lat="44.7737962" lon="9.3378138"><ele>675.75</ele><time>2026-04-19T14:36:19.727Z</time></trkpt><trkpt lat="44.7738271" lon="9.3376684"><ele>677.5</ele><time>2026-04-19T14:36:20.727Z</time></trkpt><trkpt lat="44.773848" lon="9.3375039"><ele>679.25</ele><time>2026-04-19T14:36:21.727Z</time></trkpt><trkpt lat="44.7738571" lon="9.3373479"><ele>681.0</ele><time>2026-04-19T14:36:22.726Z</time></trkpt><trkpt lat="44.7738429" lon="9.3371866"><ele>687.3333333333334</ele><time>2026-04-19T14:36:23.727Z</time></trkpt><trkpt lat="44.7737907" lon="9.3370047"><ele>693.6666666666667</ele><time>2026-04-19T14:36:24.727Z</time></trkpt><trkpt lat="44.7737165" lon="9.3368228"><ele>700.0</ele><time>2026-04-19T14:36:25.726Z</time></trkpt><trkpt lat="44.7736177" lon="9.3366408"><ele>699.6666666666667</ele><time>2026-04-19T14:36:26.727Z</time></trkpt><trkpt lat="44.7735012" lon="9.3364741"><ele>699.3333333333334</ele><time>2026-04-19T14:36:27.726Z</time></trkpt><trkpt lat="44.7733858" lon="9.3363353"><ele>699.0</ele><time>2026-04-19T14:36:28.727Z</time></trkpt><trkpt lat="44.7732711" lon="9.3362148"><ele>699.0</ele><time>2026-04-19T14:36:29.727Z</time></trkpt><trkpt lat="44.7731491" lon="9.3361165"><ele>699.0</ele><time>2026-04-19T14:36:30.727Z</time></trkpt><trkpt lat="44.7730453" lon="9.3360316"><ele>699.0</ele><time>2026-04-19T14:36:31.726Z</time></trkpt><trkpt lat="44.7729527" lon="9.3359258"><ele>699.0</ele><time>2026-04-19T14:36:32.727Z</time></trkpt><trkpt lat="44.7728556" lon="9.3357946"><ele>699.0</ele><time>2026-04-19T14:36:33.727Z</time></trkpt><trkpt lat="44.772763" lon="9.3356413"><ele>699.0</ele><time>2026-04-19T14:36:34.727Z</time></trkpt><trkpt lat="44.7726698" lon="9.3355063"><ele>699.0</ele><time>2026-04-19T14:36:35.727Z</time></trkpt><trkpt lat="44.7725884" lon="9.3354051"><ele>699.0</ele><time>2026-04-19T14:36:36.727Z</time></trkpt><trkpt lat="44.7725231" lon="9.3353209"><ele>696.3333333333334</ele><time>2026-04-19T14:36:37.727Z</time></trkpt><trkpt lat="44.7724766" lon="9.3352315"><ele>693.6666666666666</ele><time>2026-04-19T14:36:38.727Z</time></trkpt><trkpt lat="44.7724566" lon="9.3351264"><ele>691.0</ele><time>2026-04-19T14:36:39.727Z</time></trkpt><trkpt lat="44.7724704" lon="9.3350212"><ele>688.3333333333333</ele><time>2026-04-19T14:36:40.727Z</time></trkpt><trkpt lat="44.7725211" lon="9.3349135"><ele>685.6666666666666</ele><time>2026-04-19T14:36:41.727Z</time></trkpt><trkpt lat="44.7726047" lon="9.3348061"><ele>683.0</ele><time>2026-04-19T14:36:42.726Z</time></trkpt><trkpt lat="44.7727062" lon="9.334695"><ele>683.0</ele><time>2026-04-19T14:36:43.727Z</time></trkpt><trkpt lat="44.7728108" lon="9.3346223"><ele>683.0</ele><time>2026-04-19T14:36:44.727Z</time></trkpt><trkpt lat="44.7729162" lon="9.3345624"><ele>683.0</ele><time>2026-04-19T14:36:45.727Z</time></trkpt><trkpt lat="44.7730259" lon="9.3345126"><ele>683.0</ele><time>2026-04-19T14:36:46.726Z</time></trkpt><trkpt lat="44.7731358" lon="9.3344677"><ele>683.0</ele><time>2026-04-19T14:36:47.727Z</time></trkpt><trkpt lat="44.7732458" lon="9.3344125"><ele>683.0</ele><time>2026-04-19T14:36:48.727Z</time></trkpt><trkpt lat="44.7733593" lon="9.3343269"><ele>683.0</ele><time>2026-04-19T14:36:49.727Z</time></trkpt><trkpt lat="44.7734749" lon="9.3342138"><ele>683.0</ele><time>2026-04-19T14:36:50.727Z</time></trkpt><trkpt lat="44.773604" lon="9.3341153"><ele>688.0</ele><time>2026-04-19T14:36:51.727Z</time></trkpt><trkpt lat="44.7737315" lon="9.3340271"><ele>693.0</ele><time>2026-04-19T14:36:52.727Z</time></trkpt><trkpt lat="44.7738442" lon="9.3339281"><ele>698.0</ele><time>2026-04-19T14:36:53.727Z</time></trkpt><trkpt lat="44.7739415" lon="9.333815"><ele>703.0</ele><time>2026-04-19T14:36:54.727Z</time></trkpt><trkpt lat="44.7740224" lon="9.3336829"><ele>703.0</ele><time>2026-04-19T14:36:55.727Z</time></trkpt><trkpt lat="44.7740811" lon="9.3335436"><ele>703.0</ele><time>2026-04-19T14:36:56.727Z</time></trkpt><trkpt lat="44.7741015" lon="9.3333955"><ele>703.0</ele><time>2026-04-19T14:36:57.727Z</time></trkpt><trkpt lat="44.7740945" lon="9.3332451"><ele>703.0</ele><time>2026-04-19T14:36:58.726Z</time></trkpt><trkpt lat="44.7740541" lon="9.3330898"><ele>703.0</ele><time>2026-04-19T14:36:59.727Z</time></trkpt><trkpt lat="44.7740018" lon="9.3329264"><ele>703.4</ele><time>2026-04-19T14:37:00.727Z</time></trkpt><trkpt lat="44.7739691" lon="9.3327831"><ele>703.8</ele><time>2026-04-19T14:37:01.727Z</time></trkpt><trkpt lat="44.7739623" lon="9.3326514"><ele>704.2</ele><time>2026-04-19T14:37:02.727Z</time></trkpt><trkpt lat="44.7739879" lon="9.3325161"><ele>704.6</ele><time>2026-04-19T14:37:03.727Z</time></trkpt><trkpt lat="44.7740373" lon="9.3323836"><ele>705.0</ele><time>2026-04-19T14:37:04.727Z</time></trkpt><trkpt lat="44.7741086" lon="9.3322737"><ele>706.6666666666666</ele><time>2026-04-19T14:37:05.727Z</time></trkpt><trkpt lat="44.7741822" lon="9.3321762"><ele>708.3333333333334</ele><time>2026-04-19T14:37:06.727Z</time></trkpt><trkpt lat="44.7742279" lon="9.3320889"><ele>710.0</ele><time>2026-04-19T14:37:07.726Z</time></trkpt><trkpt lat="44.7742245" lon="9.3319493"><ele>711.6666666666667</ele><time>2026-04-19T14:37:09.726Z</time></trkpt><trkpt lat="44.774168" lon="9.3318856"><ele>713.3333333333334</ele><time>2026-04-19T14:37:10.727Z</time></trkpt><trkpt lat="44.774094" lon="9.3318699"><ele>715.0</ele><time>2026-04-19T14:37:11.727Z</time></trkpt><trkpt lat="44.7739815" lon="9.3319273"><ele>715.0</ele><time>2026-04-19T14:37:12.727Z</time></trkpt><trkpt lat="44.7738608" lon="9.3319793"><ele>715.0</ele><time>2026-04-19T14:37:13.727Z</time></trkpt><trkpt lat="44.7737516" lon="9.3320222"><ele>715.0</ele><time>2026-04-19T14:37:14.727Z</time></trkpt><trkpt lat="44.7736593" lon="9.3320191"><ele>715.0</ele><time>2026-04-19T14:37:15.727Z</time></trkpt><trkpt lat="44.7735879" lon="9.3319672"><ele>715.0</ele><time>2026-04-19T14:37:16.727Z</time></trkpt><trkpt lat="44.7735386" lon="9.331867"><ele>716.25</ele><time>2026-04-19T14:37:17.727Z</time></trkpt><trkpt lat="44.7734971" lon="9.3317315"><ele>717.5</ele><time>2026-04-19T14:37:18.727Z</time></trkpt><trkpt lat="44.7734505" lon="9.3315769"><ele>718.75</ele><time>2026-04-19T14:37:19.727Z</time></trkpt><trkpt lat="44.7733812" lon="9.3314196"><ele>720.0</ele><time>2026-04-19T14:37:20.727Z</time></trkpt><trkpt lat="44.7733016" lon="9.3312753"><ele>720.0</ele><time>2026-04-19T14:37:21.726Z</time></trkpt><trkpt lat="44.7731947" lon="9.3311455"><ele>720.0</ele><time>2026-04-19T14:37:22.727Z</time></trkpt><trkpt lat="44.7730714" lon="9.3310513"><ele>720.0</ele><time>2026-04-19T14:37:23.727Z</time></trkpt><trkpt lat="44.7729501" lon="9.3309742"><ele>720.0</ele><time>2026-04-19T14:37:24.727Z</time></trkpt><trkpt lat="44.7728516" lon="9.3309174"><ele>720.0</ele><time>2026-04-19T14:37:25.727Z</time></trkpt><trkpt lat="44.7727546" lon="9.3309054"><ele>720.0</ele><time>2026-04-19T14:37:26.726Z</time></trkpt><trkpt lat="44.7726477" lon="9.3309129"><ele>720.0</ele><time>2026-04-19T14:37:27.727Z</time></trkpt><trkpt lat="44.7725283" lon="9.3308818"><ele>720.0</ele><time>2026-04-19T14:37:28.726Z</time></trkpt><trkpt lat="44.7723982" lon="9.3308246"><ele>717.5</ele><time>2026-04-19T14:37:29.727Z</time></trkpt><trkpt lat="44.7722616" lon="9.3308178"><ele>715.0</ele><time>2026-04-19T14:37:30.727Z</time></trkpt><trkpt lat="44.772141" lon="9.330829"><ele>712.5</ele><time>2026-04-19T14:37:31.727Z</time></trkpt><trkpt lat="44.772035" lon="9.3308267"><ele>710.0</ele><time>2026-04-19T14:37:32.727Z</time></trkpt><trkpt lat="44.7719294" lon="9.3307752"><ele>709.2</ele><time>2026-04-19T14:37:33.726Z</time></trkpt><trkpt lat="44.7718237" lon="9.330714"><ele>708.4</ele><time>2026-04-19T14:37:34.727Z</time></trkpt><trkpt lat="44.7717273" lon="9.3306613"><ele>707.5999999999999</ele><time>2026-04-19T14:37:35.727Z</time></trkpt><trkpt lat="44.7716262" lon="9.3306626"><ele>706.8</ele><time>2026-04-19T14:37:36.727Z</time></trkpt><trkpt lat="44.7715249" lon="9.3307214"><ele>706.0</ele><time>2026-04-19T14:37:37.727Z</time></trkpt><trkpt lat="44.7714183" lon="9.3308132"><ele>706.0</ele><time>2026-04-19T14:37:38.727Z</time></trkpt><trkpt lat="44.7713149" lon="9.3308713"><ele>706.0</ele><time>2026-04-19T14:37:39.727Z</time></trkpt><trkpt lat="44.771208" lon="9.3308924"><ele>706.0</ele><time>2026-04-19T14:37:40.727Z</time></trkpt><trkpt lat="44.7710948" lon="9.3309009"><ele>706.0</ele><time>2026-04-19T14:37:41.726Z</time></trkpt><trkpt lat="44.7709913" lon="9.3309096"><ele>706.0</ele><time>2026-04-19T14:37:42.727Z</time></trkpt><trkpt lat="44.7708946" lon="9.3309333"><ele>705.1999999999999</ele><time>2026-04-19T14:37:43.727Z</time></trkpt><trkpt lat="44.7708114" lon="9.3309385"><ele>704.4</ele><time>2026-04-19T14:37:44.727Z</time></trkpt><trkpt lat="44.7707448" lon="9.330886"><ele>703.6</ele><time>2026-04-19T14:37:45.727Z</time></trkpt><trkpt lat="44.7706952" lon="9.3307924"><ele>702.8</ele><time>2026-04-19T14:37:46.727Z</time></trkpt><trkpt lat="44.7706489" lon="9.3306727"><ele>702.0</ele><time>2026-04-19T14:37:47.726Z</time></trkpt><trkpt lat="44.7705858" lon="9.330526"><ele>713.0</ele><time>2026-04-19T14:37:48.726Z</time></trkpt><trkpt lat="44.770517" lon="9.3303498"><ele>724.0</ele><time>2026-04-19T14:37:49.727Z</time></trkpt><trkpt lat="44.7704532" lon="9.3302056"><ele>735.0</ele><time>2026-04-19T14:37:50.727Z</time></trkpt><trkpt lat="44.7703816" lon="9.3300891"><ele>746.0</ele><time>2026-04-19T14:37:51.727Z</time></trkpt><trkpt lat="44.7703032" lon="9.3299814"><ele>746.0</ele><time>2026-04-19T14:37:52.727Z</time></trkpt><trkpt lat="44.7702146" lon="9.3298812"><ele>746.0</ele><time>2026-04-19T14:37:53.727Z</time></trkpt><trkpt lat="44.7701179" lon="9.3297831"><ele>746.0</ele><time>2026-04-19T14:37:54.727Z</time></trkpt><trkpt lat="44.7700165" lon="9.3296854"><ele>746.0</ele><time>2026-04-19T14:37:55.727Z</time></trkpt><trkpt lat="44.7699084" lon="9.3296034"><ele>748.75</ele><time>2026-04-19T14:37:56.727Z</time></trkpt><trkpt lat="44.7698052" lon="9.3295347"><ele>751.5</ele><time>2026-04-19T14:37:57.726Z</time></trkpt><trkpt lat="44.7696968" lon="9.3294836"><ele>754.25</ele><time>2026-04-19T14:37:58.727Z</time></trkpt><trkpt lat="44.7695785" lon="9.3294507"><ele>757.0</ele><time>2026-04-19T14:37:59.727Z</time></trkpt><trkpt lat="44.7694666" lon="9.3294027"><ele>749.75</ele><time>2026-04-19T14:38:00.726Z</time></trkpt><trkpt lat="44.7693551" lon="9.3293306"><ele>742.5</ele><time>2026-04-19T14:38:01.727Z</time></trkpt><trkpt lat="44.7692399" lon="9.3292455"><ele>735.25</ele><time>2026-04-19T14:38:02.727Z</time></trkpt><trkpt lat="44.7691324" lon="9.329163"><ele>728.0</ele><time>2026-04-19T14:38:03.727Z</time></trkpt><trkpt lat="44.7690465" lon="9.3291065"><ele>728.0</ele><time>2026-04-19T14:38:04.726Z</time></trkpt><trkpt lat="44.7689985" lon="9.3290424"><ele>728.0</ele><time>2026-04-19T14:38:05.726Z</time></trkpt><trkpt lat="44.7690215" lon="9.3289042"><ele>728.0</ele><time>2026-04-19T14:38:07.726Z</time></trkpt><trkpt lat="44.7690849" lon="9.3288468"><ele>728.0</ele><time>2026-04-19T14:38:08.726Z</time></trkpt><trkpt lat="44.7691745" lon="9.328775"><ele>728.0</ele><time>2026-04-19T14:38:09.726Z</time></trkpt><trkpt lat="44.7692844" lon="9.3286916"><ele>735.25</ele><time>2026-04-19T14:38:10.726Z</time></trkpt><trkpt lat="44.7694186" lon="9.3286092"><ele>742.5</ele><time>2026-04-19T14:38:11.726Z</time></trkpt><trkpt lat="44.7695511" lon="9.32851"><ele>749.75</ele><time>2026-04-19T14:38:12.726Z</time></trkpt><trkpt lat="44.7696561" lon="9.328388"><ele>757.0</ele><time>2026-04-19T14:38:13.725Z</time></trkpt><trkpt lat="44.769735" lon="9.3282425"><ele>757.0</ele><time>2026-04-19T14:38:14.726Z</time></trkpt><trkpt lat="44.7697995" lon="9.3280866"><ele>757.0</ele><time>2026-04-19T14:38:15.726Z</time></trkpt><trkpt lat="44.769861" lon="9.3279124"><ele>757.0</ele><time>2026-04-19T14:38:16.726Z</time></trkpt><trkpt lat="44.7699227" lon="9.3277406"><ele>757.0</ele><time>2026-04-19T14:38:17.725Z</time></trkpt><trkpt lat="44.7699884" lon="9.3275958"><ele>758.75</ele><time>2026-04-19T14:38:18.726Z</time></trkpt><trkpt lat="44.7700621" lon="9.3274568"><ele>760.5</ele><time>2026-04-19T14:38:19.726Z</time></trkpt><trkpt lat="44.7701379" lon="9.32731"><ele>762.25</ele><time>2026-04-19T14:38:20.726Z</time></trkpt><trkpt lat="44.7702341" lon="9.3271901"><ele>764.0</ele><time>2026-04-19T14:38:21.726Z</time></trkpt><trkpt lat="44.7703163" lon="9.3270683"><ele>764.0</ele><time>2026-04-19T14:38:22.726Z</time></trkpt><trkpt lat="44.7703918" lon="9.326945"><ele>764.0</ele><time>2026-04-19T14:38:23.725Z</time></trkpt><trkpt lat="44.7704512" lon="9.3267926"><ele>764.0</ele><time>2026-04-19T14:38:24.726Z</time></trkpt><trkpt lat="44.770499" lon="9.3266335"><ele>764.0</ele><time>2026-04-19T14:38:25.725Z</time></trkpt><trkpt lat="44.7705328" lon="9.3264759"><ele>761.8000000000001</ele><time>2026-04-19T14:38:26.726Z</time></trkpt><trkpt lat="44.7705522" lon="9.3263227"><ele>759.6</ele><time>2026-04-19T14:38:27.726Z</time></trkpt><trkpt lat="44.7705777" lon="9.3261854"><ele>757.4</ele><time>2026-04-19T14:38:28.726Z</time></trkpt><trkpt lat="44.7706182" lon="9.3260575"><ele>755.2</ele><time>2026-04-19T14:38:29.726Z</time></trkpt><trkpt lat="44.7706766" lon="9.3259282"><ele>753.0</ele><time>2026-04-19T14:38:30.726Z</time></trkpt><trkpt lat="44.7707456" lon="9.3257957"><ele>753.0</ele><time>2026-04-19T14:38:31.726Z</time></trkpt><trkpt lat="44.7708165" lon="9.3256562"><ele>753.0</ele><time>2026-04-19T14:38:32.726Z</time></trkpt><trkpt lat="44.7708877" lon="9.3255119"><ele>753.0</ele><time>2026-04-19T14:38:33.726Z</time></trkpt><trkpt lat="44.7709393" lon="9.3253506"><ele>753.0</ele><time>2026-04-19T14:38:34.725Z</time></trkpt><trkpt lat="44.7709787" lon="9.3251703"><ele>764.0</ele><time>2026-04-19T14:38:35.725Z</time></trkpt><trkpt lat="44.7710329" lon="9.3249878"><ele>775.0</ele><time>2026-04-19T14:38:36.726Z</time></trkpt><trkpt lat="44.7710813" lon="9.3248139"><ele>786.0</ele><time>2026-04-19T14:38:37.726Z</time></trkpt><trkpt lat="44.7711107" lon="9.3246484"><ele>797.0</ele><time>2026-04-19T14:38:38.725Z</time></trkpt><trkpt lat="44.7711135" lon="9.324479"><ele>797.0</ele><time>2026-04-19T14:38:39.726Z</time></trkpt><trkpt lat="44.771107" lon="9.3243124"><ele>797.0</ele><time>2026-04-19T14:38:40.725Z</time></trkpt><trkpt lat="44.7711147" lon="9.3241594"><ele>797.0</ele><time>2026-04-19T14:38:41.726Z</time></trkpt><trkpt lat="44.7711324" lon="9.3240075"><ele>797.0</ele><time>2026-04-19T14:38:42.725Z</time></trkpt><trkpt lat="44.7711533" lon="9.323854"><ele>797.0</ele><time>2026-04-19T14:38:43.726Z</time></trkpt><trkpt lat="44.7711972" lon="9.3237018"><ele>796.25</ele><time>2026-04-19T14:38:44.725Z</time></trkpt><trkpt lat="44.7712499" lon="9.3235447"><ele>795.5</ele><time>2026-04-19T14:38:45.725Z</time></trkpt><trkpt lat="44.7712997" lon="9.3233825"><ele>794.75</ele><time>2026-04-19T14:38:46.725Z</time></trkpt><trkpt lat="44.771355" lon="9.3232247"><ele>794.0</ele><time>2026-04-19T14:38:47.726Z</time></trkpt><trkpt lat="44.7714246" lon="9.3230973"><ele>793.6</ele><time>2026-04-19T14:38:48.726Z</time></trkpt><trkpt lat="44.7714967" lon="9.3229817"><ele>793.2</ele><time>2026-04-19T14:38:49.726Z</time></trkpt><trkpt lat="44.7715475" lon="9.3228462"><ele>792.8000000000001</ele><time>2026-04-19T14:38:50.726Z</time></trkpt><trkpt lat="44.7715701" lon="9.3227052"><ele>792.4000000000001</ele><time>2026-04-19T14:38:51.726Z</time></trkpt><trkpt lat="44.771562" lon="9.3225673"><ele>792.0</ele><time>2026-04-19T14:38:52.726Z</time></trkpt><trkpt lat="44.7715254" lon="9.3224506"><ele>792.0</ele><time>2026-04-19T14:38:53.726Z</time></trkpt><trkpt lat="44.7714544" lon="9.3223359"><ele>792.0</ele><time>2026-04-19T14:38:54.726Z</time></trkpt><trkpt lat="44.7713535" lon="9.3222374"><ele>792.0</ele><time>2026-04-19T14:38:55.725Z</time></trkpt><trkpt lat="44.7712222" lon="9.3221665"><ele>792.0</ele><time>2026-04-19T14:38:56.726Z</time></trkpt><trkpt lat="44.7710884" lon="9.3221111"><ele>793.5</ele><time>2026-04-19T14:38:57.725Z</time></trkpt><trkpt lat="44.7709525" lon="9.3220469"><ele>795.0</ele><time>2026-04-19T14:38:58.725Z</time></trkpt><trkpt lat="44.7708202" lon="9.3219864"><ele>796.5</ele><time>2026-04-19T14:38:59.726Z</time></trkpt><trkpt lat="44.7707033" lon="9.3219357"><ele>798.0</ele><time>2026-04-19T14:39:00.725Z</time></trkpt><trkpt lat="44.7705908" lon="9.3218913"><ele>798.0</ele><time>2026-04-19T14:39:01.726Z</time></trkpt><trkpt lat="44.770473" lon="9.3218809"><ele>798.0</ele><time>2026-04-19T14:39:02.726Z</time></trkpt><trkpt lat="44.7703503" lon="9.3219129"><ele>798.0</ele><time>2026-04-19T14:39:03.726Z</time></trkpt><trkpt lat="44.7702434" lon="9.3219958"><ele>798.0</ele><time>2026-04-19T14:39:04.726Z</time></trkpt><trkpt lat="44.7701506" lon="9.3221356"><ele>796.0</ele><time>2026-04-19T14:39:05.725Z</time></trkpt><trkpt lat="44.7700693" lon="9.322271"><ele>794.0</ele><time>2026-04-19T14:39:06.725Z</time></trkpt><trkpt lat="44.7699961" lon="9.3223817"><ele>792.0</ele><time>2026-04-19T14:39:07.726Z</time></trkpt><trkpt lat="44.7699032" lon="9.3224458"><ele>790.0</ele><time>2026-04-19T14:39:08.726Z</time></trkpt><trkpt lat="44.7697944" lon="9.32249"><ele>790.0</ele><time>2026-04-19T14:39:09.726Z</time></trkpt><trkpt lat="44.769676" lon="9.3225413"><ele>790.0</ele><time>2026-04-19T14:39:10.726Z</time></trkpt><trkpt lat="44.7695705" lon="9.3225908"><ele>790.0</ele><time>2026-04-19T14:39:11.726Z</time></trkpt><trkpt lat="44.7694635" lon="9.3226084"><ele>790.0</ele><time>2026-04-19T14:39:12.726Z</time></trkpt><trkpt lat="44.7693508" lon="9.3225817"><ele>793.5</ele><time>2026-04-19T14:39:13.726Z</time></trkpt><trkpt lat="44.7692352" lon="9.3225501"><ele>797.0</ele><time>2026-04-19T14:39:14.726Z</time></trkpt><trkpt lat="44.7691106" lon="9.322521"><ele>800.5</ele><time>2026-04-19T14:39:15.725Z</time></trkpt><trkpt lat="44.7689773" lon="9.3224856"><ele>804.0</ele><time>2026-04-19T14:39:16.725Z</time></trkpt><trkpt lat="44.7688451" lon="9.3224378"><ele>804.0</ele><time>2026-04-19T14:39:17.725Z</time></trkpt><trkpt lat="44.7687119" lon="9.3223851"><ele>804.0</ele><time>2026-04-19T14:39:18.726Z</time></trkpt><trkpt lat="44.768588" lon="9.322343"><ele>804.0</ele><time>2026-04-19T14:39:19.726Z</time></trkpt><trkpt lat="44.7684767" lon="9.3223189"><ele>804.0</ele><time>2026-04-19T14:39:20.726Z</time></trkpt><trkpt lat="44.7683881" lon="9.3223037"><ele>803.8000000000001</ele><time>2026-04-19T14:39:21.726Z</time></trkpt><trkpt lat="44.7683228" lon="9.322265"><ele>803.6</ele><time>2026-04-19T14:39:22.725Z</time></trkpt><trkpt lat="44.7682881" lon="9.3221071"><ele>803.4</ele><time>2026-04-19T14:39:24.726Z</time></trkpt><trkpt lat="44.768311" lon="9.3219862"><ele>803.2</ele><time>2026-04-19T14:39:25.726Z</time></trkpt><trkpt lat="44.7683525" lon="9.3218341"><ele>803.0</ele><time>2026-04-19T14:39:26.726Z</time></trkpt><trkpt lat="44.7683833" lon="9.3216537"><ele>803.0</ele><time>2026-04-19T14:39:27.726Z</time></trkpt><trkpt lat="44.7683984" lon="9.3214619"><ele>803.0</ele><time>2026-04-19T14:39:28.726Z</time></trkpt><trkpt lat="44.7683959" lon="9.3212815"><ele>803.0</ele><time>2026-04-19T14:39:29.725Z</time></trkpt><trkpt lat="44.7683973" lon="9.3211046"><ele>803.0</ele><time>2026-04-19T14:39:30.725Z</time></trkpt><trkpt lat="44.7683925" lon="9.3209508"><ele>810.0</ele><time>2026-04-19T14:39:31.726Z</time></trkpt><trkpt lat="44.7683794" lon="9.3207953"><ele>817.0</ele><time>2026-04-19T14:39:32.726Z</time></trkpt><trkpt lat="44.7683488" lon="9.320638"><ele>824.0</ele><time>2026-04-19T14:39:33.726Z</time></trkpt><trkpt lat="44.7682915" lon="9.320485"><ele>831.0</ele><time>2026-04-19T14:39:34.725Z</time></trkpt><trkpt lat="44.7682219" lon="9.3203476"><ele>832.0</ele><time>2026-04-19T14:39:35.726Z</time></trkpt><trkpt lat="44.7681599" lon="9.3202386"><ele>833.0</ele><time>2026-04-19T14:39:36.725Z</time></trkpt><trkpt lat="44.7681015" lon="9.3201502"><ele>834.0</ele><time>2026-04-19T14:39:37.726Z</time></trkpt><trkpt lat="44.7680668" lon="9.3200647"><ele>835.0</ele><time>2026-04-19T14:39:38.725Z</time></trkpt><trkpt lat="44.7680571" lon="9.3199715"><ele>836.0</ele><time>2026-04-19T14:39:39.726Z</time></trkpt><trkpt lat="44.7680838" lon="9.3198703"><ele>837.0</ele><time>2026-04-19T14:39:40.726Z</time></trkpt><trkpt lat="44.76814" lon="9.3197653"><ele>835.0</ele><time>2026-04-19T14:39:41.726Z</time></trkpt><trkpt lat="44.7682033" lon="9.3196683"><ele>833.0</ele><time>2026-04-19T14:39:42.726Z</time></trkpt><trkpt lat="44.7682837" lon="9.3195628"><ele>831.0</ele><time>2026-04-19T14:39:43.725Z</time></trkpt><trkpt lat="44.768362" lon="9.319449"><ele>829.0</ele><time>2026-04-19T14:39:44.726Z</time></trkpt><trkpt lat="44.7684318" lon="9.3193269"><ele>827.0</ele><time>2026-04-19T14:39:45.725Z</time></trkpt><trkpt lat="44.7684708" lon="9.3191796"><ele>827.0</ele><time>2026-04-19T14:39:46.726Z</time></trkpt><trkpt lat="44.7684868" lon="9.3190223"><ele>827.0</ele><time>2026-04-19T14:39:47.726Z</time></trkpt><trkpt lat="44.7684939" lon="9.3188591"><ele>827.0</ele><time>2026-04-19T14:39:48.726Z</time></trkpt><trkpt lat="44.7684905" lon="9.3186975"><ele>827.0</ele><time>2026-04-19T14:39:49.726Z</time></trkpt><trkpt lat="44.768513" lon="9.3185584"><ele>827.0</ele><time>2026-04-19T14:39:50.725Z</time></trkpt><trkpt lat="44.7685594" lon="9.3184211"><ele>840.25</ele><time>2026-04-19T14:39:51.726Z</time></trkpt><trkpt lat="44.768622" lon="9.3182851"><ele>853.5</ele><time>2026-04-19T14:39:52.725Z</time></trkpt><trkpt lat="44.7686844" lon="9.3181482"><ele>866.75</ele><time>2026-04-19T14:39:53.726Z</time></trkpt><trkpt lat="44.7687325" lon="9.3180094"><ele>880.0</ele><time>2026-04-19T14:39:54.725Z</time></trkpt><trkpt lat="44.7687449" lon="9.3178518"><ele>880.0</ele><time>2026-04-19T14:39:55.726Z</time></trkpt><trkpt lat="44.7687386" lon="9.3176876"><ele>880.0</ele><time>2026-04-19T14:39:56.726Z</time></trkpt><trkpt lat="44.7687237" lon="9.3175259"><ele>880.0</ele><time>2026-04-19T14:39:57.726Z</time></trkpt><trkpt lat="44.7687227" lon="9.3173638"><ele>880.0</ele><time>2026-04-19T14:39:58.726Z</time></trkpt><trkpt lat="44.7687133" lon="9.317207"><ele>884.5</ele><time>2026-04-19T14:39:59.726Z</time></trkpt><trkpt lat="44.768692" lon="9.3170502"><ele>889.0</ele><time>2026-04-19T14:40:00.726Z</time></trkpt><trkpt lat="44.7686565" lon="9.3169009"><ele>893.5</ele><time>2026-04-19T14:40:01.725Z</time></trkpt><trkpt lat="44.7685993" lon="9.316753"><ele>898.0</ele><time>2026-04-19T14:40:02.726Z</time></trkpt><trkpt lat="44.7685207" lon="9.3166405"><ele>890.0</ele><time>2026-04-19T14:40:03.726Z</time></trkpt><trkpt lat="44.7684307" lon="9.3165535"><ele>882.0</ele><time>2026-04-19T14:40:04.726Z</time></trkpt><trkpt lat="44.7683435" lon="9.3164601"><ele>874.0</ele><time>2026-04-19T14:40:05.726Z</time></trkpt><trkpt lat="44.7682802" lon="9.3163425"><ele>866.0</ele><time>2026-04-19T14:40:06.726Z</time></trkpt><trkpt lat="44.7682538" lon="9.3162128"><ele>858.0</ele><time>2026-04-19T14:40:07.726Z</time></trkpt><trkpt lat="44.7682527" lon="9.3160863"><ele>858.0</ele><time>2026-04-19T14:40:08.726Z</time></trkpt><trkpt lat="44.7682779" lon="9.3159587"><ele>858.0</ele><time>2026-04-19T14:40:09.725Z</time></trkpt><trkpt lat="44.7683176" lon="9.3158091"><ele>858.0</ele><time>2026-04-19T14:40:10.726Z</time></trkpt><trkpt lat="44.7683455" lon="9.3156378"><ele>858.0</ele><time>2026-04-19T14:40:11.726Z</time></trkpt><trkpt lat="44.7683527" lon="9.3154503"><ele>860.75</ele><time>2026-04-19T14:40:12.726Z</time></trkpt><trkpt lat="44.768343" lon="9.3152594"><ele>863.5</ele><time>2026-04-19T14:40:13.726Z</time></trkpt><trkpt lat="44.7683296" lon="9.3151128"><ele>866.25</ele><time>2026-04-19T14:40:14.725Z</time></trkpt><trkpt lat="44.7683022" lon="9.3149472"><ele>869.0</ele><time>2026-04-19T14:40:15.726Z</time></trkpt><trkpt lat="44.7682501" lon="9.3147917"><ele>873.75</ele><time>2026-04-19T14:40:16.726Z</time></trkpt><trkpt lat="44.7681907" lon="9.3146088"><ele>878.5</ele><time>2026-04-19T14:40:17.726Z</time></trkpt><trkpt lat="44.7681242" lon="9.314426"><ele>883.25</ele><time>2026-04-19T14:40:18.725Z</time></trkpt><trkpt lat="44.7680686" lon="9.3142664"><ele>888.0</ele><time>2026-04-19T14:40:19.726Z</time></trkpt><trkpt lat="44.7680256" lon="9.3141144"><ele>888.0</ele><time>2026-04-19T14:40:20.726Z</time></trkpt><trkpt lat="44.7680012" lon="9.3139514"><ele>888.0</ele><time>2026-04-19T14:40:21.726Z</time></trkpt><trkpt lat="44.7679862" lon="9.3137633"><ele>888.0</ele><time>2026-04-19T14:40:22.726Z</time></trkpt><trkpt lat="44.7679978" lon="9.3135857"><ele>888.0</ele><time>2026-04-19T14:40:23.726Z</time></trkpt><trkpt lat="44.768013" lon="9.3134336"><ele>890.5999999999999</ele><time>2026-04-19T14:40:24.726Z</time></trkpt><trkpt lat="44.7680098" lon="9.3132935"><ele>893.1999999999999</ele><time>2026-04-19T14:40:25.725Z</time></trkpt><trkpt lat="44.7679715" lon="9.3131677"><ele>895.8</ele><time>2026-04-19T14:40:26.726Z</time></trkpt><trkpt lat="44.7679217" lon="9.3130566"><ele>898.4</ele><time>2026-04-19T14:40:27.726Z</time></trkpt><trkpt lat="44.7678436" lon="9.3129512"><ele>901.0</ele><time>2026-04-19T14:40:28.726Z</time></trkpt><trkpt lat="44.7677345" lon="9.312862"><ele>895.5999999999999</ele><time>2026-04-19T14:40:29.726Z</time></trkpt><trkpt lat="44.7676202" lon="9.3127842"><ele>890.1999999999999</ele><time>2026-04-19T14:40:30.725Z</time></trkpt><trkpt lat="44.76752" lon="9.3126999"><ele>884.8000000000001</ele><time>2026-04-19T14:40:31.726Z</time></trkpt><trkpt lat="44.7674424" lon="9.3126114"><ele>879.4000000000001</ele><time>2026-04-19T14:40:32.726Z</time></trkpt><trkpt lat="44.7673868" lon="9.3125166"><ele>874.0</ele><time>2026-04-19T14:40:33.726Z</time></trkpt><trkpt lat="44.7673369" lon="9.3124048"><ele>874.0</ele><time>2026-04-19T14:40:34.725Z</time></trkpt><trkpt lat="44.7673058" lon="9.3122725"><ele>874.0000000000001</ele><time>2026-04-19T14:40:35.726Z</time></trkpt><trkpt lat="44.7672984" lon="9.312134"><ele>874.0000000000001</ele><time>2026-04-19T14:40:36.726Z</time></trkpt><trkpt lat="44.7673174" lon="9.3119945"><ele>874.0</ele><time>2026-04-19T14:40:37.726Z</time></trkpt><trkpt lat="44.7673531" lon="9.3118486"><ele>874.0</ele><time>2026-04-19T14:40:38.726Z</time></trkpt><trkpt lat="44.7673771" lon="9.311704"><ele>876.0</ele><time>2026-04-19T14:40:39.725Z</time></trkpt><trkpt lat="44.7673717" lon="9.3115648"><ele>878.0000000000001</ele><time>2026-04-19T14:40:40.726Z</time></trkpt><trkpt lat="44.7673241" lon="9.3114384"><ele>880.0000000000001</ele><time>2026-04-19T14:40:41.726Z</time></trkpt><trkpt lat="44.7672624" lon="9.3113238"><ele>882.0</ele><time>2026-04-19T14:40:42.726Z</time></trkpt><trkpt lat="44.7672283" lon="9.3112111"><ele>884.0</ele><time>2026-04-19T14:40:43.726Z</time></trkpt><trkpt lat="44.7672207" lon="9.3110984"><ele>884.0</ele><time>2026-04-19T14:40:44.726Z</time></trkpt><trkpt lat="44.7672433" lon="9.3109937"><ele>884.0000000000001</ele><time>2026-04-19T14:40:45.726Z</time></trkpt><trkpt lat="44.7672888" lon="9.3108879"><ele>884.0000000000001</ele><time>2026-04-19T14:40:46.725Z</time></trkpt><trkpt lat="44.7673452" lon="9.3107512"><ele>884.0</ele><time>2026-04-19T14:40:47.726Z</time></trkpt><trkpt lat="44.7673923" lon="9.3105956"><ele>884.0</ele><time>2026-04-19T14:40:48.725Z</time></trkpt><trkpt lat="44.76741" lon="9.310439"><ele>887.25</ele><time>2026-04-19T14:40:49.726Z</time></trkpt><trkpt lat="44.7674101" lon="9.3102837"><ele>890.5</ele><time>2026-04-19T14:40:50.726Z</time></trkpt><trkpt lat="44.7673897" lon="9.3101271"><ele>893.75</ele><time>2026-04-19T14:40:51.725Z</time></trkpt><trkpt lat="44.7673377" lon="9.3099602"><ele>897.0</ele><time>2026-04-19T14:40:52.726Z</time></trkpt><trkpt lat="44.7672567" lon="9.3097896"><ele>899.25</ele><time>2026-04-19T14:40:53.726Z</time></trkpt><trkpt lat="44.7671708" lon="9.3096295"><ele>901.5</ele><time>2026-04-19T14:40:54.726Z</time></trkpt><trkpt lat="44.7670881" lon="9.3094866"><ele>903.75</ele><time>2026-04-19T14:40:55.726Z</time></trkpt><trkpt lat="44.7670182" lon="9.30935"><ele>906.0</ele><time>2026-04-19T14:40:56.726Z</time></trkpt><trkpt lat="44.7669822" lon="9.3092311"><ele>906.0</ele><time>2026-04-19T14:40:57.726Z</time></trkpt><trkpt lat="44.7669841" lon="9.3091116"><ele>905.9999999999999</ele><time>2026-04-19T14:40:58.726Z</time></trkpt><trkpt lat="44.7670268" lon="9.3090026"><ele>905.9999999999999</ele><time>2026-04-19T14:40:59.725Z</time></trkpt><trkpt lat="44.7670795" lon="9.3088906"><ele>906.0</ele><time>2026-04-19T14:41:00.725Z</time></trkpt><trkpt lat="44.7671106" lon="9.3087466"><ele>906.0</ele><time>2026-04-19T14:41:01.726Z</time></trkpt><trkpt lat="44.7671232" lon="9.308576"><ele>906.0</ele><time>2026-04-19T14:41:02.726Z</time></trkpt><trkpt lat="44.7671163" lon="9.3084056"><ele>906.0</ele><time>2026-04-19T14:41:03.725Z</time></trkpt><trkpt lat="44.7670996" lon="9.3082378"><ele>906.0</ele><time>2026-04-19T14:41:04.726Z</time></trkpt><trkpt lat="44.7670836" lon="9.3080818"><ele>906.0</ele><time>2026-04-19T14:41:05.726Z</time></trkpt><trkpt lat="44.7670808" lon="9.3079258"><ele>905.75</ele><time>2026-04-19T14:41:06.725Z</time></trkpt><trkpt lat="44.7670804" lon="9.3077644"><ele>905.5</ele><time>2026-04-19T14:41:07.726Z</time></trkpt><trkpt lat="44.767113" lon="9.3076"><ele>905.25</ele><time>2026-04-19T14:41:08.725Z</time></trkpt><trkpt lat="44.7671693" lon="9.3074354"><ele>905.0</ele><time>2026-04-19T14:41:09.725Z</time></trkpt><trkpt lat="44.7672237" lon="9.3072812"><ele>904.25</ele><time>2026-04-19T14:41:10.725Z</time></trkpt><trkpt lat="44.7672695" lon="9.3071369"><ele>903.5</ele><time>2026-04-19T14:41:11.726Z</time></trkpt><trkpt lat="44.7673062" lon="9.3069745"><ele>902.75</ele><time>2026-04-19T14:41:12.726Z</time></trkpt><trkpt lat="44.7673195" lon="9.3068152"><ele>902.0</ele><time>2026-04-19T14:41:13.726Z</time></trkpt><trkpt lat="44.7673121" lon="9.3066486"><ele>902.0</ele><time>2026-04-19T14:41:14.725Z</time></trkpt><trkpt lat="44.7672893" lon="9.3064804"><ele>902.0</ele><time>2026-04-19T14:41:15.726Z</time></trkpt><trkpt lat="44.7672589" lon="9.3063235"><ele>902.0</ele><time>2026-04-19T14:41:16.726Z</time></trkpt><trkpt lat="44.7672123" lon="9.3061606"><ele>902.0</ele><time>2026-04-19T14:41:17.726Z</time></trkpt><trkpt lat="44.7671657" lon="9.3060018"><ele>901.5</ele><time>2026-04-19T14:41:18.726Z</time></trkpt><trkpt lat="44.7671395" lon="9.3058514"><ele>901.0</ele><time>2026-04-19T14:41:19.725Z</time></trkpt><trkpt lat="44.7671384" lon="9.3056876"><ele>900.5</ele><time>2026-04-19T14:41:20.726Z</time></trkpt><trkpt lat="44.7671474" lon="9.3055114"><ele>900.0</ele><time>2026-04-19T14:41:21.725Z</time></trkpt><trkpt lat="44.767157" lon="9.3053375"><ele>900.0</ele><time>2026-04-19T14:41:22.725Z</time></trkpt><trkpt lat="44.7671708" lon="9.3051616"><ele>900.0</ele><time>2026-04-19T14:41:23.726Z</time></trkpt><trkpt lat="44.7671802" lon="9.3050047"><ele>900.0</ele><time>2026-04-19T14:41:24.725Z</time></trkpt><trkpt lat="44.7672076" lon="9.3048723"><ele>900.0</ele><time>2026-04-19T14:41:25.725Z</time></trkpt><trkpt lat="44.7672479" lon="9.3047495"><ele>900.0</ele><time>2026-04-19T14:41:26.726Z</time></trkpt><trkpt lat="44.7673003" lon="9.3046163"><ele>898.5</ele><time>2026-04-19T14:41:27.726Z</time></trkpt><trkpt lat="44.7673481" lon="9.3044718"><ele>897.0</ele><time>2026-04-19T14:41:28.725Z</time></trkpt><trkpt lat="44.767395" lon="9.3043309"><ele>895.5</ele><time>2026-04-19T14:41:29.726Z</time></trkpt><trkpt lat="44.7674323" lon="9.304187"><ele>894.0</ele><time>2026-04-19T14:41:30.726Z</time></trkpt><trkpt lat="44.7674637" lon="9.3040262"><ele>892.0</ele><time>2026-04-19T14:41:31.726Z</time></trkpt><trkpt lat="44.7674972" lon="9.3038698"><ele>890.0000000000001</ele><time>2026-04-19T14:41:32.726Z</time></trkpt><trkpt lat="44.7675093" lon="9.3037196"><ele>888.0000000000001</ele><time>2026-04-19T14:41:33.726Z</time></trkpt><trkpt lat="44.7675197" lon="9.3035838"><ele>886.0</ele><time>2026-04-19T14:41:34.726Z</time></trkpt><trkpt lat="44.7675481" lon="9.3034444"><ele>884.0</ele><time>2026-04-19T14:41:35.726Z</time></trkpt><trkpt lat="44.7675975" lon="9.3033082"><ele>884.0</ele><time>2026-04-19T14:41:36.726Z</time></trkpt><trkpt lat="44.7676539" lon="9.3031805"><ele>884.0000000000001</ele><time>2026-04-19T14:41:37.726Z</time></trkpt><trkpt lat="44.7677188" lon="9.3030766"><ele>884.0000000000001</ele><time>2026-04-19T14:41:38.726Z</time></trkpt><trkpt lat="44.7677848" lon="9.3029778"><ele>884.0</ele><time>2026-04-19T14:41:39.726Z</time></trkpt><trkpt lat="44.7678566" lon="9.3028774"><ele>884.0</ele><time>2026-04-19T14:41:40.725Z</time></trkpt><trkpt lat="44.7679362" lon="9.3028082"><ele>891.0</ele><time>2026-04-19T14:41:41.725Z</time></trkpt><trkpt lat="44.7680099" lon="9.302737"><ele>898.0000000000001</ele><time>2026-04-19T14:41:42.726Z</time></trkpt><trkpt lat="44.7680631" lon="9.3026573"><ele>905.0000000000001</ele><time>2026-04-19T14:41:43.726Z</time></trkpt><trkpt lat="44.7681008" lon="9.3025005"><ele>912.0</ele><time>2026-04-19T14:41:45.726Z</time></trkpt><trkpt lat="44.768056" lon="9.3024065"><ele>919.0</ele><time>2026-04-19T14:41:46.726Z</time></trkpt><trkpt lat="44.7679795" lon="9.3023171"><ele>920.75</ele><time>2026-04-19T14:41:47.726Z</time></trkpt><trkpt lat="44.7678614" lon="9.3022272"><ele>922.5</ele><time>2026-04-19T14:41:48.726Z</time></trkpt><trkpt lat="44.7677353" lon="9.302162"><ele>924.25</ele><time>2026-04-19T14:41:49.726Z</time></trkpt><trkpt lat="44.7676153" lon="9.3020997"><ele>926.0</ele><time>2026-04-19T14:41:50.725Z</time></trkpt><trkpt lat="44.7675236" lon="9.3020544"><ele>921.3333333333334</ele><time>2026-04-19T14:41:51.726Z</time></trkpt><trkpt lat="44.7674573" lon="9.302019"><ele>916.6666666666667</ele><time>2026-04-19T14:41:52.726Z</time></trkpt><trkpt lat="44.7674043" lon="9.3019635"><ele>912.0</ele><time>2026-04-19T14:41:53.725Z</time></trkpt><trkpt lat="44.7673609" lon="9.3018818"><ele>907.3333333333333</ele><time>2026-04-19T14:41:54.726Z</time></trkpt><trkpt lat="44.7673251" lon="9.3017815"><ele>902.6666666666666</ele><time>2026-04-19T14:41:55.726Z</time></trkpt><trkpt lat="44.7673016" lon="9.3016509"><ele>898.0</ele><time>2026-04-19T14:41:56.726Z</time></trkpt><trkpt lat="44.7672939" lon="9.3014974"><ele>899.25</ele><time>2026-04-19T14:41:57.726Z</time></trkpt><trkpt lat="44.7673029" lon="9.3013361"><ele>900.5</ele><time>2026-04-19T14:41:58.725Z</time></trkpt><trkpt lat="44.7673409" lon="9.3011698"><ele>901.75</ele><time>2026-04-19T14:41:59.726Z</time></trkpt><trkpt lat="44.7673894" lon="9.3010203"><ele>903.0</ele><time>2026-04-19T14:42:00.726Z</time></trkpt><trkpt lat="44.7674463" lon="9.3008842"><ele>903.0</ele><time>2026-04-19T14:42:01.726Z</time></trkpt><trkpt lat="44.7674817" lon="9.3007523"><ele>903.0</ele><time>2026-04-19T14:42:02.725Z</time></trkpt><trkpt lat="44.7674959" lon="9.3006268"><ele>903.0</ele><time>2026-04-19T14:42:03.726Z</time></trkpt><trkpt lat="44.7674858" lon="9.3004973"><ele>903.0</ele><time>2026-04-19T14:42:04.726Z</time></trkpt><trkpt lat="44.7674505" lon="9.3003585"><ele>903.0</ele><time>2026-04-19T14:42:05.726Z</time></trkpt><trkpt lat="44.7673972" lon="9.3002087"><ele>903.0</ele><time>2026-04-19T14:42:06.726Z</time></trkpt><trkpt lat="44.7673471" lon="9.3000525"><ele>903.0</ele><time>2026-04-19T14:42:07.726Z</time></trkpt><trkpt lat="44.7673117" lon="9.2999065"><ele>903.0</ele><time>2026-04-19T14:42:08.726Z</time></trkpt><trkpt lat="44.7672951" lon="9.2997675"><ele>903.0</ele><time>2026-04-19T14:42:09.726Z</time></trkpt><trkpt lat="44.7672994" lon="9.2996285"><ele>903.0</ele><time>2026-04-19T14:42:10.726Z</time></trkpt><trkpt lat="44.7673229" lon="9.2994781"><ele>903.75</ele><time>2026-04-19T14:42:11.726Z</time></trkpt><trkpt lat="44.7673654" lon="9.2993308"><ele>904.5</ele><time>2026-04-19T14:42:12.725Z</time></trkpt><trkpt lat="44.7674215" lon="9.2991791"><ele>905.25</ele><time>2026-04-19T14:42:13.726Z</time></trkpt><trkpt lat="44.767482" lon="9.2990274"><ele>906.0</ele><time>2026-04-19T14:42:14.726Z</time></trkpt><trkpt lat="44.767538" lon="9.2988738"><ele>907.0</ele><time>2026-04-19T14:42:15.726Z</time></trkpt><trkpt lat="44.7675806" lon="9.2987339"><ele>908.0</ele><time>2026-04-19T14:42:16.726Z</time></trkpt><trkpt lat="44.7676009" lon="9.2985794"><ele>909.0</ele><time>2026-04-19T14:42:17.726Z</time></trkpt><trkpt lat="44.7675981" lon="9.2984199"><ele>910.0</ele><time>2026-04-19T14:42:18.726Z</time></trkpt><trkpt lat="44.7675833" lon="9.2982438"><ele>912.0</ele><time>2026-04-19T14:42:19.726Z</time></trkpt><trkpt lat="44.7675672" lon="9.2980639"><ele>914.0</ele><time>2026-04-19T14:42:20.725Z</time></trkpt><trkpt lat="44.7675573" lon="9.2978777"><ele>916.0</ele><time>2026-04-19T14:42:21.726Z</time></trkpt><trkpt lat="44.7675585" lon="9.2976959"><ele>918.0</ele><time>2026-04-19T14:42:22.726Z</time></trkpt><trkpt lat="44.767574" lon="9.2975382"><ele>918.0</ele><time>2026-04-19T14:42:23.726Z</time></trkpt><trkpt lat="44.767601" lon="9.2974007"><ele>918.0</ele><time>2026-04-19T14:42:24.726Z</time></trkpt><trkpt lat="44.7676087" lon="9.2972898"><ele>918.0</ele><time>2026-04-19T14:42:25.726Z</time></trkpt><trkpt lat="44.7675605" lon="9.2971288"><ele>918.0</ele><time>2026-04-19T14:42:27.726Z</time></trkpt><trkpt lat="44.7674879" lon="9.2970676"><ele>918.0</ele><time>2026-04-19T14:42:28.725Z</time></trkpt><trkpt lat="44.7673912" lon="9.2970346"><ele>923.0</ele><time>2026-04-19T14:42:29.726Z</time></trkpt><trkpt lat="44.7672799" lon="9.2970096"><ele>928.0</ele><time>2026-04-19T14:42:30.726Z</time></trkpt><trkpt lat="44.7671711" lon="9.2969914"><ele>933.0</ele><time>2026-04-19T14:42:31.726Z</time></trkpt><trkpt lat="44.7670524" lon="9.2969743"><ele>938.0</ele><time>2026-04-19T14:42:32.726Z</time></trkpt><trkpt lat="44.7669341" lon="9.2969731"><ele>937.0</ele><time>2026-04-19T14:42:33.726Z</time></trkpt><trkpt lat="44.7668109" lon="9.2970009"><ele>936.0</ele><time>2026-04-19T14:42:34.726Z</time></trkpt><trkpt lat="44.7666994" lon="9.2970294"><ele>935.0</ele><time>2026-04-19T14:42:35.726Z</time></trkpt><trkpt lat="44.7666007" lon="9.297055"><ele>934.0</ele><time>2026-04-19T14:42:36.726Z</time></trkpt><trkpt lat="44.7665051" lon="9.297066"><ele>933.0</ele><time>2026-04-19T14:42:37.726Z</time></trkpt><trkpt lat="44.7664158" lon="9.2970574"><ele>933.0</ele><time>2026-04-19T14:42:38.726Z</time></trkpt><trkpt lat="44.7663468" lon="9.2970307"><ele>933.0</ele><time>2026-04-19T14:42:39.725Z</time></trkpt><trkpt lat="44.7662738" lon="9.2968994"><ele>933.0</ele><time>2026-04-19T14:42:41.726Z</time></trkpt><trkpt lat="44.7662494" lon="9.296809"><ele>933.0</ele><time>2026-04-19T14:42:42.726Z</time></trkpt><trkpt lat="44.766236" lon="9.2967137"><ele>933.0</ele><time>2026-04-19T14:42:43.726Z</time></trkpt><trkpt lat="44.766223" lon="9.2966225"><ele>933.0</ele><time>2026-04-19T14:42:44.725Z</time></trkpt><trkpt lat="44.7662296" lon="9.296521"><ele>935.0</ele><time>2026-04-19T14:42:45.726Z</time></trkpt><trkpt lat="44.7662611" lon="9.2963973"><ele>937.0</ele><time>2026-04-19T14:42:46.725Z</time></trkpt><trkpt lat="44.7663108" lon="9.2962723"><ele>939.0</ele><time>2026-04-19T14:42:47.726Z</time></trkpt><trkpt lat="44.7663502" lon="9.296139"><ele>941.0</ele><time>2026-04-19T14:42:48.725Z</time></trkpt><trkpt lat="44.7663674" lon="9.2959958"><ele>943.0</ele><time>2026-04-19T14:42:49.726Z</time></trkpt><trkpt lat="44.7663523" lon="9.2958589"><ele>943.0</ele><time>2026-04-19T14:42:50.726Z</time></trkpt><trkpt lat="44.7663133" lon="9.2957254"><ele>943.0</ele><time>2026-04-19T14:42:51.726Z</time></trkpt><trkpt lat="44.7662654" lon="9.2955967"><ele>943.0</ele><time>2026-04-19T14:42:52.726Z</time></trkpt><trkpt lat="44.7662176" lon="9.2954732"><ele>943.0</ele><time>2026-04-19T14:42:53.726Z</time></trkpt><trkpt lat="44.7661781" lon="9.2953785"><ele>943.0</ele><time>2026-04-19T14:42:54.726Z</time></trkpt><trkpt lat="44.7660741" lon="9.2953084"><ele>945.2</ele><time>2026-04-19T14:42:56.726Z</time></trkpt><trkpt lat="44.7660032" lon="9.295335"><ele>947.4</ele><time>2026-04-19T14:42:57.726Z</time></trkpt><trkpt lat="44.7659112" lon="9.2953788"><ele>949.6000000000001</ele><time>2026-04-19T14:42:58.725Z</time></trkpt><trkpt lat="44.7658031" lon="9.2954263"><ele>951.8000000000001</ele><time>2026-04-19T14:42:59.726Z</time></trkpt><trkpt lat="44.7656883" lon="9.2954709"><ele>954.0</ele><time>2026-04-19T14:43:00.725Z</time></trkpt><trkpt lat="44.7655712" lon="9.2955039"><ele>954.0</ele><time>2026-04-19T14:43:01.726Z</time></trkpt><trkpt lat="44.7654626" lon="9.2955368"><ele>954.0000000000001</ele><time>2026-04-19T14:43:02.726Z</time></trkpt><trkpt lat="44.7653627" lon="9.2955329"><ele>954.0000000000001</ele><time>2026-04-19T14:43:03.726Z</time></trkpt><trkpt lat="44.7652708" lon="9.2954963"><ele>954.0</ele><time>2026-04-19T14:43:04.726Z</time></trkpt><trkpt lat="44.7651851" lon="9.2954314"><ele>954.0</ele><time>2026-04-19T14:43:05.726Z</time></trkpt><trkpt lat="44.7651169" lon="9.2953398"><ele>952.0</ele><time>2026-04-19T14:43:06.725Z</time></trkpt><trkpt lat="44.7650774" lon="9.2952211"><ele>950.0000000000001</ele><time>2026-04-19T14:43:07.726Z</time></trkpt><trkpt lat="44.7650715" lon="9.2950732"><ele>948.0000000000001</ele><time>2026-04-19T14:43:08.726Z</time></trkpt><trkpt lat="44.7650778" lon="9.2949172"><ele>946.0</ele><time>2026-04-19T14:43:09.726Z</time></trkpt><trkpt lat="44.7650647" lon="9.2947579"><ele>944.0</ele><time>2026-04-19T14:43:10.726Z</time></trkpt><trkpt lat="44.7650225" lon="9.2946348"><ele>948.0</ele><time>2026-04-19T14:43:11.726Z</time></trkpt><trkpt lat="44.7649467" lon="9.2945576"><ele>952.0000000000001</ele><time>2026-04-19T14:43:12.726Z</time></trkpt><trkpt lat="44.76486" lon="9.2945071"><ele>956.0000000000001</ele><time>2026-04-19T14:43:13.726Z</time></trkpt><trkpt lat="44.7647643" lon="9.2944634"><ele>960.0</ele><time>2026-04-19T14:43:14.725Z</time></trkpt><trkpt lat="44.7646668" lon="9.2944039"><ele>964.0</ele><time>2026-04-19T14:43:15.725Z</time></trkpt><trkpt lat="44.7645683" lon="9.294333"><ele>964.0</ele><time>2026-04-19T14:43:16.726Z</time></trkpt><trkpt lat="44.7644603" lon="9.2942653"><ele>964.0000000000001</ele><time>2026-04-19T14:43:17.726Z</time></trkpt><trkpt lat="44.7643435" lon="9.2942077"><ele>964.0000000000001</ele><time>2026-04-19T14:43:18.725Z</time></trkpt><trkpt lat="44.7642518" lon="9.2941537"><ele>964.0</ele><time>2026-04-19T14:43:19.726Z</time></trkpt><trkpt lat="44.7641866" lon="9.2940834"><ele>964.0</ele><time>2026-04-19T14:43:20.726Z</time></trkpt><trkpt lat="44.7641573" lon="9.2939765"><ele>965.8000000000001</ele><time>2026-04-19T14:43:21.726Z</time></trkpt><trkpt lat="44.7641484" lon="9.2938466"><ele>967.6000000000001</ele><time>2026-04-19T14:43:22.725Z</time></trkpt><trkpt lat="44.7641413" lon="9.2937046"><ele>969.4</ele><time>2026-04-19T14:43:23.726Z</time></trkpt><trkpt lat="44.7641346" lon="9.2935644"><ele>971.2</ele><time>2026-04-19T14:43:24.726Z</time></trkpt><trkpt lat="44.7641289" lon="9.293446"><ele>973.0</ele><time>2026-04-19T14:43:25.726Z</time></trkpt><trkpt lat="44.7641134" lon="9.2933437"><ele>973.0</ele><time>2026-04-19T14:43:26.726Z</time></trkpt><trkpt lat="44.764089" lon="9.2932614"><ele>973.0</ele><time>2026-04-19T14:43:27.726Z</time></trkpt><trkpt lat="44.7639713" lon="9.2932038"><ele>973.0</ele><time>2026-04-19T14:43:29.725Z</time></trkpt><trkpt lat="44.7638897" lon="9.2932608"><ele>973.0</ele><time>2026-04-19T14:43:30.726Z</time></trkpt><trkpt lat="44.7638015" lon="9.2933643"><ele>973.0</ele><time>2026-04-19T14:43:31.726Z</time></trkpt><trkpt lat="44.7637106" lon="9.2934086"><ele>972.9999999999999</ele><time>2026-04-19T14:43:32.726Z</time></trkpt><trkpt lat="44.7636256" lon="9.2933813"><ele>973.0</ele><time>2026-04-19T14:43:33.726Z</time></trkpt><trkpt lat="44.7635433" lon="9.2933221"><ele>973.0</ele><time>2026-04-19T14:43:34.726Z</time></trkpt><trkpt lat="44.7634527" lon="9.2932658"><ele>973.0</ele><time>2026-04-19T14:43:35.725Z</time></trkpt><trkpt lat="44.7633688" lon="9.2932447"><ele>972.9999999999999</ele><time>2026-04-19T14:43:36.725Z</time></trkpt><trkpt lat="44.7632981" lon="9.2932917"><ele>973.0</ele><time>2026-04-19T14:43:37.726Z</time></trkpt><trkpt lat="44.763243" lon="9.2933833"><ele>974.2</ele><time>2026-04-19T14:43:38.725Z</time></trkpt><trkpt lat="44.763208" lon="9.2935309"><ele>975.4</ele><time>2026-04-19T14:43:39.726Z</time></trkpt><trkpt lat="44.7631914" lon="9.2936898"><ele>976.6000000000001</ele><time>2026-04-19T14:43:40.726Z</time></trkpt><trkpt lat="44.7631641" lon="9.2938452"><ele>977.8000000000001</ele><time>2026-04-19T14:43:41.726Z</time></trkpt><trkpt lat="44.7631133" lon="9.2939358"><ele>979.0</ele><time>2026-04-19T14:43:42.726Z</time></trkpt><trkpt lat="44.7630296" lon="9.2939594"><ele>979.0</ele><time>2026-04-19T14:43:43.726Z</time></trkpt><trkpt lat="44.7629275" lon="9.2939234"><ele>979.0</ele><time>2026-04-19T14:43:44.726Z</time></trkpt><trkpt lat="44.7628262" lon="9.2938498"><ele>979.0</ele><time>2026-04-19T14:43:45.726Z</time></trkpt><trkpt lat="44.7627151" lon="9.2937542"><ele>979.0</ele><time>2026-04-19T14:43:46.726Z</time></trkpt><trkpt lat="44.7626059" lon="9.2936609"><ele>980.75</ele><time>2026-04-19T14:43:47.726Z</time></trkpt><trkpt lat="44.762493" lon="9.2935884"><ele>982.5</ele><time>2026-04-19T14:43:48.725Z</time></trkpt><trkpt lat="44.762392" lon="9.2935135"><ele>984.25</ele><time>2026-04-19T14:43:49.726Z</time></trkpt><trkpt lat="44.7622959" lon="9.2934058"><ele>986.0</ele><time>2026-04-19T14:43:50.725Z</time></trkpt><trkpt lat="44.7622091" lon="9.2932997"><ele>986.0</ele><time>2026-04-19T14:43:51.726Z</time></trkpt><trkpt lat="44.7621297" lon="9.2932105"><ele>985.9999999999999</ele><time>2026-04-19T14:43:52.725Z</time></trkpt><trkpt lat="44.7620442" lon="9.2931377"><ele>985.9999999999999</ele><time>2026-04-19T14:43:53.726Z</time></trkpt><trkpt lat="44.7619511" lon="9.2930803"><ele>986.0</ele><time>2026-04-19T14:43:54.726Z</time></trkpt><trkpt lat="44.7618488" lon="9.2930482"><ele>986.0</ele><time>2026-04-19T14:43:55.726Z</time></trkpt><trkpt lat="44.761741" lon="9.2930535"><ele>985.8</ele><time>2026-04-19T14:43:56.726Z</time></trkpt><trkpt lat="44.761623" lon="9.2931029"><ele>985.5999999999999</ele><time>2026-04-19T14:43:57.726Z</time></trkpt><trkpt lat="44.7615109" lon="9.2931704"><ele>985.4</ele><time>2026-04-19T14:43:58.726Z</time></trkpt><trkpt lat="44.7614095" lon="9.2932093"><ele>985.2</ele><time>2026-04-19T14:43:59.726Z</time></trkpt><trkpt lat="44.7613141" lon="9.2932143"><ele>985.0</ele><time>2026-04-19T14:44:00.726Z</time></trkpt><trkpt lat="44.7612193" lon="9.2931717"><ele>984.9999999999999</ele><time>2026-04-19T14:44:01.726Z</time></trkpt><trkpt lat="44.7611317" lon="9.2931073"><ele>985.0</ele><time>2026-04-19T14:44:02.726Z</time></trkpt><trkpt lat="44.7610475" lon="9.2930496"><ele>985.0</ele><time>2026-04-19T14:44:03.726Z</time></trkpt><trkpt lat="44.7609585" lon="9.2930251"><ele>985.0</ele><time>2026-04-19T14:44:04.726Z</time></trkpt><trkpt lat="44.7608803" lon="9.2930387"><ele>984.9999999999999</ele><time>2026-04-19T14:44:05.726Z</time></trkpt><trkpt lat="44.7608082" lon="9.2930894"><ele>985.0</ele><time>2026-04-19T14:44:06.726Z</time></trkpt><trkpt lat="44.7607457" lon="9.2931847"><ele>987.2</ele><time>2026-04-19T14:44:07.726Z</time></trkpt><trkpt lat="44.7606982" lon="9.293323"><ele>989.4</ele><time>2026-04-19T14:44:08.726Z</time></trkpt><trkpt lat="44.7606469" lon="9.2934595"><ele>991.5999999999999</ele><time>2026-04-19T14:44:09.726Z</time></trkpt><trkpt lat="44.7605844" lon="9.2935625"><ele>993.8</ele><time>2026-04-19T14:44:10.726Z</time></trkpt><trkpt lat="44.7605154" lon="9.2936211"><ele>996.0</ele><time>2026-04-19T14:44:11.726Z</time></trkpt><trkpt lat="44.7604315" lon="9.2936231"><ele>996.0</ele><time>2026-04-19T14:44:12.726Z</time></trkpt><trkpt lat="44.7603489" lon="9.2935709"><ele>995.9999999999999</ele><time>2026-04-19T14:44:13.726Z</time></trkpt><trkpt lat="44.7602636" lon="9.2935208"><ele>995.9999999999999</ele><time>2026-04-19T14:44:14.726Z</time></trkpt><trkpt lat="44.7601817" lon="9.293506"><ele>996.0</ele><time>2026-04-19T14:44:15.725Z</time></trkpt><trkpt lat="44.7600986" lon="9.2935324"><ele>996.0</ele><time>2026-04-19T14:44:16.726Z</time></trkpt><trkpt lat="44.7600097" lon="9.2936107"><ele>998.75</ele><time>2026-04-19T14:44:17.726Z</time></trkpt><trkpt lat="44.7599182" lon="9.2937218"><ele>1001.5</ele><time>2026-04-19T14:44:18.726Z</time></trkpt><trkpt lat="44.7598321" lon="9.2938545"><ele>1004.25</ele><time>2026-04-19T14:44:19.725Z</time></trkpt><trkpt lat="44.7597562" lon="9.2939759"><ele>1007.0</ele><time>2026-04-19T14:44:20.726Z</time></trkpt><trkpt lat="44.7596886" lon="9.2940924"><ele>1007.0</ele><time>2026-04-19T14:44:21.726Z</time></trkpt><trkpt lat="44.7596282" lon="9.2941978"><ele>1007.0</ele><time>2026-04-19T14:44:22.726Z</time></trkpt><trkpt lat="44.7595591" lon="9.294271"><ele>1007.0</ele><time>2026-04-19T14:44:23.726Z</time></trkpt><trkpt lat="44.7594875" lon="9.2943218"><ele>1007.0</ele><time>2026-04-19T14:44:24.726Z</time></trkpt><trkpt lat="44.759396" lon="9.2943667"><ele>1007.0</ele><time>2026-04-19T14:44:25.725Z</time></trkpt><trkpt lat="44.7592929" lon="9.294409"><ele>1011.8</ele><time>2026-04-19T14:44:26.726Z</time></trkpt><trkpt lat="44.7591888" lon="9.2944629"><ele>1016.6</ele><time>2026-04-19T14:44:27.726Z</time></trkpt><trkpt lat="44.7591008" lon="9.2945218"><ele>1021.3999999999999</ele><time>2026-04-19T14:44:28.726Z</time></trkpt><trkpt lat="44.7590177" lon="9.2945446"><ele>1026.2</ele><time>2026-04-19T14:44:29.726Z</time></trkpt><trkpt lat="44.7589164" lon="9.2945324"><ele>1031.0</ele><time>2026-04-19T14:44:30.726Z</time></trkpt><trkpt lat="44.7588076" lon="9.2945063"><ele>1031.0</ele><time>2026-04-19T14:44:31.726Z</time></trkpt><trkpt lat="44.758695" lon="9.2945003"><ele>1031.0</ele><time>2026-04-19T14:44:32.726Z</time></trkpt><trkpt lat="44.7585769" lon="9.2945466"><ele>1031.0</ele><time>2026-04-19T14:44:33.725Z</time></trkpt><trkpt lat="44.7584625" lon="9.2946225"><ele>1031.0</ele><time>2026-04-19T14:44:34.726Z</time></trkpt><trkpt lat="44.75836" lon="9.2947125"><ele>1030.2</ele><time>2026-04-19T14:44:35.725Z</time></trkpt><trkpt lat="44.7582644" lon="9.294789"><ele>1029.3999999999999</ele><time>2026-04-19T14:44:36.726Z</time></trkpt><trkpt lat="44.7581913" lon="9.2948145"><ele>1028.6</ele><time>2026-04-19T14:44:37.725Z</time></trkpt><trkpt lat="44.7581065" lon="9.2947402"><ele>1027.8</ele><time>2026-04-19T14:44:39.726Z</time></trkpt><trkpt lat="44.7581484" lon="9.2946135"><ele>1027.0</ele><time>2026-04-19T14:44:41.726Z</time></trkpt><trkpt lat="44.7582132" lon="9.294514"><ele>1030.4</ele><time>2026-04-19T14:44:42.726Z</time></trkpt><trkpt lat="44.7582769" lon="9.2944077"><ele>1033.8000000000002</ele><time>2026-04-19T14:44:43.726Z</time></trkpt><trkpt lat="44.7583525" lon="9.2942954"><ele>1037.2</ele><time>2026-04-19T14:44:44.725Z</time></trkpt><trkpt lat="44.7584209" lon="9.2941677"><ele>1040.6000000000001</ele><time>2026-04-19T14:44:45.726Z</time></trkpt><trkpt lat="44.7584913" lon="9.2940258"><ele>1044.0</ele><time>2026-04-19T14:44:46.726Z</time></trkpt><trkpt lat="44.7585579" lon="9.2938867"><ele>1044.2</ele><time>2026-04-19T14:44:47.726Z</time></trkpt><trkpt lat="44.7586356" lon="9.2937648"><ele>1044.4</ele><time>2026-04-19T14:44:48.726Z</time></trkpt><trkpt lat="44.7587099" lon="9.2936736"><ele>1044.6</ele><time>2026-04-19T14:44:49.726Z</time></trkpt><trkpt lat="44.7587911" lon="9.2936104"><ele>1044.8</ele><time>2026-04-19T14:44:50.726Z</time></trkpt><trkpt lat="44.7588678" lon="9.2935658"><ele>1045.0</ele><time>2026-04-19T14:44:51.726Z</time></trkpt><trkpt lat="44.758941" lon="9.2935238"><ele>1045.0</ele><time>2026-04-19T14:44:52.726Z</time></trkpt><trkpt lat="44.7589959" lon="9.2934699"><ele>1045.0</ele><time>2026-04-19T14:44:53.726Z</time></trkpt><trkpt lat="44.7590265" lon="9.2933235"><ele>1045.0</ele><time>2026-04-19T14:44:55.725Z</time></trkpt><trkpt lat="44.7589871" lon="9.2931533"><ele>1045.0</ele><time>2026-04-19T14:44:57.726Z</time></trkpt><trkpt lat="44.7589551" lon="9.2930435"><ele>1045.0</ele><time>2026-04-19T14:44:58.726Z</time></trkpt><trkpt lat="44.7589079" lon="9.2929109"><ele>1045.5</ele><time>2026-04-19T14:44:59.726Z</time></trkpt><trkpt lat="44.7588525" lon="9.2927543"><ele>1046.0</ele><time>2026-04-19T14:45:00.726Z</time></trkpt><trkpt lat="44.7588148" lon="9.2925908"><ele>1046.5</ele><time>2026-04-19T14:45:01.726Z</time></trkpt><trkpt lat="44.7587933" lon="9.2924369"><ele>1047.0</ele><time>2026-04-19T14:45:02.726Z</time></trkpt><trkpt lat="44.7587828" lon="9.292288"><ele>1047.5</ele><time>2026-04-19T14:45:03.726Z</time></trkpt><trkpt lat="44.7587823" lon="9.2921504"><ele>1048.0</ele><time>2026-04-19T14:45:04.726Z</time></trkpt><trkpt lat="44.7587949" lon="9.29205"><ele>1048.5</ele><time>2026-04-19T14:45:05.726Z</time></trkpt><trkpt lat="44.7587911" lon="9.2919579"><ele>1049.0</ele><time>2026-04-19T14:45:06.725Z</time></trkpt><trkpt lat="44.7587517" lon="9.2918553"><ele>1049.5</ele><time>2026-04-19T14:45:08.726Z</time></trkpt><trkpt lat="44.7586767" lon="9.2919317"><ele>1050.0</ele><time>2026-04-19T14:45:10.726Z</time></trkpt><trkpt lat="44.7586316" lon="9.2920423"><ele>1050.0</ele><time>2026-04-19T14:45:11.726Z</time></trkpt><trkpt lat="44.7586009" lon="9.2921404"><ele>1050.0</ele><time>2026-04-19T14:45:12.725Z</time></trkpt><trkpt lat="44.75858" lon="9.2922525"><ele>1050.0</ele><time>2026-04-19T14:45:13.726Z</time></trkpt><trkpt lat="44.7585618" lon="9.2923731"><ele>1050.0</ele><time>2026-04-19T14:45:14.726Z</time></trkpt><trkpt lat="44.7585481" lon="9.2925056"><ele>1050.0</ele><time>2026-04-19T14:45:15.726Z</time></trkpt><trkpt lat="44.7585363" lon="9.2926369"><ele>1050.0</ele><time>2026-04-19T14:45:16.726Z</time></trkpt><trkpt lat="44.7585248" lon="9.2927612"><ele>1055.8</ele><time>2026-04-19T14:45:17.726Z</time></trkpt><trkpt lat="44.7585138" lon="9.2928698"><ele>1061.6</ele><time>2026-04-19T14:45:18.726Z</time></trkpt><trkpt lat="44.7584419" lon="9.2929814"><ele>1067.4</ele><time>2026-04-19T14:45:20.726Z</time></trkpt><trkpt lat="44.7583057" lon="9.2928966"><ele>1073.2</ele><time>2026-04-19T14:45:22.725Z</time></trkpt><trkpt lat="44.7582179" lon="9.2928021"><ele>1079.0</ele><time>2026-04-19T14:45:23.726Z</time></trkpt><trkpt lat="44.758133" lon="9.2927116"><ele>1079.0</ele><time>2026-04-19T14:45:24.726Z</time></trkpt><trkpt lat="44.7580531" lon="9.2926212"><ele>1079.0</ele><time>2026-04-19T14:45:25.726Z</time></trkpt><trkpt lat="44.7579752" lon="9.2925322"><ele>1079.0</ele><time>2026-04-19T14:45:26.725Z</time></trkpt><trkpt lat="44.7578954" lon="9.2924532"><ele>1079.0</ele><time>2026-04-19T14:45:27.726Z</time></trkpt><trkpt lat="44.7578062" lon="9.292374"><ele>1079.0</ele><time>2026-04-19T14:45:28.725Z</time></trkpt><trkpt lat="44.7577039" lon="9.2923109"><ele>1080.75</ele><time>2026-04-19T14:45:29.726Z</time></trkpt><trkpt lat="44.7575939" lon="9.2922579"><ele>1082.5</ele><time>2026-04-19T14:45:30.726Z</time></trkpt><trkpt lat="44.7574877" lon="9.2921907"><ele>1084.25</ele><time>2026-04-19T14:45:31.725Z</time></trkpt><trkpt lat="44.7573805" lon="9.2921297"><ele>1086.0</ele><time>2026-04-19T14:45:32.726Z</time></trkpt><trkpt lat="44.7572735" lon="9.2920633"><ele>1089.6</ele><time>2026-04-19T14:45:33.726Z</time></trkpt><trkpt lat="44.7571626" lon="9.2920023"><ele>1093.1999999999998</ele><time>2026-04-19T14:45:34.725Z</time></trkpt><trkpt lat="44.7570529" lon="9.2919415"><ele>1096.8000000000002</ele><time>2026-04-19T14:45:35.726Z</time></trkpt><trkpt lat="44.7569502" lon="9.2918881"><ele>1100.4</ele><time>2026-04-19T14:45:36.726Z</time></trkpt><trkpt lat="44.756858" lon="9.2918569"><ele>1104.0</ele><time>2026-04-19T14:45:37.726Z</time></trkpt><trkpt lat="44.7567747" lon="9.2918544"><ele>1105.1666666666667</ele><time>2026-04-19T14:45:38.726Z</time></trkpt><trkpt lat="44.7567093" lon="9.2918925"><ele>1106.3333333333333</ele><time>2026-04-19T14:45:39.726Z</time></trkpt><trkpt lat="44.7566581" lon="9.2919582"><ele>1107.5</ele><time>2026-04-19T14:45:40.726Z</time></trkpt><trkpt lat="44.7566167" lon="9.2920666"><ele>1108.6666666666665</ele><time>2026-04-19T14:45:41.726Z</time></trkpt><trkpt lat="44.7565759" lon="9.2921952"><ele>1109.8333333333333</ele><time>2026-04-19T14:45:42.726Z</time></trkpt><trkpt lat="44.75652" lon="9.2923164"><ele>1111.0</ele><time>2026-04-19T14:45:43.725Z</time></trkpt><trkpt lat="44.7564523" lon="9.2924436"><ele>1108.0</ele><time>2026-04-19T14:45:44.726Z</time></trkpt><trkpt lat="44.7563863" lon="9.2925697"><ele>1105.0</ele><time>2026-04-19T14:45:45.726Z</time></trkpt><trkpt lat="44.7563399" lon="9.292699"><ele>1102.0</ele><time>2026-04-19T14:45:46.726Z</time></trkpt><trkpt lat="44.756317" lon="9.2928536"><ele>1099.0</ele><time>2026-04-19T14:45:47.726Z</time></trkpt><trkpt lat="44.7563101" lon="9.2930102"><ele>1096.0</ele><time>2026-04-19T14:45:48.726Z</time></trkpt><trkpt lat="44.75631" lon="9.29316"><ele>1094.5</ele><time>2026-04-19T14:45:49.725Z</time></trkpt><trkpt lat="44.7563094" lon="9.2932991"><ele>1093.0</ele><time>2026-04-19T14:45:50.726Z</time></trkpt><trkpt lat="44.7563028" lon="9.293412"><ele>1091.5</ele><time>2026-04-19T14:45:51.726Z</time></trkpt><trkpt lat="44.7562825" lon="9.2934991"><ele>1090.0</ele><time>2026-04-19T14:45:52.726Z</time></trkpt><trkpt lat="44.7562041" lon="9.293592"><ele>1088.5</ele><time>2026-04-19T14:45:54.726Z</time></trkpt><trkpt lat="44.7561329" lon="9.2936104"><ele>1087.0</ele><time>2026-04-19T14:45:55.726Z</time></trkpt><trkpt lat="44.7560354" lon="9.2936151"><ele>1095.0</ele><time>2026-04-19T14:45:56.726Z</time></trkpt><trkpt lat="44.7559221" lon="9.2936193"><ele>1103.0</ele><time>2026-04-19T14:45:57.725Z</time></trkpt><trkpt lat="44.755812" lon="9.2936257"><ele>1111.0</ele><time>2026-04-19T14:45:58.726Z</time></trkpt><trkpt lat="44.7556946" lon="9.2936441"><ele>1119.0</ele><time>2026-04-19T14:45:59.726Z</time></trkpt><trkpt lat="44.7555835" lon="9.2936791"><ele>1119.0</ele><time>2026-04-19T14:46:00.726Z</time></trkpt><trkpt lat="44.7554693" lon="9.2937405"><ele>1119.0</ele><time>2026-04-19T14:46:01.726Z</time></trkpt><trkpt lat="44.7553508" lon="9.2937847"><ele>1119.0</ele><time>2026-04-19T14:46:02.726Z</time></trkpt><trkpt lat="44.7552367" lon="9.2938006"><ele>1119.0</ele><time>2026-04-19T14:46:03.726Z</time></trkpt><trkpt lat="44.7551345" lon="9.2937848"><ele>1120.6000000000001</ele><time>2026-04-19T14:46:04.726Z</time></trkpt><trkpt lat="44.7550407" lon="9.2937283"><ele>1122.2</ele><time>2026-04-19T14:46:05.726Z</time></trkpt><trkpt lat="44.7549432" lon="9.2936648"><ele>1123.8000000000002</ele><time>2026-04-19T14:46:06.725Z</time></trkpt><trkpt lat="44.7548574" lon="9.2936134"><ele>1125.4</ele><time>2026-04-19T14:46:07.726Z</time></trkpt><trkpt lat="44.7547748" lon="9.2935911"><ele>1127.0</ele><time>2026-04-19T14:46:08.726Z</time></trkpt><trkpt lat="44.7547011" lon="9.2935688"><ele>1127.0</ele><time>2026-04-19T14:46:09.726Z</time></trkpt><trkpt lat="44.7546405" lon="9.2934785"><ele>1127.0</ele><time>2026-04-19T14:46:11.725Z</time></trkpt><trkpt lat="44.7546577" lon="9.2932921"><ele>1127.0</ele><time>2026-04-19T14:46:13.726Z</time></trkpt><trkpt lat="44.7546887" lon="9.2931677"><ele>1127.0</ele><time>2026-04-19T14:46:14.725Z</time></trkpt><trkpt lat="44.754722" lon="9.2930234"><ele>1127.0</ele><time>2026-04-19T14:46:15.725Z</time></trkpt><trkpt lat="44.7547641" lon="9.2928827"><ele>1127.0</ele><time>2026-04-19T14:46:16.726Z</time></trkpt><trkpt lat="44.7548012" lon="9.2927479"><ele>1127.0</ele><time>2026-04-19T14:46:17.726Z</time></trkpt><trkpt lat="44.7548366" lon="9.2926197"><ele>1127.0</ele><time>2026-04-19T14:46:18.726Z</time></trkpt><trkpt lat="44.7548596" lon="9.2924875"><ele>1127.0</ele><time>2026-04-19T14:46:19.726Z</time></trkpt><trkpt lat="44.7548661" lon="9.2923532"><ele>1127.0</ele><time>2026-04-19T14:46:20.726Z</time></trkpt><trkpt lat="44.7548497" lon="9.2922107"><ele>1127.0</ele><time>2026-04-19T14:46:21.726Z</time></trkpt><trkpt lat="44.7548145" lon="9.2920742"><ele>1127.0</ele><time>2026-04-19T14:46:22.726Z</time></trkpt><trkpt lat="44.7547753" lon="9.2919434"><ele>1127.0</ele><time>2026-04-19T14:46:23.725Z</time></trkpt><trkpt lat="44.7547465" lon="9.2918452"><ele>1127.0</ele><time>2026-04-19T14:46:24.725Z</time></trkpt><trkpt lat="44.7547137" lon="9.2916841"><ele>1127.0</ele><time>2026-04-19T14:46:26.726Z</time></trkpt><trkpt lat="44.7546961" lon="9.2915877"><ele>1127.0</ele><time>2026-04-19T14:46:27.726Z</time></trkpt><trkpt lat="44.7546899" lon="9.2914798"><ele>1127.0</ele><time>2026-04-19T14:46:28.726Z</time></trkpt><trkpt lat="44.7547018" lon="9.2913802"><ele>1127.0</ele><time>2026-04-19T14:46:29.726Z</time></trkpt><trkpt lat="44.75473" lon="9.2912475"><ele>1127.0</ele><time>2026-04-19T14:46:30.726Z</time></trkpt><trkpt lat="44.7547693" lon="9.2910847"><ele>1127.0</ele><time>2026-04-19T14:46:31.726Z</time></trkpt><trkpt lat="44.7548282" lon="9.2909239"><ele>1125.25</ele><time>2026-04-19T14:46:32.725Z</time></trkpt><trkpt lat="44.7548986" lon="9.2907644"><ele>1123.5</ele><time>2026-04-19T14:46:33.725Z</time></trkpt><trkpt lat="44.754964" lon="9.2906118"><ele>1121.75</ele><time>2026-04-19T14:46:34.726Z</time></trkpt><trkpt lat="44.7550211" lon="9.2904674"><ele>1120.0</ele><time>2026-04-19T14:46:35.725Z</time></trkpt><trkpt lat="44.7550634" lon="9.2903249"><ele>1119.0</ele><time>2026-04-19T14:46:36.726Z</time></trkpt><trkpt lat="44.7550818" lon="9.2901624"><ele>1118.0</ele><time>2026-04-19T14:46:37.725Z</time></trkpt><trkpt lat="44.7550747" lon="9.2900068"><ele>1117.0</ele><time>2026-04-19T14:46:38.726Z</time></trkpt><trkpt lat="44.7550569" lon="9.2898531"><ele>1116.0</ele><time>2026-04-19T14:46:39.726Z</time></trkpt><trkpt lat="44.7550442" lon="9.2896988"><ele>1115.0</ele><time>2026-04-19T14:46:40.726Z</time></trkpt><trkpt lat="44.7550344" lon="9.2895458"><ele>1114.6</ele><time>2026-04-19T14:46:41.726Z</time></trkpt><trkpt lat="44.7550338" lon="9.2893968"><ele>1114.2</ele><time>2026-04-19T14:46:42.726Z</time></trkpt><trkpt lat="44.7550452" lon="9.2892402"><ele>1113.8</ele><time>2026-04-19T14:46:43.726Z</time></trkpt><trkpt lat="44.7550611" lon="9.2890922"><ele>1113.4</ele><time>2026-04-19T14:46:44.726Z</time></trkpt><trkpt lat="44.7550859" lon="9.2889418"><ele>1113.0</ele><time>2026-04-19T14:46:45.726Z</time></trkpt><trkpt lat="44.7551175" lon="9.2887967"><ele>1112.5</ele><time>2026-04-19T14:46:46.725Z</time></trkpt><trkpt lat="44.7551264" lon="9.2886432"><ele>1112.0</ele><time>2026-04-19T14:46:47.725Z</time></trkpt><trkpt lat="44.7551068" lon="9.2884767"><ele>1111.5</ele><time>2026-04-19T14:46:48.726Z</time></trkpt><trkpt lat="44.7550702" lon="9.2882915"><ele>1111.0</ele><time>2026-04-19T14:46:49.726Z</time></trkpt><trkpt lat="44.7550272" lon="9.2880991"><ele>1111.25</ele><time>2026-04-19T14:46:50.725Z</time></trkpt><trkpt lat="44.7549848" lon="9.2878984"><ele>1111.5</ele><time>2026-04-19T14:46:51.726Z</time></trkpt><trkpt lat="44.7549464" lon="9.2876947"><ele>1111.75</ele><time>2026-04-19T14:46:52.726Z</time></trkpt><trkpt lat="44.7549064" lon="9.287502"><ele>1112.0</ele><time>2026-04-19T14:46:53.726Z</time></trkpt><trkpt lat="44.7548645" lon="9.2873214"><ele>1111.75</ele><time>2026-04-19T14:46:54.725Z</time></trkpt><trkpt lat="44.7548145" lon="9.2871433"><ele>1111.5</ele><time>2026-04-19T14:46:55.726Z</time></trkpt><trkpt lat="44.7547657" lon="9.2869671"><ele>1111.25</ele><time>2026-04-19T14:46:56.726Z</time></trkpt><trkpt lat="44.7547286" lon="9.2867895"><ele>1111.0</ele><time>2026-04-19T14:46:57.726Z</time></trkpt><trkpt lat="44.7546686" lon="9.2866264"><ele>1111.0</ele><time>2026-04-19T14:46:58.726Z</time></trkpt><trkpt lat="44.7545876" lon="9.2864979"><ele>1111.0</ele><time>2026-04-19T14:46:59.725Z</time></trkpt><trkpt lat="44.7544883" lon="9.286377"><ele>1111.0</ele><time>2026-04-19T14:47:00.726Z</time></trkpt><trkpt lat="44.7543913" lon="9.2862583"><ele>1111.0</ele><time>2026-04-19T14:47:01.726Z</time></trkpt><trkpt lat="44.7543027" lon="9.2861615"><ele>1107.2</ele><time>2026-04-19T14:47:02.726Z</time></trkpt><trkpt lat="44.7542391" lon="9.2860693"><ele>1103.3999999999999</ele><time>2026-04-19T14:47:03.726Z</time></trkpt><trkpt lat="44.7541975" lon="9.2859601"><ele>1099.6</ele><time>2026-04-19T14:47:04.726Z</time></trkpt><trkpt lat="44.7541752" lon="9.285826"><ele>1095.8</ele><time>2026-04-19T14:47:05.726Z</time></trkpt><trkpt lat="44.7541746" lon="9.2856701"><ele>1092.0</ele><time>2026-04-19T14:47:06.726Z</time></trkpt><trkpt lat="44.7541723" lon="9.2855196"><ele>1092.0</ele><time>2026-04-19T14:47:07.726Z</time></trkpt><trkpt lat="44.7541737" lon="9.2853881"><ele>1092.0</ele><time>2026-04-19T14:47:08.726Z</time></trkpt><trkpt lat="44.7541887" lon="9.2852638"><ele>1092.0</ele><time>2026-04-19T14:47:09.726Z</time></trkpt><trkpt lat="44.7542248" lon="9.2851556"><ele>1092.0</ele><time>2026-04-19T14:47:10.726Z</time></trkpt><trkpt lat="44.7542786" lon="9.2850548"><ele>1092.0</ele><time>2026-04-19T14:47:11.726Z</time></trkpt><trkpt lat="44.7543609" lon="9.2849733"><ele>1090.5</ele><time>2026-04-19T14:47:12.726Z</time></trkpt><trkpt lat="44.7544618" lon="9.2849027"><ele>1089.0</ele><time>2026-04-19T14:47:13.726Z</time></trkpt><trkpt lat="44.7545752" lon="9.2848138"><ele>1087.5</ele><time>2026-04-19T14:47:14.726Z</time></trkpt><trkpt lat="44.7546818" lon="9.2847009"><ele>1086.0</ele><time>2026-04-19T14:47:15.726Z</time></trkpt><trkpt lat="44.7547886" lon="9.2845578"><ele>1086.0</ele><time>2026-04-19T14:47:16.725Z</time></trkpt><trkpt lat="44.7548921" lon="9.2844263"><ele>1086.0</ele><time>2026-04-19T14:47:17.726Z</time></trkpt><trkpt lat="44.7549918" lon="9.2843022"><ele>1086.0</ele><time>2026-04-19T14:47:18.726Z</time></trkpt><trkpt lat="44.7550844" lon="9.2841867"><ele>1086.0</ele><time>2026-04-19T14:47:19.726Z</time></trkpt><trkpt lat="44.7551801" lon="9.284096"><ele>1087.0</ele><time>2026-04-19T14:47:20.726Z</time></trkpt><trkpt lat="44.7552761" lon="9.2840341"><ele>1088.0</ele><time>2026-04-19T14:47:21.726Z</time></trkpt><trkpt lat="44.755374" lon="9.2840091"><ele>1089.0</ele><time>2026-04-19T14:47:22.726Z</time></trkpt><trkpt lat="44.7554677" lon="9.2840127"><ele>1090.0</ele><time>2026-04-19T14:47:23.726Z</time></trkpt><trkpt lat="44.7555502" lon="9.2840438"><ele>1091.0</ele><time>2026-04-19T14:47:24.726Z</time></trkpt><trkpt lat="44.7556309" lon="9.2840948"><ele>1091.0</ele><time>2026-04-19T14:47:25.726Z</time></trkpt><trkpt lat="44.7556966" lon="9.284158"><ele>1091.0</ele><time>2026-04-19T14:47:26.726Z</time></trkpt><trkpt lat="44.7557649" lon="9.2841723"><ele>1091.0</ele><time>2026-04-19T14:47:27.726Z</time></trkpt><trkpt lat="44.7558223" lon="9.2841316"><ele>1091.0</ele><time>2026-04-19T14:47:28.726Z</time></trkpt><trkpt lat="44.7558476" lon="9.2839842"><ele>1091.0</ele><time>2026-04-19T14:47:30.726Z</time></trkpt><trkpt lat="44.755794" lon="9.2839068"><ele>1091.0</ele><time>2026-04-19T14:47:31.726Z</time></trkpt><trkpt lat="44.7557144" lon="9.2838336"><ele>1088.0</ele><time>2026-04-19T14:47:32.726Z</time></trkpt><trkpt lat="44.755615" lon="9.2837571"><ele>1085.0</ele><time>2026-04-19T14:47:33.725Z</time></trkpt><trkpt lat="44.7555034" lon="9.283667"><ele>1082.0</ele><time>2026-04-19T14:47:34.726Z</time></trkpt><trkpt lat="44.7554029" lon="9.283591"><ele>1079.0</ele><time>2026-04-19T14:47:35.725Z</time></trkpt><trkpt lat="44.755305" lon="9.2835449"><ele>1078.0</ele><time>2026-04-19T14:47:36.726Z</time></trkpt><trkpt lat="44.7552037" lon="9.2835298"><ele>1077.0</ele><time>2026-04-19T14:47:37.726Z</time></trkpt><trkpt lat="44.7551013" lon="9.2835299"><ele>1076.0</ele><time>2026-04-19T14:47:38.725Z</time></trkpt><trkpt lat="44.7549954" lon="9.2835483"><ele>1075.0</ele><time>2026-04-19T14:47:39.725Z</time></trkpt><trkpt lat="44.7548786" lon="9.2835923"><ele>1074.0</ele><time>2026-04-19T14:47:40.726Z</time></trkpt><trkpt lat="44.7547556" lon="9.2836691"><ele>1074.0</ele><time>2026-04-19T14:47:41.726Z</time></trkpt><trkpt lat="44.7546404" lon="9.2837659"><ele>1074.0</ele><time>2026-04-19T14:47:42.726Z</time></trkpt><trkpt lat="44.7545398" lon="9.2838652"><ele>1074.0</ele><time>2026-04-19T14:47:43.726Z</time></trkpt><trkpt lat="44.7544531" lon="9.2839644"><ele>1074.0</ele><time>2026-04-19T14:47:44.726Z</time></trkpt><trkpt lat="44.7543783" lon="9.2840429"><ele>1074.3333333333333</ele><time>2026-04-19T14:47:45.726Z</time></trkpt><trkpt lat="44.7543017" lon="9.2840873"><ele>1074.6666666666667</ele><time>2026-04-19T14:47:46.726Z</time></trkpt><trkpt lat="44.7542245" lon="9.2840921"><ele>1075.0</ele><time>2026-04-19T14:47:47.726Z</time></trkpt><trkpt lat="44.7541479" lon="9.2840564"><ele>1075.3333333333335</ele><time>2026-04-19T14:47:48.726Z</time></trkpt><trkpt lat="44.754087" lon="9.2839818"><ele>1075.6666666666667</ele><time>2026-04-19T14:47:49.726Z</time></trkpt><trkpt lat="44.7540358" lon="9.2839017"><ele>1076.0</ele><time>2026-04-19T14:47:50.726Z</time></trkpt><trkpt lat="44.7539752" lon="9.283852"><ele>1076.0</ele><time>2026-04-19T14:47:51.725Z</time></trkpt><trkpt lat="44.7538919" lon="9.2838603"><ele>1076.0</ele><time>2026-04-19T14:47:52.726Z</time></trkpt><trkpt lat="44.7538053" lon="9.2838903"><ele>1076.0</ele><time>2026-04-19T14:47:53.726Z</time></trkpt><trkpt lat="44.7536937" lon="9.2839552"><ele>1076.0</ele><time>2026-04-19T14:47:54.725Z</time></trkpt><trkpt lat="44.753573" lon="9.2840456"><ele>1076.0</ele><time>2026-04-19T14:47:55.725Z</time></trkpt><trkpt lat="44.7534709" lon="9.2841687"><ele>1074.0</ele><time>2026-04-19T14:47:56.726Z</time></trkpt><trkpt lat="44.7533957" lon="9.2843111"><ele>1072.0</ele><time>2026-04-19T14:47:57.726Z</time></trkpt><trkpt lat="44.7533424" lon="9.2844706"><ele>1070.0</ele><time>2026-04-19T14:47:58.725Z</time></trkpt><trkpt lat="44.7533085" lon="9.2846349"><ele>1068.0</ele><time>2026-04-19T14:47:59.726Z</time></trkpt><trkpt lat="44.7532679" lon="9.2847799"><ele>1068.0</ele><time>2026-04-19T14:48:00.726Z</time></trkpt><trkpt lat="44.7532157" lon="9.2848988"><ele>1068.0</ele><time>2026-04-19T14:48:01.725Z</time></trkpt><trkpt lat="44.753138" lon="9.2849695"><ele>1068.0</ele><time>2026-04-19T14:48:02.726Z</time></trkpt><trkpt lat="44.7530427" lon="9.2850095"><ele>1068.0</ele><time>2026-04-19T14:48:03.726Z</time></trkpt><trkpt lat="44.7529313" lon="9.2850386"><ele>1068.0</ele><time>2026-04-19T14:48:04.726Z</time></trkpt><trkpt lat="44.7528188" lon="9.2850815"><ele>1068.0</ele><time>2026-04-19T14:48:05.726Z</time></trkpt><trkpt lat="44.7527209" lon="9.2851284"><ele>1068.0</ele><time>2026-04-19T14:48:06.726Z</time></trkpt><trkpt lat="44.7526542" lon="9.2851816"><ele>1068.0</ele><time>2026-04-19T14:48:07.726Z</time></trkpt><trkpt lat="44.7525847" lon="9.285237"><ele>1068.0</ele><time>2026-04-19T14:48:09.726Z</time></trkpt><trkpt lat="44.7524933" lon="9.2851861"><ele>1068.0</ele><time>2026-04-19T14:48:12.726Z</time></trkpt><trkpt lat="44.7524392" lon="9.2851271"><ele>1068.0</ele><time>2026-04-19T14:48:13.726Z</time></trkpt><trkpt lat="44.7523614" lon="9.285045"><ele>1063.0</ele><time>2026-04-19T14:48:14.725Z</time></trkpt><trkpt lat="44.7522679" lon="9.284933"><ele>1058.0</ele><time>2026-04-19T14:48:15.726Z</time></trkpt><trkpt lat="44.7521688" lon="9.2848033"><ele>1053.0</ele><time>2026-04-19T14:48:16.725Z</time></trkpt><trkpt lat="44.7520743" lon="9.2846844"><ele>1048.0</ele><time>2026-04-19T14:48:17.726Z</time></trkpt><trkpt lat="44.7519992" lon="9.2845659"><ele>1046.4</ele><time>2026-04-19T14:48:18.726Z</time></trkpt><trkpt lat="44.7519405" lon="9.284461"><ele>1044.8</ele><time>2026-04-19T14:48:19.726Z</time></trkpt><trkpt lat="44.7518807" lon="9.2843722"><ele>1043.2</ele><time>2026-04-19T14:48:20.726Z</time></trkpt><trkpt lat="44.7517994" lon="9.2842854"><ele>1041.6</ele><time>2026-04-19T14:48:21.725Z</time></trkpt><trkpt lat="44.7517042" lon="9.2842017"><ele>1040.0</ele><time>2026-04-19T14:48:22.725Z</time></trkpt><trkpt lat="44.751607" lon="9.2841246"><ele>1038.5</ele><time>2026-04-19T14:48:23.726Z</time></trkpt><trkpt lat="44.7515182" lon="9.2840639"><ele>1037.0</ele><time>2026-04-19T14:48:24.726Z</time></trkpt><trkpt lat="44.7514285" lon="9.2840331"><ele>1035.5</ele><time>2026-04-19T14:48:25.726Z</time></trkpt><trkpt lat="44.7513441" lon="9.2840125"><ele>1034.0</ele><time>2026-04-19T14:48:26.726Z</time></trkpt><trkpt lat="44.7512582" lon="9.2840046"><ele>1032.5</ele><time>2026-04-19T14:48:27.725Z</time></trkpt><trkpt lat="44.7511882" lon="9.2840124"><ele>1031.0</ele><time>2026-04-19T14:48:28.725Z</time></trkpt><trkpt lat="44.7511106" lon="9.2840221"><ele>1031.0</ele><time>2026-04-19T14:48:30.725Z</time></trkpt><trkpt lat="44.7510626" lon="9.2839584"><ele>1031.0</ele><time>2026-04-19T14:48:32.726Z</time></trkpt><trkpt lat="44.7510499" lon="9.283776"><ele>1031.0</ele><time>2026-04-19T14:48:34.725Z</time></trkpt><trkpt lat="44.7510642" lon="9.283616"><ele>1031.0</ele><time>2026-04-19T14:48:35.725Z</time></trkpt><trkpt lat="44.7510963" lon="9.2834166"><ele>1028.25</ele><time>2026-04-19T14:48:36.725Z</time></trkpt><trkpt lat="44.7511415" lon="9.2832241"><ele>1025.5</ele><time>2026-04-19T14:48:37.725Z</time></trkpt><trkpt lat="44.751171" lon="9.2830338"><ele>1022.75</ele><time>2026-04-19T14:48:38.725Z</time></trkpt><trkpt lat="44.7511781" lon="9.2828798"><ele>1020.0</ele><time>2026-04-19T14:48:39.725Z</time></trkpt><trkpt lat="44.7511765" lon="9.2827621"><ele>1018.8333333333334</ele><time>2026-04-19T14:48:40.726Z</time></trkpt><trkpt lat="44.7511757" lon="9.2826585"><ele>1017.6666666666667</ele><time>2026-04-19T14:48:41.726Z</time></trkpt><trkpt lat="44.7511814" lon="9.2825543"><ele>1016.5</ele><time>2026-04-19T14:48:42.726Z</time></trkpt><trkpt lat="44.7511955" lon="9.2824529"><ele>1015.3333333333334</ele><time>2026-04-19T14:48:43.726Z</time></trkpt><trkpt lat="44.7512148" lon="9.2823539"><ele>1014.1666666666667</ele><time>2026-04-19T14:48:44.726Z</time></trkpt><trkpt lat="44.7512309" lon="9.2822442"><ele>1013.0</ele><time>2026-04-19T14:48:45.726Z</time></trkpt><trkpt lat="44.7512513" lon="9.2821109"><ele>1010.8</ele><time>2026-04-19T14:48:46.725Z</time></trkpt><trkpt lat="44.7512733" lon="9.2819681"><ele>1008.5999999999999</ele><time>2026-04-19T14:48:47.725Z</time></trkpt><trkpt lat="44.751288" lon="9.2818264"><ele>1006.4000000000001</ele><time>2026-04-19T14:48:48.726Z</time></trkpt><trkpt lat="44.7513003" lon="9.2816833"><ele>1004.2</ele><time>2026-04-19T14:48:49.726Z</time></trkpt><trkpt lat="44.7512882" lon="9.2815354"><ele>1002.0</ele><time>2026-04-19T14:48:50.726Z</time></trkpt><trkpt lat="44.7512701" lon="9.2814074"><ele>1001.4000000000001</ele><time>2026-04-19T14:48:51.725Z</time></trkpt><trkpt lat="44.7512395" lon="9.2813054"><ele>1000.8000000000001</ele><time>2026-04-19T14:48:52.726Z</time></trkpt><trkpt lat="44.7511964" lon="9.2812068"><ele>1000.2</ele><time>2026-04-19T14:48:53.725Z</time></trkpt><trkpt lat="44.7511277" lon="9.2810784"><ele>999.6</ele><time>2026-04-19T14:48:54.726Z</time></trkpt><trkpt lat="44.7510408" lon="9.2809305"><ele>999.0</ele><time>2026-04-19T14:48:55.725Z</time></trkpt><trkpt lat="44.7509411" lon="9.2807709"><ele>992.6666666666667</ele><time>2026-04-19T14:48:56.726Z</time></trkpt><trkpt lat="44.7508339" lon="9.2805898"><ele>986.3333333333334</ele><time>2026-04-19T14:48:57.726Z</time></trkpt><trkpt lat="44.7507304" lon="9.2804223"><ele>980.0</ele><time>2026-04-19T14:48:58.726Z</time></trkpt><trkpt lat="44.750634" lon="9.2802591"><ele>980.0</ele><time>2026-04-19T14:48:59.726Z</time></trkpt><trkpt lat="44.7505406" lon="9.2801177"><ele>980.0</ele><time>2026-04-19T14:49:00.726Z</time></trkpt><trkpt lat="44.7504574" lon="9.2800089"><ele>980.0</ele><time>2026-04-19T14:49:01.726Z</time></trkpt><trkpt lat="44.7503719" lon="9.27993"><ele>980.0</ele><time>2026-04-19T14:49:02.726Z</time></trkpt><trkpt lat="44.7502809" lon="9.2798835"><ele>980.4</ele><time>2026-04-19T14:49:03.725Z</time></trkpt><trkpt lat="44.7501829" lon="9.2798963"><ele>980.8</ele><time>2026-04-19T14:49:04.725Z</time></trkpt><trkpt lat="44.7500747" lon="9.2799228"><ele>981.2</ele><time>2026-04-19T14:49:05.725Z</time></trkpt><trkpt lat="44.7499703" lon="9.2799411"><ele>981.6</ele><time>2026-04-19T14:49:06.726Z</time></trkpt><trkpt lat="44.7498728" lon="9.2799566"><ele>982.0</ele><time>2026-04-19T14:49:07.726Z</time></trkpt><trkpt lat="44.7497764" lon="9.2799603"><ele>982.0</ele><time>2026-04-19T14:49:08.725Z</time></trkpt><trkpt lat="44.7496795" lon="9.2799746"><ele>982.0</ele><time>2026-04-19T14:49:09.726Z</time></trkpt><trkpt lat="44.7495791" lon="9.2799944"><ele>982.0</ele><time>2026-04-19T14:49:10.726Z</time></trkpt><trkpt lat="44.7494807" lon="9.2800261"><ele>982.0</ele><time>2026-04-19T14:49:11.725Z</time></trkpt><trkpt lat="44.7493869" lon="9.2800732"><ele>982.0</ele><time>2026-04-19T14:49:12.726Z</time></trkpt><trkpt lat="44.7493009" lon="9.2801396"><ele>979.4000000000001</ele><time>2026-04-19T14:49:13.726Z</time></trkpt><trkpt lat="44.7492194" lon="9.2802149"><ele>976.8000000000001</ele><time>2026-04-19T14:49:14.726Z</time></trkpt><trkpt lat="44.7491354" lon="9.2802927"><ele>974.2</ele><time>2026-04-19T14:49:15.726Z</time></trkpt><trkpt lat="44.7490594" lon="9.280379"><ele>971.6</ele><time>2026-04-19T14:49:16.725Z</time></trkpt><trkpt lat="44.7489876" lon="9.2804735"><ele>969.0</ele><time>2026-04-19T14:49:17.726Z</time></trkpt><trkpt lat="44.7489255" lon="9.2805771"><ele>970.6</ele><time>2026-04-19T14:49:18.726Z</time></trkpt><trkpt lat="44.7488827" lon="9.2806877"><ele>972.2</ele><time>2026-04-19T14:49:19.726Z</time></trkpt><trkpt lat="44.7488398" lon="9.2808049"><ele>973.8000000000001</ele><time>2026-04-19T14:49:20.726Z</time></trkpt><trkpt lat="44.7487983" lon="9.280925"><ele>975.4000000000001</ele><time>2026-04-19T14:49:21.726Z</time></trkpt><trkpt lat="44.7487548" lon="9.2810597"><ele>977.0</ele><time>2026-04-19T14:49:22.726Z</time></trkpt><trkpt lat="44.7487058" lon="9.2811848"><ele>977.0</ele><time>2026-04-19T14:49:23.726Z</time></trkpt><trkpt lat="44.7486632" lon="9.2813028"><ele>977.0</ele><time>2026-04-19T14:49:24.726Z</time></trkpt><trkpt lat="44.7486127" lon="9.2814296"><ele>977.0</ele><time>2026-04-19T14:49:25.726Z</time></trkpt><trkpt lat="44.7485698" lon="9.2815636"><ele>977.0</ele><time>2026-04-19T14:49:26.726Z</time></trkpt><trkpt lat="44.7485293" lon="9.2816945"><ele>977.0</ele><time>2026-04-19T14:49:27.726Z</time></trkpt><trkpt lat="44.7484885" lon="9.2818182"><ele>972.4000000000001</ele><time>2026-04-19T14:49:28.726Z</time></trkpt><trkpt lat="44.7484484" lon="9.2819318"><ele>967.8000000000001</ele><time>2026-04-19T14:49:29.726Z</time></trkpt><trkpt lat="44.7484026" lon="9.2820342"><ele>963.2</ele><time>2026-04-19T14:49:30.725Z</time></trkpt><trkpt lat="44.7483352" lon="9.2821197"><ele>958.6</ele><time>2026-04-19T14:49:31.726Z</time></trkpt><trkpt lat="44.7482534" lon="9.2821834"><ele>954.0</ele><time>2026-04-19T14:49:32.726Z</time></trkpt><trkpt lat="44.7481614" lon="9.282213"><ele>954.0</ele><time>2026-04-19T14:49:33.726Z</time></trkpt><trkpt lat="44.7480675" lon="9.2822136"><ele>954.0000000000001</ele><time>2026-04-19T14:49:34.725Z</time></trkpt><trkpt lat="44.7479769" lon="9.2821874"><ele>954.0000000000001</ele><time>2026-04-19T14:49:35.726Z</time></trkpt><trkpt lat="44.7478958" lon="9.2821325"><ele>954.0</ele><time>2026-04-19T14:49:36.725Z</time></trkpt><trkpt lat="44.7478223" lon="9.282047"><ele>954.0</ele><time>2026-04-19T14:49:37.726Z</time></trkpt><trkpt lat="44.7477558" lon="9.2819456"><ele>949.0</ele><time>2026-04-19T14:49:38.725Z</time></trkpt><trkpt lat="44.7476896" lon="9.2818022"><ele>944.0</ele><time>2026-04-19T14:49:39.726Z</time></trkpt><trkpt lat="44.7476201" lon="9.281641"><ele>939.0</ele><time>2026-04-19T14:49:40.726Z</time></trkpt><trkpt lat="44.74755" lon="9.2814859"><ele>934.0</ele><time>2026-04-19T14:49:41.726Z</time></trkpt><trkpt lat="44.7474853" lon="9.2813345"><ele>933.25</ele><time>2026-04-19T14:49:42.726Z</time></trkpt><trkpt lat="44.7474184" lon="9.2811854"><ele>932.5</ele><time>2026-04-19T14:49:43.726Z</time></trkpt><trkpt lat="44.7473467" lon="9.2810394"><ele>931.75</ele><time>2026-04-19T14:49:44.726Z</time></trkpt><trkpt lat="44.7472768" lon="9.2808913"><ele>931.0</ele><time>2026-04-19T14:49:45.726Z</time></trkpt><trkpt lat="44.7471991" lon="9.2807455"><ele>929.75</ele><time>2026-04-19T14:49:46.726Z</time></trkpt><trkpt lat="44.7471235" lon="9.2805881"><ele>928.5</ele><time>2026-04-19T14:49:47.726Z</time></trkpt><trkpt lat="44.7470572" lon="9.2804277"><ele>927.25</ele><time>2026-04-19T14:49:48.725Z</time></trkpt><trkpt lat="44.7470032" lon="9.2802712"><ele>926.0</ele><time>2026-04-19T14:49:49.725Z</time></trkpt><trkpt lat="44.7469544" lon="9.2801119"><ele>926.0</ele><time>2026-04-19T14:49:50.726Z</time></trkpt><trkpt lat="44.7469271" lon="9.2799523"><ele>926.0</ele><time>2026-04-19T14:49:51.726Z</time></trkpt><trkpt lat="44.7469042" lon="9.2797922"><ele>926.0</ele><time>2026-04-19T14:49:52.726Z</time></trkpt><trkpt lat="44.7468735" lon="9.2796225"><ele>926.0</ele><time>2026-04-19T14:49:53.726Z</time></trkpt><trkpt lat="44.7468344" lon="9.2794632"><ele>922.0</ele><time>2026-04-19T14:49:54.725Z</time></trkpt><trkpt lat="44.746781" lon="9.2793086"><ele>918.0</ele><time>2026-04-19T14:49:55.726Z</time></trkpt><trkpt lat="44.746725" lon="9.2791648"><ele>914.0</ele><time>2026-04-19T14:49:56.725Z</time></trkpt><trkpt lat="44.7466651" lon="9.2790149"><ele>910.0</ele><time>2026-04-19T14:49:57.726Z</time></trkpt><trkpt lat="44.7466021" lon="9.2788688"><ele>908.6</ele><time>2026-04-19T14:49:58.726Z</time></trkpt><trkpt lat="44.7465484" lon="9.2787254"><ele>907.2</ele><time>2026-04-19T14:49:59.726Z</time></trkpt><trkpt lat="44.746499" lon="9.2785953"><ele>905.8</ele><time>2026-04-19T14:50:00.726Z</time></trkpt><trkpt lat="44.7464523" lon="9.2784889"><ele>904.4</ele><time>2026-04-19T14:50:01.726Z</time></trkpt><trkpt lat="44.7464019" lon="9.2784012"><ele>903.0</ele><time>2026-04-19T14:50:02.726Z</time></trkpt><trkpt lat="44.7463477" lon="9.2783252"><ele>903.0</ele><time>2026-04-19T14:50:03.726Z</time></trkpt><trkpt lat="44.7462867" lon="9.2782769"><ele>903.0</ele><time>2026-04-19T14:50:04.726Z</time></trkpt><trkpt lat="44.7462218" lon="9.2782615"><ele>903.0</ele><time>2026-04-19T14:50:05.726Z</time></trkpt><trkpt lat="44.746156" lon="9.2782909"><ele>903.0</ele><time>2026-04-19T14:50:06.726Z</time></trkpt><trkpt lat="44.7461002" lon="9.2783394"><ele>903.0</ele><time>2026-04-19T14:50:07.726Z</time></trkpt><trkpt lat="44.7460485" lon="9.2784065"><ele>903.0</ele><time>2026-04-19T14:50:08.726Z</time></trkpt><trkpt lat="44.7459999" lon="9.2785028"><ele>903.0</ele><time>2026-04-19T14:50:09.725Z</time></trkpt><trkpt lat="44.7459434" lon="9.2786041"><ele>901.5</ele><time>2026-04-19T14:50:10.726Z</time></trkpt><trkpt lat="44.7458858" lon="9.2786824"><ele>900.0</ele><time>2026-04-19T14:50:11.725Z</time></trkpt><trkpt lat="44.7458141" lon="9.2787402"><ele>898.5</ele><time>2026-04-19T14:50:12.726Z</time></trkpt><trkpt lat="44.745731" lon="9.2787836"><ele>897.0</ele><time>2026-04-19T14:50:13.725Z</time></trkpt><trkpt lat="44.7456484" lon="9.2787688"><ele>895.5</ele><time>2026-04-19T14:50:14.726Z</time></trkpt><trkpt lat="44.7455835" lon="9.2787036"><ele>894.0</ele><time>2026-04-19T14:50:15.726Z</time></trkpt><trkpt lat="44.7455427" lon="9.2785871"><ele>894.0</ele><time>2026-04-19T14:50:16.726Z</time></trkpt><trkpt lat="44.7455339" lon="9.2784418"><ele>894.0000000000001</ele><time>2026-04-19T14:50:17.726Z</time></trkpt><trkpt lat="44.7455402" lon="9.2783058"><ele>894.0000000000001</ele><time>2026-04-19T14:50:18.726Z</time></trkpt><trkpt lat="44.7455625" lon="9.2781906"><ele>894.0</ele><time>2026-04-19T14:50:19.726Z</time></trkpt><trkpt lat="44.7455977" lon="9.2780723"><ele>894.0</ele><time>2026-04-19T14:50:20.726Z</time></trkpt><trkpt lat="44.7456302" lon="9.2779391"><ele>892.5</ele><time>2026-04-19T14:50:21.726Z</time></trkpt><trkpt lat="44.7456592" lon="9.277764"><ele>891.0</ele><time>2026-04-19T14:50:22.726Z</time></trkpt><trkpt lat="44.7456844" lon="9.277559"><ele>889.5</ele><time>2026-04-19T14:50:23.726Z</time></trkpt><trkpt lat="44.7457105" lon="9.2773601"><ele>888.0</ele><time>2026-04-19T14:50:24.726Z</time></trkpt><trkpt lat="44.745752" lon="9.277177"><ele>887.5999999999999</ele><time>2026-04-19T14:50:25.726Z</time></trkpt><trkpt lat="44.7457925" lon="9.2770271"><ele>887.1999999999999</ele><time>2026-04-19T14:50:26.726Z</time></trkpt><trkpt lat="44.7458449" lon="9.2769263"><ele>886.8</ele><time>2026-04-19T14:50:27.726Z</time></trkpt><trkpt lat="44.7459223" lon="9.2768649"><ele>886.4</ele><time>2026-04-19T14:50:28.726Z</time></trkpt><trkpt lat="44.7460203" lon="9.2768296"><ele>886.0</ele><time>2026-04-19T14:50:29.726Z</time></trkpt><trkpt lat="44.7461298" lon="9.2768352"><ele>886.0</ele><time>2026-04-19T14:50:30.726Z</time></trkpt><trkpt lat="44.7462339" lon="9.2768247"><ele>885.9999999999999</ele><time>2026-04-19T14:50:31.726Z</time></trkpt><trkpt lat="44.7463298" lon="9.2767781"><ele>885.9999999999999</ele><time>2026-04-19T14:50:32.726Z</time></trkpt><trkpt lat="44.7464086" lon="9.2766875"><ele>886.0</ele><time>2026-04-19T14:50:33.726Z</time></trkpt><trkpt lat="44.7464606" lon="9.2765396"><ele>886.0</ele><time>2026-04-19T14:50:34.726Z</time></trkpt><trkpt lat="44.7464911" lon="9.2763429"><ele>884.0</ele><time>2026-04-19T14:50:35.726Z</time></trkpt><trkpt lat="44.746521" lon="9.2761663"><ele>882.0</ele><time>2026-04-19T14:50:36.726Z</time></trkpt><trkpt lat="44.7465578" lon="9.2760043"><ele>880.0</ele><time>2026-04-19T14:50:37.726Z</time></trkpt><trkpt lat="44.7466049" lon="9.2758486"><ele>878.0</ele><time>2026-04-19T14:50:38.725Z</time></trkpt><trkpt lat="44.7466737" lon="9.2756799"><ele>878.0</ele><time>2026-04-19T14:50:39.725Z</time></trkpt><trkpt lat="44.7467711" lon="9.2755212"><ele>878.0</ele><time>2026-04-19T14:50:40.726Z</time></trkpt><trkpt lat="44.7468958" lon="9.2753745"><ele>878.0</ele><time>2026-04-19T14:50:41.726Z</time></trkpt><trkpt lat="44.7470308" lon="9.2752455"><ele>878.0</ele><time>2026-04-19T14:50:42.726Z</time></trkpt><trkpt lat="44.7471539" lon="9.2751319"><ele>878.0</ele><time>2026-04-19T14:50:43.726Z</time></trkpt><trkpt lat="44.7472766" lon="9.2750244"><ele>878.0</ele><time>2026-04-19T14:50:44.726Z</time></trkpt><trkpt lat="44.7473882" lon="9.2749312"><ele>878.0</ele><time>2026-04-19T14:50:45.725Z</time></trkpt><trkpt lat="44.7474699" lon="9.2748026"><ele>877.25</ele><time>2026-04-19T14:50:46.725Z</time></trkpt><trkpt lat="44.7475199" lon="9.2746485"><ele>876.5</ele><time>2026-04-19T14:50:47.726Z</time></trkpt><trkpt lat="44.7475495" lon="9.2744664"><ele>875.75</ele><time>2026-04-19T14:50:48.725Z</time></trkpt><trkpt lat="44.7475573" lon="9.2742655"><ele>875.0</ele><time>2026-04-19T14:50:49.726Z</time></trkpt><trkpt lat="44.747554" lon="9.2740698"><ele>875.75</ele><time>2026-04-19T14:50:50.726Z</time></trkpt><trkpt lat="44.7475446" lon="9.2738945"><ele>876.5</ele><time>2026-04-19T14:50:51.725Z</time></trkpt><trkpt lat="44.7475113" lon="9.2737351"><ele>877.25</ele><time>2026-04-19T14:50:52.725Z</time></trkpt><trkpt lat="44.7474532" lon="9.2735883"><ele>878.0</ele><time>2026-04-19T14:50:53.725Z</time></trkpt><trkpt lat="44.7473792" lon="9.2734432"><ele>878.0</ele><time>2026-04-19T14:50:54.725Z</time></trkpt><trkpt lat="44.7473005" lon="9.2733102"><ele>878.0</ele><time>2026-04-19T14:50:55.726Z</time></trkpt><trkpt lat="44.7472044" lon="9.2732044"><ele>878.0</ele><time>2026-04-19T14:50:56.726Z</time></trkpt><trkpt lat="44.7471042" lon="9.2731125"><ele>878.0</ele><time>2026-04-19T14:50:57.726Z</time></trkpt><trkpt lat="44.7470082" lon="9.2730346"><ele>880.5</ele><time>2026-04-19T14:50:58.726Z</time></trkpt><trkpt lat="44.7469271" lon="9.272926"><ele>883.0</ele><time>2026-04-19T14:50:59.725Z</time></trkpt><trkpt lat="44.7468706" lon="9.2727841"><ele>885.5</ele><time>2026-04-19T14:51:00.726Z</time></trkpt><trkpt lat="44.7468405" lon="9.2726062"><ele>888.0</ele><time>2026-04-19T14:51:01.726Z</time></trkpt><trkpt lat="44.7468309" lon="9.2723778"><ele>878.3333333333333</ele><time>2026-04-19T14:51:02.726Z</time></trkpt><trkpt lat="44.7468383" lon="9.2721257"><ele>868.6666666666666</ele><time>2026-04-19T14:51:03.726Z</time></trkpt><trkpt lat="44.7468402" lon="9.2718796"><ele>859.0</ele><time>2026-04-19T14:51:04.726Z</time></trkpt><trkpt lat="44.7468527" lon="9.2716523"><ele>857.3333333333333</ele><time>2026-04-19T14:51:05.726Z</time></trkpt><trkpt lat="44.7468733" lon="9.2714221"><ele>855.6666666666667</ele><time>2026-04-19T14:51:06.726Z</time></trkpt><trkpt lat="44.7468918" lon="9.2712021"><ele>854.0</ele><time>2026-04-19T14:51:07.726Z</time></trkpt><trkpt lat="44.7469281" lon="9.2709836"><ele>859.0</ele><time>2026-04-19T14:51:08.726Z</time></trkpt><trkpt lat="44.746968" lon="9.2707674"><ele>864.0</ele><time>2026-04-19T14:51:09.726Z</time></trkpt><trkpt lat="44.7470058" lon="9.2705482"><ele>869.0</ele><time>2026-04-19T14:51:10.726Z</time></trkpt><trkpt lat="44.7470475" lon="9.270313"><ele>869.0</ele><time>2026-04-19T14:51:11.725Z</time></trkpt><trkpt lat="44.7470875" lon="9.2700795"><ele>869.0</ele><time>2026-04-19T14:51:12.726Z</time></trkpt><trkpt lat="44.7471204" lon="9.2698551"><ele>869.0</ele><time>2026-04-19T14:51:13.726Z</time></trkpt><trkpt lat="44.7471545" lon="9.2696465"><ele>865.6666666666667</ele><time>2026-04-19T14:51:14.726Z</time></trkpt><trkpt lat="44.7472022" lon="9.2694426"><ele>862.3333333333333</ele><time>2026-04-19T14:51:15.726Z</time></trkpt><trkpt lat="44.7472744" lon="9.2692565"><ele>859.0</ele><time>2026-04-19T14:51:16.725Z</time></trkpt><trkpt lat="44.7473718" lon="9.2690833"><ele>859.0</ele><time>2026-04-19T14:51:17.726Z</time></trkpt><trkpt lat="44.7474737" lon="9.2689431"><ele>859.0</ele><time>2026-04-19T14:51:18.726Z</time></trkpt><trkpt lat="44.7475807" lon="9.2688261"><ele>859.0</ele><time>2026-04-19T14:51:19.726Z</time></trkpt><trkpt lat="44.7476877" lon="9.2687225"><ele>859.0</ele><time>2026-04-19T14:51:20.726Z</time></trkpt><trkpt lat="44.747797" lon="9.2686533"><ele>856.0</ele><time>2026-04-19T14:51:21.725Z</time></trkpt><trkpt lat="44.7479166" lon="9.2686132"><ele>853.0</ele><time>2026-04-19T14:51:22.726Z</time></trkpt><trkpt lat="44.7480464" lon="9.2685993"><ele>850.0</ele><time>2026-04-19T14:51:23.726Z</time></trkpt><trkpt lat="44.7481879" lon="9.2686249"><ele>847.0</ele><time>2026-04-19T14:51:24.726Z</time></trkpt><trkpt lat="44.7483423" lon="9.2686541"><ele>847.0</ele><time>2026-04-19T14:51:25.725Z</time></trkpt><trkpt lat="44.7485073" lon="9.2686811"><ele>847.0</ele><time>2026-04-19T14:51:26.726Z</time></trkpt><trkpt lat="44.7486733" lon="9.2687028"><ele>847.0</ele><time>2026-04-19T14:51:27.725Z</time></trkpt><trkpt lat="44.7488313" lon="9.268711"><ele>846.3333333333333</ele><time>2026-04-19T14:51:28.726Z</time></trkpt><trkpt lat="44.7489875" lon="9.2687267"><ele>845.6666666666667</ele><time>2026-04-19T14:51:29.726Z</time></trkpt><trkpt lat="44.7491338" lon="9.2687083"><ele>845.0</ele><time>2026-04-19T14:51:30.726Z</time></trkpt><trkpt lat="44.7492793" lon="9.2686654"><ele>843.3333333333334</ele><time>2026-04-19T14:51:31.725Z</time></trkpt><trkpt lat="44.7494205" lon="9.2686244"><ele>841.6666666666667</ele><time>2026-04-19T14:51:32.726Z</time></trkpt><trkpt lat="44.7495895" lon="9.268613"><ele>840.0</ele><time>2026-04-19T14:51:33.726Z</time></trkpt><trkpt lat="44.7497536" lon="9.2686126"><ele>840.0</ele><time>2026-04-19T14:51:34.726Z</time></trkpt><trkpt lat="44.74991" lon="9.2686313"><ele>840.0</ele><time>2026-04-19T14:51:35.726Z</time></trkpt><trkpt lat="44.7500609" lon="9.2686571"><ele>840.0</ele><time>2026-04-19T14:51:36.726Z</time></trkpt><trkpt lat="44.7502122" lon="9.2686715"><ele>840.0</ele><time>2026-04-19T14:51:37.725Z</time></trkpt><trkpt lat="44.7503832" lon="9.2686706"><ele>840.0</ele><time>2026-04-19T14:51:38.725Z</time></trkpt><trkpt lat="44.7505547" lon="9.2686778"><ele>840.0</ele><time>2026-04-19T14:51:39.725Z</time></trkpt><trkpt lat="44.7507143" lon="9.2686936"><ele>840.0</ele><time>2026-04-19T14:51:40.726Z</time></trkpt><trkpt lat="44.7508661" lon="9.2687083"><ele>840.0</ele><time>2026-04-19T14:51:41.726Z</time></trkpt><trkpt lat="44.7510171" lon="9.2687183"><ele>840.0</ele><time>2026-04-19T14:51:42.726Z</time></trkpt><trkpt lat="44.7511672" lon="9.2687224"><ele>842.0</ele><time>2026-04-19T14:51:43.726Z</time></trkpt><trkpt lat="44.7513075" lon="9.2687189"><ele>844.0</ele><time>2026-04-19T14:51:44.725Z</time></trkpt><trkpt lat="44.7514366" lon="9.2687061"><ele>846.0</ele><time>2026-04-19T14:51:45.726Z</time></trkpt><trkpt lat="44.7515576" lon="9.2686755"><ele>848.0</ele><time>2026-04-19T14:51:46.726Z</time></trkpt><trkpt lat="44.7516588" lon="9.2686224"><ele>848.0</ele><time>2026-04-19T14:51:47.725Z</time></trkpt><trkpt lat="44.7517374" lon="9.2685282"><ele>848.0</ele><time>2026-04-19T14:51:48.726Z</time></trkpt><trkpt lat="44.7517861" lon="9.2683703"><ele>848.0</ele><time>2026-04-19T14:51:49.726Z</time></trkpt><trkpt lat="44.7517958" lon="9.2682055"><ele>848.0</ele><time>2026-04-19T14:51:50.726Z</time></trkpt><trkpt lat="44.7517764" lon="9.2680133"><ele>845.5</ele><time>2026-04-19T14:51:51.726Z</time></trkpt><trkpt lat="44.7517576" lon="9.2678143"><ele>843.0</ele><time>2026-04-19T14:51:52.726Z</time></trkpt><trkpt lat="44.7517738" lon="9.2676252"><ele>840.5</ele><time>2026-04-19T14:51:53.726Z</time></trkpt><trkpt lat="44.7518161" lon="9.2674312"><ele>838.0</ele><time>2026-04-19T14:51:54.726Z</time></trkpt><trkpt lat="44.7518564" lon="9.2672338"><ele>836.5</ele><time>2026-04-19T14:51:55.726Z</time></trkpt><trkpt lat="44.7518683" lon="9.2670475"><ele>835.0</ele><time>2026-04-19T14:51:56.726Z</time></trkpt><trkpt lat="44.7518592" lon="9.2668698"><ele>833.5</ele><time>2026-04-19T14:51:57.725Z</time></trkpt><trkpt lat="44.7518376" lon="9.2666999"><ele>832.0</ele><time>2026-04-19T14:51:58.726Z</time></trkpt><trkpt lat="44.7518366" lon="9.2665303"><ele>830.5</ele><time>2026-04-19T14:51:59.725Z</time></trkpt><trkpt lat="44.7518661" lon="9.2663545"><ele>829.0</ele><time>2026-04-19T14:52:00.726Z</time></trkpt><trkpt lat="44.7519055" lon="9.266171"><ele>827.5</ele><time>2026-04-19T14:52:01.726Z</time></trkpt><trkpt lat="44.7519639" lon="9.2659876"><ele>826.0</ele><time>2026-04-19T14:52:02.726Z</time></trkpt><trkpt lat="44.7520154" lon="9.2658221"><ele>826.0</ele><time>2026-04-19T14:52:03.726Z</time></trkpt><trkpt lat="44.7520672" lon="9.2656829"><ele>826.0</ele><time>2026-04-19T14:52:04.726Z</time></trkpt><trkpt lat="44.7521284" lon="9.2655732"><ele>826.0</ele><time>2026-04-19T14:52:05.726Z</time></trkpt><trkpt lat="44.7522079" lon="9.2655087"><ele>826.0</ele><time>2026-04-19T14:52:06.726Z</time></trkpt><trkpt lat="44.752305" lon="9.2654826"><ele>826.0</ele><time>2026-04-19T14:52:07.726Z</time></trkpt><trkpt lat="44.7524225" lon="9.265482"><ele>826.0</ele><time>2026-04-19T14:52:08.726Z</time></trkpt><trkpt lat="44.7525762" lon="9.2655139"><ele>826.0</ele><time>2026-04-19T14:52:09.726Z</time></trkpt><trkpt lat="44.7527498" lon="9.2655652"><ele>826.0</ele><time>2026-04-19T14:52:10.725Z</time></trkpt><trkpt lat="44.7529265" lon="9.2656295"><ele>829.3333333333333</ele><time>2026-04-19T14:52:11.726Z</time></trkpt><trkpt lat="44.7530948" lon="9.2656677"><ele>832.6666666666667</ele><time>2026-04-19T14:52:12.726Z</time></trkpt><trkpt lat="44.7532448" lon="9.2656797"><ele>836.0</ele><time>2026-04-19T14:52:13.725Z</time></trkpt><trkpt lat="44.7533892" lon="9.2656592"><ele>836.0</ele><time>2026-04-19T14:52:14.726Z</time></trkpt><trkpt lat="44.7535284" lon="9.2656345"><ele>836.0</ele><time>2026-04-19T14:52:15.726Z</time></trkpt><trkpt lat="44.7536578" lon="9.2656082"><ele>836.0</ele><time>2026-04-19T14:52:16.726Z</time></trkpt><trkpt lat="44.7537994" lon="9.2655739"><ele>836.0</ele><time>2026-04-19T14:52:17.725Z</time></trkpt><trkpt lat="44.7539528" lon="9.2655233"><ele>836.0</ele><time>2026-04-19T14:52:18.726Z</time></trkpt><trkpt lat="44.7541003" lon="9.2654625"><ele>836.0</ele><time>2026-04-19T14:52:19.726Z</time></trkpt><trkpt lat="44.7542487" lon="9.2654101"><ele>836.0</ele><time>2026-04-19T14:52:20.726Z</time></trkpt><trkpt lat="44.7543879" lon="9.265353"><ele>836.0</ele><time>2026-04-19T14:52:21.726Z</time></trkpt><trkpt lat="44.7545103" lon="9.2652951"><ele>836.0</ele><time>2026-04-19T14:52:22.726Z</time></trkpt><trkpt lat="44.7546124" lon="9.2652337"><ele>836.0</ele><time>2026-04-19T14:52:23.726Z</time></trkpt><trkpt lat="44.7546902" lon="9.2651533"><ele>836.0</ele><time>2026-04-19T14:52:24.726Z</time></trkpt><trkpt lat="44.7547407" lon="9.2650267"><ele>836.0</ele><time>2026-04-19T14:52:25.725Z</time></trkpt><trkpt lat="44.7547765" lon="9.2648541"><ele>834.25</ele><time>2026-04-19T14:52:26.726Z</time></trkpt><trkpt lat="44.7547962" lon="9.2646604"><ele>832.5</ele><time>2026-04-19T14:52:27.726Z</time></trkpt><trkpt lat="44.7548159" lon="9.2644623"><ele>830.75</ele><time>2026-04-19T14:52:28.726Z</time></trkpt><trkpt lat="44.7548255" lon="9.2642744"><ele>829.0</ele><time>2026-04-19T14:52:29.726Z</time></trkpt><trkpt lat="44.7548413" lon="9.2640905"><ele>829.25</ele><time>2026-04-19T14:52:30.725Z</time></trkpt><trkpt lat="44.7548545" lon="9.2639168"><ele>829.5</ele><time>2026-04-19T14:52:31.726Z</time></trkpt><trkpt lat="44.7548408" lon="9.2637556"><ele>829.75</ele><time>2026-04-19T14:52:32.726Z</time></trkpt><trkpt lat="44.754809" lon="9.263595"><ele>830.0</ele><time>2026-04-19T14:52:33.726Z</time></trkpt><trkpt lat="44.7547619" lon="9.2634163"><ele>830.0</ele><time>2026-04-19T14:52:34.726Z</time></trkpt><trkpt lat="44.754733" lon="9.2632216"><ele>830.0</ele><time>2026-04-19T14:52:35.725Z</time></trkpt><trkpt lat="44.7547389" lon="9.2630369"><ele>830.0</ele><time>2026-04-19T14:52:36.725Z</time></trkpt><trkpt lat="44.7547708" lon="9.2628511"><ele>830.0</ele><time>2026-04-19T14:52:37.726Z</time></trkpt><trkpt lat="44.7548114" lon="9.2626609"><ele>829.75</ele><time>2026-04-19T14:52:38.725Z</time></trkpt><trkpt lat="44.754842" lon="9.2624811"><ele>829.5</ele><time>2026-04-19T14:52:39.726Z</time></trkpt><trkpt lat="44.7548679" lon="9.2623098"><ele>829.25</ele><time>2026-04-19T14:52:40.726Z</time></trkpt><trkpt lat="44.7548793" lon="9.2621442"><ele>829.0</ele><time>2026-04-19T14:52:41.726Z</time></trkpt><trkpt lat="44.7548751" lon="9.2619817"><ele>827.8000000000001</ele><time>2026-04-19T14:52:42.726Z</time></trkpt><trkpt lat="44.7548515" lon="9.2618321"><ele>826.6</ele><time>2026-04-19T14:52:43.726Z</time></trkpt><trkpt lat="44.7548279" lon="9.2617047"><ele>825.4</ele><time>2026-04-19T14:52:44.726Z</time></trkpt><trkpt lat="44.7548177" lon="9.2615993"><ele>824.2</ele><time>2026-04-19T14:52:45.726Z</time></trkpt><trkpt lat="44.7548394" lon="9.2614889"><ele>823.0</ele><time>2026-04-19T14:52:46.726Z</time></trkpt><trkpt lat="44.7548807" lon="9.2613602"><ele>822.0</ele><time>2026-04-19T14:52:47.726Z</time></trkpt><trkpt lat="44.7549358" lon="9.261242"><ele>821.0</ele><time>2026-04-19T14:52:48.726Z</time></trkpt><trkpt lat="44.7549877" lon="9.2611166"><ele>820.0</ele><time>2026-04-19T14:52:49.726Z</time></trkpt><trkpt lat="44.755019" lon="9.2609713"><ele>819.0</ele><time>2026-04-19T14:52:50.726Z</time></trkpt><trkpt lat="44.7550289" lon="9.2608124"><ele>818.0</ele><time>2026-04-19T14:52:51.726Z</time></trkpt><trkpt lat="44.755035" lon="9.2606396"><ele>816.0</ele><time>2026-04-19T14:52:52.726Z</time></trkpt><trkpt lat="44.7550378" lon="9.2604601"><ele>814.0</ele><time>2026-04-19T14:52:53.726Z</time></trkpt><trkpt lat="44.7550435" lon="9.2602904"><ele>812.0</ele><time>2026-04-19T14:52:54.726Z</time></trkpt><trkpt lat="44.7550705" lon="9.2601297"><ele>810.0</ele><time>2026-04-19T14:52:55.726Z</time></trkpt><trkpt lat="44.7551227" lon="9.2599885"><ele>810.0</ele><time>2026-04-19T14:52:56.726Z</time></trkpt><trkpt lat="44.7551938" lon="9.2598716"><ele>810.0</ele><time>2026-04-19T14:52:57.726Z</time></trkpt><trkpt lat="44.7552897" lon="9.2597754"><ele>810.0</ele><time>2026-04-19T14:52:58.726Z</time></trkpt><trkpt lat="44.7554092" lon="9.2596776"><ele>810.0</ele><time>2026-04-19T14:52:59.726Z</time></trkpt><trkpt lat="44.7555306" lon="9.2595542"><ele>811.5</ele><time>2026-04-19T14:53:00.725Z</time></trkpt><trkpt lat="44.755648" lon="9.2594175"><ele>813.0</ele><time>2026-04-19T14:53:01.726Z</time></trkpt><trkpt lat="44.7557492" lon="9.2592663"><ele>814.5</ele><time>2026-04-19T14:53:02.726Z</time></trkpt><trkpt lat="44.7558388" lon="9.2591209"><ele>816.0</ele><time>2026-04-19T14:53:03.725Z</time></trkpt><trkpt lat="44.7559163" lon="9.2589725"><ele>811.0</ele><time>2026-04-19T14:53:04.726Z</time></trkpt><trkpt lat="44.7559961" lon="9.2588175"><ele>806.0</ele><time>2026-04-19T14:53:05.726Z</time></trkpt><trkpt lat="44.7560711" lon="9.2586196"><ele>801.0</ele><time>2026-04-19T14:53:06.726Z</time></trkpt><trkpt lat="44.756134" lon="9.2584156"><ele>807.3333333333333</ele><time>2026-04-19T14:53:07.726Z</time></trkpt><trkpt lat="44.7561843" lon="9.2582005"><ele>813.6666666666666</ele><time>2026-04-19T14:53:08.726Z</time></trkpt><trkpt lat="44.7562131" lon="9.2579908"><ele>820.0</ele><time>2026-04-19T14:53:09.725Z</time></trkpt><trkpt lat="44.7562181" lon="9.257789"><ele>820.0</ele><time>2026-04-19T14:53:10.726Z</time></trkpt><trkpt lat="44.7562128" lon="9.2575979"><ele>820.0</ele><time>2026-04-19T14:53:11.726Z</time></trkpt><trkpt lat="44.7562224" lon="9.2574219"><ele>820.0</ele><time>2026-04-19T14:53:12.725Z</time></trkpt><trkpt lat="44.7562429" lon="9.2572624"><ele>820.0</ele><time>2026-04-19T14:53:13.726Z</time></trkpt><trkpt lat="44.7562861" lon="9.2571184"><ele>814.75</ele><time>2026-04-19T14:53:14.726Z</time></trkpt><trkpt lat="44.7563568" lon="9.2569702"><ele>809.5</ele><time>2026-04-19T14:53:15.726Z</time></trkpt><trkpt lat="44.7564589" lon="9.2568298"><ele>804.25</ele><time>2026-04-19T14:53:16.726Z</time></trkpt><trkpt lat="44.7565641" lon="9.2566974"><ele>799.0</ele><time>2026-04-19T14:53:17.726Z</time></trkpt><trkpt lat="44.7566765" lon="9.2565767"><ele>799.0</ele><time>2026-04-19T14:53:18.726Z</time></trkpt><trkpt lat="44.7567854" lon="9.256478"><ele>799.0</ele><time>2026-04-19T14:53:19.726Z</time></trkpt><trkpt lat="44.7568935" lon="9.2563811"><ele>799.0</ele><time>2026-04-19T14:53:20.725Z</time></trkpt><trkpt lat="44.7570048" lon="9.2562543"><ele>799.0</ele><time>2026-04-19T14:53:21.726Z</time></trkpt><trkpt lat="44.7571258" lon="9.2561091"><ele>797.25</ele><time>2026-04-19T14:53:22.726Z</time></trkpt><trkpt lat="44.7572444" lon="9.2559811"><ele>795.5</ele><time>2026-04-19T14:53:23.726Z</time></trkpt><trkpt lat="44.7573657" lon="9.2558611"><ele>793.75</ele><time>2026-04-19T14:53:24.726Z</time></trkpt><trkpt lat="44.7574833" lon="9.2557527"><ele>792.0</ele><time>2026-04-19T14:53:25.726Z</time></trkpt><trkpt lat="44.7575994" lon="9.255643"><ele>792.25</ele><time>2026-04-19T14:53:26.726Z</time></trkpt><trkpt lat="44.7576918" lon="9.2555265"><ele>792.5</ele><time>2026-04-19T14:53:27.726Z</time></trkpt><trkpt lat="44.7577586" lon="9.2553875"><ele>792.75</ele><time>2026-04-19T14:53:28.725Z</time></trkpt><trkpt lat="44.757796" lon="9.2552307"><ele>793.0</ele><time>2026-04-19T14:53:29.726Z</time></trkpt><trkpt lat="44.7578151" lon="9.2550459"><ele>793.0</ele><time>2026-04-19T14:53:30.726Z</time></trkpt><trkpt lat="44.7578214" lon="9.2548647"><ele>793.0</ele><time>2026-04-19T14:53:31.725Z</time></trkpt><trkpt lat="44.7578497" lon="9.2546929"><ele>793.0</ele><time>2026-04-19T14:53:32.726Z</time></trkpt><trkpt lat="44.7579052" lon="9.2545591"><ele>793.0</ele><time>2026-04-19T14:53:33.726Z</time></trkpt><trkpt lat="44.7579761" lon="9.2544604"><ele>789.75</ele><time>2026-04-19T14:53:34.726Z</time></trkpt><trkpt lat="44.758068" lon="9.2543938"><ele>786.5</ele><time>2026-04-19T14:53:35.726Z</time></trkpt><trkpt lat="44.7581839" lon="9.2543456"><ele>783.25</ele><time>2026-04-19T14:53:36.726Z</time></trkpt><trkpt lat="44.7583165" lon="9.2543084"><ele>780.0</ele><time>2026-04-19T14:53:37.726Z</time></trkpt><trkpt lat="44.7584669" lon="9.2542748"><ele>780.75</ele><time>2026-04-19T14:53:38.726Z</time></trkpt><trkpt lat="44.7586209" lon="9.2542442"><ele>781.5</ele><time>2026-04-19T14:53:39.726Z</time></trkpt><trkpt lat="44.7587635" lon="9.2542202"><ele>782.25</ele><time>2026-04-19T14:53:40.726Z</time></trkpt><trkpt lat="44.7588947" lon="9.2541856"><ele>783.0</ele><time>2026-04-19T14:53:41.726Z</time></trkpt><trkpt lat="44.7590145" lon="9.2541133"><ele>783.0</ele><time>2026-04-19T14:53:42.726Z</time></trkpt><trkpt lat="44.7591191" lon="9.2540077"><ele>783.0</ele><time>2026-04-19T14:53:43.726Z</time></trkpt><trkpt lat="44.7592112" lon="9.2538564"><ele>783.0</ele><time>2026-04-19T14:53:44.726Z</time></trkpt><trkpt lat="44.7593004" lon="9.2536836"><ele>783.0</ele><time>2026-04-19T14:53:45.726Z</time></trkpt><trkpt lat="44.759381" lon="9.253477"><ele>783.3333333333333</ele><time>2026-04-19T14:53:46.725Z</time></trkpt><trkpt lat="44.7594541" lon="9.2532451"><ele>783.6666666666666</ele><time>2026-04-19T14:53:47.725Z</time></trkpt><trkpt lat="44.7595344" lon="9.2529963"><ele>784.0</ele><time>2026-04-19T14:53:48.726Z</time></trkpt><trkpt lat="44.7596222" lon="9.2527301"><ele>781.6666666666666</ele><time>2026-04-19T14:53:49.725Z</time></trkpt><trkpt lat="44.7597092" lon="9.2524757"><ele>779.3333333333333</ele><time>2026-04-19T14:53:50.725Z</time></trkpt><trkpt lat="44.7597912" lon="9.2522463"><ele>777.0</ele><time>2026-04-19T14:53:51.725Z</time></trkpt><trkpt lat="44.7598595" lon="9.2520373"><ele>775.25</ele><time>2026-04-19T14:53:52.726Z</time></trkpt><trkpt lat="44.7599205" lon="9.2518646"><ele>773.5</ele><time>2026-04-19T14:53:53.725Z</time></trkpt><trkpt lat="44.7599784" lon="9.2517161"><ele>771.75</ele><time>2026-04-19T14:53:54.726Z</time></trkpt><trkpt lat="44.7600409" lon="9.2515997"><ele>770.0</ele><time>2026-04-19T14:53:55.725Z</time></trkpt><trkpt lat="44.7601183" lon="9.2515243"><ele>768.5</ele><time>2026-04-19T14:53:56.726Z</time></trkpt><trkpt lat="44.7602075" lon="9.2514854"><ele>767.0</ele><time>2026-04-19T14:53:57.726Z</time></trkpt><trkpt lat="44.7603181" lon="9.251502"><ele>765.5</ele><time>2026-04-19T14:53:58.725Z</time></trkpt><trkpt lat="44.7604448" lon="9.2515534"><ele>764.0</ele><time>2026-04-19T14:53:59.726Z</time></trkpt><trkpt lat="44.7605709" lon="9.2516172"><ele>764.0</ele><time>2026-04-19T14:54:00.726Z</time></trkpt><trkpt lat="44.7606877" lon="9.2516846"><ele>764.0</ele><time>2026-04-19T14:54:01.726Z</time></trkpt><trkpt lat="44.7607915" lon="9.2517578"><ele>764.0</ele><time>2026-04-19T14:54:02.726Z</time></trkpt><trkpt lat="44.7608728" lon="9.2518448"><ele>764.0</ele><time>2026-04-19T14:54:03.726Z</time></trkpt><trkpt lat="44.7609244" lon="9.2519756"><ele>764.0</ele><time>2026-04-19T14:54:04.726Z</time></trkpt><trkpt lat="44.7609501" lon="9.2521298"><ele>764.0</ele><time>2026-04-19T14:54:05.726Z</time></trkpt><trkpt lat="44.7609724" lon="9.2523109"><ele>764.0</ele><time>2026-04-19T14:54:06.726Z</time></trkpt><trkpt lat="44.7610167" lon="9.2524777"><ele>764.0</ele><time>2026-04-19T14:54:07.726Z</time></trkpt><trkpt lat="44.7611037" lon="9.2526288"><ele>762.5</ele><time>2026-04-19T14:54:08.726Z</time></trkpt><trkpt lat="44.7612191" lon="9.2527315"><ele>761.0</ele><time>2026-04-19T14:54:09.726Z</time></trkpt><trkpt lat="44.7613194" lon="9.252833"><ele>759.5</ele><time>2026-04-19T14:54:10.725Z</time></trkpt><trkpt lat="44.761425" lon="9.2529111"><ele>758.0</ele><time>2026-04-19T14:54:11.726Z</time></trkpt><trkpt lat="44.7615391" lon="9.2529579"><ele>758.0</ele><time>2026-04-19T14:54:12.726Z</time></trkpt><trkpt lat="44.7616466" lon="9.252987"><ele>758.0</ele><time>2026-04-19T14:54:13.726Z</time></trkpt><trkpt lat="44.7617807" lon="9.2529731"><ele>758.0</ele><time>2026-04-19T14:54:14.726Z</time></trkpt><trkpt lat="44.7619244" lon="9.2529034"><ele>758.0</ele><time>2026-04-19T14:54:15.726Z</time></trkpt><trkpt lat="44.7620658" lon="9.25281"><ele>760.0</ele><time>2026-04-19T14:54:16.725Z</time></trkpt><trkpt lat="44.7621957" lon="9.2526626"><ele>762.0</ele><time>2026-04-19T14:54:17.726Z</time></trkpt><trkpt lat="44.7623222" lon="9.2524886"><ele>764.0</ele><time>2026-04-19T14:54:18.726Z</time></trkpt><trkpt lat="44.7624486" lon="9.2523072"><ele>761.6666666666666</ele><time>2026-04-19T14:54:19.726Z</time></trkpt><trkpt lat="44.7625676" lon="9.2521365"><ele>759.3333333333334</ele><time>2026-04-19T14:54:20.726Z</time></trkpt><trkpt lat="44.7626846" lon="9.2519697"><ele>757.0</ele><time>2026-04-19T14:54:21.726Z</time></trkpt><trkpt lat="44.7627935" lon="9.2518583"><ele>757.0</ele><time>2026-04-19T14:54:22.726Z</time></trkpt><trkpt lat="44.7629029" lon="9.2517881"><ele>757.0</ele><time>2026-04-19T14:54:23.726Z</time></trkpt><trkpt lat="44.7630192" lon="9.2517737"><ele>757.0</ele><time>2026-04-19T14:54:24.726Z</time></trkpt><trkpt lat="44.7631328" lon="9.2518077"><ele>757.0</ele><time>2026-04-19T14:54:25.726Z</time></trkpt><trkpt lat="44.7632626" lon="9.251899"><ele>757.0</ele><time>2026-04-19T14:54:26.726Z</time></trkpt><trkpt lat="44.7634" lon="9.2519945"><ele>757.0</ele><time>2026-04-19T14:54:27.726Z</time></trkpt><trkpt lat="44.7635336" lon="9.2520637"><ele>757.0</ele><time>2026-04-19T14:54:28.726Z</time></trkpt><trkpt lat="44.7636685" lon="9.2521151"><ele>757.0</ele><time>2026-04-19T14:54:29.726Z</time></trkpt><trkpt lat="44.7638051" lon="9.2521448"><ele>757.0</ele><time>2026-04-19T14:54:30.726Z</time></trkpt><trkpt lat="44.7639735" lon="9.2521523"><ele>757.0</ele><time>2026-04-19T14:54:31.726Z</time></trkpt><trkpt lat="44.7641466" lon="9.2521392"><ele>757.0</ele><time>2026-04-19T14:54:32.726Z</time></trkpt><trkpt lat="44.7643101" lon="9.2521226"><ele>758.5</ele><time>2026-04-19T14:54:33.726Z</time></trkpt><trkpt lat="44.7644587" lon="9.2521229"><ele>760.0</ele><time>2026-04-19T14:54:34.725Z</time></trkpt><trkpt lat="44.7645939" lon="9.2521317"><ele>761.5</ele><time>2026-04-19T14:54:35.726Z</time></trkpt><trkpt lat="44.7647173" lon="9.2521523"><ele>763.0</ele><time>2026-04-19T14:54:36.726Z</time></trkpt><trkpt lat="44.7648451" lon="9.2522008"><ele>763.0</ele><time>2026-04-19T14:54:37.726Z</time></trkpt><trkpt lat="44.7649748" lon="9.252262"><ele>763.0</ele><time>2026-04-19T14:54:38.726Z</time></trkpt><trkpt lat="44.7651159" lon="9.2523391"><ele>763.0</ele><time>2026-04-19T14:54:39.726Z</time></trkpt><trkpt lat="44.7652822" lon="9.2524426"><ele>761.6666666666667</ele><time>2026-04-19T14:54:40.726Z</time></trkpt><trkpt lat="44.765455" lon="9.2525499"><ele>760.3333333333334</ele><time>2026-04-19T14:54:41.726Z</time></trkpt><trkpt lat="44.7656197" lon="9.2526435"><ele>759.0</ele><time>2026-04-19T14:54:42.726Z</time></trkpt><trkpt lat="44.765784" lon="9.2527385"><ele>759.0</ele><time>2026-04-19T14:54:43.726Z</time></trkpt><trkpt lat="44.7659397" lon="9.2528366"><ele>759.0</ele><time>2026-04-19T14:54:44.726Z</time></trkpt><trkpt lat="44.7660865" lon="9.2529425"><ele>759.0</ele><time>2026-04-19T14:54:45.726Z</time></trkpt><trkpt lat="44.766221" lon="9.2530485"><ele>756.5</ele><time>2026-04-19T14:54:46.726Z</time></trkpt><trkpt lat="44.7663441" lon="9.2531649"><ele>754.0</ele><time>2026-04-19T14:54:47.726Z</time></trkpt><trkpt lat="44.7664527" lon="9.2533106"><ele>751.5</ele><time>2026-04-19T14:54:48.726Z</time></trkpt><trkpt lat="44.7665327" lon="9.2534829"><ele>749.0</ele><time>2026-04-19T14:54:49.726Z</time></trkpt><trkpt lat="44.7665993" lon="9.2536749"><ele>749.0</ele><time>2026-04-19T14:54:50.726Z</time></trkpt><trkpt lat="44.7666585" lon="9.2538764"><ele>749.0</ele><time>2026-04-19T14:54:51.726Z</time></trkpt><trkpt lat="44.7667223" lon="9.2540672"><ele>749.0</ele><time>2026-04-19T14:54:52.725Z</time></trkpt><trkpt lat="44.7667858" lon="9.2542465"><ele>749.0</ele><time>2026-04-19T14:54:53.725Z</time></trkpt><trkpt lat="44.766842" lon="9.254429"><ele>744.5</ele><time>2026-04-19T14:54:54.726Z</time></trkpt><trkpt lat="44.7668782" lon="9.2546082"><ele>740.0</ele><time>2026-04-19T14:54:55.726Z</time></trkpt><trkpt lat="44.7669068" lon="9.2547934"><ele>735.5</ele><time>2026-04-19T14:54:56.726Z</time></trkpt><trkpt lat="44.7669331" lon="9.2550033"><ele>731.0</ele><time>2026-04-19T14:54:57.726Z</time></trkpt><trkpt lat="44.7669595" lon="9.2552103"><ele>731.0</ele><time>2026-04-19T14:54:58.726Z</time></trkpt><trkpt lat="44.7669907" lon="9.2554388"><ele>731.0</ele><time>2026-04-19T14:54:59.726Z</time></trkpt><trkpt lat="44.7670163" lon="9.2556649"><ele>731.0</ele><time>2026-04-19T14:55:00.726Z</time></trkpt><trkpt lat="44.7670388" lon="9.2558835"><ele>731.5</ele><time>2026-04-19T14:55:01.726Z</time></trkpt><trkpt lat="44.767066" lon="9.2560964"><ele>732.0</ele><time>2026-04-19T14:55:02.726Z</time></trkpt><trkpt lat="44.7670796" lon="9.2563053"><ele>732.5</ele><time>2026-04-19T14:55:03.726Z</time></trkpt><trkpt lat="44.7671013" lon="9.2565061"><ele>733.0</ele><time>2026-04-19T14:55:04.725Z</time></trkpt><trkpt lat="44.767156" lon="9.2566989"><ele>734.0</ele><time>2026-04-19T14:55:05.726Z</time></trkpt><trkpt lat="44.7672232" lon="9.256865"><ele>735.0</ele><time>2026-04-19T14:55:06.726Z</time></trkpt><trkpt lat="44.7673211" lon="9.257019"><ele>736.0</ele><time>2026-04-19T14:55:07.726Z</time></trkpt><trkpt lat="44.76743" lon="9.2571538"><ele>737.0</ele><time>2026-04-19T14:55:08.725Z</time></trkpt><trkpt lat="44.7675505" lon="9.2572736"><ele>739.75</ele><time>2026-04-19T14:55:09.726Z</time></trkpt><trkpt lat="44.7676742" lon="9.2573812"><ele>742.5</ele><time>2026-04-19T14:55:10.725Z</time></trkpt><trkpt lat="44.767784" lon="9.2575037"><ele>745.25</ele><time>2026-04-19T14:55:11.726Z</time></trkpt><trkpt lat="44.767856" lon="9.25764"><ele>748.0</ele><time>2026-04-19T14:55:12.725Z</time></trkpt><trkpt lat="44.76789" lon="9.2578031"><ele>740.25</ele><time>2026-04-19T14:55:13.726Z</time></trkpt><trkpt lat="44.7678944" lon="9.2579745"><ele>732.5</ele><time>2026-04-19T14:55:14.725Z</time></trkpt><trkpt lat="44.7678819" lon="9.2581885"><ele>724.75</ele><time>2026-04-19T14:55:15.726Z</time></trkpt><trkpt lat="44.7678591" lon="9.2583991"><ele>717.0</ele><time>2026-04-19T14:55:16.725Z</time></trkpt><trkpt lat="44.7678418" lon="9.2585736"><ele>717.0</ele><time>2026-04-19T14:55:17.726Z</time></trkpt><trkpt lat="44.7678311" lon="9.2587213"><ele>717.0</ele><time>2026-04-19T14:55:18.726Z</time></trkpt><trkpt lat="44.7678372" lon="9.258858"><ele>717.0</ele><time>2026-04-19T14:55:19.726Z</time></trkpt><trkpt lat="44.7678284" lon="9.2589775"><ele>717.0</ele><time>2026-04-19T14:55:20.726Z</time></trkpt><trkpt lat="44.7678664" lon="9.2591008"><ele>717.0</ele><time>2026-04-19T14:55:21.726Z</time></trkpt><trkpt lat="44.767945" lon="9.2592335"><ele>719.25</ele><time>2026-04-19T14:55:22.726Z</time></trkpt><trkpt lat="44.7680417" lon="9.2593405"><ele>721.5</ele><time>2026-04-19T14:55:23.726Z</time></trkpt><trkpt lat="44.7681437" lon="9.2594111"><ele>723.75</ele><time>2026-04-19T14:55:24.725Z</time></trkpt><trkpt lat="44.7682609" lon="9.2594349"><ele>726.0</ele><time>2026-04-19T14:55:25.725Z</time></trkpt><trkpt lat="44.7683678" lon="9.2594144"><ele>726.0</ele><time>2026-04-19T14:55:26.726Z</time></trkpt><trkpt lat="44.7684958" lon="9.2593478"><ele>726.0</ele><time>2026-04-19T14:55:27.726Z</time></trkpt><trkpt lat="44.7686293" lon="9.2592804"><ele>726.0</ele><time>2026-04-19T14:55:28.726Z</time></trkpt><trkpt lat="44.7687749" lon="9.2592362"><ele>726.0</ele><time>2026-04-19T14:55:29.726Z</time></trkpt><trkpt lat="44.7689236" lon="9.2592469"><ele>727.25</ele><time>2026-04-19T14:55:30.726Z</time></trkpt><trkpt lat="44.7690749" lon="9.2592814"><ele>728.5</ele><time>2026-04-19T14:55:31.726Z</time></trkpt><trkpt lat="44.7692204" lon="9.2593118"><ele>729.75</ele><time>2026-04-19T14:55:32.726Z</time></trkpt><trkpt lat="44.7693553" lon="9.2593083"><ele>731.0</ele><time>2026-04-19T14:55:33.726Z</time></trkpt><trkpt lat="44.7694716" lon="9.2592914"><ele>732.75</ele><time>2026-04-19T14:55:34.725Z</time></trkpt><trkpt lat="44.7695763" lon="9.2592475"><ele>734.5</ele><time>2026-04-19T14:55:35.726Z</time></trkpt><trkpt lat="44.7696857" lon="9.2591681"><ele>736.25</ele><time>2026-04-19T14:55:36.726Z</time></trkpt><trkpt lat="44.7697856" lon="9.2590675"><ele>738.0</ele><time>2026-04-19T14:55:37.726Z</time></trkpt><trkpt lat="44.7698778" lon="9.2589566"><ele>737.8</ele><time>2026-04-19T14:55:38.725Z</time></trkpt><trkpt lat="44.7699481" lon="9.2588478"><ele>737.5999999999999</ele><time>2026-04-19T14:55:39.726Z</time></trkpt><trkpt lat="44.7699958" lon="9.2587319"><ele>737.4000000000001</ele><time>2026-04-19T14:55:40.726Z</time></trkpt><trkpt lat="44.7700122" lon="9.2585937"><ele>737.2</ele><time>2026-04-19T14:55:41.726Z</time></trkpt><trkpt lat="44.7699946" lon="9.258441"><ele>737.0</ele><time>2026-04-19T14:55:42.726Z</time></trkpt><trkpt lat="44.7699642" lon="9.2582772"><ele>735.25</ele><time>2026-04-19T14:55:43.726Z</time></trkpt><trkpt lat="44.7699371" lon="9.2581086"><ele>733.5</ele><time>2026-04-19T14:55:44.726Z</time></trkpt><trkpt lat="44.7699317" lon="9.2579523"><ele>731.75</ele><time>2026-04-19T14:55:45.725Z</time></trkpt><trkpt lat="44.7699565" lon="9.2577928"><ele>730.0</ele><time>2026-04-19T14:55:46.726Z</time></trkpt><trkpt lat="44.7700084" lon="9.2576351"><ele>730.0</ele><time>2026-04-19T14:55:47.726Z</time></trkpt><trkpt lat="44.7700935" lon="9.2574886"><ele>730.0</ele><time>2026-04-19T14:55:48.726Z</time></trkpt><trkpt lat="44.7702051" lon="9.2573375"><ele>730.0</ele><time>2026-04-19T14:55:49.726Z</time></trkpt><trkpt lat="44.7703251" lon="9.2572114"><ele>730.0</ele><time>2026-04-19T14:55:50.726Z</time></trkpt><trkpt lat="44.7704418" lon="9.2570931"><ele>730.0</ele><time>2026-04-19T14:55:51.726Z</time></trkpt><trkpt lat="44.7705478" lon="9.2569862"><ele>730.0</ele><time>2026-04-19T14:55:52.725Z</time></trkpt><trkpt lat="44.7706454" lon="9.2568877"><ele>730.0</ele><time>2026-04-19T14:55:53.726Z</time></trkpt><trkpt lat="44.7707386" lon="9.2568033"><ele>730.0</ele><time>2026-04-19T14:55:54.726Z</time></trkpt><trkpt lat="44.7708378" lon="9.2567433"><ele>730.0</ele><time>2026-04-19T14:55:55.726Z</time></trkpt><trkpt lat="44.7709345" lon="9.2567134"><ele>730.0</ele><time>2026-04-19T14:55:56.725Z</time></trkpt><trkpt lat="44.7710435" lon="9.2567186"><ele>730.0</ele><time>2026-04-19T14:55:57.726Z</time></trkpt><trkpt lat="44.7711505" lon="9.2567671"><ele>730.0</ele><time>2026-04-19T14:55:58.726Z</time></trkpt><trkpt lat="44.7712815" lon="9.2568529"><ele>730.0</ele><time>2026-04-19T14:55:59.726Z</time></trkpt><trkpt lat="44.7714233" lon="9.2569408"><ele>730.0</ele><time>2026-04-19T14:56:00.726Z</time></trkpt><trkpt lat="44.7715479" lon="9.2570115"><ele>730.0</ele><time>2026-04-19T14:56:01.726Z</time></trkpt><trkpt lat="44.7716702" lon="9.257074"><ele>730.0</ele><time>2026-04-19T14:56:02.726Z</time></trkpt><trkpt lat="44.7717902" lon="9.2570819"><ele>730.0</ele><time>2026-04-19T14:56:03.726Z</time></trkpt><trkpt lat="44.7719196" lon="9.2570639"><ele>730.0</ele><time>2026-04-19T14:56:04.726Z</time></trkpt><trkpt lat="44.7720568" lon="9.2570439"><ele>730.0</ele><time>2026-04-19T14:56:05.726Z</time></trkpt><trkpt lat="44.7722027" lon="9.2570217"><ele>730.0</ele><time>2026-04-19T14:56:06.726Z</time></trkpt><trkpt lat="44.772344" lon="9.2570099"><ele>730.0</ele><time>2026-04-19T14:56:07.726Z</time></trkpt><trkpt lat="44.7724788" lon="9.256995"><ele>730.0</ele><time>2026-04-19T14:56:08.726Z</time></trkpt><trkpt lat="44.7726087" lon="9.2569813"><ele>730.0</ele><time>2026-04-19T14:56:09.725Z</time></trkpt><trkpt lat="44.7727363" lon="9.2570149"><ele>730.0</ele><time>2026-04-19T14:56:10.726Z</time></trkpt><trkpt lat="44.7728591" lon="9.2570753"><ele>729.0</ele><time>2026-04-19T14:56:11.726Z</time></trkpt><trkpt lat="44.7729892" lon="9.2571469"><ele>728.0</ele><time>2026-04-19T14:56:12.725Z</time></trkpt><trkpt lat="44.7731216" lon="9.2572081"><ele>727.0</ele><time>2026-04-19T14:56:13.726Z</time></trkpt><trkpt lat="44.7732616" lon="9.2572574"><ele>726.0</ele><time>2026-04-19T14:56:14.726Z</time></trkpt><trkpt lat="44.7733934" lon="9.2573045"><ele>729.0</ele><time>2026-04-19T14:56:15.726Z</time></trkpt><trkpt lat="44.7735306" lon="9.2573458"><ele>732.0</ele><time>2026-04-19T14:56:16.726Z</time></trkpt><trkpt lat="44.7736659" lon="9.2573621"><ele>735.0</ele><time>2026-04-19T14:56:17.726Z</time></trkpt><trkpt lat="44.773789" lon="9.2573594"><ele>738.0</ele><time>2026-04-19T14:56:18.726Z</time></trkpt><trkpt lat="44.7739059" lon="9.2573337"><ele>738.0</ele><time>2026-04-19T14:56:19.726Z</time></trkpt><trkpt lat="44.7740116" lon="9.2572872"><ele>738.0</ele><time>2026-04-19T14:56:20.726Z</time></trkpt><trkpt lat="44.7740992" lon="9.2572107"><ele>738.0</ele><time>2026-04-19T14:56:21.726Z</time></trkpt><trkpt lat="44.774174" lon="9.2571043"><ele>738.0</ele><time>2026-04-19T14:56:22.726Z</time></trkpt><trkpt lat="44.774231" lon="9.2569836"><ele>738.0</ele><time>2026-04-19T14:56:23.726Z</time></trkpt><trkpt lat="44.7742718" lon="9.2568602"><ele>737.0</ele><time>2026-04-19T14:56:24.726Z</time></trkpt><trkpt lat="44.7742884" lon="9.2567312"><ele>736.0</ele><time>2026-04-19T14:56:25.726Z</time></trkpt><trkpt lat="44.7742893" lon="9.2565794"><ele>735.0</ele><time>2026-04-19T14:56:26.726Z</time></trkpt><trkpt lat="44.7742868" lon="9.2564054"><ele>734.0</ele><time>2026-04-19T14:56:27.726Z</time></trkpt><trkpt lat="44.7742723" lon="9.2562049"><ele>732.6666666666666</ele><time>2026-04-19T14:56:28.726Z</time></trkpt><trkpt lat="44.774251" lon="9.2559659"><ele>731.3333333333334</ele><time>2026-04-19T14:56:29.726Z</time></trkpt><trkpt lat="44.7742235" lon="9.2557286"><ele>730.0</ele><time>2026-04-19T14:56:30.726Z</time></trkpt><trkpt lat="44.7741988" lon="9.2555188"><ele>730.0</ele><time>2026-04-19T14:56:31.726Z</time></trkpt><trkpt lat="44.7741649" lon="9.2553417"><ele>730.0</ele><time>2026-04-19T14:56:32.725Z</time></trkpt><trkpt lat="44.7741461" lon="9.2551694"><ele>730.0</ele><time>2026-04-19T14:56:33.726Z</time></trkpt><trkpt lat="44.7741593" lon="9.2549995"><ele>730.0</ele><time>2026-04-19T14:56:34.725Z</time></trkpt><trkpt lat="44.7741955" lon="9.254849"><ele>729.5</ele><time>2026-04-19T14:56:35.726Z</time></trkpt><trkpt lat="44.7742549" lon="9.2546933"><ele>729.0</ele><time>2026-04-19T14:56:36.726Z</time></trkpt><trkpt lat="44.7743211" lon="9.2545234"><ele>728.5</ele><time>2026-04-19T14:56:37.726Z</time></trkpt><trkpt lat="44.7743598" lon="9.2543554"><ele>728.0</ele><time>2026-04-19T14:56:38.726Z</time></trkpt><trkpt lat="44.7743692" lon="9.2541765"><ele>728.0</ele><time>2026-04-19T14:56:39.726Z</time></trkpt><trkpt lat="44.7743504" lon="9.2539867"><ele>728.0</ele><time>2026-04-19T14:56:40.726Z</time></trkpt><trkpt lat="44.7743302" lon="9.2537914"><ele>728.0</ele><time>2026-04-19T14:56:41.726Z</time></trkpt><trkpt lat="44.774313" lon="9.253605"><ele>728.0</ele><time>2026-04-19T14:56:42.726Z</time></trkpt><trkpt lat="44.7743037" lon="9.2534254"><ele>727.5</ele><time>2026-04-19T14:56:43.726Z</time></trkpt><trkpt lat="44.7743052" lon="9.253263"><ele>727.0</ele><time>2026-04-19T14:56:44.725Z</time></trkpt><trkpt lat="44.7743198" lon="9.2530991"><ele>726.5</ele><time>2026-04-19T14:56:45.726Z</time></trkpt><trkpt lat="44.7743528" lon="9.2529325"><ele>726.0</ele><time>2026-04-19T14:56:46.726Z</time></trkpt><trkpt lat="44.7744022" lon="9.2527777"><ele>724.5</ele><time>2026-04-19T14:56:47.725Z</time></trkpt><trkpt lat="44.7744636" lon="9.2526344"><ele>723.0</ele><time>2026-04-19T14:56:48.726Z</time></trkpt><trkpt lat="44.7745444" lon="9.2525084"><ele>721.5</ele><time>2026-04-19T14:56:49.726Z</time></trkpt><trkpt lat="44.7746426" lon="9.2523878"><ele>720.0</ele><time>2026-04-19T14:56:50.726Z</time></trkpt><trkpt lat="44.7747529" lon="9.2522624"><ele>720.0</ele><time>2026-04-19T14:56:51.726Z</time></trkpt><trkpt lat="44.7748761" lon="9.2521503"><ele>720.0</ele><time>2026-04-19T14:56:52.726Z</time></trkpt><trkpt lat="44.7750118" lon="9.2520644"><ele>720.0</ele><time>2026-04-19T14:56:53.726Z</time></trkpt><trkpt lat="44.7751656" lon="9.2520016"><ele>725.0</ele><time>2026-04-19T14:56:54.726Z</time></trkpt><trkpt lat="44.7753312" lon="9.2519336"><ele>730.0</ele><time>2026-04-19T14:56:55.726Z</time></trkpt><trkpt lat="44.7754941" lon="9.2518573"><ele>735.0</ele><time>2026-04-19T14:56:56.726Z</time></trkpt><trkpt lat="44.7756482" lon="9.2517728"><ele>735.0</ele><time>2026-04-19T14:56:57.726Z</time></trkpt><trkpt lat="44.7757921" lon="9.2516725"><ele>735.0</ele><time>2026-04-19T14:56:58.726Z</time></trkpt><trkpt lat="44.7759302" lon="9.2515721"><ele>735.0</ele><time>2026-04-19T14:56:59.726Z</time></trkpt><trkpt lat="44.7760603" lon="9.2514692"><ele>734.0</ele><time>2026-04-19T14:57:00.725Z</time></trkpt><trkpt lat="44.7761708" lon="9.2513246"><ele>733.0</ele><time>2026-04-19T14:57:01.725Z</time></trkpt><trkpt lat="44.7762702" lon="9.2511675"><ele>732.0</ele><time>2026-04-19T14:57:02.726Z</time></trkpt><trkpt lat="44.7763598" lon="9.250991"><ele>732.0</ele><time>2026-04-19T14:57:03.726Z</time></trkpt><trkpt lat="44.7764385" lon="9.2508132"><ele>732.0</ele><time>2026-04-19T14:57:04.726Z</time></trkpt><trkpt lat="44.7765217" lon="9.2506836"><ele>732.0</ele><time>2026-04-19T14:57:05.726Z</time></trkpt><trkpt lat="44.7766128" lon="9.2506066"><ele>732.0</ele><time>2026-04-19T14:57:06.726Z</time></trkpt><trkpt lat="44.7767226" lon="9.2505898"><ele>733.25</ele><time>2026-04-19T14:57:07.726Z</time></trkpt><trkpt lat="44.7768489" lon="9.2506208"><ele>734.5</ele><time>2026-04-19T14:57:08.726Z</time></trkpt><trkpt lat="44.7769867" lon="9.250649"><ele>735.75</ele><time>2026-04-19T14:57:09.726Z</time></trkpt><trkpt lat="44.7771182" lon="9.2506503"><ele>737.0</ele><time>2026-04-19T14:57:10.726Z</time></trkpt><trkpt lat="44.7772502" lon="9.2506145"><ele>738.0</ele><time>2026-04-19T14:57:11.726Z</time></trkpt><trkpt lat="44.7773851" lon="9.2505256"><ele>739.0</ele><time>2026-04-19T14:57:12.726Z</time></trkpt><trkpt lat="44.7775155" lon="9.2504122"><ele>740.0</ele><time>2026-04-19T14:57:13.726Z</time></trkpt><trkpt lat="44.7776345" lon="9.2503161"><ele>741.0</ele><time>2026-04-19T14:57:14.726Z</time></trkpt><trkpt lat="44.7777459" lon="9.2502102"><ele>741.0</ele><time>2026-04-19T14:57:15.726Z</time></trkpt><trkpt lat="44.7778325" lon="9.2500748"><ele>741.0</ele><time>2026-04-19T14:57:16.726Z</time></trkpt><trkpt lat="44.7778978" lon="9.2499189"><ele>741.0</ele><time>2026-04-19T14:57:17.726Z</time></trkpt><trkpt lat="44.7779672" lon="9.2497402"><ele>741.0</ele><time>2026-04-19T14:57:18.726Z</time></trkpt><trkpt lat="44.7780497" lon="9.2495754"><ele>738.5</ele><time>2026-04-19T14:57:19.726Z</time></trkpt><trkpt lat="44.7781256" lon="9.2494129"><ele>736.0</ele><time>2026-04-19T14:57:20.726Z</time></trkpt><trkpt lat="44.778188" lon="9.2492526"><ele>733.5</ele><time>2026-04-19T14:57:21.726Z</time></trkpt><trkpt lat="44.7782245" lon="9.2490888"><ele>731.0</ele><time>2026-04-19T14:57:22.726Z</time></trkpt><trkpt lat="44.778237" lon="9.2489275"><ele>729.5999999999999</ele><time>2026-04-19T14:57:23.726Z</time></trkpt><trkpt lat="44.7782598" lon="9.2487748"><ele>728.2</ele><time>2026-04-19T14:57:24.726Z</time></trkpt><trkpt lat="44.7783103" lon="9.2486562"><ele>726.8</ele><time>2026-04-19T14:57:25.726Z</time></trkpt><trkpt lat="44.7783981" lon="9.248583"><ele>725.4000000000001</ele><time>2026-04-19T14:57:26.725Z</time></trkpt><trkpt lat="44.7785047" lon="9.2485361"><ele>724.0</ele><time>2026-04-19T14:57:27.726Z</time></trkpt><trkpt lat="44.7786063" lon="9.2485074"><ele>724.0</ele><time>2026-04-19T14:57:28.726Z</time></trkpt><trkpt lat="44.7786859" lon="9.2484453"><ele>724.0</ele><time>2026-04-19T14:57:29.726Z</time></trkpt><trkpt lat="44.7787297" lon="9.2483684"><ele>724.0</ele><time>2026-04-19T14:57:30.726Z</time></trkpt><trkpt lat="44.7787217" lon="9.2482016"><ele>724.0</ele><time>2026-04-19T14:57:32.725Z</time></trkpt><trkpt lat="44.7786651" lon="9.2481422"><ele>724.0</ele><time>2026-04-19T14:57:33.726Z</time></trkpt><trkpt lat="44.7785865" lon="9.2481082"><ele>724.0</ele><time>2026-04-19T14:57:34.726Z</time></trkpt><trkpt lat="44.778491" lon="9.2481093"><ele>722.0</ele><time>2026-04-19T14:57:35.726Z</time></trkpt><trkpt lat="44.7783864" lon="9.2481449"><ele>720.0</ele><time>2026-04-19T14:57:36.726Z</time></trkpt><trkpt lat="44.7782851" lon="9.2482103"><ele>718.0</ele><time>2026-04-19T14:57:37.726Z</time></trkpt><trkpt lat="44.7781879" lon="9.2483089"><ele>716.0</ele><time>2026-04-19T14:57:38.726Z</time></trkpt><trkpt lat="44.7780894" lon="9.2484533"><ele>716.0</ele><time>2026-04-19T14:57:39.726Z</time></trkpt><trkpt lat="44.7779837" lon="9.2486108"><ele>716.0</ele><time>2026-04-19T14:57:40.726Z</time></trkpt><trkpt lat="44.7778854" lon="9.2487264"><ele>716.0</ele><time>2026-04-19T14:57:41.726Z</time></trkpt><trkpt lat="44.7777822" lon="9.2488202"><ele>716.0</ele><time>2026-04-19T14:57:42.726Z</time></trkpt><trkpt lat="44.7776783" lon="9.2488837"><ele>715.5999999999999</ele><time>2026-04-19T14:57:43.725Z</time></trkpt><trkpt lat="44.7775732" lon="9.2489369"><ele>715.2</ele><time>2026-04-19T14:57:44.726Z</time></trkpt><trkpt lat="44.7774728" lon="9.2489983"><ele>714.8</ele><time>2026-04-19T14:57:45.725Z</time></trkpt><trkpt lat="44.7773776" lon="9.2490451"><ele>714.4000000000001</ele><time>2026-04-19T14:57:46.725Z</time></trkpt><trkpt lat="44.7772849" lon="9.2490519"><ele>714.0</ele><time>2026-04-19T14:57:47.726Z</time></trkpt><trkpt lat="44.7772028" lon="9.2490294"><ele>714.0</ele><time>2026-04-19T14:57:48.726Z</time></trkpt><trkpt lat="44.7771413" lon="9.2489746"><ele>714.0</ele><time>2026-04-19T14:57:49.726Z</time></trkpt><trkpt lat="44.7771151" lon="9.2488728"><ele>714.0</ele><time>2026-04-19T14:57:50.726Z</time></trkpt><trkpt lat="44.7771489" lon="9.2487379"><ele>714.0</ele><time>2026-04-19T14:57:51.725Z</time></trkpt><trkpt lat="44.7772197" lon="9.2486365"><ele>714.0</ele><time>2026-04-19T14:57:52.725Z</time></trkpt><trkpt lat="44.7772877" lon="9.2485754"><ele>714.0</ele><time>2026-04-19T14:57:53.726Z</time></trkpt><trkpt lat="44.7773469" lon="9.248527"><ele>712.0</ele><time>2026-04-19T14:57:54.726Z</time></trkpt><trkpt lat="44.7773987" lon="9.2484561"><ele>710.0</ele><time>2026-04-19T14:57:56.726Z</time></trkpt><trkpt lat="44.7773141" lon="9.2484081"><ele>708.0</ele><time>2026-04-19T14:58:00.726Z</time></trkpt><trkpt lat="44.7772029" lon="9.248485"><ele>706.0</ele><time>2026-04-19T14:58:02.726Z</time></trkpt><trkpt lat="44.777137" lon="9.2485573"><ele>704.0</ele><time>2026-04-19T14:58:03.725Z</time></trkpt><trkpt lat="44.7770633" lon="9.2486595"><ele>704.0</ele><time>2026-04-19T14:58:04.725Z</time></trkpt><trkpt lat="44.7769948" lon="9.2487796"><ele>704.0</ele><time>2026-04-19T14:58:05.725Z</time></trkpt><trkpt lat="44.776941" lon="9.2489086"><ele>704.0</ele><time>2026-04-19T14:58:06.726Z</time></trkpt><trkpt lat="44.7769006" lon="9.2490436"><ele>704.0</ele><time>2026-04-19T14:58:07.726Z</time></trkpt><trkpt lat="44.7768655" lon="9.249185"><ele>704.0</ele><time>2026-04-19T14:58:08.725Z</time></trkpt><trkpt lat="44.7768299" lon="9.2493247"><ele>703.0</ele><time>2026-04-19T14:58:09.725Z</time></trkpt><trkpt lat="44.7767871" lon="9.2494224"><ele>702.0</ele><time>2026-04-19T14:58:10.726Z</time></trkpt><trkpt lat="44.7767282" lon="9.2494762"><ele>701.0</ele><time>2026-04-19T14:58:11.725Z</time></trkpt><trkpt lat="44.7766549" lon="9.249472"><ele>700.0</ele><time>2026-04-19T14:58:12.726Z</time></trkpt><trkpt lat="44.7765629" lon="9.2494346"><ele>699.0</ele><time>2026-04-19T14:58:13.725Z</time></trkpt><trkpt lat="44.7764505" lon="9.2493831"><ele>698.0</ele><time>2026-04-19T14:58:14.726Z</time></trkpt><trkpt lat="44.7763171" lon="9.2493487"><ele>698.0</ele><time>2026-04-19T14:58:15.726Z</time></trkpt><trkpt lat="44.7761863" lon="9.2493437"><ele>698.0</ele><time>2026-04-19T14:58:16.726Z</time></trkpt><trkpt lat="44.7760591" lon="9.2493653"><ele>698.0</ele><time>2026-04-19T14:58:17.726Z</time></trkpt><trkpt lat="44.7759442" lon="9.249399"><ele>698.0</ele><time>2026-04-19T14:58:18.726Z</time></trkpt><trkpt lat="44.7758384" lon="9.249426"><ele>695.8</ele><time>2026-04-19T14:58:19.726Z</time></trkpt><trkpt lat="44.7757409" lon="9.2494325"><ele>693.5999999999999</ele><time>2026-04-19T14:58:20.726Z</time></trkpt><trkpt lat="44.7756416" lon="9.2494337"><ele>691.4000000000001</ele><time>2026-04-19T14:58:21.726Z</time></trkpt><trkpt lat="44.7755427" lon="9.2494171"><ele>689.2</ele><time>2026-04-19T14:58:22.725Z</time></trkpt><trkpt lat="44.7754418" lon="9.2493686"><ele>687.0</ele><time>2026-04-19T14:58:23.726Z</time></trkpt><trkpt lat="44.7753379" lon="9.2493147"><ele>687.0</ele><time>2026-04-19T14:58:24.725Z</time></trkpt><trkpt lat="44.775232" lon="9.2492579"><ele>687.0</ele><time>2026-04-19T14:58:25.725Z</time></trkpt><trkpt lat="44.7751313" lon="9.2492237"><ele>687.0</ele><time>2026-04-19T14:58:26.725Z</time></trkpt><trkpt lat="44.775028" lon="9.2492046"><ele>687.0</ele><time>2026-04-19T14:58:27.726Z</time></trkpt><trkpt lat="44.7749232" lon="9.2491987"><ele>687.0</ele><time>2026-04-19T14:58:28.725Z</time></trkpt><trkpt lat="44.7748279" lon="9.2492075"><ele>685.8333333333334</ele><time>2026-04-19T14:58:29.725Z</time></trkpt><trkpt lat="44.7747414" lon="9.2492408"><ele>684.6666666666666</ele><time>2026-04-19T14:58:30.726Z</time></trkpt><trkpt lat="44.7746629" lon="9.2492934"><ele>683.5</ele><time>2026-04-19T14:58:31.726Z</time></trkpt><trkpt lat="44.7746073" lon="9.2493572"><ele>682.3333333333333</ele><time>2026-04-19T14:58:32.726Z</time></trkpt><trkpt lat="44.7744969" lon="9.2494155"><ele>681.1666666666666</ele><time>2026-04-19T14:58:34.726Z</time></trkpt><trkpt lat="44.7744278" lon="9.2493897"><ele>680.0</ele><time>2026-04-19T14:58:35.726Z</time></trkpt><trkpt lat="44.7743424" lon="9.2493314"><ele>679.0</ele><time>2026-04-19T14:58:36.725Z</time></trkpt><trkpt lat="44.7742338" lon="9.2492479"><ele>678.0</ele><time>2026-04-19T14:58:37.725Z</time></trkpt><trkpt lat="44.7741204" lon="9.2491712"><ele>677.0</ele><time>2026-04-19T14:58:38.726Z</time></trkpt><trkpt lat="44.7740137" lon="9.2491168"><ele>676.0</ele><time>2026-04-19T14:58:39.726Z</time></trkpt><trkpt lat="44.7739181" lon="9.2490714"><ele>676.0</ele><time>2026-04-19T14:58:40.725Z</time></trkpt><trkpt lat="44.7738357" lon="9.2490326"><ele>676.0</ele><time>2026-04-19T14:58:41.726Z</time></trkpt><trkpt lat="44.7737693" lon="9.248992"><ele>676.0</ele><time>2026-04-19T14:58:42.726Z</time></trkpt><trkpt lat="44.7737112" lon="9.2489573"><ele>676.0</ele><time>2026-04-19T14:58:43.726Z</time></trkpt><trkpt lat="44.7736716" lon="9.2488748"><ele>676.0</ele><time>2026-04-19T14:58:45.726Z</time></trkpt><trkpt lat="44.7737381" lon="9.2487711"><ele>676.0</ele><time>2026-04-19T14:58:47.725Z</time></trkpt><trkpt lat="44.773835" lon="9.2486875"><ele>674.6666666666667</ele><time>2026-04-19T14:58:49.726Z</time></trkpt><trkpt lat="44.7738137" lon="9.248575"><ele>673.3333333333334</ele><time>2026-04-19T14:58:51.725Z</time></trkpt><trkpt lat="44.7737181" lon="9.2484822"><ele>672.0</ele><time>2026-04-19T14:58:53.726Z</time></trkpt><trkpt lat="44.773656" lon="9.2484645"><ele>670.6666666666666</ele><time>2026-04-19T14:58:54.726Z</time></trkpt><trkpt lat="44.773584" lon="9.2484854"><ele>669.3333333333333</ele><time>2026-04-19T14:58:55.726Z</time></trkpt><trkpt lat="44.7735011" lon="9.2485277"><ele>668.0</ele><time>2026-04-19T14:58:56.726Z</time></trkpt><trkpt lat="44.7734148" lon="9.2485933"><ele>666.5</ele><time>2026-04-19T14:58:57.726Z</time></trkpt><trkpt lat="44.7733339" lon="9.2486664"><ele>665.0</ele><time>2026-04-19T14:58:58.726Z</time></trkpt><trkpt lat="44.7732701" lon="9.2487293"><ele>663.5</ele><time>2026-04-19T14:58:59.725Z</time></trkpt><trkpt lat="44.7732086" lon="9.2487801"><ele>662.0</ele><time>2026-04-19T14:59:00.726Z</time></trkpt><trkpt lat="44.7731329" lon="9.248788"><ele>660.5</ele><time>2026-04-19T14:59:01.726Z</time></trkpt><trkpt lat="44.7730529" lon="9.2487759"><ele>659.0</ele><time>2026-04-19T14:59:02.725Z</time></trkpt><trkpt lat="44.772974" lon="9.2487659"><ele>659.0</ele><time>2026-04-19T14:59:03.725Z</time></trkpt><trkpt lat="44.7729002" lon="9.2487781"><ele>659.0</ele><time>2026-04-19T14:59:04.726Z</time></trkpt><trkpt lat="44.7728303" lon="9.2488142"><ele>659.0</ele><time>2026-04-19T14:59:05.726Z</time></trkpt><trkpt lat="44.7727632" lon="9.2488775"><ele>659.0</ele><time>2026-04-19T14:59:06.726Z</time></trkpt><trkpt lat="44.7727133" lon="9.2489757"><ele>659.0</ele><time>2026-04-19T14:59:07.726Z</time></trkpt><trkpt lat="44.7726651" lon="9.2490961"><ele>659.0</ele><time>2026-04-19T14:59:08.726Z</time></trkpt><trkpt lat="44.7726206" lon="9.2492312"><ele>657.8000000000001</ele><time>2026-04-19T14:59:09.726Z</time></trkpt><trkpt lat="44.7725833" lon="9.2493663"><ele>656.6</ele><time>2026-04-19T14:59:10.726Z</time></trkpt><trkpt lat="44.7725525" lon="9.2494691"><ele>655.4</ele><time>2026-04-19T14:59:11.726Z</time></trkpt><trkpt lat="44.7724761" lon="9.2495566"><ele>654.2</ele><time>2026-04-19T14:59:13.726Z</time></trkpt><trkpt lat="44.7724083" lon="9.2494338"><ele>653.0</ele><time>2026-04-19T14:59:15.725Z</time></trkpt><trkpt lat="44.7723833" lon="9.249318"><ele>653.0</ele><time>2026-04-19T14:59:16.726Z</time></trkpt><trkpt lat="44.7723671" lon="9.2491695"><ele>653.0</ele><time>2026-04-19T14:59:17.726Z</time></trkpt><trkpt lat="44.7723529" lon="9.2490129"><ele>653.0</ele><time>2026-04-19T14:59:18.726Z</time></trkpt><trkpt lat="44.7723395" lon="9.2488718"><ele>653.0</ele><time>2026-04-19T14:59:19.726Z</time></trkpt><trkpt lat="44.7723226" lon="9.2487365"><ele>653.0</ele><time>2026-04-19T14:59:20.726Z</time></trkpt><trkpt lat="44.7722953" lon="9.2485959"><ele>651.5999999999999</ele><time>2026-04-19T14:59:21.726Z</time></trkpt><trkpt lat="44.7722629" lon="9.2484617"><ele>650.1999999999999</ele><time>2026-04-19T14:59:22.726Z</time></trkpt><trkpt lat="44.7722186" lon="9.2483303"><ele>648.8</ele><time>2026-04-19T14:59:23.725Z</time></trkpt><trkpt lat="44.7721702" lon="9.2482106"><ele>647.4</ele><time>2026-04-19T14:59:24.726Z</time></trkpt><trkpt lat="44.7721174" lon="9.2480937"><ele>646.0</ele><time>2026-04-19T14:59:25.726Z</time></trkpt><trkpt lat="44.7720697" lon="9.2479706"><ele>643.8333333333334</ele><time>2026-04-19T14:59:26.725Z</time></trkpt><trkpt lat="44.7720223" lon="9.2478552"><ele>641.6666666666667</ele><time>2026-04-19T14:59:27.726Z</time></trkpt><trkpt lat="44.7719901" lon="9.2477433"><ele>639.5</ele><time>2026-04-19T14:59:28.725Z</time></trkpt><trkpt lat="44.7719692" lon="9.2476434"><ele>637.3333333333334</ele><time>2026-04-19T14:59:29.726Z</time></trkpt><trkpt lat="44.7719664" lon="9.2475398"><ele>635.1666666666666</ele><time>2026-04-19T14:59:30.726Z</time></trkpt><trkpt lat="44.7720015" lon="9.2474555"><ele>633.0</ele><time>2026-04-19T14:59:31.726Z</time></trkpt><trkpt lat="44.7720712" lon="9.247384"><ele>633.0</ele><time>2026-04-19T14:59:32.726Z</time></trkpt><trkpt lat="44.772166" lon="9.2473168"><ele>633.0</ele><time>2026-04-19T14:59:33.726Z</time></trkpt><trkpt lat="44.7722805" lon="9.2472589"><ele>633.0</ele><time>2026-04-19T14:59:34.726Z</time></trkpt><trkpt lat="44.7723859" lon="9.2472058"><ele>633.0</ele><time>2026-04-19T14:59:35.726Z</time></trkpt><trkpt lat="44.7724693" lon="9.247162"><ele>633.0</ele><time>2026-04-19T14:59:36.726Z</time></trkpt><trkpt lat="44.7725313" lon="9.2471079"><ele>630.1999999999999</ele><time>2026-04-19T14:59:37.726Z</time></trkpt><trkpt lat="44.7725571" lon="9.2469652"><ele>627.4</ele><time>2026-04-19T14:59:39.726Z</time></trkpt><trkpt lat="44.7725193" lon="9.2468815"><ele>624.5999999999999</ele><time>2026-04-19T14:59:40.726Z</time></trkpt><trkpt lat="44.7724561" lon="9.2467994"><ele>621.8</ele><time>2026-04-19T14:59:41.726Z</time></trkpt><trkpt lat="44.7723644" lon="9.246731"><ele>619.0</ele><time>2026-04-19T14:59:42.726Z</time></trkpt><trkpt lat="44.772241" lon="9.2466954"><ele>619.0</ele><time>2026-04-19T14:59:43.725Z</time></trkpt><trkpt lat="44.7721207" lon="9.2466843"><ele>619.0</ele><time>2026-04-19T14:59:44.725Z</time></trkpt><trkpt lat="44.7720167" lon="9.2466816"><ele>619.0</ele><time>2026-04-19T14:59:45.726Z</time></trkpt><trkpt lat="44.7719384" lon="9.2466621"><ele>619.0</ele><time>2026-04-19T14:59:46.726Z</time></trkpt><trkpt lat="44.771888" lon="9.2466067"><ele>619.0</ele><time>2026-04-19T14:59:47.726Z</time></trkpt><trkpt lat="44.771866" lon="9.2465185"><ele>619.0</ele><time>2026-04-19T14:59:48.725Z</time></trkpt><trkpt lat="44.7718672" lon="9.2463997"><ele>616.5</ele><time>2026-04-19T14:59:49.726Z</time></trkpt><trkpt lat="44.7719039" lon="9.2462505"><ele>614.0</ele><time>2026-04-19T14:59:50.725Z</time></trkpt><trkpt lat="44.7719567" lon="9.2460747"><ele>611.5</ele><time>2026-04-19T14:59:51.726Z</time></trkpt><trkpt lat="44.7720228" lon="9.2458939"><ele>609.0</ele><time>2026-04-19T14:59:52.726Z</time></trkpt><trkpt lat="44.7720795" lon="9.2457143"><ele>606.8333333333334</ele><time>2026-04-19T14:59:53.726Z</time></trkpt><trkpt lat="44.7721179" lon="9.2455628"><ele>604.6666666666666</ele><time>2026-04-19T14:59:54.725Z</time></trkpt><trkpt lat="44.7721623" lon="9.2454294"><ele>602.5</ele><time>2026-04-19T14:59:55.726Z</time></trkpt><trkpt lat="44.7721629" lon="9.2453154"><ele>600.3333333333333</ele><time>2026-04-19T14:59:56.726Z</time></trkpt><trkpt lat="44.7721391" lon="9.2452098"><ele>598.1666666666666</ele><time>2026-04-19T14:59:57.726Z</time></trkpt><trkpt lat="44.7720976" lon="9.245135"><ele>596.0</ele><time>2026-04-19T14:59:58.726Z</time></trkpt><trkpt lat="44.7720275" lon="9.245103"><ele>596.0</ele><time>2026-04-19T14:59:59.726Z</time></trkpt><trkpt lat="44.7719244" lon="9.2450986"><ele>596.0</ele><time>2026-04-19T15:00:00.726Z</time></trkpt><trkpt lat="44.7717881" lon="9.2451372"><ele>596.0</ele><time>2026-04-19T15:00:01.726Z</time></trkpt><trkpt lat="44.7716394" lon="9.2451964"><ele>596.0</ele><time>2026-04-19T15:00:02.726Z</time></trkpt><trkpt lat="44.7715012" lon="9.2452492"><ele>595.0</ele><time>2026-04-19T15:00:03.726Z</time></trkpt><trkpt lat="44.7713766" lon="9.2452706"><ele>594.0</ele><time>2026-04-19T15:00:04.726Z</time></trkpt><trkpt lat="44.7712625" lon="9.2452528"><ele>593.0</ele><time>2026-04-19T15:00:05.725Z</time></trkpt><trkpt lat="44.7711557" lon="9.245196"><ele>592.0</ele><time>2026-04-19T15:00:06.725Z</time></trkpt><trkpt lat="44.7710602" lon="9.2451344"><ele>589.8000000000001</ele><time>2026-04-19T15:00:07.726Z</time></trkpt><trkpt lat="44.770969" lon="9.2451"><ele>587.6</ele><time>2026-04-19T15:00:08.726Z</time></trkpt><trkpt lat="44.7708685" lon="9.2451129"><ele>585.4000000000001</ele><time>2026-04-19T15:00:09.726Z</time></trkpt><trkpt lat="44.7707657" lon="9.2451323"><ele>583.2</ele><time>2026-04-19T15:00:10.726Z</time></trkpt><trkpt lat="44.7706706" lon="9.2451464"><ele>581.0</ele><time>2026-04-19T15:00:11.726Z</time></trkpt><trkpt lat="44.7705947" lon="9.2451512"><ele>581.0</ele><time>2026-04-19T15:00:12.726Z</time></trkpt><trkpt lat="44.7704849" lon="9.2451191"><ele>581.0</ele><time>2026-04-19T15:00:14.726Z</time></trkpt><trkpt lat="44.7704928" lon="9.2450224"><ele>581.0</ele><time>2026-04-19T15:00:17.726Z</time></trkpt><trkpt lat="44.7705955" lon="9.2449975"><ele>581.0</ele><time>2026-04-19T15:00:19.725Z</time></trkpt><trkpt lat="44.7707273" lon="9.2449607"><ele>581.0</ele><time>2026-04-19T15:00:21.725Z</time></trkpt><trkpt lat="44.7708194" lon="9.2449281"><ele>581.0</ele><time>2026-04-19T15:00:22.726Z</time></trkpt><trkpt lat="44.7709238" lon="9.2448806"><ele>581.0</ele><time>2026-04-19T15:00:23.726Z</time></trkpt><trkpt lat="44.7710347" lon="9.2448292"><ele>581.0</ele><time>2026-04-19T15:00:24.726Z</time></trkpt><trkpt lat="44.7711486" lon="9.2447585"><ele>581.0</ele><time>2026-04-19T15:00:25.726Z</time></trkpt><trkpt lat="44.7712416" lon="9.2446621"><ele>579.75</ele><time>2026-04-19T15:00:26.726Z</time></trkpt><trkpt lat="44.7713315" lon="9.2445434"><ele>578.5</ele><time>2026-04-19T15:00:27.726Z</time></trkpt><trkpt lat="44.7714239" lon="9.2444174"><ele>577.25</ele><time>2026-04-19T15:00:28.726Z</time></trkpt><trkpt lat="44.7715222" lon="9.2442783"><ele>576.0</ele><time>2026-04-19T15:00:29.726Z</time></trkpt><trkpt lat="44.7716255" lon="9.2441268"><ele>576.0</ele><time>2026-04-19T15:00:30.726Z</time></trkpt><trkpt lat="44.7717398" lon="9.243975"><ele>576.0</ele><time>2026-04-19T15:00:31.726Z</time></trkpt><trkpt lat="44.7718491" lon="9.2438225"><ele>576.0</ele><time>2026-04-19T15:00:32.726Z</time></trkpt><trkpt lat="44.7719417" lon="9.2436782"><ele>576.0</ele><time>2026-04-19T15:00:33.726Z</time></trkpt><trkpt lat="44.7720349" lon="9.2435609"><ele>574.4</ele><time>2026-04-19T15:00:34.726Z</time></trkpt><trkpt lat="44.7721184" lon="9.2434907"><ele>572.8</ele><time>2026-04-19T15:00:35.726Z</time></trkpt><trkpt lat="44.7722116" lon="9.2434688"><ele>571.1999999999999</ele><time>2026-04-19T15:00:36.726Z</time></trkpt><trkpt lat="44.7723175" lon="9.2434839"><ele>569.6</ele><time>2026-04-19T15:00:37.725Z</time></trkpt><trkpt lat="44.7724219" lon="9.2435131"><ele>568.0</ele><time>2026-04-19T15:00:38.726Z</time></trkpt><trkpt lat="44.7725119" lon="9.2435282"><ele>568.0</ele><time>2026-04-19T15:00:39.725Z</time></trkpt><trkpt lat="44.7725851" lon="9.2435244"><ele>568.0</ele><time>2026-04-19T15:00:40.726Z</time></trkpt><trkpt lat="44.7726838" lon="9.2434091"><ele>568.0</ele><time>2026-04-19T15:00:42.726Z</time></trkpt><trkpt lat="44.7727249" lon="9.2432916"><ele>568.0</ele><time>2026-04-19T15:00:43.726Z</time></trkpt><trkpt lat="44.7727819" lon="9.2431635"><ele>568.0</ele><time>2026-04-19T15:00:44.726Z</time></trkpt><trkpt lat="44.77286" lon="9.2430209"><ele>569.0</ele><time>2026-04-19T15:00:45.725Z</time></trkpt><trkpt lat="44.7729498" lon="9.2428847"><ele>570.0</ele><time>2026-04-19T15:00:46.726Z</time></trkpt><trkpt lat="44.7730302" lon="9.2427624"><ele>571.0</ele><time>2026-04-19T15:00:47.725Z</time></trkpt><trkpt lat="44.7730991" lon="9.2426383"><ele>572.0</ele><time>2026-04-19T15:00:48.726Z</time></trkpt><trkpt lat="44.7731473" lon="9.2425144"><ele>572.0</ele><time>2026-04-19T15:00:49.726Z</time></trkpt><trkpt lat="44.7731902" lon="9.242368"><ele>572.0</ele><time>2026-04-19T15:00:50.726Z</time></trkpt><trkpt lat="44.7732289" lon="9.242233"><ele>572.0</ele><time>2026-04-19T15:00:51.725Z</time></trkpt><trkpt lat="44.7732892" lon="9.2421057"><ele>572.0</ele><time>2026-04-19T15:00:52.726Z</time></trkpt><trkpt lat="44.7733781" lon="9.2419822"><ele>572.0</ele><time>2026-04-19T15:00:53.726Z</time></trkpt><trkpt lat="44.7734913" lon="9.2418815"><ele>571.25</ele><time>2026-04-19T15:00:54.726Z</time></trkpt><trkpt lat="44.7736274" lon="9.2417908"><ele>570.5</ele><time>2026-04-19T15:00:55.726Z</time></trkpt><trkpt lat="44.7737549" lon="9.2417013"><ele>569.75</ele><time>2026-04-19T15:00:56.725Z</time></trkpt><trkpt lat="44.7738808" lon="9.2416095"><ele>569.0</ele><time>2026-04-19T15:00:57.726Z</time></trkpt><trkpt lat="44.7739995" lon="9.2415172"><ele>567.3333333333333</ele><time>2026-04-19T15:00:58.726Z</time></trkpt><trkpt lat="44.7740967" lon="9.2414251"><ele>565.6666666666666</ele><time>2026-04-19T15:00:59.726Z</time></trkpt><trkpt lat="44.7741682" lon="9.2413319"><ele>564.0</ele><time>2026-04-19T15:01:00.726Z</time></trkpt><trkpt lat="44.7742209" lon="9.2412447"><ele>562.3333333333334</ele><time>2026-04-19T15:01:01.726Z</time></trkpt><trkpt lat="44.7742624" lon="9.2411503"><ele>560.6666666666667</ele><time>2026-04-19T15:01:02.725Z</time></trkpt><trkpt lat="44.7742712" lon="9.2410464"><ele>559.0</ele><time>2026-04-19T15:01:03.726Z</time></trkpt><trkpt lat="44.7742425" lon="9.240909"><ele>559.0</ele><time>2026-04-19T15:01:04.726Z</time></trkpt><trkpt lat="44.7741812" lon="9.2407493"><ele>559.0</ele><time>2026-04-19T15:01:05.726Z</time></trkpt><trkpt lat="44.7741088" lon="9.2405872"><ele>559.0</ele><time>2026-04-19T15:01:06.726Z</time></trkpt><trkpt lat="44.7740566" lon="9.2404438"><ele>559.0</ele><time>2026-04-19T15:01:07.726Z</time></trkpt><trkpt lat="44.77404" lon="9.2403185"><ele>557.6</ele><time>2026-04-19T15:01:08.725Z</time></trkpt><trkpt lat="44.7740662" lon="9.2401862"><ele>556.2</ele><time>2026-04-19T15:01:09.725Z</time></trkpt><trkpt lat="44.7741271" lon="9.2400398"><ele>554.8000000000001</ele><time>2026-04-19T15:01:10.726Z</time></trkpt><trkpt lat="44.7742066" lon="9.2399092"><ele>553.4</ele><time>2026-04-19T15:01:11.726Z</time></trkpt><trkpt lat="44.7742795" lon="9.2398071"><ele>552.0</ele><time>2026-04-19T15:01:12.726Z</time></trkpt><trkpt lat="44.774337" lon="9.2397234"><ele>551.6</ele><time>2026-04-19T15:01:13.726Z</time></trkpt><trkpt lat="44.7743849" lon="9.2396583"><ele>551.2</ele><time>2026-04-19T15:01:14.726Z</time></trkpt><trkpt lat="44.7744415" lon="9.2395861"><ele>550.8</ele><time>2026-04-19T15:01:15.726Z</time></trkpt><trkpt lat="44.7745209" lon="9.2394829"><ele>550.4</ele><time>2026-04-19T15:01:16.726Z</time></trkpt><trkpt lat="44.7746245" lon="9.239347"><ele>550.0</ele><time>2026-04-19T15:01:17.725Z</time></trkpt><trkpt lat="44.7747386" lon="9.2392107"><ele>550.0</ele><time>2026-04-19T15:01:18.726Z</time></trkpt><trkpt lat="44.774849" lon="9.2390915"><ele>550.0</ele><time>2026-04-19T15:01:19.726Z</time></trkpt><trkpt lat="44.7749511" lon="9.239005"><ele>550.0</ele><time>2026-04-19T15:01:20.726Z</time></trkpt><trkpt lat="44.7750658" lon="9.2389358"><ele>550.0</ele><time>2026-04-19T15:01:21.726Z</time></trkpt><trkpt lat="44.7751969" lon="9.2388735"><ele>546.6666666666667</ele><time>2026-04-19T15:01:22.726Z</time></trkpt><trkpt lat="44.7753465" lon="9.238815"><ele>543.3333333333334</ele><time>2026-04-19T15:01:23.726Z</time></trkpt><trkpt lat="44.7754972" lon="9.238754"><ele>540.0</ele><time>2026-04-19T15:01:24.725Z</time></trkpt><trkpt lat="44.7756407" lon="9.2387199"><ele>540.0</ele><time>2026-04-19T15:01:25.726Z</time></trkpt><trkpt lat="44.775779" lon="9.2387126"><ele>540.0</ele><time>2026-04-19T15:01:26.726Z</time></trkpt><trkpt lat="44.7759148" lon="9.2387418"><ele>540.0</ele><time>2026-04-19T15:01:27.726Z</time></trkpt><trkpt lat="44.776058" lon="9.2388059"><ele>540.0</ele><time>2026-04-19T15:01:28.726Z</time></trkpt><trkpt lat="44.7762109" lon="9.2388993"><ele>543.3333333333334</ele><time>2026-04-19T15:01:29.726Z</time></trkpt><trkpt lat="44.7763691" lon="9.2390042"><ele>546.6666666666667</ele><time>2026-04-19T15:01:30.726Z</time></trkpt><trkpt lat="44.776518" lon="9.2390995"><ele>550.0</ele><time>2026-04-19T15:01:31.726Z</time></trkpt><trkpt lat="44.7766574" lon="9.2391718"><ele>550.0</ele><time>2026-04-19T15:01:32.726Z</time></trkpt><trkpt lat="44.7767661" lon="9.2392143"><ele>550.0</ele><time>2026-04-19T15:01:33.726Z</time></trkpt><trkpt lat="44.7768633" lon="9.2392127"><ele>550.0</ele><time>2026-04-19T15:01:34.726Z</time></trkpt><trkpt lat="44.776965" lon="9.2391653"><ele>550.0</ele><time>2026-04-19T15:01:35.726Z</time></trkpt><trkpt lat="44.7770788" lon="9.2390958"><ele>550.0</ele><time>2026-04-19T15:01:36.725Z</time></trkpt><trkpt lat="44.7772196" lon="9.2390035"><ele>548.75</ele><time>2026-04-19T15:01:37.726Z</time></trkpt><trkpt lat="44.7773583" lon="9.2388879"><ele>547.5</ele><time>2026-04-19T15:01:38.726Z</time></trkpt><trkpt lat="44.7774895" lon="9.2387848"><ele>546.25</ele><time>2026-04-19T15:01:39.725Z</time></trkpt><trkpt lat="44.7776139" lon="9.2387074"><ele>545.0</ele><time>2026-04-19T15:01:40.726Z</time></trkpt><trkpt lat="44.777754" lon="9.2386365"><ele>545.0</ele><time>2026-04-19T15:01:41.726Z</time></trkpt><trkpt lat="44.7779018" lon="9.2385706"><ele>545.0</ele><time>2026-04-19T15:01:42.726Z</time></trkpt><trkpt lat="44.7780508" lon="9.2385188"><ele>545.0</ele><time>2026-04-19T15:01:43.725Z</time></trkpt><trkpt lat="44.7782047" lon="9.2384712"><ele>545.0</ele><time>2026-04-19T15:01:44.726Z</time></trkpt><trkpt lat="44.7783509" lon="9.2384349"><ele>545.0</ele><time>2026-04-19T15:01:45.726Z</time></trkpt><trkpt lat="44.7784995" lon="9.2384208"><ele>545.0</ele><time>2026-04-19T15:01:46.726Z</time></trkpt><trkpt lat="44.77864" lon="9.2384136"><ele>545.0</ele><time>2026-04-19T15:01:47.725Z</time></trkpt><trkpt lat="44.7787746" lon="9.2384044"><ele>544.25</ele><time>2026-04-19T15:01:48.726Z</time></trkpt><trkpt lat="44.7789042" lon="9.2383723"><ele>543.5</ele><time>2026-04-19T15:01:49.725Z</time></trkpt><trkpt lat="44.7790269" lon="9.2382965"><ele>542.75</ele><time>2026-04-19T15:01:50.726Z</time></trkpt><trkpt lat="44.7791372" lon="9.2381962"><ele>542.0</ele><time>2026-04-19T15:01:51.726Z</time></trkpt><trkpt lat="44.7792253" lon="9.2380724"><ele>542.0</ele><time>2026-04-19T15:01:52.726Z</time></trkpt><trkpt lat="44.7792908" lon="9.2379217"><ele>542.0</ele><time>2026-04-19T15:01:53.725Z</time></trkpt><trkpt lat="44.7793482" lon="9.2377396"><ele>542.0</ele><time>2026-04-19T15:01:54.726Z</time></trkpt><trkpt lat="44.7793934" lon="9.2375303"><ele>542.0</ele><time>2026-04-19T15:01:55.726Z</time></trkpt><trkpt lat="44.7794387" lon="9.237309"><ele>543.75</ele><time>2026-04-19T15:01:56.726Z</time></trkpt><trkpt lat="44.779464" lon="9.2371008"><ele>545.5</ele><time>2026-04-19T15:01:57.725Z</time></trkpt><trkpt lat="44.779499" lon="9.2369092"><ele>547.25</ele><time>2026-04-19T15:01:58.726Z</time></trkpt><trkpt lat="44.7795526" lon="9.2367474"><ele>549.0</ele><time>2026-04-19T15:01:59.726Z</time></trkpt><trkpt lat="44.7796306" lon="9.2365866"><ele>544.3333333333334</ele><time>2026-04-19T15:02:00.726Z</time></trkpt><trkpt lat="44.7797279" lon="9.2364227"><ele>539.6666666666667</ele><time>2026-04-19T15:02:01.726Z</time></trkpt><trkpt lat="44.7798319" lon="9.2362634"><ele>535.0</ele><time>2026-04-19T15:02:02.726Z</time></trkpt><trkpt lat="44.7799373" lon="9.2361179"><ele>535.0</ele><time>2026-04-19T15:02:03.725Z</time></trkpt><trkpt lat="44.7800573" lon="9.2359866"><ele>535.0</ele><time>2026-04-19T15:02:04.726Z</time></trkpt><trkpt lat="44.7801969" lon="9.23586"><ele>535.0</ele><time>2026-04-19T15:02:05.725Z</time></trkpt><trkpt lat="44.780346" lon="9.2357308"><ele>533.5</ele><time>2026-04-19T15:02:06.726Z</time></trkpt><trkpt lat="44.7804808" lon="9.2356013"><ele>532.0</ele><time>2026-04-19T15:02:07.726Z</time></trkpt><trkpt lat="44.7806039" lon="9.235497"><ele>530.5</ele><time>2026-04-19T15:02:08.726Z</time></trkpt><trkpt lat="44.7807155" lon="9.2354158"><ele>529.0</ele><time>2026-04-19T15:02:09.726Z</time></trkpt><trkpt lat="44.78082" lon="9.2353828"><ele>529.0</ele><time>2026-04-19T15:02:10.726Z</time></trkpt><trkpt lat="44.7809186" lon="9.2354051"><ele>529.0</ele><time>2026-04-19T15:02:11.726Z</time></trkpt><trkpt lat="44.7810238" lon="9.2354728"><ele>529.0</ele><time>2026-04-19T15:02:12.726Z</time></trkpt><trkpt lat="44.7811222" lon="9.2355305"><ele>529.0</ele><time>2026-04-19T15:02:13.726Z</time></trkpt><trkpt lat="44.7812051" lon="9.2355397"><ele>529.0</ele><time>2026-04-19T15:02:14.726Z</time></trkpt><trkpt lat="44.7812903" lon="9.2355057"><ele>530.25</ele><time>2026-04-19T15:02:15.726Z</time></trkpt><trkpt lat="44.7813654" lon="9.2354052"><ele>531.5</ele><time>2026-04-19T15:02:16.726Z</time></trkpt><trkpt lat="44.7814193" lon="9.2352593"><ele>532.75</ele><time>2026-04-19T15:02:17.726Z</time></trkpt><trkpt lat="44.7814495" lon="9.2350646"><ele>534.0</ele><time>2026-04-19T15:02:18.726Z</time></trkpt><trkpt lat="44.7814605" lon="9.2348479"><ele>532.0</ele><time>2026-04-19T15:02:19.725Z</time></trkpt><trkpt lat="44.7814717" lon="9.2346411"><ele>530.0</ele><time>2026-04-19T15:02:20.726Z</time></trkpt><trkpt lat="44.7814865" lon="9.2344592"><ele>528.0</ele><time>2026-04-19T15:02:21.726Z</time></trkpt><trkpt lat="44.7815208" lon="9.2343102"><ele>526.0</ele><time>2026-04-19T15:02:22.726Z</time></trkpt><trkpt lat="44.7815861" lon="9.2341859"><ele>526.0</ele><time>2026-04-19T15:02:23.726Z</time></trkpt><trkpt lat="44.7816805" lon="9.2340527"><ele>526.0</ele><time>2026-04-19T15:02:24.726Z</time></trkpt><trkpt lat="44.7817802" lon="9.2339232"><ele>526.0</ele><time>2026-04-19T15:02:25.725Z</time></trkpt><trkpt lat="44.7818711" lon="9.2338133"><ele>526.0</ele><time>2026-04-19T15:02:26.726Z</time></trkpt><trkpt lat="44.7819601" lon="9.233736"><ele>524.25</ele><time>2026-04-19T15:02:27.725Z</time></trkpt><trkpt lat="44.7820599" lon="9.2337195"><ele>522.5</ele><time>2026-04-19T15:02:28.726Z</time></trkpt><trkpt lat="44.782179" lon="9.2337243"><ele>520.75</ele><time>2026-04-19T15:02:29.726Z</time></trkpt><trkpt lat="44.7823069" lon="9.2337403"><ele>519.0</ele><time>2026-04-19T15:02:30.726Z</time></trkpt><trkpt lat="44.7824314" lon="9.2337677"><ele>519.0</ele><time>2026-04-19T15:02:31.726Z</time></trkpt><trkpt lat="44.7825511" lon="9.2338301"><ele>519.0</ele><time>2026-04-19T15:02:32.726Z</time></trkpt><trkpt lat="44.7826604" lon="9.2338777"><ele>519.0</ele><time>2026-04-19T15:02:33.726Z</time></trkpt><trkpt lat="44.7827626" lon="9.2339319"><ele>519.0</ele><time>2026-04-19T15:02:34.726Z</time></trkpt><trkpt lat="44.7828718" lon="9.2339468"><ele>518.75</ele><time>2026-04-19T15:02:35.726Z</time></trkpt><trkpt lat="44.7829943" lon="9.2339377"><ele>518.5</ele><time>2026-04-19T15:02:36.726Z</time></trkpt><trkpt lat="44.7831286" lon="9.2339082"><ele>518.25</ele><time>2026-04-19T15:02:37.726Z</time></trkpt><trkpt lat="44.783264" lon="9.2338558"><ele>518.0</ele><time>2026-04-19T15:02:38.726Z</time></trkpt><trkpt lat="44.7833875" lon="9.2338126"><ele>518.0</ele><time>2026-04-19T15:02:39.726Z</time></trkpt><trkpt lat="44.7835022" lon="9.233765"><ele>518.0</ele><time>2026-04-19T15:02:40.725Z</time></trkpt><trkpt lat="44.783613" lon="9.2337009"><ele>518.0</ele><time>2026-04-19T15:02:41.726Z</time></trkpt><trkpt lat="44.783731" lon="9.2336149"><ele>518.0</ele><time>2026-04-19T15:02:42.726Z</time></trkpt><trkpt lat="44.7838507" lon="9.2335157"><ele>517.0</ele><time>2026-04-19T15:02:43.726Z</time></trkpt><trkpt lat="44.7839675" lon="9.2333935"><ele>516.0</ele><time>2026-04-19T15:02:44.726Z</time></trkpt><trkpt lat="44.7840661" lon="9.2332461"><ele>515.0</ele><time>2026-04-19T15:02:45.726Z</time></trkpt><trkpt lat="44.7841726" lon="9.233077"><ele>515.0</ele><time>2026-04-19T15:02:46.726Z</time></trkpt><trkpt lat="44.784295" lon="9.2329024"><ele>515.0</ele><time>2026-04-19T15:02:47.726Z</time></trkpt><trkpt lat="44.7844329" lon="9.2327028"><ele>515.0</ele><time>2026-04-19T15:02:48.726Z</time></trkpt><trkpt lat="44.7845774" lon="9.2324998"><ele>514.3333333333333</ele><time>2026-04-19T15:02:49.726Z</time></trkpt><trkpt lat="44.7847132" lon="9.2323033"><ele>513.6666666666666</ele><time>2026-04-19T15:02:50.726Z</time></trkpt><trkpt lat="44.7848412" lon="9.232124"><ele>513.0</ele><time>2026-04-19T15:02:51.726Z</time></trkpt><trkpt lat="44.7849666" lon="9.2319582"><ele>513.0</ele><time>2026-04-19T15:02:52.726Z</time></trkpt><trkpt lat="44.7850851" lon="9.2317901"><ele>513.0</ele><time>2026-04-19T15:02:53.725Z</time></trkpt><trkpt lat="44.7851954" lon="9.2316378"><ele>513.0</ele><time>2026-04-19T15:02:54.726Z</time></trkpt><trkpt lat="44.7852854" lon="9.2315133"><ele>513.0</ele><time>2026-04-19T15:02:55.725Z</time></trkpt><trkpt lat="44.7853649" lon="9.2314374"><ele>513.8</ele><time>2026-04-19T15:02:56.726Z</time></trkpt><trkpt lat="44.7854572" lon="9.2314084"><ele>514.5999999999999</ele><time>2026-04-19T15:02:57.726Z</time></trkpt><trkpt lat="44.7855574" lon="9.2314314"><ele>515.4000000000001</ele><time>2026-04-19T15:02:58.726Z</time></trkpt><trkpt lat="44.7856634" lon="9.2315058"><ele>516.2</ele><time>2026-04-19T15:02:59.726Z</time></trkpt><trkpt lat="44.7857559" lon="9.2315966"><ele>517.0</ele><time>2026-04-19T15:03:00.726Z</time></trkpt><trkpt lat="44.7858571" lon="9.2316447"><ele>517.0</ele><time>2026-04-19T15:03:01.726Z</time></trkpt><trkpt lat="44.785972" lon="9.2316553"><ele>517.0</ele><time>2026-04-19T15:03:02.726Z</time></trkpt><trkpt lat="44.786099" lon="9.2316438"><ele>517.0</ele><time>2026-04-19T15:03:03.726Z</time></trkpt><trkpt lat="44.7862117" lon="9.2316097"><ele>517.0</ele><time>2026-04-19T15:03:04.726Z</time></trkpt><trkpt lat="44.7863021" lon="9.2315645"><ele>517.6</ele><time>2026-04-19T15:03:05.726Z</time></trkpt><trkpt lat="44.7863635" lon="9.2314756"><ele>518.2</ele><time>2026-04-19T15:03:06.726Z</time></trkpt><trkpt lat="44.7863979" lon="9.2313594"><ele>518.8</ele><time>2026-04-19T15:03:07.726Z</time></trkpt><trkpt lat="44.7864198" lon="9.2312027"><ele>519.4</ele><time>2026-04-19T15:03:08.726Z</time></trkpt><trkpt lat="44.7864498" lon="9.2310109"><ele>520.0</ele><time>2026-04-19T15:03:09.726Z</time></trkpt><trkpt lat="44.7864956" lon="9.2308197"><ele>517.75</ele><time>2026-04-19T15:03:10.726Z</time></trkpt><trkpt lat="44.7865533" lon="9.2306474"><ele>515.5</ele><time>2026-04-19T15:03:11.725Z</time></trkpt><trkpt lat="44.7866248" lon="9.2304908"><ele>513.25</ele><time>2026-04-19T15:03:12.726Z</time></trkpt><trkpt lat="44.7867068" lon="9.2303545"><ele>511.0</ele><time>2026-04-19T15:03:13.726Z</time></trkpt><trkpt lat="44.7868005" lon="9.230238"><ele>510.20000000000005</ele><time>2026-04-19T15:03:14.726Z</time></trkpt><trkpt lat="44.7868948" lon="9.2301358"><ele>509.40000000000003</ele><time>2026-04-19T15:03:15.726Z</time></trkpt><trkpt lat="44.7869706" lon="9.2300586"><ele>508.6</ele><time>2026-04-19T15:03:16.726Z</time></trkpt><trkpt lat="44.7870307" lon="9.2299924"><ele>507.8</ele><time>2026-04-19T15:03:17.726Z</time></trkpt><trkpt lat="44.7870822" lon="9.2299319"><ele>507.0</ele><time>2026-04-19T15:03:19.726Z</time></trkpt><trkpt lat="44.7871739" lon="9.2298488"><ele>504.75</ele><time>2026-04-19T15:03:34.726Z</time></trkpt><trkpt lat="44.7872663" lon="9.2298065"><ele>502.5</ele><time>2026-04-19T15:03:35.726Z</time></trkpt><trkpt lat="44.7873792" lon="9.2297752"><ele>500.25</ele><time>2026-04-19T15:03:36.726Z</time></trkpt><trkpt lat="44.7875179" lon="9.2297549"><ele>498.0</ele><time>2026-04-19T15:03:37.726Z</time></trkpt><trkpt lat="44.7876692" lon="9.2297279"><ele>498.0</ele><time>2026-04-19T15:03:38.726Z</time></trkpt><trkpt lat="44.7878185" lon="9.2297017"><ele>498.0</ele><time>2026-04-19T15:03:39.725Z</time></trkpt><trkpt lat="44.7879548" lon="9.2296924"><ele>498.0</ele><time>2026-04-19T15:03:40.725Z</time></trkpt><trkpt lat="44.7880799" lon="9.229726"><ele>498.0</ele><time>2026-04-19T15:03:41.726Z</time></trkpt><trkpt lat="44.7882013" lon="9.2297766"><ele>499.75</ele><time>2026-04-19T15:03:42.725Z</time></trkpt><trkpt lat="44.7883242" lon="9.2298494"><ele>501.5</ele><time>2026-04-19T15:03:43.726Z</time></trkpt><trkpt lat="44.7884481" lon="9.229924"><ele>503.25</ele><time>2026-04-19T15:03:44.726Z</time></trkpt><trkpt lat="44.7885889" lon="9.2299618"><ele>505.0</ele><time>2026-04-19T15:03:45.726Z</time></trkpt><trkpt lat="44.788754" lon="9.2299618"><ele>505.0</ele><time>2026-04-19T15:03:46.725Z</time></trkpt><trkpt lat="44.7889205" lon="9.2299527"><ele>505.0</ele><time>2026-04-19T15:03:47.726Z</time></trkpt><trkpt lat="44.7890727" lon="9.2299269"><ele>505.0</ele><time>2026-04-19T15:03:48.726Z</time></trkpt><trkpt lat="44.7891964" lon="9.2298668"><ele>504.75</ele><time>2026-04-19T15:03:49.726Z</time></trkpt><trkpt lat="44.7893014" lon="9.2297793"><ele>504.5</ele><time>2026-04-19T15:03:50.726Z</time></trkpt><trkpt lat="44.7893956" lon="9.2296547"><ele>504.25</ele><time>2026-04-19T15:03:51.726Z</time></trkpt><trkpt lat="44.7894734" lon="9.2294995"><ele>504.0</ele><time>2026-04-19T15:03:52.725Z</time></trkpt><trkpt lat="44.7895493" lon="9.2293257"><ele>504.0</ele><time>2026-04-19T15:03:53.726Z</time></trkpt><trkpt lat="44.7896277" lon="9.2291643"><ele>504.0</ele><time>2026-04-19T15:03:54.725Z</time></trkpt><trkpt lat="44.7897116" lon="9.2290255"><ele>504.0</ele><time>2026-04-19T15:03:55.725Z</time></trkpt><trkpt lat="44.7897995" lon="9.228915"><ele>504.0</ele><time>2026-04-19T15:03:56.725Z</time></trkpt><trkpt lat="44.7898958" lon="9.2288382"><ele>501.5</ele><time>2026-04-19T15:03:57.726Z</time></trkpt><trkpt lat="44.7900061" lon="9.2287986"><ele>499.0</ele><time>2026-04-19T15:03:58.726Z</time></trkpt><trkpt lat="44.7901306" lon="9.2288003"><ele>496.5</ele><time>2026-04-19T15:03:59.726Z</time></trkpt><trkpt lat="44.7902659" lon="9.2288226"><ele>494.0</ele><time>2026-04-19T15:04:00.726Z</time></trkpt><trkpt lat="44.7904177" lon="9.2288837"><ele>493.66666666666663</ele><time>2026-04-19T15:04:01.725Z</time></trkpt><trkpt lat="44.7905753" lon="9.2289605"><ele>493.33333333333337</ele><time>2026-04-19T15:04:02.726Z</time></trkpt><trkpt lat="44.7907311" lon="9.2290412"><ele>493.0</ele><time>2026-04-19T15:04:03.726Z</time></trkpt><trkpt lat="44.7908721" lon="9.2291108"><ele>493.59999999999997</ele><time>2026-04-19T15:04:04.726Z</time></trkpt><trkpt lat="44.7909833" lon="9.2291468"><ele>494.19999999999993</ele><time>2026-04-19T15:04:05.725Z</time></trkpt><trkpt lat="44.7910831" lon="9.2291465"><ele>494.8</ele><time>2026-04-19T15:04:06.725Z</time></trkpt><trkpt lat="44.7911783" lon="9.2291161"><ele>495.4</ele><time>2026-04-19T15:04:07.726Z</time></trkpt><trkpt lat="44.791273" lon="9.2290288"><ele>496.0</ele><time>2026-04-19T15:04:08.726Z</time></trkpt><trkpt lat="44.7913671" lon="9.2289032"><ele>496.0</ele><time>2026-04-19T15:04:09.726Z</time></trkpt><trkpt lat="44.7914756" lon="9.2287872"><ele>496.0</ele><time>2026-04-19T15:04:10.725Z</time></trkpt><trkpt lat="44.7916004" lon="9.228693"><ele>496.0</ele><time>2026-04-19T15:04:11.726Z</time></trkpt><trkpt lat="44.7917274" lon="9.2286241"><ele>496.0</ele><time>2026-04-19T15:04:12.725Z</time></trkpt><trkpt lat="44.7918456" lon="9.2285743"><ele>495.5</ele><time>2026-04-19T15:04:13.726Z</time></trkpt><trkpt lat="44.7919512" lon="9.228536"><ele>495.0</ele><time>2026-04-19T15:04:14.726Z</time></trkpt><trkpt lat="44.7920595" lon="9.2285293"><ele>494.5</ele><time>2026-04-19T15:04:15.726Z</time></trkpt><trkpt lat="44.7921755" lon="9.2285514"><ele>494.0</ele><time>2026-04-19T15:04:16.726Z</time></trkpt><trkpt lat="44.7923001" lon="9.2285945"><ele>494.0</ele><time>2026-04-19T15:04:17.725Z</time></trkpt><trkpt lat="44.7924362" lon="9.2286419"><ele>494.0</ele><time>2026-04-19T15:04:18.726Z</time></trkpt><trkpt lat="44.7925847" lon="9.2286758"><ele>494.0</ele><time>2026-04-19T15:04:19.726Z</time></trkpt><trkpt lat="44.7927357" lon="9.2287284"><ele>494.0</ele><time>2026-04-19T15:04:20.726Z</time></trkpt><trkpt lat="44.7928661" lon="9.2288006"><ele>495.25</ele><time>2026-04-19T15:04:21.726Z</time></trkpt><trkpt lat="44.7929852" lon="9.2289046"><ele>496.5</ele><time>2026-04-19T15:04:22.726Z</time></trkpt><trkpt lat="44.7931034" lon="9.2290265"><ele>497.75</ele><time>2026-04-19T15:04:23.726Z</time></trkpt><trkpt lat="44.793206" lon="9.2291415"><ele>499.0</ele><time>2026-04-19T15:04:24.726Z</time></trkpt><trkpt lat="44.7933127" lon="9.229239"><ele>499.0</ele><time>2026-04-19T15:04:25.726Z</time></trkpt><trkpt lat="44.793426" lon="9.2293145"><ele>499.0</ele><time>2026-04-19T15:04:26.726Z</time></trkpt><trkpt lat="44.7935469" lon="9.2293648"><ele>499.0</ele><time>2026-04-19T15:04:27.726Z</time></trkpt><trkpt lat="44.7936894" lon="9.2294235"><ele>499.0</ele><time>2026-04-19T15:04:28.725Z</time></trkpt><trkpt lat="44.7938275" lon="9.229492"><ele>501.6666666666667</ele><time>2026-04-19T15:04:29.726Z</time></trkpt><trkpt lat="44.7939589" lon="9.2295934"><ele>504.33333333333337</ele><time>2026-04-19T15:04:30.726Z</time></trkpt><trkpt lat="44.7940874" lon="9.2297138"><ele>507.0</ele><time>2026-04-19T15:04:31.726Z</time></trkpt><trkpt lat="44.79422" lon="9.229838"><ele>501.66666666666663</ele><time>2026-04-19T15:04:32.726Z</time></trkpt><trkpt lat="44.7943466" lon="9.2299534"><ele>496.3333333333333</ele><time>2026-04-19T15:04:33.726Z</time></trkpt><trkpt lat="44.7944657" lon="9.2300742"><ele>491.0</ele><time>2026-04-19T15:04:34.726Z</time></trkpt><trkpt lat="44.7945883" lon="9.2302028"><ele>491.0</ele><time>2026-04-19T15:04:35.726Z</time></trkpt><trkpt lat="44.7946979" lon="9.2303286"><ele>491.0</ele><time>2026-04-19T15:04:36.726Z</time></trkpt><trkpt lat="44.7947981" lon="9.230418"><ele>491.0</ele><time>2026-04-19T15:04:37.725Z</time></trkpt><trkpt lat="44.7948889" lon="9.2304765"><ele>491.0</ele><time>2026-04-19T15:04:38.726Z</time></trkpt><trkpt lat="44.794961" lon="9.2304956"><ele>491.0</ele><time>2026-04-19T15:04:39.726Z</time></trkpt><trkpt lat="44.7950469" lon="9.2304975"><ele>491.0</ele><time>2026-04-19T15:04:40.726Z</time></trkpt><trkpt lat="44.7951427" lon="9.2305282"><ele>491.0</ele><time>2026-04-19T15:04:41.726Z</time></trkpt><trkpt lat="44.7952445" lon="9.2306094"><ele>491.0</ele><time>2026-04-19T15:04:42.725Z</time></trkpt><trkpt lat="44.7953408" lon="9.2307127"><ele>491.0</ele><time>2026-04-19T15:04:43.726Z</time></trkpt><trkpt lat="44.7954414" lon="9.2307861"><ele>489.6</ele><time>2026-04-19T15:04:44.725Z</time></trkpt><trkpt lat="44.79553" lon="9.2308134"><ele>488.20000000000005</ele><time>2026-04-19T15:04:45.725Z</time></trkpt><trkpt lat="44.7956116" lon="9.2307763"><ele>486.79999999999995</ele><time>2026-04-19T15:04:46.726Z</time></trkpt><trkpt lat="44.7957055" lon="9.2306909"><ele>485.4</ele><time>2026-04-19T15:04:47.726Z</time></trkpt><trkpt lat="44.7958053" lon="9.2306114"><ele>484.0</ele><time>2026-04-19T15:04:48.726Z</time></trkpt><trkpt lat="44.795918" lon="9.2305529"><ele>482.79999999999995</ele><time>2026-04-19T15:04:49.726Z</time></trkpt><trkpt lat="44.7960179" lon="9.2305246"><ele>481.59999999999997</ele><time>2026-04-19T15:04:50.726Z</time></trkpt><trkpt lat="44.796103" lon="9.2305369"><ele>480.4</ele><time>2026-04-19T15:04:51.726Z</time></trkpt><trkpt lat="44.796179" lon="9.230583"><ele>479.2</ele><time>2026-04-19T15:04:52.726Z</time></trkpt><trkpt lat="44.7962653" lon="9.2306574"><ele>478.0</ele><time>2026-04-19T15:04:53.725Z</time></trkpt><trkpt lat="44.7963623" lon="9.2307259"><ele>479.25</ele><time>2026-04-19T15:04:54.726Z</time></trkpt><trkpt lat="44.7964743" lon="9.2307807"><ele>480.5</ele><time>2026-04-19T15:04:55.726Z</time></trkpt><trkpt lat="44.7966181" lon="9.2308117"><ele>481.75</ele><time>2026-04-19T15:04:56.725Z</time></trkpt><trkpt lat="44.7967597" lon="9.2308069"><ele>483.0</ele><time>2026-04-19T15:04:57.726Z</time></trkpt><trkpt lat="44.7968897" lon="9.2307705"><ele>483.0</ele><time>2026-04-19T15:04:58.726Z</time></trkpt><trkpt lat="44.7970027" lon="9.2307162"><ele>483.0</ele><time>2026-04-19T15:04:59.726Z</time></trkpt><trkpt lat="44.7971003" lon="9.2306219"><ele>483.0</ele><time>2026-04-19T15:05:00.725Z</time></trkpt><trkpt lat="44.7971822" lon="9.2304927"><ele>483.0</ele><time>2026-04-19T15:05:01.726Z</time></trkpt><trkpt lat="44.7972608" lon="9.2303259"><ele>480.75</ele><time>2026-04-19T15:05:02.726Z</time></trkpt><trkpt lat="44.7973483" lon="9.2301638"><ele>478.5</ele><time>2026-04-19T15:05:03.726Z</time></trkpt><trkpt lat="44.7974563" lon="9.2300353"><ele>476.25</ele><time>2026-04-19T15:05:04.726Z</time></trkpt><trkpt lat="44.7975747" lon="9.2299461"><ele>474.0</ele><time>2026-04-19T15:05:05.726Z</time></trkpt><trkpt lat="44.7976927" lon="9.2298982"><ele>472.66666666666663</ele><time>2026-04-19T15:05:06.726Z</time></trkpt><trkpt lat="44.7978303" lon="9.2298927"><ele>471.3333333333333</ele><time>2026-04-19T15:05:07.725Z</time></trkpt><trkpt lat="44.7979903" lon="9.2299358"><ele>470.0</ele><time>2026-04-19T15:05:08.726Z</time></trkpt><trkpt lat="44.7981742" lon="9.2299897"><ele>470.0</ele><time>2026-04-19T15:05:09.726Z</time></trkpt><trkpt lat="44.7983552" lon="9.2300089"><ele>470.0</ele><time>2026-04-19T15:05:10.726Z</time></trkpt><trkpt lat="44.7985135" lon="9.2300265"><ele>470.0</ele><time>2026-04-19T15:05:11.726Z</time></trkpt><trkpt lat="44.7986534" lon="9.2300148"><ele>470.66666666666663</ele><time>2026-04-19T15:05:12.726Z</time></trkpt><trkpt lat="44.7987933" lon="9.2299575"><ele>471.33333333333337</ele><time>2026-04-19T15:05:13.726Z</time></trkpt><trkpt lat="44.7989382" lon="9.2298782"><ele>472.0</ele><time>2026-04-19T15:05:14.726Z</time></trkpt><trkpt lat="44.799082" lon="9.2297907"><ele>470.6666666666667</ele><time>2026-04-19T15:05:15.726Z</time></trkpt><trkpt lat="44.7992371" lon="9.2296975"><ele>469.33333333333337</ele><time>2026-04-19T15:05:16.725Z</time></trkpt><trkpt lat="44.7993899" lon="9.2296031"><ele>468.0</ele><time>2026-04-19T15:05:17.725Z</time></trkpt><trkpt lat="44.7995375" lon="9.2295215"><ele>467.5</ele><time>2026-04-19T15:05:18.725Z</time></trkpt><trkpt lat="44.7996766" lon="9.2294535"><ele>467.0</ele><time>2026-04-19T15:05:19.726Z</time></trkpt><trkpt lat="44.7998152" lon="9.2293909"><ele>466.5</ele><time>2026-04-19T15:05:20.725Z</time></trkpt><trkpt lat="44.7999517" lon="9.2293396"><ele>466.0</ele><time>2026-04-19T15:05:21.726Z</time></trkpt><trkpt lat="44.8000863" lon="9.2293048"><ele>465.75</ele><time>2026-04-19T15:05:22.726Z</time></trkpt><trkpt lat="44.8002261" lon="9.2292927"><ele>465.5</ele><time>2026-04-19T15:05:23.726Z</time></trkpt><trkpt lat="44.8003707" lon="9.2293095"><ele>465.25</ele><time>2026-04-19T15:05:24.726Z</time></trkpt><trkpt lat="44.8005221" lon="9.2293371"><ele>465.0</ele><time>2026-04-19T15:05:25.726Z</time></trkpt><trkpt lat="44.8006732" lon="9.2293704"><ele>465.0</ele><time>2026-04-19T15:05:26.726Z</time></trkpt><trkpt lat="44.8008086" lon="9.2294041"><ele>465.0</ele><time>2026-04-19T15:05:27.725Z</time></trkpt><trkpt lat="44.8009318" lon="9.2294263"><ele>465.0</ele><time>2026-04-19T15:05:28.726Z</time></trkpt><trkpt lat="44.8010401" lon="9.2294607"><ele>465.0</ele><time>2026-04-19T15:05:29.726Z</time></trkpt><trkpt lat="44.8011199" lon="9.2295187"><ele>464.8</ele><time>2026-04-19T15:05:30.725Z</time></trkpt><trkpt lat="44.8011847" lon="9.2296126"><ele>464.6</ele><time>2026-04-19T15:05:31.725Z</time></trkpt><trkpt lat="44.8012322" lon="9.2297558"><ele>464.4</ele><time>2026-04-19T15:05:32.725Z</time></trkpt><trkpt lat="44.8012657" lon="9.229912"><ele>464.2</ele><time>2026-04-19T15:05:33.726Z</time></trkpt><trkpt lat="44.8013001" lon="9.2300614"><ele>464.0</ele><time>2026-04-19T15:05:34.726Z</time></trkpt><trkpt lat="44.801342" lon="9.2301597"><ele>464.4</ele><time>2026-04-19T15:05:35.726Z</time></trkpt><trkpt lat="44.8014291" lon="9.2302349"><ele>464.79999999999995</ele><time>2026-04-19T15:05:37.726Z</time></trkpt><trkpt lat="44.801541" lon="9.2302061"><ele>465.20000000000005</ele><time>2026-04-19T15:05:39.726Z</time></trkpt><trkpt lat="44.8016287" lon="9.2301816"><ele>465.6</ele><time>2026-04-19T15:05:40.726Z</time></trkpt><trkpt lat="44.8017378" lon="9.2301531"><ele>466.0</ele><time>2026-04-19T15:05:41.726Z</time></trkpt><trkpt lat="44.8018448" lon="9.2301262"><ele>466.4</ele><time>2026-04-19T15:05:42.726Z</time></trkpt><trkpt lat="44.8019347" lon="9.2301031"><ele>466.8</ele><time>2026-04-19T15:05:43.726Z</time></trkpt><trkpt lat="44.8020077" lon="9.2300054"><ele>467.19999999999993</ele><time>2026-04-19T15:05:45.726Z</time></trkpt><trkpt lat="44.8019604" lon="9.2298225"><ele>467.59999999999997</ele><time>2026-04-19T15:05:47.726Z</time></trkpt><trkpt lat="44.801914" lon="9.2296934"><ele>468.0</ele><time>2026-04-19T15:05:48.726Z</time></trkpt><trkpt lat="44.8018814" lon="9.2295769"><ele>468.0</ele><time>2026-04-19T15:05:49.725Z</time></trkpt><trkpt lat="44.8018823" lon="9.229484"><ele>467.99999999999994</ele><time>2026-04-19T15:05:50.726Z</time></trkpt><trkpt lat="44.8019557" lon="9.229397"><ele>467.99999999999994</ele><time>2026-04-19T15:05:52.726Z</time></trkpt><trkpt lat="44.8020333" lon="9.2293967"><ele>468.0</ele><time>2026-04-19T15:05:53.726Z</time></trkpt><trkpt lat="44.8021388" lon="9.2294177"><ele>468.0</ele><time>2026-04-19T15:05:54.726Z</time></trkpt><trkpt lat="44.8022726" lon="9.2294469"><ele>468.0</ele><time>2026-04-19T15:05:55.726Z</time></trkpt><trkpt lat="44.8024255" lon="9.2294551"><ele>468.0</ele><time>2026-04-19T15:05:56.726Z</time></trkpt><trkpt lat="44.8025788" lon="9.2294352"><ele>468.0</ele><time>2026-04-19T15:05:57.726Z</time></trkpt><trkpt lat="44.8027296" lon="9.229386"><ele>468.0</ele><time>2026-04-19T15:05:58.726Z</time></trkpt><trkpt lat="44.8028759" lon="9.2293089"><ele>468.0</ele><time>2026-04-19T15:05:59.726Z</time></trkpt><trkpt lat="44.803023" lon="9.2292234"><ele>468.0</ele><time>2026-04-19T15:06:00.726Z</time></trkpt><trkpt lat="44.8031529" lon="9.2291504"><ele>468.0</ele><time>2026-04-19T15:06:01.726Z</time></trkpt><trkpt lat="44.8032891" lon="9.2290953"><ele>468.0</ele><time>2026-04-19T15:06:02.725Z</time></trkpt><trkpt lat="44.8034309" lon="9.229056"><ele>468.0</ele><time>2026-04-19T15:06:03.726Z</time></trkpt><trkpt lat="44.8035852" lon="9.2290007"><ele>468.0</ele><time>2026-04-19T15:06:04.725Z</time></trkpt><trkpt lat="44.8037525" lon="9.2289249"><ele>468.0</ele><time>2026-04-19T15:06:05.726Z</time></trkpt><trkpt lat="44.8039182" lon="9.2288303"><ele>468.0</ele><time>2026-04-19T15:06:06.726Z</time></trkpt><trkpt lat="44.8040796" lon="9.2287189"><ele>468.0</ele><time>2026-04-19T15:06:07.726Z</time></trkpt><trkpt lat="44.8042577" lon="9.2285988"><ele>472.33333333333337</ele><time>2026-04-19T15:06:08.726Z</time></trkpt><trkpt lat="44.8044296" lon="9.2285003"><ele>476.6666666666667</ele><time>2026-04-19T15:06:09.725Z</time></trkpt><trkpt lat="44.8045879" lon="9.2284158"><ele>481.0</ele><time>2026-04-19T15:06:10.725Z</time></trkpt><trkpt lat="44.8047414" lon="9.2283232"><ele>481.0</ele><time>2026-04-19T15:06:11.726Z</time></trkpt><trkpt lat="44.8048676" lon="9.2282029"><ele>481.0</ele><time>2026-04-19T15:06:12.726Z</time></trkpt><trkpt lat="44.8049796" lon="9.2280689"><ele>481.0</ele><time>2026-04-19T15:06:13.725Z</time></trkpt><trkpt lat="44.8050813" lon="9.2279521"><ele>481.0</ele><time>2026-04-19T15:06:14.726Z</time></trkpt><trkpt lat="44.805174" lon="9.2278621"><ele>483.6</ele><time>2026-04-19T15:06:15.725Z</time></trkpt><trkpt lat="44.8052667" lon="9.2278091"><ele>486.20000000000005</ele><time>2026-04-19T15:06:16.726Z</time></trkpt><trkpt lat="44.8053672" lon="9.2277937"><ele>488.79999999999995</ele><time>2026-04-19T15:06:17.726Z</time></trkpt><trkpt lat="44.8054701" lon="9.2277927"><ele>491.4</ele><time>2026-04-19T15:06:18.726Z</time></trkpt><trkpt lat="44.8055657" lon="9.2277821"><ele>494.0</ele><time>2026-04-19T15:06:19.726Z</time></trkpt><trkpt lat="44.8056461" lon="9.2277671"><ele>493.99999999999994</ele><time>2026-04-19T15:06:20.725Z</time></trkpt><trkpt lat="44.8057073" lon="9.2277444"><ele>494.0</ele><time>2026-04-19T15:06:21.726Z</time></trkpt><trkpt lat="44.8057744" lon="9.2277235"><ele>494.0</ele><time>2026-04-19T15:06:23.725Z</time></trkpt><trkpt lat="44.8057677" lon="9.227842"><ele>494.0</ele><time>2026-04-19T15:06:29.726Z</time></trkpt><trkpt lat="44.8057646" lon="9.2279469"><ele>493.99999999999994</ele><time>2026-04-19T15:06:30.725Z</time></trkpt><trkpt lat="44.8057461" lon="9.2280881"><ele>494.0</ele><time>2026-04-19T15:06:31.726Z</time></trkpt><trkpt lat="44.8057089" lon="9.2282415"><ele>494.75</ele><time>2026-04-19T15:06:32.726Z</time></trkpt><trkpt lat="44.8056723" lon="9.2284163"><ele>495.5</ele><time>2026-04-19T15:06:33.726Z</time></trkpt><trkpt lat="44.8056377" lon="9.2286084"><ele>496.25</ele><time>2026-04-19T15:06:34.725Z</time></trkpt><trkpt lat="44.8055879" lon="9.2288066"><ele>497.0</ele><time>2026-04-19T15:06:35.726Z</time></trkpt><trkpt lat="44.8055386" lon="9.22901"><ele>498.75</ele><time>2026-04-19T15:06:36.725Z</time></trkpt><trkpt lat="44.805494" lon="9.2292142"><ele>500.5</ele><time>2026-04-19T15:06:37.726Z</time></trkpt><trkpt lat="44.8054672" lon="9.2294179"><ele>502.25</ele><time>2026-04-19T15:06:38.726Z</time></trkpt><trkpt lat="44.8054513" lon="9.2296087"><ele>504.0</ele><time>2026-04-19T15:06:39.726Z</time></trkpt><trkpt lat="44.8054329" lon="9.2297938"><ele>505.25</ele><time>2026-04-19T15:06:40.726Z</time></trkpt><trkpt lat="44.805422" lon="9.229989"><ele>506.5</ele><time>2026-04-19T15:06:41.726Z</time></trkpt><trkpt lat="44.8054191" lon="9.2301927"><ele>507.75</ele><time>2026-04-19T15:06:42.726Z</time></trkpt><trkpt lat="44.8054195" lon="9.2304008"><ele>509.0</ele><time>2026-04-19T15:06:43.725Z</time></trkpt><trkpt lat="44.8054111" lon="9.2306128"><ele>509.5</ele><time>2026-04-19T15:06:44.725Z</time></trkpt><trkpt lat="44.8053917" lon="9.230795"><ele>510.0</ele><time>2026-04-19T15:06:45.726Z</time></trkpt><trkpt lat="44.8053473" lon="9.2309627"><ele>510.5</ele><time>2026-04-19T15:06:46.726Z</time></trkpt><trkpt lat="44.8052712" lon="9.2311264"><ele>511.0</ele><time>2026-04-19T15:06:47.726Z</time></trkpt><trkpt lat="44.8051741" lon="9.2312854"><ele>509.0</ele><time>2026-04-19T15:06:48.725Z</time></trkpt><trkpt lat="44.8050815" lon="9.2314458"><ele>507.0</ele><time>2026-04-19T15:06:49.726Z</time></trkpt><trkpt lat="44.80501" lon="9.2316342"><ele>505.0</ele><time>2026-04-19T15:06:50.725Z</time></trkpt><trkpt lat="44.8049465" lon="9.2318411"><ele>505.0</ele><time>2026-04-19T15:06:51.726Z</time></trkpt><trkpt lat="44.804899" lon="9.2320734"><ele>505.0</ele><time>2026-04-19T15:06:52.726Z</time></trkpt><trkpt lat="44.804856" lon="9.2322843"><ele>505.0</ele><time>2026-04-19T15:06:53.725Z</time></trkpt><trkpt lat="44.8048149" lon="9.2324815"><ele>506.0</ele><time>2026-04-19T15:06:54.726Z</time></trkpt><trkpt lat="44.8047828" lon="9.2326869"><ele>507.0</ele><time>2026-04-19T15:06:55.726Z</time></trkpt><trkpt lat="44.8047688" lon="9.2328959"><ele>508.0</ele><time>2026-04-19T15:06:56.726Z</time></trkpt><trkpt lat="44.8047778" lon="9.2331174"><ele>508.0</ele><time>2026-04-19T15:06:57.726Z</time></trkpt><trkpt lat="44.8047876" lon="9.2333584"><ele>508.0</ele><time>2026-04-19T15:06:58.726Z</time></trkpt><trkpt lat="44.8048026" lon="9.233602"><ele>508.0</ele><time>2026-04-19T15:06:59.726Z</time></trkpt><trkpt lat="44.8048103" lon="9.2338468"><ele>508.6666666666667</ele><time>2026-04-19T15:07:00.726Z</time></trkpt><trkpt lat="44.8047847" lon="9.2340955"><ele>509.33333333333337</ele><time>2026-04-19T15:07:01.726Z</time></trkpt><trkpt lat="44.804745" lon="9.2343527"><ele>510.0</ele><time>2026-04-19T15:07:02.726Z</time></trkpt><trkpt lat="44.804695" lon="9.2345978"><ele>511.66666666666663</ele><time>2026-04-19T15:07:03.726Z</time></trkpt><trkpt lat="44.8046381" lon="9.2348386"><ele>513.3333333333333</ele><time>2026-04-19T15:07:04.726Z</time></trkpt><trkpt lat="44.8045708" lon="9.2350848"><ele>515.0</ele><time>2026-04-19T15:07:05.726Z</time></trkpt><trkpt lat="44.8045108" lon="9.2353294"><ele>515.0</ele><time>2026-04-19T15:07:06.726Z</time></trkpt><trkpt lat="44.8044583" lon="9.2355729"><ele>515.0</ele><time>2026-04-19T15:07:07.725Z</time></trkpt><trkpt lat="44.8044159" lon="9.235824"><ele>515.0</ele><time>2026-04-19T15:07:08.726Z</time></trkpt><trkpt lat="44.8043797" lon="9.2360736"><ele>516.6666666666666</ele><time>2026-04-19T15:07:09.726Z</time></trkpt><trkpt lat="44.8043586" lon="9.2363316"><ele>518.3333333333334</ele><time>2026-04-19T15:07:10.725Z</time></trkpt><trkpt lat="44.8043615" lon="9.2365843"><ele>520.0</ele><time>2026-04-19T15:07:11.725Z</time></trkpt><trkpt lat="44.804362" lon="9.2368507"><ele>521.3333333333334</ele><time>2026-04-19T15:07:12.725Z</time></trkpt><trkpt lat="44.8043612" lon="9.2371203"><ele>522.6666666666666</ele><time>2026-04-19T15:07:13.725Z</time></trkpt><trkpt lat="44.8043456" lon="9.2373893"><ele>524.0</ele><time>2026-04-19T15:07:14.726Z</time></trkpt><trkpt lat="44.8043168" lon="9.2376696"><ele>518.6666666666666</ele><time>2026-04-19T15:07:15.725Z</time></trkpt><trkpt lat="44.804294" lon="9.2379417"><ele>513.3333333333334</ele><time>2026-04-19T15:07:16.726Z</time></trkpt><trkpt lat="44.8042727" lon="9.238183"><ele>508.0</ele><time>2026-04-19T15:07:17.726Z</time></trkpt><trkpt lat="44.8042405" lon="9.2383968"><ele>508.0</ele><time>2026-04-19T15:07:18.726Z</time></trkpt><trkpt lat="44.804177" lon="9.2386088"><ele>508.0</ele><time>2026-04-19T15:07:19.726Z</time></trkpt><trkpt lat="44.8040835" lon="9.2387899"><ele>508.0</ele><time>2026-04-19T15:07:20.726Z</time></trkpt><trkpt lat="44.8039693" lon="9.238948"><ele>507.6666666666667</ele><time>2026-04-19T15:07:21.725Z</time></trkpt><trkpt lat="44.8038248" lon="9.2390872"><ele>507.33333333333337</ele><time>2026-04-19T15:07:22.726Z</time></trkpt><trkpt lat="44.8036592" lon="9.239199"><ele>507.0</ele><time>2026-04-19T15:07:23.725Z</time></trkpt><trkpt lat="44.8034732" lon="9.2393072"><ele>503.33333333333337</ele><time>2026-04-19T15:07:24.726Z</time></trkpt><trkpt lat="44.8032847" lon="9.2394067"><ele>499.6666666666667</ele><time>2026-04-19T15:07:25.726Z</time></trkpt><trkpt lat="44.8031029" lon="9.2395218"><ele>496.0</ele><time>2026-04-19T15:07:26.725Z</time></trkpt><trkpt lat="44.8029229" lon="9.239636"><ele>496.0</ele><time>2026-04-19T15:07:27.726Z</time></trkpt><trkpt lat="44.80275" lon="9.2397415"><ele>496.0</ele><time>2026-04-19T15:07:28.725Z</time></trkpt><trkpt lat="44.8025935" lon="9.2398457"><ele>496.0</ele><time>2026-04-19T15:07:29.726Z</time></trkpt><trkpt lat="44.8024454" lon="9.2399469"><ele>498.5</ele><time>2026-04-19T15:07:30.725Z</time></trkpt><trkpt lat="44.8022998" lon="9.2400377"><ele>501.0</ele><time>2026-04-19T15:07:31.726Z</time></trkpt><trkpt lat="44.802166" lon="9.2401233"><ele>503.5</ele><time>2026-04-19T15:07:32.726Z</time></trkpt><trkpt lat="44.8020426" lon="9.2401954"><ele>506.0</ele><time>2026-04-19T15:07:33.726Z</time></trkpt><trkpt lat="44.8019289" lon="9.2402678"><ele>506.0</ele><time>2026-04-19T15:07:34.725Z</time></trkpt><trkpt lat="44.8018328" lon="9.2403244"><ele>506.0</ele><time>2026-04-19T15:07:35.726Z</time></trkpt><trkpt lat="44.8017596" lon="9.2403642"><ele>506.0</ele><time>2026-04-19T15:07:36.726Z</time></trkpt><trkpt lat="44.8017092" lon="9.2404334"><ele>506.0</ele><time>2026-04-19T15:07:38.725Z</time></trkpt><trkpt lat="44.8017534" lon="9.2405229"><ele>506.0</ele><time>2026-04-19T15:07:40.726Z</time></trkpt><trkpt lat="44.8017835" lon="9.240687"><ele>508.20000000000005</ele><time>2026-04-19T15:07:42.726Z</time></trkpt><trkpt lat="44.8017642" lon="9.2408047"><ele>510.40000000000003</ele><time>2026-04-19T15:07:43.726Z</time></trkpt><trkpt lat="44.8017335" lon="9.2409418"><ele>512.6</ele><time>2026-04-19T15:07:44.725Z</time></trkpt><trkpt lat="44.8016987" lon="9.2410981"><ele>514.8000000000001</ele><time>2026-04-19T15:07:45.726Z</time></trkpt><trkpt lat="44.8016582" lon="9.2412737"><ele>517.0</ele><time>2026-04-19T15:07:46.726Z</time></trkpt><trkpt lat="44.8016288" lon="9.2414571"><ele>518.75</ele><time>2026-04-19T15:07:47.726Z</time></trkpt><trkpt lat="44.8016237" lon="9.241635"><ele>520.5</ele><time>2026-04-19T15:07:48.725Z</time></trkpt><trkpt lat="44.8016408" lon="9.241786"><ele>522.25</ele><time>2026-04-19T15:07:49.726Z</time></trkpt><trkpt lat="44.8016599" lon="9.241935"><ele>524.0</ele><time>2026-04-19T15:07:50.726Z</time></trkpt><trkpt lat="44.8016844" lon="9.2420853"><ele>524.0</ele><time>2026-04-19T15:07:51.726Z</time></trkpt><trkpt lat="44.8017076" lon="9.2422195"><ele>524.0</ele><time>2026-04-19T15:07:52.726Z</time></trkpt><trkpt lat="44.8017168" lon="9.2423614"><ele>524.0</ele><time>2026-04-19T15:07:53.725Z</time></trkpt><trkpt lat="44.8017012" lon="9.2425137"><ele>524.0</ele><time>2026-04-19T15:07:54.726Z</time></trkpt><trkpt lat="44.8016625" lon="9.2426727"><ele>524.0</ele><time>2026-04-19T15:07:55.726Z</time></trkpt><trkpt lat="44.8016127" lon="9.2428393"><ele>525.0</ele><time>2026-04-19T15:07:56.726Z</time></trkpt><trkpt lat="44.8015479" lon="9.2430111"><ele>526.0</ele><time>2026-04-19T15:07:57.726Z</time></trkpt><trkpt lat="44.8014724" lon="9.2431851"><ele>527.0</ele><time>2026-04-19T15:07:58.726Z</time></trkpt><trkpt lat="44.8014" lon="9.2433598"><ele>528.0</ele><time>2026-04-19T15:07:59.725Z</time></trkpt><trkpt lat="44.8013217" lon="9.2435406"><ele>528.0</ele><time>2026-04-19T15:08:00.725Z</time></trkpt><trkpt lat="44.8012495" lon="9.243708"><ele>528.0</ele><time>2026-04-19T15:08:01.725Z</time></trkpt><trkpt lat="44.8011846" lon="9.2438495"><ele>528.0</ele><time>2026-04-19T15:08:02.726Z</time></trkpt><trkpt lat="44.8011128" lon="9.2439662"><ele>528.0</ele><time>2026-04-19T15:08:03.726Z</time></trkpt><trkpt lat="44.8010239" lon="9.2440547"><ele>530.0</ele><time>2026-04-19T15:08:04.726Z</time></trkpt><trkpt lat="44.800919" lon="9.2441001"><ele>532.0</ele><time>2026-04-19T15:08:05.726Z</time></trkpt><trkpt lat="44.800797" lon="9.2441267"><ele>534.0</ele><time>2026-04-19T15:08:06.726Z</time></trkpt><trkpt lat="44.8006717" lon="9.2441406"><ele>536.0</ele><time>2026-04-19T15:08:07.726Z</time></trkpt><trkpt lat="44.8005665" lon="9.2441825"><ele>536.0</ele><time>2026-04-19T15:08:08.726Z</time></trkpt><trkpt lat="44.8004876" lon="9.2442597"><ele>536.0</ele><time>2026-04-19T15:08:09.726Z</time></trkpt><trkpt lat="44.800434" lon="9.244353"><ele>536.0</ele><time>2026-04-19T15:08:10.726Z</time></trkpt><trkpt lat="44.8003984" lon="9.2444848"><ele>536.0</ele><time>2026-04-19T15:08:11.726Z</time></trkpt><trkpt lat="44.800366" lon="9.2446504"><ele>536.0</ele><time>2026-04-19T15:08:12.725Z</time></trkpt><trkpt lat="44.8003413" lon="9.2448305"><ele>536.75</ele><time>2026-04-19T15:08:13.726Z</time></trkpt><trkpt lat="44.8003269" lon="9.2450107"><ele>537.5</ele><time>2026-04-19T15:08:14.725Z</time></trkpt><trkpt lat="44.8003207" lon="9.2452064"><ele>538.25</ele><time>2026-04-19T15:08:15.726Z</time></trkpt><trkpt lat="44.8003331" lon="9.2454145"><ele>539.0</ele><time>2026-04-19T15:08:16.726Z</time></trkpt><trkpt lat="44.8003508" lon="9.2456331"><ele>539.75</ele><time>2026-04-19T15:08:17.726Z</time></trkpt><trkpt lat="44.8003745" lon="9.2458304"><ele>540.5</ele><time>2026-04-19T15:08:18.726Z</time></trkpt><trkpt lat="44.8003943" lon="9.2460011"><ele>541.25</ele><time>2026-04-19T15:08:19.726Z</time></trkpt><trkpt lat="44.8004057" lon="9.2461773"><ele>542.0</ele><time>2026-04-19T15:08:20.725Z</time></trkpt><trkpt lat="44.8003936" lon="9.2463513"><ele>542.75</ele><time>2026-04-19T15:08:21.726Z</time></trkpt><trkpt lat="44.8003835" lon="9.2465387"><ele>543.5</ele><time>2026-04-19T15:08:22.726Z</time></trkpt><trkpt lat="44.8003767" lon="9.2467143"><ele>544.25</ele><time>2026-04-19T15:08:23.726Z</time></trkpt><trkpt lat="44.8003631" lon="9.2468722"><ele>545.0</ele><time>2026-04-19T15:08:24.726Z</time></trkpt><trkpt lat="44.8003382" lon="9.2470384"><ele>545.0</ele><time>2026-04-19T15:08:25.726Z</time></trkpt><trkpt lat="44.8002994" lon="9.2471804"><ele>545.0</ele><time>2026-04-19T15:08:26.726Z</time></trkpt><trkpt lat="44.8002672" lon="9.2473324"><ele>545.0</ele><time>2026-04-19T15:08:27.726Z</time></trkpt><trkpt lat="44.8002538" lon="9.2474639"><ele>545.0</ele><time>2026-04-19T15:08:28.726Z</time></trkpt><trkpt lat="44.8002672" lon="9.2475966"><ele>545.0</ele><time>2026-04-19T15:08:29.726Z</time></trkpt><trkpt lat="44.8002977" lon="9.2477309"><ele>546.2</ele><time>2026-04-19T15:08:30.726Z</time></trkpt><trkpt lat="44.8003269" lon="9.2478492"><ele>547.4</ele><time>2026-04-19T15:08:31.726Z</time></trkpt><trkpt lat="44.8003447" lon="9.2479809"><ele>548.6</ele><time>2026-04-19T15:08:32.726Z</time></trkpt><trkpt lat="44.800347" lon="9.2481247"><ele>549.8</ele><time>2026-04-19T15:08:33.726Z</time></trkpt><trkpt lat="44.8003431" lon="9.248285"><ele>551.0</ele><time>2026-04-19T15:08:34.726Z</time></trkpt><trkpt lat="44.8003502" lon="9.2484625"><ele>552.0</ele><time>2026-04-19T15:08:35.726Z</time></trkpt><trkpt lat="44.8003682" lon="9.2486309"><ele>553.0</ele><time>2026-04-19T15:08:36.726Z</time></trkpt><trkpt lat="44.8003846" lon="9.2487982"><ele>554.0</ele><time>2026-04-19T15:08:37.726Z</time></trkpt><trkpt lat="44.8003664" lon="9.2489409"><ele>555.0</ele><time>2026-04-19T15:08:38.726Z</time></trkpt><trkpt lat="44.80032" lon="9.2490692"><ele>556.0</ele><time>2026-04-19T15:08:39.725Z</time></trkpt><trkpt lat="44.8002553" lon="9.2491895"><ele>557.2</ele><time>2026-04-19T15:08:40.726Z</time></trkpt><trkpt lat="44.8001883" lon="9.2492935"><ele>558.4000000000001</ele><time>2026-04-19T15:08:41.726Z</time></trkpt><trkpt lat="44.8001413" lon="9.2494093"><ele>559.6</ele><time>2026-04-19T15:08:42.726Z</time></trkpt><trkpt lat="44.8001292" lon="9.2495269"><ele>560.8000000000001</ele><time>2026-04-19T15:08:43.726Z</time></trkpt><trkpt lat="44.8001385" lon="9.2496554"><ele>562.0</ele><time>2026-04-19T15:08:44.726Z</time></trkpt><trkpt lat="44.8001591" lon="9.249786"><ele>564.0</ele><time>2026-04-19T15:08:45.726Z</time></trkpt><trkpt lat="44.8001986" lon="9.2499119"><ele>566.0</ele><time>2026-04-19T15:08:46.726Z</time></trkpt><trkpt lat="44.8002459" lon="9.2500181"><ele>568.0</ele><time>2026-04-19T15:08:47.725Z</time></trkpt><trkpt lat="44.8003164" lon="9.250112"><ele>570.0</ele><time>2026-04-19T15:08:48.725Z</time></trkpt><trkpt lat="44.8004047" lon="9.2502086"><ele>572.0</ele><time>2026-04-19T15:08:49.725Z</time></trkpt><trkpt lat="44.8004772" lon="9.2503082"><ele>572.0</ele><time>2026-04-19T15:08:50.725Z</time></trkpt><trkpt lat="44.8005193" lon="9.2504274"><ele>572.0</ele><time>2026-04-19T15:08:51.724Z</time></trkpt><trkpt lat="44.8005431" lon="9.2505647"><ele>572.0</ele><time>2026-04-19T15:08:52.725Z</time></trkpt><trkpt lat="44.8005555" lon="9.2507254"><ele>572.0</ele><time>2026-04-19T15:08:53.725Z</time></trkpt><trkpt lat="44.8005677" lon="9.2508871"><ele>572.0</ele><time>2026-04-19T15:08:54.725Z</time></trkpt><trkpt lat="44.8005913" lon="9.2510459"><ele>574.25</ele><time>2026-04-19T15:08:55.725Z</time></trkpt><trkpt lat="44.8006411" lon="9.2512058"><ele>576.5</ele><time>2026-04-19T15:08:56.725Z</time></trkpt><trkpt lat="44.8007051" lon="9.2513393"><ele>578.75</ele><time>2026-04-19T15:08:57.725Z</time></trkpt><trkpt lat="44.8007858" lon="9.2514729"><ele>581.0</ele><time>2026-04-19T15:08:58.725Z</time></trkpt><trkpt lat="44.8008777" lon="9.2515884"><ele>581.75</ele><time>2026-04-19T15:08:59.725Z</time></trkpt><trkpt lat="44.8009868" lon="9.2516959"><ele>582.5</ele><time>2026-04-19T15:09:00.725Z</time></trkpt><trkpt lat="44.8010922" lon="9.2517848"><ele>583.25</ele><time>2026-04-19T15:09:01.725Z</time></trkpt><trkpt lat="44.8012015" lon="9.2518549"><ele>584.0</ele><time>2026-04-19T15:09:02.725Z</time></trkpt><trkpt lat="44.8013205" lon="9.2519077"><ele>584.0</ele><time>2026-04-19T15:09:03.725Z</time></trkpt><trkpt lat="44.8014396" lon="9.2519811"><ele>584.0</ele><time>2026-04-19T15:09:04.724Z</time></trkpt><trkpt lat="44.8015337" lon="9.252072"><ele>584.0</ele><time>2026-04-19T15:09:05.725Z</time></trkpt><trkpt lat="44.8016031" lon="9.2521662"><ele>584.0</ele><time>2026-04-19T15:09:06.725Z</time></trkpt><trkpt lat="44.8016453" lon="9.25225"><ele>584.0</ele><time>2026-04-19T15:09:07.725Z</time></trkpt><trkpt lat="44.8016526" lon="9.2523388"><ele>585.4</ele><time>2026-04-19T15:09:08.725Z</time></trkpt><trkpt lat="44.8015584" lon="9.2524241"><ele>586.8</ele><time>2026-04-19T15:09:10.725Z</time></trkpt><trkpt lat="44.801454" lon="9.2523987"><ele>588.2</ele><time>2026-04-19T15:09:11.724Z</time></trkpt><trkpt lat="44.8013469" lon="9.2523661"><ele>589.6</ele><time>2026-04-19T15:09:12.725Z</time></trkpt><trkpt lat="44.8012529" lon="9.2523576"><ele>591.0</ele><time>2026-04-19T15:09:13.724Z</time></trkpt><trkpt lat="44.8011833" lon="9.2524059"><ele>591.0</ele><time>2026-04-19T15:09:14.725Z</time></trkpt><trkpt lat="44.8011284" lon="9.2524847"><ele>591.0</ele><time>2026-04-19T15:09:15.725Z</time></trkpt><trkpt lat="44.801084" lon="9.2526171"><ele>591.0</ele><time>2026-04-19T15:09:16.725Z</time></trkpt><trkpt lat="44.8010556" lon="9.2528023"><ele>591.0</ele><time>2026-04-19T15:09:17.724Z</time></trkpt><trkpt lat="44.8010236" lon="9.2529914"><ele>591.4</ele><time>2026-04-19T15:09:18.725Z</time></trkpt><trkpt lat="44.800987" lon="9.2531531"><ele>591.8</ele><time>2026-04-19T15:09:19.725Z</time></trkpt><trkpt lat="44.8009592" lon="9.2532846"><ele>592.1999999999999</ele><time>2026-04-19T15:09:20.725Z</time></trkpt><trkpt lat="44.8009481" lon="9.2534055"><ele>592.6</ele><time>2026-04-19T15:09:21.725Z</time></trkpt><trkpt lat="44.8009614" lon="9.2535224"><ele>593.0</ele><time>2026-04-19T15:09:22.725Z</time></trkpt><trkpt lat="44.8010092" lon="9.2536309"><ele>593.0</ele><time>2026-04-19T15:09:23.725Z</time></trkpt><trkpt lat="44.8010652" lon="9.2537223"><ele>593.0</ele><time>2026-04-19T15:09:24.725Z</time></trkpt><trkpt lat="44.8011165" lon="9.2538212"><ele>593.0</ele><time>2026-04-19T15:09:25.725Z</time></trkpt><trkpt lat="44.8011376" lon="9.2539461"><ele>593.0</ele><time>2026-04-19T15:09:26.724Z</time></trkpt><trkpt lat="44.801103" lon="9.2540713"><ele>593.0</ele><time>2026-04-19T15:09:27.724Z</time></trkpt><trkpt lat="44.8010314" lon="9.254188"><ele>597.75</ele><time>2026-04-19T15:09:28.725Z</time></trkpt><trkpt lat="44.8009388" lon="9.2543"><ele>602.5</ele><time>2026-04-19T15:09:29.725Z</time></trkpt><trkpt lat="44.8008369" lon="9.2543989"><ele>607.25</ele><time>2026-04-19T15:09:30.725Z</time></trkpt><trkpt lat="44.8007386" lon="9.2544938"><ele>612.0</ele><time>2026-04-19T15:09:31.725Z</time></trkpt><trkpt lat="44.8006615" lon="9.25458"><ele>612.0</ele><time>2026-04-19T15:09:32.724Z</time></trkpt><trkpt lat="44.8006188" lon="9.2546734"><ele>612.0</ele><time>2026-04-19T15:09:33.725Z</time></trkpt><trkpt lat="44.8005868" lon="9.2547699"><ele>612.0</ele><time>2026-04-19T15:09:34.725Z</time></trkpt><trkpt lat="44.800569" lon="9.2548775"><ele>612.0</ele><time>2026-04-19T15:09:35.725Z</time></trkpt><trkpt lat="44.8005939" lon="9.2549905"><ele>612.0</ele><time>2026-04-19T15:09:36.725Z</time></trkpt><trkpt lat="44.8006231" lon="9.255098"><ele>612.0</ele><time>2026-04-19T15:09:37.725Z</time></trkpt><trkpt lat="44.8006376" lon="9.2552063"><ele>612.8000000000001</ele><time>2026-04-19T15:09:38.724Z</time></trkpt><trkpt lat="44.8006321" lon="9.2553251"><ele>613.6</ele><time>2026-04-19T15:09:39.724Z</time></trkpt><trkpt lat="44.8006108" lon="9.2554539"><ele>614.4000000000001</ele><time>2026-04-19T15:09:40.725Z</time></trkpt><trkpt lat="44.8005703" lon="9.2555837"><ele>615.2</ele><time>2026-04-19T15:09:41.725Z</time></trkpt><trkpt lat="44.800519" lon="9.2557424"><ele>616.0</ele><time>2026-04-19T15:09:42.725Z</time></trkpt><trkpt lat="44.8004548" lon="9.2558952"><ele>616.2</ele><time>2026-04-19T15:09:43.724Z</time></trkpt><trkpt lat="44.8003899" lon="9.2560251"><ele>616.4000000000001</ele><time>2026-04-19T15:09:44.725Z</time></trkpt><trkpt lat="44.8003209" lon="9.2561408"><ele>616.6</ele><time>2026-04-19T15:09:45.724Z</time></trkpt><trkpt lat="44.8002449" lon="9.2562418"><ele>616.8000000000001</ele><time>2026-04-19T15:09:46.725Z</time></trkpt><trkpt lat="44.8001691" lon="9.2563371"><ele>617.0</ele><time>2026-04-19T15:09:47.725Z</time></trkpt><trkpt lat="44.8001057" lon="9.2564241"><ele>617.1666666666666</ele><time>2026-04-19T15:09:48.725Z</time></trkpt><trkpt lat="44.8000612" lon="9.2565269"><ele>617.3333333333333</ele><time>2026-04-19T15:09:49.725Z</time></trkpt><trkpt lat="44.8000352" lon="9.256634"><ele>617.5</ele><time>2026-04-19T15:09:50.725Z</time></trkpt><trkpt lat="44.8000306" lon="9.2567347"><ele>617.6666666666666</ele><time>2026-04-19T15:09:51.724Z</time></trkpt><trkpt lat="44.8000564" lon="9.2568414"><ele>617.8333333333334</ele><time>2026-04-19T15:09:52.725Z</time></trkpt><trkpt lat="44.8001172" lon="9.2569443"><ele>618.0</ele><time>2026-04-19T15:09:53.724Z</time></trkpt><trkpt lat="44.8001778" lon="9.2570372"><ele>618.0</ele><time>2026-04-19T15:09:54.725Z</time></trkpt><trkpt lat="44.8002216" lon="9.2571309"><ele>618.0</ele><time>2026-04-19T15:09:55.725Z</time></trkpt><trkpt lat="44.8002345" lon="9.2572341"><ele>618.0</ele><time>2026-04-19T15:09:56.724Z</time></trkpt><trkpt lat="44.8002267" lon="9.2573536"><ele>618.0</ele><time>2026-04-19T15:09:57.725Z</time></trkpt><trkpt lat="44.8001972" lon="9.2574866"><ele>618.0</ele><time>2026-04-19T15:09:58.724Z</time></trkpt><trkpt lat="44.8001521" lon="9.2576225"><ele>618.0</ele><time>2026-04-19T15:09:59.725Z</time></trkpt><trkpt lat="44.8001" lon="9.2577726"><ele>623.75</ele><time>2026-04-19T15:10:00.725Z</time></trkpt><trkpt lat="44.8000441" lon="9.2579329"><ele>629.5</ele><time>2026-04-19T15:10:01.725Z</time></trkpt><trkpt lat="44.7999835" lon="9.2581046"><ele>635.25</ele><time>2026-04-19T15:10:02.725Z</time></trkpt><trkpt lat="44.7999333" lon="9.2582845"><ele>641.0</ele><time>2026-04-19T15:10:03.725Z</time></trkpt><trkpt lat="44.7998967" lon="9.2584303"><ele>641.4</ele><time>2026-04-19T15:10:04.725Z</time></trkpt><trkpt lat="44.7998665" lon="9.2585862"><ele>641.8</ele><time>2026-04-19T15:10:05.725Z</time></trkpt><trkpt lat="44.7998336" lon="9.2587367"><ele>642.1999999999999</ele><time>2026-04-19T15:10:06.724Z</time></trkpt><trkpt lat="44.7998252" lon="9.2588588"><ele>642.5999999999999</ele><time>2026-04-19T15:10:07.725Z</time></trkpt><trkpt lat="44.7998445" lon="9.2589729"><ele>643.0</ele><time>2026-04-19T15:10:08.725Z</time></trkpt><trkpt lat="44.7998877" lon="9.2590775"><ele>644.0</ele><time>2026-04-19T15:10:09.725Z</time></trkpt><trkpt lat="44.7999485" lon="9.2591711"><ele>645.0</ele><time>2026-04-19T15:10:10.724Z</time></trkpt><trkpt lat="44.8000422" lon="9.2592654"><ele>646.0</ele><time>2026-04-19T15:10:11.725Z</time></trkpt><trkpt lat="44.8001541" lon="9.2593539"><ele>647.0</ele><time>2026-04-19T15:10:12.725Z</time></trkpt><trkpt lat="44.8002524" lon="9.2594436"><ele>645.8</ele><time>2026-04-19T15:10:13.725Z</time></trkpt><trkpt lat="44.8003111" lon="9.2595283"><ele>644.6</ele><time>2026-04-19T15:10:14.725Z</time></trkpt><trkpt lat="44.8003433" lon="9.2596347"><ele>643.4</ele><time>2026-04-19T15:10:15.725Z</time></trkpt><trkpt lat="44.8003593" lon="9.2597603"><ele>642.1999999999999</ele><time>2026-04-19T15:10:16.725Z</time></trkpt><trkpt lat="44.8003663" lon="9.2599196"><ele>641.0</ele><time>2026-04-19T15:10:17.725Z</time></trkpt><trkpt lat="44.8003719" lon="9.2601062"><ele>641.0</ele><time>2026-04-19T15:10:18.725Z</time></trkpt><trkpt lat="44.8003796" lon="9.2602948"><ele>641.0</ele><time>2026-04-19T15:10:19.725Z</time></trkpt><trkpt lat="44.8003891" lon="9.2604897"><ele>641.0</ele><time>2026-04-19T15:10:20.724Z</time></trkpt><trkpt lat="44.8003889" lon="9.2606907"><ele>641.0</ele><time>2026-04-19T15:10:21.724Z</time></trkpt><trkpt lat="44.8003701" lon="9.2608686"><ele>642.5999999999999</ele><time>2026-04-19T15:10:22.725Z</time></trkpt><trkpt lat="44.8003502" lon="9.2610287"><ele>644.2</ele><time>2026-04-19T15:10:23.725Z</time></trkpt><trkpt lat="44.8003433" lon="9.2611807"><ele>645.8</ele><time>2026-04-19T15:10:24.724Z</time></trkpt><trkpt lat="44.800363" lon="9.2613277"><ele>647.4000000000001</ele><time>2026-04-19T15:10:25.725Z</time></trkpt><trkpt lat="44.8003983" lon="9.2614808"><ele>649.0</ele><time>2026-04-19T15:10:26.725Z</time></trkpt><trkpt lat="44.8004393" lon="9.2616502"><ele>651.5</ele><time>2026-04-19T15:10:27.725Z</time></trkpt><trkpt lat="44.8004761" lon="9.2618296"><ele>654.0</ele><time>2026-04-19T15:10:28.724Z</time></trkpt><trkpt lat="44.8005168" lon="9.2619853"><ele>656.5</ele><time>2026-04-19T15:10:29.725Z</time></trkpt><trkpt lat="44.8005705" lon="9.2621194"><ele>659.0</ele><time>2026-04-19T15:10:30.725Z</time></trkpt><trkpt lat="44.800645" lon="9.2622395"><ele>659.75</ele><time>2026-04-19T15:10:31.725Z</time></trkpt><trkpt lat="44.8007347" lon="9.2623598"><ele>660.5</ele><time>2026-04-19T15:10:32.725Z</time></trkpt><trkpt lat="44.8008357" lon="9.2624664"><ele>661.25</ele><time>2026-04-19T15:10:33.724Z</time></trkpt><trkpt lat="44.800935" lon="9.2625695"><ele>662.0</ele><time>2026-04-19T15:10:34.725Z</time></trkpt><trkpt lat="44.8010246" lon="9.2626685"><ele>662.0</ele><time>2026-04-19T15:10:35.725Z</time></trkpt><trkpt lat="44.8010922" lon="9.2627563"><ele>662.0</ele><time>2026-04-19T15:10:36.725Z</time></trkpt><trkpt lat="44.8011354" lon="9.2628551"><ele>662.0</ele><time>2026-04-19T15:10:37.725Z</time></trkpt><trkpt lat="44.8011529" lon="9.2629586"><ele>662.0</ele><time>2026-04-19T15:10:38.725Z</time></trkpt><trkpt lat="44.8011389" lon="9.263057"><ele>662.0</ele><time>2026-04-19T15:10:39.725Z</time></trkpt><trkpt lat="44.8010943" lon="9.2631296"><ele>662.0</ele><time>2026-04-19T15:10:40.725Z</time></trkpt><trkpt lat="44.8010351" lon="9.2631725"><ele>664.25</ele><time>2026-04-19T15:10:41.724Z</time></trkpt><trkpt lat="44.8009459" lon="9.2631944"><ele>666.5</ele><time>2026-04-19T15:10:42.725Z</time></trkpt><trkpt lat="44.8008251" lon="9.2632014"><ele>668.75</ele><time>2026-04-19T15:10:43.724Z</time></trkpt><trkpt lat="44.8006826" lon="9.2632234"><ele>671.0</ele><time>2026-04-19T15:10:44.725Z</time></trkpt><trkpt lat="44.8005527" lon="9.2632896"><ele>671.0</ele><time>2026-04-19T15:10:45.725Z</time></trkpt><trkpt lat="44.80044" lon="9.2633821"><ele>671.0</ele><time>2026-04-19T15:10:46.725Z</time></trkpt><trkpt lat="44.8003441" lon="9.2634978"><ele>671.0</ele><time>2026-04-19T15:10:47.725Z</time></trkpt><trkpt lat="44.8002506" lon="9.2636055"><ele>671.0</ele><time>2026-04-19T15:10:48.725Z</time></trkpt><trkpt lat="44.8001713" lon="9.2637052"><ele>672.3333333333333</ele><time>2026-04-19T15:10:49.724Z</time></trkpt><trkpt lat="44.8001001" lon="9.2638081"><ele>673.6666666666666</ele><time>2026-04-19T15:10:50.724Z</time></trkpt><trkpt lat="44.8000451" lon="9.2639149"><ele>675.0</ele><time>2026-04-19T15:10:51.725Z</time></trkpt><trkpt lat="44.8000166" lon="9.2640237"><ele>676.3333333333334</ele><time>2026-04-19T15:10:52.725Z</time></trkpt><trkpt lat="44.8000098" lon="9.2641241"><ele>677.6666666666667</ele><time>2026-04-19T15:10:53.725Z</time></trkpt><trkpt lat="44.8000095" lon="9.2642337"><ele>679.0</ele><time>2026-04-19T15:10:54.725Z</time></trkpt><trkpt lat="44.8000247" lon="9.2643461"><ele>679.0</ele><time>2026-04-19T15:10:55.725Z</time></trkpt><trkpt lat="44.8000338" lon="9.2644615"><ele>679.0</ele><time>2026-04-19T15:10:56.725Z</time></trkpt><trkpt lat="44.8000166" lon="9.2645731"><ele>679.0</ele><time>2026-04-19T15:10:57.725Z</time></trkpt><trkpt lat="44.7999833" lon="9.2647008"><ele>679.0</ele><time>2026-04-19T15:10:58.725Z</time></trkpt><trkpt lat="44.7999335" lon="9.264863"><ele>679.0</ele><time>2026-04-19T15:10:59.724Z</time></trkpt><trkpt lat="44.799879" lon="9.2650348"><ele>678.4000000000001</ele><time>2026-04-19T15:11:00.725Z</time></trkpt><trkpt lat="44.7998412" lon="9.2651904"><ele>677.8</ele><time>2026-04-19T15:11:01.725Z</time></trkpt><trkpt lat="44.7998325" lon="9.2653398"><ele>677.2</ele><time>2026-04-19T15:11:02.725Z</time></trkpt><trkpt lat="44.7998395" lon="9.2654481"><ele>676.5999999999999</ele><time>2026-04-19T15:11:03.725Z</time></trkpt><trkpt lat="44.799868" lon="9.2655756"><ele>676.0</ele><time>2026-04-19T15:11:04.725Z</time></trkpt><trkpt lat="44.7999187" lon="9.2657153"><ele>676.0</ele><time>2026-04-19T15:11:05.725Z</time></trkpt><trkpt lat="44.7999608" lon="9.2658528"><ele>676.0</ele><time>2026-04-19T15:11:06.725Z</time></trkpt><trkpt lat="44.7999705" lon="9.2659898"><ele>676.0</ele><time>2026-04-19T15:11:07.725Z</time></trkpt><trkpt lat="44.7999416" lon="9.2661361"><ele>676.0</ele><time>2026-04-19T15:11:08.725Z</time></trkpt><trkpt lat="44.7998951" lon="9.2662989"><ele>676.0</ele><time>2026-04-19T15:11:09.725Z</time></trkpt><trkpt lat="44.7998349" lon="9.266475"><ele>675.0</ele><time>2026-04-19T15:11:10.724Z</time></trkpt><trkpt lat="44.7997776" lon="9.2666697"><ele>674.0</ele><time>2026-04-19T15:11:11.725Z</time></trkpt><trkpt lat="44.7997253" lon="9.2668537"><ele>673.0</ele><time>2026-04-19T15:11:12.724Z</time></trkpt><trkpt lat="44.7996815" lon="9.2670297"><ele>672.0</ele><time>2026-04-19T15:11:13.725Z</time></trkpt><trkpt lat="44.7996384" lon="9.2672036"><ele>670.8</ele><time>2026-04-19T15:11:14.724Z</time></trkpt><trkpt lat="44.7995927" lon="9.267321"><ele>669.6</ele><time>2026-04-19T15:11:15.725Z</time></trkpt><trkpt lat="44.7995388" lon="9.2674119"><ele>668.4</ele><time>2026-04-19T15:11:16.725Z</time></trkpt><trkpt lat="44.799461" lon="9.2674807"><ele>667.1999999999999</ele><time>2026-04-19T15:11:17.725Z</time></trkpt><trkpt lat="44.7993604" lon="9.2675345"><ele>666.0</ele><time>2026-04-19T15:11:18.725Z</time></trkpt><trkpt lat="44.7992522" lon="9.2675814"><ele>670.75</ele><time>2026-04-19T15:11:19.725Z</time></trkpt><trkpt lat="44.7991299" lon="9.2676518"><ele>675.5</ele><time>2026-04-19T15:11:20.725Z</time></trkpt><trkpt lat="44.7990057" lon="9.2677173"><ele>680.25</ele><time>2026-04-19T15:11:21.725Z</time></trkpt><trkpt lat="44.7988883" lon="9.2677895"><ele>685.0</ele><time>2026-04-19T15:11:22.724Z</time></trkpt><trkpt lat="44.7987885" lon="9.2678685"><ele>685.0</ele><time>2026-04-19T15:11:23.725Z</time></trkpt><trkpt lat="44.7987187" lon="9.2679486"><ele>685.0</ele><time>2026-04-19T15:11:24.725Z</time></trkpt><trkpt lat="44.7986678" lon="9.2680165"><ele>685.0</ele><time>2026-04-19T15:11:25.725Z</time></trkpt><trkpt lat="44.7986526" lon="9.2681746"><ele>685.0</ele><time>2026-04-19T15:11:27.725Z</time></trkpt><trkpt lat="44.798692" lon="9.2682723"><ele>685.0</ele><time>2026-04-19T15:11:28.725Z</time></trkpt><trkpt lat="44.7987528" lon="9.2683853"><ele>682.75</ele><time>2026-04-19T15:11:29.725Z</time></trkpt><trkpt lat="44.7988373" lon="9.2685025"><ele>680.5</ele><time>2026-04-19T15:11:30.725Z</time></trkpt><trkpt lat="44.7989438" lon="9.2686305"><ele>678.25</ele><time>2026-04-19T15:11:31.724Z</time></trkpt><trkpt lat="44.7990533" lon="9.2687711"><ele>676.0</ele><time>2026-04-19T15:11:32.725Z</time></trkpt><trkpt lat="44.7991458" lon="9.2688945"><ele>676.8</ele><time>2026-04-19T15:11:33.725Z</time></trkpt><trkpt lat="44.7992149" lon="9.2689987"><ele>677.5999999999999</ele><time>2026-04-19T15:11:34.725Z</time></trkpt><trkpt lat="44.7992743" lon="9.2691223"><ele>678.4</ele><time>2026-04-19T15:11:35.725Z</time></trkpt><trkpt lat="44.7993032" lon="9.269257"><ele>679.2</ele><time>2026-04-19T15:11:36.724Z</time></trkpt><trkpt lat="44.7993097" lon="9.2694037"><ele>680.0</ele><time>2026-04-19T15:11:37.725Z</time></trkpt><trkpt lat="44.7992956" lon="9.2695649"><ele>680.0</ele><time>2026-04-19T15:11:38.724Z</time></trkpt><trkpt lat="44.799259" lon="9.2697241"><ele>680.0</ele><time>2026-04-19T15:11:39.725Z</time></trkpt><trkpt lat="44.799211" lon="9.2698737"><ele>680.0</ele><time>2026-04-19T15:11:40.725Z</time></trkpt><trkpt lat="44.7991579" lon="9.2700018"><ele>680.0</ele><time>2026-04-19T15:11:41.724Z</time></trkpt><trkpt lat="44.7990989" lon="9.2701318"><ele>680.0</ele><time>2026-04-19T15:11:42.724Z</time></trkpt><trkpt lat="44.7990383" lon="9.2702675"><ele>680.0</ele><time>2026-04-19T15:11:43.725Z</time></trkpt><trkpt lat="44.7989773" lon="9.2704047"><ele>680.0</ele><time>2026-04-19T15:11:44.725Z</time></trkpt><trkpt lat="44.7989129" lon="9.270536"><ele>680.0</ele><time>2026-04-19T15:11:45.725Z</time></trkpt><trkpt lat="44.7988428" lon="9.2706672"><ele>679.25</ele><time>2026-04-19T15:11:46.725Z</time></trkpt><trkpt lat="44.7987687" lon="9.2708017"><ele>678.5</ele><time>2026-04-19T15:11:47.725Z</time></trkpt><trkpt lat="44.7986888" lon="9.2709324"><ele>677.75</ele><time>2026-04-19T15:11:48.725Z</time></trkpt><trkpt lat="44.7985956" lon="9.271048"><ele>677.0</ele><time>2026-04-19T15:11:49.725Z</time></trkpt><trkpt lat="44.7985035" lon="9.2711482"><ele>678.4000000000001</ele><time>2026-04-19T15:11:50.725Z</time></trkpt><trkpt lat="44.7984123" lon="9.2712266"><ele>679.8000000000001</ele><time>2026-04-19T15:11:51.725Z</time></trkpt><trkpt lat="44.7983299" lon="9.2712976"><ele>681.2</ele><time>2026-04-19T15:11:52.725Z</time></trkpt><trkpt lat="44.7982635" lon="9.2713721"><ele>682.6</ele><time>2026-04-19T15:11:53.725Z</time></trkpt><trkpt lat="44.7982258" lon="9.2714766"><ele>684.0</ele><time>2026-04-19T15:11:54.725Z</time></trkpt><trkpt lat="44.7982028" lon="9.2715957"><ele>684.0</ele><time>2026-04-19T15:11:55.725Z</time></trkpt><trkpt lat="44.7981762" lon="9.2717077"><ele>684.0</ele><time>2026-04-19T15:11:56.725Z</time></trkpt><trkpt lat="44.7981438" lon="9.2718062"><ele>684.0</ele><time>2026-04-19T15:11:57.724Z</time></trkpt><trkpt lat="44.7980891" lon="9.2718984"><ele>684.0</ele><time>2026-04-19T15:11:58.725Z</time></trkpt><trkpt lat="44.7980163" lon="9.2719811"><ele>684.0</ele><time>2026-04-19T15:11:59.725Z</time></trkpt><trkpt lat="44.7979362" lon="9.2720629"><ele>684.0</ele><time>2026-04-19T15:12:00.725Z</time></trkpt><trkpt lat="44.7978448" lon="9.2721755"><ele>682.5</ele><time>2026-04-19T15:12:01.725Z</time></trkpt><trkpt lat="44.7977592" lon="9.2723004"><ele>681.0</ele><time>2026-04-19T15:12:02.725Z</time></trkpt><trkpt lat="44.7976818" lon="9.2724328"><ele>679.5</ele><time>2026-04-19T15:12:03.724Z</time></trkpt><trkpt lat="44.7976145" lon="9.272599"><ele>678.0</ele><time>2026-04-19T15:12:04.725Z</time></trkpt><trkpt lat="44.7975725" lon="9.2727544"><ele>680.4</ele><time>2026-04-19T15:12:05.725Z</time></trkpt><trkpt lat="44.7975284" lon="9.2728897"><ele>682.8</ele><time>2026-04-19T15:12:06.725Z</time></trkpt><trkpt lat="44.7974767" lon="9.272987"><ele>685.2</ele><time>2026-04-19T15:12:07.725Z</time></trkpt><trkpt lat="44.797409" lon="9.2730401"><ele>687.6</ele><time>2026-04-19T15:12:08.725Z</time></trkpt><trkpt lat="44.7973219" lon="9.2730571"><ele>690.0</ele><time>2026-04-19T15:12:09.725Z</time></trkpt><trkpt lat="44.7972245" lon="9.2730429"><ele>690.0</ele><time>2026-04-19T15:12:10.725Z</time></trkpt><trkpt lat="44.7971361" lon="9.2730244"><ele>690.0</ele><time>2026-04-19T15:12:11.725Z</time></trkpt><trkpt lat="44.7970512" lon="9.2730537"><ele>690.0</ele><time>2026-04-19T15:12:12.724Z</time></trkpt><trkpt lat="44.7969724" lon="9.2731209"><ele>690.0</ele><time>2026-04-19T15:12:13.724Z</time></trkpt><trkpt lat="44.7969064" lon="9.2732045"><ele>690.0</ele><time>2026-04-19T15:12:14.724Z</time></trkpt><trkpt lat="44.7968578" lon="9.2733103"><ele>690.0</ele><time>2026-04-19T15:12:15.724Z</time></trkpt><trkpt lat="44.7968237" lon="9.273432"><ele>688.75</ele><time>2026-04-19T15:12:16.725Z</time></trkpt><trkpt lat="44.7968166" lon="9.2735756"><ele>687.5</ele><time>2026-04-19T15:12:17.725Z</time></trkpt><trkpt lat="44.7968317" lon="9.2737228"><ele>686.25</ele><time>2026-04-19T15:12:18.725Z</time></trkpt><trkpt lat="44.7968678" lon="9.2738842"><ele>685.0</ele><time>2026-04-19T15:12:19.725Z</time></trkpt><trkpt lat="44.7969102" lon="9.2740467"><ele>683.5</ele><time>2026-04-19T15:12:20.725Z</time></trkpt><trkpt lat="44.796954" lon="9.2742262"><ele>682.0</ele><time>2026-04-19T15:12:21.724Z</time></trkpt><trkpt lat="44.7969903" lon="9.2743944"><ele>680.5</ele><time>2026-04-19T15:12:22.725Z</time></trkpt><trkpt lat="44.7970174" lon="9.2745357"><ele>679.0</ele><time>2026-04-19T15:12:23.724Z</time></trkpt><trkpt lat="44.7970185" lon="9.2746591"><ele>678.2</ele><time>2026-04-19T15:12:24.724Z</time></trkpt><trkpt lat="44.7970038" lon="9.2747905"><ele>677.4000000000001</ele><time>2026-04-19T15:12:25.724Z</time></trkpt><trkpt lat="44.7969769" lon="9.2749291"><ele>676.6</ele><time>2026-04-19T15:12:26.725Z</time></trkpt><trkpt lat="44.7969211" lon="9.2750581"><ele>675.8</ele><time>2026-04-19T15:12:27.725Z</time></trkpt><trkpt lat="44.796856" lon="9.275179"><ele>675.0</ele><time>2026-04-19T15:12:28.725Z</time></trkpt><trkpt lat="44.7967765" lon="9.2752815"><ele>678.0</ele><time>2026-04-19T15:12:29.724Z</time></trkpt><trkpt lat="44.7966833" lon="9.2753713"><ele>681.0</ele><time>2026-04-19T15:12:30.725Z</time></trkpt><trkpt lat="44.7965915" lon="9.2754554"><ele>684.0</ele><time>2026-04-19T15:12:31.725Z</time></trkpt><trkpt lat="44.7964935" lon="9.2755412"><ele>687.0</ele><time>2026-04-19T15:12:32.724Z</time></trkpt><trkpt lat="44.7964051" lon="9.2756297"><ele>690.0</ele><time>2026-04-19T15:12:33.724Z</time></trkpt><trkpt lat="44.7963299" lon="9.2757377"><ele>690.0</ele><time>2026-04-19T15:12:34.725Z</time></trkpt><trkpt lat="44.7962747" lon="9.2758659"><ele>690.0</ele><time>2026-04-19T15:12:35.725Z</time></trkpt><trkpt lat="44.7962416" lon="9.2759967"><ele>690.0</ele><time>2026-04-19T15:12:36.725Z</time></trkpt><trkpt lat="44.7962251" lon="9.2761211"><ele>690.0</ele><time>2026-04-19T15:12:37.725Z</time></trkpt><trkpt lat="44.7962211" lon="9.2762557"><ele>690.0</ele><time>2026-04-19T15:12:38.725Z</time></trkpt><trkpt lat="44.7962296" lon="9.2763803"><ele>691.6</ele><time>2026-04-19T15:12:39.725Z</time></trkpt><trkpt lat="44.7962486" lon="9.2764913"><ele>693.2</ele><time>2026-04-19T15:12:40.725Z</time></trkpt><trkpt lat="44.7963007" lon="9.2765887"><ele>694.8</ele><time>2026-04-19T15:12:41.725Z</time></trkpt><trkpt lat="44.7963836" lon="9.2766786"><ele>696.4</ele><time>2026-04-19T15:12:42.725Z</time></trkpt><trkpt lat="44.7964768" lon="9.2767681"><ele>698.0</ele><time>2026-04-19T15:12:43.725Z</time></trkpt><trkpt lat="44.7965627" lon="9.2768745"><ele>698.0</ele><time>2026-04-19T15:12:44.724Z</time></trkpt><trkpt lat="44.7966279" lon="9.2769827"><ele>698.0</ele><time>2026-04-19T15:12:45.724Z</time></trkpt><trkpt lat="44.7966721" lon="9.2770934"><ele>698.0</ele><time>2026-04-19T15:12:46.725Z</time></trkpt><trkpt lat="44.7967141" lon="9.2772257"><ele>698.0</ele><time>2026-04-19T15:12:47.725Z</time></trkpt><trkpt lat="44.7967427" lon="9.2773737"><ele>698.0</ele><time>2026-04-19T15:12:48.725Z</time></trkpt><trkpt lat="44.7967496" lon="9.2775297"><ele>700.0</ele><time>2026-04-19T15:12:49.725Z</time></trkpt><trkpt lat="44.7967393" lon="9.2776878"><ele>702.0</ele><time>2026-04-19T15:12:50.725Z</time></trkpt><trkpt lat="44.7967377" lon="9.2778544"><ele>704.0</ele><time>2026-04-19T15:12:51.725Z</time></trkpt><trkpt lat="44.7967502" lon="9.2780086"><ele>706.0</ele><time>2026-04-19T15:12:52.725Z</time></trkpt><trkpt lat="44.7967741" lon="9.2781572"><ele>708.0</ele><time>2026-04-19T15:12:53.725Z</time></trkpt><trkpt lat="44.7967946" lon="9.2782937"><ele>709.5</ele><time>2026-04-19T15:12:54.725Z</time></trkpt><trkpt lat="44.7968145" lon="9.2784211"><ele>711.0</ele><time>2026-04-19T15:12:55.725Z</time></trkpt><trkpt lat="44.7968223" lon="9.2785275"><ele>712.5</ele><time>2026-04-19T15:12:56.725Z</time></trkpt><trkpt lat="44.7968121" lon="9.2786276"><ele>714.0</ele><time>2026-04-19T15:12:57.725Z</time></trkpt><trkpt lat="44.7967076" lon="9.2786987"><ele>715.5</ele><time>2026-04-19T15:12:59.725Z</time></trkpt><trkpt lat="44.7966236" lon="9.2786833"><ele>717.0</ele><time>2026-04-19T15:13:00.724Z</time></trkpt><trkpt lat="44.7965418" lon="9.2786707"><ele>717.0</ele><time>2026-04-19T15:13:01.725Z</time></trkpt><trkpt lat="44.796479" lon="9.2786833"><ele>717.0</ele><time>2026-04-19T15:13:02.724Z</time></trkpt><trkpt lat="44.7964164" lon="9.2787209"><ele>717.0</ele><time>2026-04-19T15:13:03.725Z</time></trkpt><trkpt lat="44.7963423" lon="9.2787782"><ele>717.0</ele><time>2026-04-19T15:13:04.725Z</time></trkpt><trkpt lat="44.7962594" lon="9.2788411"><ele>717.0</ele><time>2026-04-19T15:13:05.724Z</time></trkpt><trkpt lat="44.7961815" lon="9.2788983"><ele>717.0</ele><time>2026-04-19T15:13:06.725Z</time></trkpt><trkpt lat="44.7961077" lon="9.2789577"><ele>718.0</ele><time>2026-04-19T15:13:07.725Z</time></trkpt><trkpt lat="44.7960557" lon="9.2790142"><ele>719.0</ele><time>2026-04-19T15:13:08.725Z</time></trkpt><trkpt lat="44.7960378" lon="9.2791515"><ele>720.0</ele><time>2026-04-19T15:13:10.725Z</time></trkpt><trkpt lat="44.7961077" lon="9.2792469"><ele>721.0</ele><time>2026-04-19T15:13:12.724Z</time></trkpt><trkpt lat="44.7962304" lon="9.2793003"><ele>722.0</ele><time>2026-04-19T15:13:14.725Z</time></trkpt><trkpt lat="44.7963275" lon="9.2793005"><ele>722.0</ele><time>2026-04-19T15:13:15.725Z</time></trkpt><trkpt lat="44.7964314" lon="9.2793081"><ele>722.0</ele><time>2026-04-19T15:13:16.725Z</time></trkpt><trkpt lat="44.796525" lon="9.2793342"><ele>722.0</ele><time>2026-04-19T15:13:17.725Z</time></trkpt><trkpt lat="44.7965951" lon="9.2793786"><ele>722.0</ele><time>2026-04-19T15:13:18.725Z</time></trkpt><trkpt lat="44.7966541" lon="9.2794485"><ele>722.0</ele><time>2026-04-19T15:13:19.725Z</time></trkpt><trkpt lat="44.7966903" lon="9.2795469"><ele>722.0</ele><time>2026-04-19T15:13:20.725Z</time></trkpt><trkpt lat="44.7966928" lon="9.2796651"><ele>722.6</ele><time>2026-04-19T15:13:21.725Z</time></trkpt><trkpt lat="44.7966726" lon="9.2797735"><ele>723.2</ele><time>2026-04-19T15:13:22.724Z</time></trkpt><trkpt lat="44.7966316" lon="9.2798748"><ele>723.8</ele><time>2026-04-19T15:13:23.725Z</time></trkpt><trkpt lat="44.7965796" lon="9.2799833"><ele>724.4</ele><time>2026-04-19T15:13:24.725Z</time></trkpt><trkpt lat="44.7965086" lon="9.2800934"><ele>725.0</ele><time>2026-04-19T15:13:25.725Z</time></trkpt><trkpt lat="44.7964191" lon="9.2802036"><ele>725.0</ele><time>2026-04-19T15:13:26.725Z</time></trkpt><trkpt lat="44.7963209" lon="9.2803076"><ele>725.0</ele><time>2026-04-19T15:13:27.725Z</time></trkpt><trkpt lat="44.7962313" lon="9.2804306"><ele>725.0</ele><time>2026-04-19T15:13:28.725Z</time></trkpt><trkpt lat="44.7961668" lon="9.2805709"><ele>725.0</ele><time>2026-04-19T15:13:29.725Z</time></trkpt><trkpt lat="44.7961196" lon="9.2807089"><ele>724.4</ele><time>2026-04-19T15:13:30.725Z</time></trkpt><trkpt lat="44.7960861" lon="9.2808415"><ele>723.8</ele><time>2026-04-19T15:13:31.725Z</time></trkpt><trkpt lat="44.7960826" lon="9.2809841"><ele>723.2</ele><time>2026-04-19T15:13:32.725Z</time></trkpt><trkpt lat="44.7961085" lon="9.2811368"><ele>722.6</ele><time>2026-04-19T15:13:33.725Z</time></trkpt><trkpt lat="44.7961541" lon="9.2813053"><ele>722.0</ele><time>2026-04-19T15:13:34.725Z</time></trkpt><trkpt lat="44.7962295" lon="9.2814761"><ele>724.25</ele><time>2026-04-19T15:13:35.725Z</time></trkpt><trkpt lat="44.7963048" lon="9.2816472"><ele>726.5</ele><time>2026-04-19T15:13:36.724Z</time></trkpt><trkpt lat="44.7963733" lon="9.2818031"><ele>728.75</ele><time>2026-04-19T15:13:37.725Z</time></trkpt><trkpt lat="44.7964383" lon="9.2819406"><ele>731.0</ele><time>2026-04-19T15:13:38.724Z</time></trkpt><trkpt lat="44.7965072" lon="9.282039"><ele>731.0</ele><time>2026-04-19T15:13:39.725Z</time></trkpt><trkpt lat="44.7965868" lon="9.2820972"><ele>731.0</ele><time>2026-04-19T15:13:40.725Z</time></trkpt><trkpt lat="44.7966814" lon="9.2821212"><ele>731.0</ele><time>2026-04-19T15:13:41.724Z</time></trkpt><trkpt lat="44.7967753" lon="9.2821354"><ele>731.0</ele><time>2026-04-19T15:13:42.725Z</time></trkpt><trkpt lat="44.7968647" lon="9.2821764"><ele>731.0</ele><time>2026-04-19T15:13:43.725Z</time></trkpt><trkpt lat="44.7969461" lon="9.2822689"><ele>729.0</ele><time>2026-04-19T15:13:44.725Z</time></trkpt><trkpt lat="44.7970239" lon="9.2823956"><ele>727.0</ele><time>2026-04-19T15:13:45.725Z</time></trkpt><trkpt lat="44.7970869" lon="9.2825526"><ele>725.0</ele><time>2026-04-19T15:13:46.725Z</time></trkpt><trkpt lat="44.7971417" lon="9.2827027"><ele>723.0</ele><time>2026-04-19T15:13:47.725Z</time></trkpt><trkpt lat="44.7972079" lon="9.2828292"><ele>723.0</ele><time>2026-04-19T15:13:48.725Z</time></trkpt><trkpt lat="44.7972887" lon="9.2829398"><ele>723.0</ele><time>2026-04-19T15:13:49.725Z</time></trkpt><trkpt lat="44.7973745" lon="9.2830491"><ele>723.0</ele><time>2026-04-19T15:13:50.725Z</time></trkpt><trkpt lat="44.7974421" lon="9.2831466"><ele>723.0</ele><time>2026-04-19T15:13:51.724Z</time></trkpt><trkpt lat="44.7974864" lon="9.2832501"><ele>723.0</ele><time>2026-04-19T15:13:52.725Z</time></trkpt><trkpt lat="44.7975232" lon="9.2833641"><ele>725.5</ele><time>2026-04-19T15:13:53.725Z</time></trkpt><trkpt lat="44.7975629" lon="9.2834963"><ele>728.0</ele><time>2026-04-19T15:13:54.725Z</time></trkpt><trkpt lat="44.7976052" lon="9.2836316"><ele>730.5</ele><time>2026-04-19T15:13:55.725Z</time></trkpt><trkpt lat="44.7976573" lon="9.2837923"><ele>733.0</ele><time>2026-04-19T15:13:56.725Z</time></trkpt><trkpt lat="44.7977124" lon="9.2839631"><ele>733.0</ele><time>2026-04-19T15:13:57.725Z</time></trkpt><trkpt lat="44.7977671" lon="9.2841234"><ele>733.0</ele><time>2026-04-19T15:13:58.725Z</time></trkpt><trkpt lat="44.7978309" lon="9.2842738"><ele>733.0</ele><time>2026-04-19T15:13:59.725Z</time></trkpt><trkpt lat="44.7979021" lon="9.2843864"><ele>733.0</ele><time>2026-04-19T15:14:00.725Z</time></trkpt><trkpt lat="44.7979773" lon="9.2844686"><ele>733.0</ele><time>2026-04-19T15:14:01.725Z</time></trkpt><trkpt lat="44.7980647" lon="9.2845146"><ele>733.0</ele><time>2026-04-19T15:14:02.725Z</time></trkpt><trkpt lat="44.7981707" lon="9.2845358"><ele>733.0</ele><time>2026-04-19T15:14:03.725Z</time></trkpt><trkpt lat="44.7982871" lon="9.2845224"><ele>733.0</ele><time>2026-04-19T15:14:04.725Z</time></trkpt><trkpt lat="44.7983895" lon="9.284487"><ele>733.0</ele><time>2026-04-19T15:14:05.724Z</time></trkpt><trkpt lat="44.7984642" lon="9.2844247"><ele>739.0</ele><time>2026-04-19T15:14:06.724Z</time></trkpt><trkpt lat="44.7985113" lon="9.2843436"><ele>745.0</ele><time>2026-04-19T15:14:07.725Z</time></trkpt><trkpt lat="44.7985477" lon="9.2842252"><ele>751.0</ele><time>2026-04-19T15:14:08.725Z</time></trkpt><trkpt lat="44.7985641" lon="9.2840537"><ele>757.0</ele><time>2026-04-19T15:14:09.725Z</time></trkpt><trkpt lat="44.7985862" lon="9.2838718"><ele>763.0</ele><time>2026-04-19T15:14:10.725Z</time></trkpt><trkpt lat="44.7986231" lon="9.283691"><ele>763.0</ele><time>2026-04-19T15:14:11.725Z</time></trkpt><trkpt lat="44.7986751" lon="9.2835196"><ele>763.0</ele><time>2026-04-19T15:14:12.725Z</time></trkpt><trkpt lat="44.7987274" lon="9.2833488"><ele>763.0</ele><time>2026-04-19T15:14:13.725Z</time></trkpt><trkpt lat="44.7987811" lon="9.28321"><ele>763.0</ele><time>2026-04-19T15:14:14.725Z</time></trkpt><trkpt lat="44.7988242" lon="9.2830795"><ele>759.8</ele><time>2026-04-19T15:14:15.725Z</time></trkpt><trkpt lat="44.7988757" lon="9.2829551"><ele>756.5999999999999</ele><time>2026-04-19T15:14:16.725Z</time></trkpt><trkpt lat="44.7989112" lon="9.2828353"><ele>753.4000000000001</ele><time>2026-04-19T15:14:17.724Z</time></trkpt><trkpt lat="44.7989532" lon="9.2827264"><ele>750.2</ele><time>2026-04-19T15:14:18.725Z</time></trkpt><trkpt lat="44.7990025" lon="9.2826321"><ele>747.0</ele><time>2026-04-19T15:14:19.725Z</time></trkpt><trkpt lat="44.7990622" lon="9.282544"><ele>747.0</ele><time>2026-04-19T15:14:20.725Z</time></trkpt><trkpt lat="44.7991428" lon="9.2824608"><ele>747.0</ele><time>2026-04-19T15:14:21.725Z</time></trkpt><trkpt lat="44.799246" lon="9.2823712"><ele>747.0</ele><time>2026-04-19T15:14:22.725Z</time></trkpt><trkpt lat="44.7993543" lon="9.2822668"><ele>747.0</ele><time>2026-04-19T15:14:23.724Z</time></trkpt><trkpt lat="44.7994601" lon="9.2821691"><ele>746.2</ele><time>2026-04-19T15:14:24.725Z</time></trkpt><trkpt lat="44.7995563" lon="9.2820899"><ele>745.4000000000001</ele><time>2026-04-19T15:14:25.725Z</time></trkpt><trkpt lat="44.7996567" lon="9.2820503"><ele>744.5999999999999</ele><time>2026-04-19T15:14:26.725Z</time></trkpt><trkpt lat="44.7997561" lon="9.28202"><ele>743.8</ele><time>2026-04-19T15:14:27.725Z</time></trkpt><trkpt lat="44.7998575" lon="9.2819605"><ele>743.0</ele><time>2026-04-19T15:14:28.724Z</time></trkpt><trkpt lat="44.7999466" lon="9.2818666"><ele>743.0</ele><time>2026-04-19T15:14:29.725Z</time></trkpt><trkpt lat="44.8000401" lon="9.2817664"><ele>743.0</ele><time>2026-04-19T15:14:30.725Z</time></trkpt><trkpt lat="44.8001421" lon="9.2816731"><ele>743.0</ele><time>2026-04-19T15:14:31.725Z</time></trkpt><trkpt lat="44.8002493" lon="9.2815849"><ele>743.0</ele><time>2026-04-19T15:14:32.725Z</time></trkpt><trkpt lat="44.8003605" lon="9.2815038"><ele>740.75</ele><time>2026-04-19T15:14:33.725Z</time></trkpt><trkpt lat="44.800474" lon="9.2814366"><ele>738.5</ele><time>2026-04-19T15:14:34.724Z</time></trkpt><trkpt lat="44.8005832" lon="9.2813683"><ele>736.25</ele><time>2026-04-19T15:14:35.725Z</time></trkpt><trkpt lat="44.8006869" lon="9.2813196"><ele>734.0</ele><time>2026-04-19T15:14:36.725Z</time></trkpt><trkpt lat="44.8007937" lon="9.2812875"><ele>734.0</ele><time>2026-04-19T15:14:37.725Z</time></trkpt><trkpt lat="44.8008963" lon="9.2812737"><ele>734.0</ele><time>2026-04-19T15:14:38.725Z</time></trkpt><trkpt lat="44.8010131" lon="9.2812827"><ele>734.0</ele><time>2026-04-19T15:14:39.724Z</time></trkpt><trkpt lat="44.801137" lon="9.2813127"><ele>734.0</ele><time>2026-04-19T15:14:40.725Z</time></trkpt><trkpt lat="44.8012657" lon="9.281348"><ele>734.5</ele><time>2026-04-19T15:14:41.725Z</time></trkpt><trkpt lat="44.8013927" lon="9.2813731"><ele>735.0</ele><time>2026-04-19T15:14:42.725Z</time></trkpt><trkpt lat="44.8015196" lon="9.2813831"><ele>735.5</ele><time>2026-04-19T15:14:43.725Z</time></trkpt><trkpt lat="44.8016361" lon="9.2813828"><ele>736.0</ele><time>2026-04-19T15:14:44.725Z</time></trkpt><trkpt lat="44.8017522" lon="9.2813781"><ele>737.5</ele><time>2026-04-19T15:14:45.725Z</time></trkpt><trkpt lat="44.8018631" lon="9.2813567"><ele>739.0</ele><time>2026-04-19T15:14:46.725Z</time></trkpt><trkpt lat="44.8019687" lon="9.2813038"><ele>740.5</ele><time>2026-04-19T15:14:47.725Z</time></trkpt><trkpt lat="44.8020753" lon="9.2812381"><ele>742.0</ele><time>2026-04-19T15:14:48.725Z</time></trkpt><trkpt lat="44.8021832" lon="9.2811776"><ele>742.0</ele><time>2026-04-19T15:14:49.725Z</time></trkpt><trkpt lat="44.802284" lon="9.2811088"><ele>742.0</ele><time>2026-04-19T15:14:50.725Z</time></trkpt><trkpt lat="44.8023734" lon="9.2810255"><ele>742.0</ele><time>2026-04-19T15:14:51.725Z</time></trkpt><trkpt lat="44.8024536" lon="9.280914"><ele>742.0</ele><time>2026-04-19T15:14:52.724Z</time></trkpt><trkpt lat="44.8025104" lon="9.2807984"><ele>742.0</ele><time>2026-04-19T15:14:53.725Z</time></trkpt><trkpt lat="44.8025496" lon="9.280678"><ele>740.4000000000001</ele><time>2026-04-19T15:14:54.724Z</time></trkpt><trkpt lat="44.8025872" lon="9.2805345"><ele>738.8000000000001</ele><time>2026-04-19T15:14:55.724Z</time></trkpt><trkpt lat="44.8026021" lon="9.2803798"><ele>737.2</ele><time>2026-04-19T15:14:56.725Z</time></trkpt><trkpt lat="44.8026094" lon="9.2802244"><ele>735.6</ele><time>2026-04-19T15:14:57.725Z</time></trkpt><trkpt lat="44.8026245" lon="9.2800655"><ele>734.0</ele><time>2026-04-19T15:14:58.725Z</time></trkpt><trkpt lat="44.8026496" lon="9.2799104"><ele>735.1666666666666</ele><time>2026-04-19T15:14:59.725Z</time></trkpt><trkpt lat="44.802681" lon="9.2797789"><ele>736.3333333333333</ele><time>2026-04-19T15:15:00.725Z</time></trkpt><trkpt lat="44.8027192" lon="9.2796799"><ele>737.5</ele><time>2026-04-19T15:15:01.725Z</time></trkpt><trkpt lat="44.8027602" lon="9.2796125"><ele>738.6666666666666</ele><time>2026-04-19T15:15:02.724Z</time></trkpt><trkpt lat="44.8028716" lon="9.2795953"><ele>739.8333333333334</ele><time>2026-04-19T15:15:04.724Z</time></trkpt><trkpt lat="44.8029459" lon="9.2796382"><ele>741.0</ele><time>2026-04-19T15:15:05.725Z</time></trkpt><trkpt lat="44.8030385" lon="9.2797008"><ele>741.0</ele><time>2026-04-19T15:15:06.724Z</time></trkpt><trkpt lat="44.8031425" lon="9.2797551"><ele>741.0</ele><time>2026-04-19T15:15:07.725Z</time></trkpt><trkpt lat="44.8032359" lon="9.2797842"><ele>741.0</ele><time>2026-04-19T15:15:08.725Z</time></trkpt><trkpt lat="44.8033236" lon="9.2797961"><ele>741.0</ele><time>2026-04-19T15:15:09.725Z</time></trkpt><trkpt lat="44.8034034" lon="9.2797926"><ele>741.0</ele><time>2026-04-19T15:15:10.725Z</time></trkpt><trkpt lat="44.8034871" lon="9.2797823"><ele>739.1999999999999</ele><time>2026-04-19T15:15:11.725Z</time></trkpt><trkpt lat="44.8035719" lon="9.2797502"><ele>737.4</ele><time>2026-04-19T15:15:12.725Z</time></trkpt><trkpt lat="44.8036661" lon="9.2796968"><ele>735.6</ele><time>2026-04-19T15:15:13.725Z</time></trkpt><trkpt lat="44.8037501" lon="9.2796137"><ele>733.8</ele><time>2026-04-19T15:15:14.725Z</time></trkpt><trkpt lat="44.8038113" lon="9.279494"><ele>732.0</ele><time>2026-04-19T15:15:15.724Z</time></trkpt><trkpt lat="44.8038623" lon="9.2793524"><ele>732.0</ele><time>2026-04-19T15:15:16.725Z</time></trkpt><trkpt lat="44.8039016" lon="9.2792045"><ele>732.0</ele><time>2026-04-19T15:15:17.725Z</time></trkpt><trkpt lat="44.8039246" lon="9.2790527"><ele>732.0</ele><time>2026-04-19T15:15:18.725Z</time></trkpt><trkpt lat="44.8039524" lon="9.2789302"><ele>732.0</ele><time>2026-04-19T15:15:19.725Z</time></trkpt><trkpt lat="44.8039886" lon="9.2788439"><ele>732.0</ele><time>2026-04-19T15:15:20.725Z</time></trkpt><trkpt lat="44.8040417" lon="9.2787961"><ele>732.0</ele><time>2026-04-19T15:15:21.724Z</time></trkpt><trkpt lat="44.8041132" lon="9.278778"><ele>730.8</ele><time>2026-04-19T15:15:22.725Z</time></trkpt><trkpt lat="44.8041952" lon="9.2787515"><ele>729.6</ele><time>2026-04-19T15:15:23.725Z</time></trkpt><trkpt lat="44.8042804" lon="9.2786898"><ele>728.4</ele><time>2026-04-19T15:15:24.725Z</time></trkpt><trkpt lat="44.8043537" lon="9.2785974"><ele>727.1999999999999</ele><time>2026-04-19T15:15:25.725Z</time></trkpt><trkpt lat="44.8044096" lon="9.2784874"><ele>726.0</ele><time>2026-04-19T15:15:26.724Z</time></trkpt><trkpt lat="44.8044503" lon="9.2783558"><ele>726.0</ele><time>2026-04-19T15:15:27.725Z</time></trkpt><trkpt lat="44.804484" lon="9.2782241"><ele>726.0</ele><time>2026-04-19T15:15:28.725Z</time></trkpt><trkpt lat="44.8045229" lon="9.2781062"><ele>726.0</ele><time>2026-04-19T15:15:29.725Z</time></trkpt><trkpt lat="44.804578" lon="9.277997"><ele>726.0</ele><time>2026-04-19T15:15:30.725Z</time></trkpt><trkpt lat="44.8046483" lon="9.2779106"><ele>726.0</ele><time>2026-04-19T15:15:31.725Z</time></trkpt><trkpt lat="44.8047185" lon="9.2778449"><ele>723.3333333333334</ele><time>2026-04-19T15:15:32.725Z</time></trkpt><trkpt lat="44.8047949" lon="9.2777903"><ele>720.6666666666666</ele><time>2026-04-19T15:15:33.724Z</time></trkpt><trkpt lat="44.8048776" lon="9.2777401"><ele>718.0</ele><time>2026-04-19T15:15:34.725Z</time></trkpt><trkpt lat="44.8049643" lon="9.2777045"><ele>715.3333333333333</ele><time>2026-04-19T15:15:35.724Z</time></trkpt><trkpt lat="44.8050514" lon="9.2777027"><ele>712.6666666666666</ele><time>2026-04-19T15:15:36.725Z</time></trkpt><trkpt lat="44.8051424" lon="9.2777132"><ele>710.0</ele><time>2026-04-19T15:15:37.725Z</time></trkpt><trkpt lat="44.8052309" lon="9.2777192"><ele>710.0</ele><time>2026-04-19T15:15:38.725Z</time></trkpt><trkpt lat="44.8053134" lon="9.2777142"><ele>710.0</ele><time>2026-04-19T15:15:39.725Z</time></trkpt><trkpt lat="44.805402" lon="9.277703"><ele>710.0</ele><time>2026-04-19T15:15:40.725Z</time></trkpt><trkpt lat="44.8054853" lon="9.2776805"><ele>710.0</ele><time>2026-04-19T15:15:41.724Z</time></trkpt><trkpt lat="44.8055609" lon="9.2776602"><ele>710.0</ele><time>2026-04-19T15:15:42.725Z</time></trkpt><trkpt lat="44.8056459" lon="9.2776489"><ele>710.0</ele><time>2026-04-19T15:15:43.725Z</time></trkpt><trkpt lat="44.8057449" lon="9.2776372"><ele>710.0</ele><time>2026-04-19T15:15:44.725Z</time></trkpt><trkpt lat="44.8058507" lon="9.2776324"><ele>710.0</ele><time>2026-04-19T15:15:45.724Z</time></trkpt><trkpt lat="44.8059642" lon="9.2776217"><ele>710.0</ele><time>2026-04-19T15:15:46.725Z</time></trkpt><trkpt lat="44.8060692" lon="9.277619"><ele>710.0</ele><time>2026-04-19T15:15:47.725Z</time></trkpt><trkpt lat="44.8061551" lon="9.277611"><ele>710.0</ele><time>2026-04-19T15:15:48.725Z</time></trkpt><trkpt lat="44.806218" lon="9.2775875"><ele>711.0</ele><time>2026-04-19T15:15:49.725Z</time></trkpt><trkpt lat="44.8063001" lon="9.2774624"><ele>712.0</ele><time>2026-04-19T15:15:51.725Z</time></trkpt><trkpt lat="44.8063133" lon="9.2773433"><ele>713.0</ele><time>2026-04-19T15:15:52.725Z</time></trkpt><trkpt lat="44.8063123" lon="9.2771819"><ele>714.0</ele><time>2026-04-19T15:15:53.725Z</time></trkpt><trkpt lat="44.8062931" lon="9.276996"><ele>714.0</ele><time>2026-04-19T15:15:54.725Z</time></trkpt><trkpt lat="44.8062749" lon="9.2768241"><ele>714.0</ele><time>2026-04-19T15:15:55.724Z</time></trkpt><trkpt lat="44.8062948" lon="9.276721"><ele>714.0</ele><time>2026-04-19T15:15:56.724Z</time></trkpt><trkpt lat="44.8063261" lon="9.2766033"><ele>714.0</ele><time>2026-04-19T15:15:57.725Z</time></trkpt><trkpt lat="44.8063924" lon="9.2764561"><ele>714.0</ele><time>2026-04-19T15:15:58.725Z</time></trkpt><trkpt lat="44.8064707" lon="9.2762785"><ele>711.25</ele><time>2026-04-19T15:15:59.725Z</time></trkpt><trkpt lat="44.8065336" lon="9.2761158"><ele>708.5</ele><time>2026-04-19T15:16:00.725Z</time></trkpt><trkpt lat="44.8065581" lon="9.2759687"><ele>705.75</ele><time>2026-04-19T15:16:01.725Z</time></trkpt><trkpt lat="44.8065581" lon="9.2758004"><ele>703.0</ele><time>2026-04-19T15:16:02.724Z</time></trkpt><trkpt lat="44.806546" lon="9.2756186"><ele>700.75</ele><time>2026-04-19T15:16:03.725Z</time></trkpt><trkpt lat="44.8065375" lon="9.275441"><ele>698.5</ele><time>2026-04-19T15:16:04.725Z</time></trkpt><trkpt lat="44.8065466" lon="9.2752842"><ele>696.25</ele><time>2026-04-19T15:16:05.725Z</time></trkpt><trkpt lat="44.8065815" lon="9.2751188"><ele>694.0</ele><time>2026-04-19T15:16:06.724Z</time></trkpt><trkpt lat="44.8066256" lon="9.2749403"><ele>693.25</ele><time>2026-04-19T15:16:07.725Z</time></trkpt><trkpt lat="44.8066712" lon="9.2747633"><ele>692.5</ele><time>2026-04-19T15:16:08.725Z</time></trkpt><trkpt lat="44.8066898" lon="9.2745957"><ele>691.75</ele><time>2026-04-19T15:16:09.725Z</time></trkpt><trkpt lat="44.8066856" lon="9.2744377"><ele>691.0</ele><time>2026-04-19T15:16:10.725Z</time></trkpt><trkpt lat="44.8066594" lon="9.2742915"><ele>691.0</ele><time>2026-04-19T15:16:11.725Z</time></trkpt><trkpt lat="44.806619" lon="9.2741436"><ele>691.0</ele><time>2026-04-19T15:16:12.724Z</time></trkpt><trkpt lat="44.8065806" lon="9.274"><ele>691.0</ele><time>2026-04-19T15:16:13.725Z</time></trkpt><trkpt lat="44.8065601" lon="9.2738525"><ele>691.0</ele><time>2026-04-19T15:16:14.725Z</time></trkpt><trkpt lat="44.8065561" lon="9.2737057"><ele>691.0</ele><time>2026-04-19T15:16:15.724Z</time></trkpt><trkpt lat="44.8065796" lon="9.2735707"><ele>689.5999999999999</ele><time>2026-04-19T15:16:16.725Z</time></trkpt><trkpt lat="44.8066341" lon="9.2734636"><ele>688.2</ele><time>2026-04-19T15:16:17.725Z</time></trkpt><trkpt lat="44.8067281" lon="9.2733785"><ele>686.8</ele><time>2026-04-19T15:16:18.724Z</time></trkpt><trkpt lat="44.8068435" lon="9.2733283"><ele>685.4000000000001</ele><time>2026-04-19T15:16:19.725Z</time></trkpt><trkpt lat="44.8069661" lon="9.273312"><ele>684.0</ele><time>2026-04-19T15:16:20.725Z</time></trkpt><trkpt lat="44.8070811" lon="9.2733226"><ele>684.0</ele><time>2026-04-19T15:16:21.725Z</time></trkpt><trkpt lat="44.8071809" lon="9.2733413"><ele>684.0</ele><time>2026-04-19T15:16:22.725Z</time></trkpt><trkpt lat="44.8072741" lon="9.2733721"><ele>684.0</ele><time>2026-04-19T15:16:23.724Z</time></trkpt><trkpt lat="44.8073621" lon="9.2733971"><ele>684.0</ele><time>2026-04-19T15:16:24.724Z</time></trkpt><trkpt lat="44.8074484" lon="9.2734177"><ele>684.0</ele><time>2026-04-19T15:16:25.725Z</time></trkpt><trkpt lat="44.807529" lon="9.273431"><ele>684.0</ele><time>2026-04-19T15:16:26.725Z</time></trkpt><trkpt lat="44.807607" lon="9.2734178"><ele>684.0</ele><time>2026-04-19T15:16:27.725Z</time></trkpt><trkpt lat="44.8076868" lon="9.273365"><ele>684.0</ele><time>2026-04-19T15:16:28.725Z</time></trkpt><trkpt lat="44.8077663" lon="9.273275"><ele>684.0</ele><time>2026-04-19T15:16:29.725Z</time></trkpt><trkpt lat="44.8078472" lon="9.2731442"><ele>684.0</ele><time>2026-04-19T15:16:30.725Z</time></trkpt><trkpt lat="44.807908" lon="9.2729885"><ele>687.75</ele><time>2026-04-19T15:16:31.725Z</time></trkpt><trkpt lat="44.8079403" lon="9.2728339"><ele>691.5</ele><time>2026-04-19T15:16:32.725Z</time></trkpt><trkpt lat="44.8079481" lon="9.2726727"><ele>695.25</ele><time>2026-04-19T15:16:33.725Z</time></trkpt><trkpt lat="44.8079292" lon="9.2725063"><ele>699.0</ele><time>2026-04-19T15:16:34.725Z</time></trkpt><trkpt lat="44.8078986" lon="9.272346"><ele>699.6</ele><time>2026-04-19T15:16:35.725Z</time></trkpt><trkpt lat="44.8078854" lon="9.2721969"><ele>700.2</ele><time>2026-04-19T15:16:36.725Z</time></trkpt><trkpt lat="44.8079123" lon="9.2720431"><ele>700.8000000000001</ele><time>2026-04-19T15:16:37.725Z</time></trkpt><trkpt lat="44.8079324" lon="9.271885"><ele>701.4000000000001</ele><time>2026-04-19T15:16:38.725Z</time></trkpt><trkpt lat="44.8079298" lon="9.2717341"><ele>702.0</ele><time>2026-04-19T15:16:39.724Z</time></trkpt><trkpt lat="44.8079283" lon="9.2715719"><ele>701.75</ele><time>2026-04-19T15:16:40.725Z</time></trkpt><trkpt lat="44.8079493" lon="9.2714115"><ele>701.5</ele><time>2026-04-19T15:16:41.725Z</time></trkpt><trkpt lat="44.8079909" lon="9.2712483"><ele>701.25</ele><time>2026-04-19T15:16:42.725Z</time></trkpt><trkpt lat="44.8080354" lon="9.2710838"><ele>701.0</ele><time>2026-04-19T15:16:43.725Z</time></trkpt><trkpt lat="44.808076" lon="9.2709148"><ele>701.0</ele><time>2026-04-19T15:16:44.725Z</time></trkpt><trkpt lat="44.8081144" lon="9.2707476"><ele>701.0</ele><time>2026-04-19T15:16:45.725Z</time></trkpt><trkpt lat="44.8081536" lon="9.2706026"><ele>701.0</ele><time>2026-04-19T15:16:46.725Z</time></trkpt><trkpt lat="44.8082074" lon="9.2704796"><ele>701.0</ele><time>2026-04-19T15:16:47.725Z</time></trkpt><trkpt lat="44.808281" lon="9.2703693"><ele>701.0</ele><time>2026-04-19T15:16:48.725Z</time></trkpt><trkpt lat="44.8083716" lon="9.2702854"><ele>702.75</ele><time>2026-04-19T15:16:49.725Z</time></trkpt><trkpt lat="44.8084757" lon="9.2701999"><ele>704.5</ele><time>2026-04-19T15:16:50.725Z</time></trkpt><trkpt lat="44.8085928" lon="9.270102"><ele>706.25</ele><time>2026-04-19T15:16:51.724Z</time></trkpt><trkpt lat="44.8087166" lon="9.2700002"><ele>708.0</ele><time>2026-04-19T15:16:52.725Z</time></trkpt><trkpt lat="44.8088378" lon="9.2698966"><ele>708.0</ele><time>2026-04-19T15:16:53.724Z</time></trkpt><trkpt lat="44.8089518" lon="9.2697805"><ele>708.0</ele><time>2026-04-19T15:16:54.724Z</time></trkpt><trkpt lat="44.8090533" lon="9.26965"><ele>708.0</ele><time>2026-04-19T15:16:55.725Z</time></trkpt><trkpt lat="44.8091401" lon="9.2695"><ele>708.0</ele><time>2026-04-19T15:16:56.725Z</time></trkpt><trkpt lat="44.8092212" lon="9.2693654"><ele>709.4</ele><time>2026-04-19T15:16:57.725Z</time></trkpt><trkpt lat="44.8092957" lon="9.2692325"><ele>710.8</ele><time>2026-04-19T15:16:58.724Z</time></trkpt><trkpt lat="44.8093658" lon="9.2691223"><ele>712.2</ele><time>2026-04-19T15:16:59.725Z</time></trkpt><trkpt lat="44.8094257" lon="9.2690353"><ele>713.6</ele><time>2026-04-19T15:17:00.725Z</time></trkpt><trkpt lat="44.8094714" lon="9.268969"><ele>715.0</ele><time>2026-04-19T15:17:01.725Z</time></trkpt><trkpt lat="44.8095571" lon="9.268855"><ele>711.0</ele><time>2026-04-19T15:17:03.724Z</time></trkpt><trkpt lat="44.8096218" lon="9.2687554"><ele>707.0</ele><time>2026-04-19T15:17:04.725Z</time></trkpt><trkpt lat="44.8096969" lon="9.2686378"><ele>703.0</ele><time>2026-04-19T15:17:05.725Z</time></trkpt><trkpt lat="44.8097719" lon="9.2685177"><ele>699.0</ele><time>2026-04-19T15:17:06.725Z</time></trkpt><trkpt lat="44.8098887" lon="9.2684077"><ele>699.0</ele><time>2026-04-19T15:17:07.725Z</time></trkpt><trkpt lat="44.8099579" lon="9.2683166"><ele>699.0</ele><time>2026-04-19T15:17:08.725Z</time></trkpt><trkpt lat="44.8100355" lon="9.2682358"><ele>699.0</ele><time>2026-04-19T15:17:09.724Z</time></trkpt><trkpt lat="44.8101425" lon="9.2681793"><ele>699.0</ele><time>2026-04-19T15:17:10.724Z</time></trkpt><trkpt lat="44.8102686" lon="9.26812"><ele>699.0</ele><time>2026-04-19T15:17:11.725Z</time></trkpt><trkpt lat="44.8104072" lon="9.2680797"><ele>699.25</ele><time>2026-04-19T15:17:12.724Z</time></trkpt><trkpt lat="44.8105451" lon="9.2680395"><ele>699.5</ele><time>2026-04-19T15:17:13.725Z</time></trkpt><trkpt lat="44.8106943" lon="9.2679973"><ele>699.75</ele><time>2026-04-19T15:17:14.724Z</time></trkpt><trkpt lat="44.810826" lon="9.2679482"><ele>700.0</ele><time>2026-04-19T15:17:15.725Z</time></trkpt><trkpt lat="44.8109522" lon="9.2679137"><ele>702.8</ele><time>2026-04-19T15:17:16.725Z</time></trkpt><trkpt lat="44.8110611" lon="9.2678625"><ele>705.6</ele><time>2026-04-19T15:17:17.724Z</time></trkpt><trkpt lat="44.8111622" lon="9.2678131"><ele>708.4000000000001</ele><time>2026-04-19T15:17:18.724Z</time></trkpt><trkpt lat="44.8112618" lon="9.2677654"><ele>711.2</ele><time>2026-04-19T15:17:19.725Z</time></trkpt><trkpt lat="44.8113587" lon="9.2677075"><ele>714.0</ele><time>2026-04-19T15:17:20.725Z</time></trkpt><trkpt lat="44.8114582" lon="9.2676455"><ele>714.0</ele><time>2026-04-19T15:17:21.725Z</time></trkpt><trkpt lat="44.8115637" lon="9.2675788"><ele>714.0</ele><time>2026-04-19T15:17:22.725Z</time></trkpt><trkpt lat="44.8116615" lon="9.2675431"><ele>714.0</ele><time>2026-04-19T15:17:23.725Z</time></trkpt><trkpt lat="44.8117609" lon="9.2675289"><ele>714.0</ele><time>2026-04-19T15:17:24.725Z</time></trkpt><trkpt lat="44.8118506" lon="9.2675266"><ele>714.0</ele><time>2026-04-19T15:17:25.725Z</time></trkpt><trkpt lat="44.8119464" lon="9.2675538"><ele>715.25</ele><time>2026-04-19T15:17:26.725Z</time></trkpt><trkpt lat="44.812051" lon="9.2675975"><ele>716.5</ele><time>2026-04-19T15:17:27.725Z</time></trkpt><trkpt lat="44.8121656" lon="9.2676486"><ele>717.75</ele><time>2026-04-19T15:17:28.724Z</time></trkpt><trkpt lat="44.8122848" lon="9.2677009"><ele>719.0</ele><time>2026-04-19T15:17:29.725Z</time></trkpt><trkpt lat="44.8124052" lon="9.2677632"><ele>719.0</ele><time>2026-04-19T15:17:30.724Z</time></trkpt><trkpt lat="44.8125168" lon="9.2678187"><ele>719.0</ele><time>2026-04-19T15:17:31.725Z</time></trkpt><trkpt lat="44.8126246" lon="9.267879"><ele>719.0</ele><time>2026-04-19T15:17:32.724Z</time></trkpt><trkpt lat="44.8127396" lon="9.2679397"><ele>719.0</ele><time>2026-04-19T15:17:33.725Z</time></trkpt><trkpt lat="44.8128409" lon="9.2680259"><ele>721.8000000000001</ele><time>2026-04-19T15:17:34.725Z</time></trkpt><trkpt lat="44.8129404" lon="9.268113"><ele>724.6</ele><time>2026-04-19T15:17:35.725Z</time></trkpt><trkpt lat="44.8130328" lon="9.2681924"><ele>727.4</ele><time>2026-04-19T15:17:36.725Z</time></trkpt><trkpt lat="44.8131233" lon="9.2682501"><ele>730.2</ele><time>2026-04-19T15:17:37.725Z</time></trkpt><trkpt lat="44.8132147" lon="9.2682882"><ele>733.0</ele><time>2026-04-19T15:17:38.725Z</time></trkpt><trkpt lat="44.8133103" lon="9.2683274"><ele>733.0</ele><time>2026-04-19T15:17:39.724Z</time></trkpt><trkpt lat="44.8134159" lon="9.2683604"><ele>733.0</ele><time>2026-04-19T15:17:40.725Z</time></trkpt><trkpt lat="44.813532" lon="9.2683818"><ele>733.0</ele><time>2026-04-19T15:17:41.725Z</time></trkpt><trkpt lat="44.8136451" lon="9.2684022"><ele>733.0</ele><time>2026-04-19T15:17:42.724Z</time></trkpt><trkpt lat="44.8137584" lon="9.2684067"><ele>735.2</ele><time>2026-04-19T15:17:43.725Z</time></trkpt><trkpt lat="44.8138545" lon="9.2683916"><ele>737.4</ele><time>2026-04-19T15:17:44.725Z</time></trkpt><trkpt lat="44.8139454" lon="9.2683533"><ele>739.6</ele><time>2026-04-19T15:17:45.725Z</time></trkpt><trkpt lat="44.8140369" lon="9.2682868"><ele>741.8000000000001</ele><time>2026-04-19T15:17:46.725Z</time></trkpt><trkpt lat="44.8141388" lon="9.2682122"><ele>744.0</ele><time>2026-04-19T15:17:47.724Z</time></trkpt><trkpt lat="44.8142288" lon="9.2681301"><ele>747.75</ele><time>2026-04-19T15:17:48.725Z</time></trkpt><trkpt lat="44.8143304" lon="9.2680494"><ele>751.5</ele><time>2026-04-19T15:17:49.725Z</time></trkpt><trkpt lat="44.8144411" lon="9.2679504"><ele>755.25</ele><time>2026-04-19T15:17:50.725Z</time></trkpt><trkpt lat="44.8145469" lon="9.2678408"><ele>759.0</ele><time>2026-04-19T15:17:51.725Z</time></trkpt><trkpt lat="44.8146593" lon="9.2677209"><ele>759.0</ele><time>2026-04-19T15:17:52.725Z</time></trkpt><trkpt lat="44.8147755" lon="9.2676021"><ele>759.0</ele><time>2026-04-19T15:17:53.725Z</time></trkpt><trkpt lat="44.8148863" lon="9.267486"><ele>759.0</ele><time>2026-04-19T15:17:54.725Z</time></trkpt><trkpt lat="44.8149881" lon="9.2673631"><ele>759.0</ele><time>2026-04-19T15:17:55.725Z</time></trkpt><trkpt lat="44.815073" lon="9.2672368"><ele>759.4000000000001</ele><time>2026-04-19T15:17:56.725Z</time></trkpt><trkpt lat="44.8151396" lon="9.2671082"><ele>759.8</ele><time>2026-04-19T15:17:57.724Z</time></trkpt><trkpt lat="44.8151878" lon="9.2669841"><ele>760.2</ele><time>2026-04-19T15:17:58.725Z</time></trkpt><trkpt lat="44.8152182" lon="9.2668405"><ele>760.5999999999999</ele><time>2026-04-19T15:17:59.725Z</time></trkpt><trkpt lat="44.8152304" lon="9.2666772"><ele>761.0</ele><time>2026-04-19T15:18:00.725Z</time></trkpt><trkpt lat="44.8152277" lon="9.2664927"><ele>766.75</ele><time>2026-04-19T15:18:01.724Z</time></trkpt><trkpt lat="44.8152282" lon="9.2662965"><ele>772.5</ele><time>2026-04-19T15:18:02.725Z</time></trkpt><trkpt lat="44.815223" lon="9.2660977"><ele>778.25</ele><time>2026-04-19T15:18:03.725Z</time></trkpt><trkpt lat="44.8152013" lon="9.2659023"><ele>784.0</ele><time>2026-04-19T15:18:04.725Z</time></trkpt><trkpt lat="44.815158" lon="9.2657116"><ele>782.75</ele><time>2026-04-19T15:18:05.724Z</time></trkpt><trkpt lat="44.8151076" lon="9.2655573"><ele>781.5</ele><time>2026-04-19T15:18:06.725Z</time></trkpt><trkpt lat="44.815058" lon="9.2654056"><ele>780.25</ele><time>2026-04-19T15:18:07.725Z</time></trkpt><trkpt lat="44.8150281" lon="9.2652335"><ele>779.0</ele><time>2026-04-19T15:18:08.725Z</time></trkpt><trkpt lat="44.8150066" lon="9.265066"><ele>779.0</ele><time>2026-04-19T15:18:09.724Z</time></trkpt><trkpt lat="44.8149732" lon="9.2649185"><ele>779.0</ele><time>2026-04-19T15:18:10.725Z</time></trkpt><trkpt lat="44.8149498" lon="9.2647827"><ele>779.0</ele><time>2026-04-19T15:18:11.725Z</time></trkpt><trkpt lat="44.8149484" lon="9.2646576"><ele>779.0</ele><time>2026-04-19T15:18:12.725Z</time></trkpt><trkpt lat="44.8149699" lon="9.2645229"><ele>779.0</ele><time>2026-04-19T15:18:13.725Z</time></trkpt><trkpt lat="44.815006" lon="9.2643741"><ele>780.5</ele><time>2026-04-19T15:18:14.725Z</time></trkpt><trkpt lat="44.8150572" lon="9.264221"><ele>782.0</ele><time>2026-04-19T15:18:15.725Z</time></trkpt><trkpt lat="44.8151194" lon="9.26407"><ele>783.5</ele><time>2026-04-19T15:18:16.724Z</time></trkpt><trkpt lat="44.8151841" lon="9.2639155"><ele>785.0</ele><time>2026-04-19T15:18:17.725Z</time></trkpt><trkpt lat="44.8152467" lon="9.2637495"><ele>789.25</ele><time>2026-04-19T15:18:18.724Z</time></trkpt><trkpt lat="44.8153098" lon="9.2635878"><ele>793.5</ele><time>2026-04-19T15:18:19.725Z</time></trkpt><trkpt lat="44.8153699" lon="9.2634273"><ele>797.75</ele><time>2026-04-19T15:18:20.724Z</time></trkpt><trkpt lat="44.8154208" lon="9.2632647"><ele>802.0</ele><time>2026-04-19T15:18:21.724Z</time></trkpt><trkpt lat="44.8154761" lon="9.2631083"><ele>802.75</ele><time>2026-04-19T15:18:22.725Z</time></trkpt><trkpt lat="44.815536" lon="9.2629398"><ele>803.5</ele><time>2026-04-19T15:18:23.725Z</time></trkpt><trkpt lat="44.8155917" lon="9.2627785"><ele>804.25</ele><time>2026-04-19T15:18:24.724Z</time></trkpt><trkpt lat="44.8156522" lon="9.262627"><ele>805.0</ele><time>2026-04-19T15:18:25.724Z</time></trkpt><trkpt lat="44.8157156" lon="9.2624683"><ele>805.0</ele><time>2026-04-19T15:18:26.724Z</time></trkpt><trkpt lat="44.8157881" lon="9.2623066"><ele>805.0</ele><time>2026-04-19T15:18:27.725Z</time></trkpt><trkpt lat="44.815872" lon="9.2621563"><ele>805.0</ele><time>2026-04-19T15:18:28.725Z</time></trkpt><trkpt lat="44.8159544" lon="9.2620196"><ele>805.0</ele><time>2026-04-19T15:18:29.725Z</time></trkpt><trkpt lat="44.8160249" lon="9.2619147"><ele>807.6666666666666</ele><time>2026-04-19T15:18:30.724Z</time></trkpt><trkpt lat="44.816075" lon="9.2618555"><ele>810.3333333333333</ele><time>2026-04-19T15:18:31.725Z</time></trkpt><trkpt lat="44.8161439" lon="9.2618412"><ele>813.0</ele><time>2026-04-19T15:18:33.725Z</time></trkpt><trkpt lat="44.8161944" lon="9.2619342"><ele>815.6666666666667</ele><time>2026-04-19T15:18:35.725Z</time></trkpt><trkpt lat="44.8162223" lon="9.2620177"><ele>818.3333333333334</ele><time>2026-04-19T15:18:36.725Z</time></trkpt><trkpt lat="44.8162519" lon="9.2621299"><ele>821.0</ele><time>2026-04-19T15:18:37.725Z</time></trkpt><trkpt lat="44.8162886" lon="9.2622565"><ele>821.0</ele><time>2026-04-19T15:18:38.725Z</time></trkpt><trkpt lat="44.8163317" lon="9.2623542"><ele>821.0</ele><time>2026-04-19T15:18:39.725Z</time></trkpt><trkpt lat="44.8164023" lon="9.2624447"><ele>821.0</ele><time>2026-04-19T15:18:41.725Z</time></trkpt><trkpt lat="44.8164826" lon="9.2623955"><ele>821.0</ele><time>2026-04-19T15:18:43.725Z</time></trkpt><trkpt lat="44.8165667" lon="9.2622247"><ele>821.0</ele><time>2026-04-19T15:18:45.725Z</time></trkpt><trkpt lat="44.8166164" lon="9.2621144"><ele>821.0</ele><time>2026-04-19T15:18:46.725Z</time></trkpt><trkpt lat="44.8166708" lon="9.2620055"><ele>821.0</ele><time>2026-04-19T15:18:47.725Z</time></trkpt><trkpt lat="44.8167375" lon="9.2619068"><ele>821.0</ele><time>2026-04-19T15:18:48.725Z</time></trkpt><trkpt lat="44.8168093" lon="9.2618116"><ele>821.0</ele><time>2026-04-19T15:18:49.725Z</time></trkpt><trkpt lat="44.8168808" lon="9.2617183"><ele>821.0</ele><time>2026-04-19T15:18:50.725Z</time></trkpt><trkpt lat="44.8169633" lon="9.2616158"><ele>826.75</ele><time>2026-04-19T15:18:51.724Z</time></trkpt><trkpt lat="44.8170414" lon="9.2615044"><ele>832.5</ele><time>2026-04-19T15:18:52.724Z</time></trkpt><trkpt lat="44.8171086" lon="9.2613774"><ele>838.25</ele><time>2026-04-19T15:18:53.725Z</time></trkpt><trkpt lat="44.8171577" lon="9.2612349"><ele>844.0</ele><time>2026-04-19T15:18:54.725Z</time></trkpt><trkpt lat="44.8171722" lon="9.2610615"><ele>845.5</ele><time>2026-04-19T15:18:55.725Z</time></trkpt><trkpt lat="44.8171744" lon="9.2608816"><ele>847.0</ele><time>2026-04-19T15:18:56.725Z</time></trkpt><trkpt lat="44.8171745" lon="9.2606978"><ele>848.5</ele><time>2026-04-19T15:18:57.725Z</time></trkpt><trkpt lat="44.8171792" lon="9.26052"><ele>850.0</ele><time>2026-04-19T15:18:58.725Z</time></trkpt><trkpt lat="44.8171786" lon="9.2603551"><ele>854.0</ele><time>2026-04-19T15:18:59.725Z</time></trkpt><trkpt lat="44.8171477" lon="9.2602042"><ele>858.0</ele><time>2026-04-19T15:19:00.725Z</time></trkpt><trkpt lat="44.8170962" lon="9.2600524"><ele>862.0</ele><time>2026-04-19T15:19:01.725Z</time></trkpt><trkpt lat="44.8170442" lon="9.2599019"><ele>866.0</ele><time>2026-04-19T15:19:02.725Z</time></trkpt><trkpt lat="44.8170001" lon="9.2597356"><ele>868.5</ele><time>2026-04-19T15:19:03.725Z</time></trkpt><trkpt lat="44.8169643" lon="9.2595649"><ele>871.0</ele><time>2026-04-19T15:19:04.725Z</time></trkpt><trkpt lat="44.8169257" lon="9.2593835"><ele>873.5</ele><time>2026-04-19T15:19:05.725Z</time></trkpt><trkpt lat="44.8168861" lon="9.2592067"><ele>876.0</ele><time>2026-04-19T15:19:06.725Z</time></trkpt><trkpt lat="44.8168408" lon="9.2590299"><ele>870.4</ele><time>2026-04-19T15:19:07.725Z</time></trkpt><trkpt lat="44.8167976" lon="9.2588788"><ele>864.8</ele><time>2026-04-19T15:19:08.725Z</time></trkpt><trkpt lat="44.8167544" lon="9.2587503"><ele>859.1999999999999</ele><time>2026-04-19T15:19:09.725Z</time></trkpt><trkpt lat="44.8167192" lon="9.2586335"><ele>853.5999999999999</ele><time>2026-04-19T15:19:10.725Z</time></trkpt><trkpt lat="44.8166989" lon="9.2585087"><ele>848.0</ele><time>2026-04-19T15:19:11.725Z</time></trkpt><trkpt lat="44.8167115" lon="9.2583606"><ele>848.0</ele><time>2026-04-19T15:19:12.724Z</time></trkpt><trkpt lat="44.8167404" lon="9.2582271"><ele>848.0</ele><time>2026-04-19T15:19:13.725Z</time></trkpt><trkpt lat="44.8167825" lon="9.2581212"><ele>848.0</ele><time>2026-04-19T15:19:14.724Z</time></trkpt><trkpt lat="44.8168443" lon="9.258039"><ele>848.0</ele><time>2026-04-19T15:19:15.725Z</time></trkpt><trkpt lat="44.8169291" lon="9.2579725"><ele>848.0</ele><time>2026-04-19T15:19:16.725Z</time></trkpt><trkpt lat="44.817038" lon="9.2579181"><ele>850.0</ele><time>2026-04-19T15:19:17.724Z</time></trkpt><trkpt lat="44.8171552" lon="9.2578812"><ele>852.0</ele><time>2026-04-19T15:19:18.725Z</time></trkpt><trkpt lat="44.8172702" lon="9.2578561"><ele>854.0</ele><time>2026-04-19T15:19:19.725Z</time></trkpt><trkpt lat="44.8173884" lon="9.2578215"><ele>856.0</ele><time>2026-04-19T15:19:20.725Z</time></trkpt><trkpt lat="44.8174995" lon="9.2577806"><ele>856.0</ele><time>2026-04-19T15:19:21.725Z</time></trkpt><trkpt lat="44.8176038" lon="9.2577331"><ele>855.9999999999999</ele><time>2026-04-19T15:19:22.725Z</time></trkpt><trkpt lat="44.817701" lon="9.2576865"><ele>855.9999999999999</ele><time>2026-04-19T15:19:23.725Z</time></trkpt><trkpt lat="44.8178026" lon="9.2576359"><ele>856.0</ele><time>2026-04-19T15:19:24.724Z</time></trkpt><trkpt lat="44.8178855" lon="9.2575704"><ele>856.0</ele><time>2026-04-19T15:19:25.725Z</time></trkpt><trkpt lat="44.81798" lon="9.2574896"><ele>855.5</ele><time>2026-04-19T15:19:26.725Z</time></trkpt><trkpt lat="44.8180768" lon="9.2574034"><ele>855.0</ele><time>2026-04-19T15:19:27.725Z</time></trkpt><trkpt lat="44.818167" lon="9.2573104"><ele>854.5</ele><time>2026-04-19T15:19:28.725Z</time></trkpt><trkpt lat="44.8182479" lon="9.2572008"><ele>854.0</ele><time>2026-04-19T15:19:29.725Z</time></trkpt><trkpt lat="44.8183244" lon="9.2570731"><ele>854.0</ele><time>2026-04-19T15:19:30.725Z</time></trkpt><trkpt lat="44.8183858" lon="9.2569288"><ele>854.0</ele><time>2026-04-19T15:19:31.725Z</time></trkpt><trkpt lat="44.8184407" lon="9.2567813"><ele>854.0</ele><time>2026-04-19T15:19:32.725Z</time></trkpt><trkpt lat="44.818504" lon="9.2566474"><ele>854.0</ele><time>2026-04-19T15:19:33.724Z</time></trkpt><trkpt lat="44.8185783" lon="9.2565175"><ele>856.0</ele><time>2026-04-19T15:19:34.725Z</time></trkpt><trkpt lat="44.8186619" lon="9.25638"><ele>858.0</ele><time>2026-04-19T15:19:35.725Z</time></trkpt><trkpt lat="44.8187376" lon="9.2562363"><ele>860.0</ele><time>2026-04-19T15:19:36.724Z</time></trkpt><trkpt lat="44.8187888" lon="9.2560758"><ele>862.0</ele><time>2026-04-19T15:19:37.725Z</time></trkpt><trkpt lat="44.8188247" lon="9.2559042"><ele>862.0</ele><time>2026-04-19T15:19:38.725Z</time></trkpt><trkpt lat="44.8188553" lon="9.2557238"><ele>862.0</ele><time>2026-04-19T15:19:39.725Z</time></trkpt><trkpt lat="44.8188711" lon="9.2555492"><ele>862.0</ele><time>2026-04-19T15:19:40.725Z</time></trkpt><trkpt lat="44.8188958" lon="9.2553802"><ele>862.0</ele><time>2026-04-19T15:19:41.725Z</time></trkpt><trkpt lat="44.818929" lon="9.2552304"><ele>860.4000000000001</ele><time>2026-04-19T15:19:42.725Z</time></trkpt><trkpt lat="44.8189821" lon="9.2550988"><ele>858.8000000000001</ele><time>2026-04-19T15:19:43.725Z</time></trkpt><trkpt lat="44.8190585" lon="9.2549879"><ele>857.2</ele><time>2026-04-19T15:19:44.725Z</time></trkpt><trkpt lat="44.8191457" lon="9.254921"><ele>855.6</ele><time>2026-04-19T15:19:45.724Z</time></trkpt><trkpt lat="44.8192483" lon="9.2548675"><ele>854.0</ele><time>2026-04-19T15:19:46.725Z</time></trkpt><trkpt lat="44.8193644" lon="9.2548083"><ele>851.5</ele><time>2026-04-19T15:19:47.725Z</time></trkpt><trkpt lat="44.8194844" lon="9.254766"><ele>849.0</ele><time>2026-04-19T15:19:48.725Z</time></trkpt><trkpt lat="44.8196288" lon="9.2547149"><ele>846.5</ele><time>2026-04-19T15:19:49.725Z</time></trkpt><trkpt lat="44.8197874" lon="9.2546615"><ele>844.0</ele><time>2026-04-19T15:19:50.725Z</time></trkpt><trkpt lat="44.8199426" lon="9.2546085"><ele>844.0</ele><time>2026-04-19T15:19:51.725Z</time></trkpt><trkpt lat="44.8200779" lon="9.2545606"><ele>844.0</ele><time>2026-04-19T15:19:52.725Z</time></trkpt><trkpt lat="44.8201873" lon="9.2545186"><ele>844.0</ele><time>2026-04-19T15:19:53.725Z</time></trkpt><trkpt lat="44.8202618" lon="9.2544849"><ele>844.0</ele><time>2026-04-19T15:19:54.725Z</time></trkpt><trkpt lat="44.8203066" lon="9.2543623"><ele>844.0</ele><time>2026-04-19T15:19:56.725Z</time></trkpt><trkpt lat="44.8202963" lon="9.2542656"><ele>845.0</ele><time>2026-04-19T15:19:57.724Z</time></trkpt><trkpt lat="44.8202686" lon="9.2541417"><ele>846.0</ele><time>2026-04-19T15:19:58.725Z</time></trkpt><trkpt lat="44.8202312" lon="9.2539875"><ele>847.0</ele><time>2026-04-19T15:19:59.725Z</time></trkpt><trkpt lat="44.8201812" lon="9.2538158"><ele>848.0</ele><time>2026-04-19T15:20:00.725Z</time></trkpt><trkpt lat="44.820128" lon="9.2536269"><ele>845.3333333333334</ele><time>2026-04-19T15:20:01.725Z</time></trkpt><trkpt lat="44.8200749" lon="9.2534245"><ele>842.6666666666667</ele><time>2026-04-19T15:20:02.725Z</time></trkpt><trkpt lat="44.8200328" lon="9.2532166"><ele>840.0</ele><time>2026-04-19T15:20:03.725Z</time></trkpt><trkpt lat="44.819996" lon="9.2530125"><ele>839.25</ele><time>2026-04-19T15:20:04.724Z</time></trkpt><trkpt lat="44.8199693" lon="9.2528087"><ele>838.5</ele><time>2026-04-19T15:20:05.725Z</time></trkpt><trkpt lat="44.8199428" lon="9.2526208"><ele>837.75</ele><time>2026-04-19T15:20:06.725Z</time></trkpt><trkpt lat="44.8199177" lon="9.252439"><ele>837.0</ele><time>2026-04-19T15:20:07.724Z</time></trkpt><trkpt lat="44.8199016" lon="9.2522553"><ele>837.0</ele><time>2026-04-19T15:20:08.725Z</time></trkpt><trkpt lat="44.8199003" lon="9.2520734"><ele>837.0</ele><time>2026-04-19T15:20:09.725Z</time></trkpt><trkpt lat="44.8199134" lon="9.2518963"><ele>837.0</ele><time>2026-04-19T15:20:10.724Z</time></trkpt><trkpt lat="44.8199154" lon="9.2517284"><ele>837.0</ele><time>2026-04-19T15:20:11.725Z</time></trkpt><trkpt lat="44.8199168" lon="9.2515608"><ele>835.5</ele><time>2026-04-19T15:20:12.725Z</time></trkpt><trkpt lat="44.8199135" lon="9.2513946"><ele>834.0</ele><time>2026-04-19T15:20:13.725Z</time></trkpt><trkpt lat="44.8199133" lon="9.251231"><ele>832.5</ele><time>2026-04-19T15:20:14.725Z</time></trkpt><trkpt lat="44.8198926" lon="9.2510636"><ele>831.0</ele><time>2026-04-19T15:20:15.725Z</time></trkpt><trkpt lat="44.819857" lon="9.2509053"><ele>831.0</ele><time>2026-04-19T15:20:16.725Z</time></trkpt><trkpt lat="44.8198024" lon="9.2507568"><ele>831.0</ele><time>2026-04-19T15:20:17.725Z</time></trkpt><trkpt lat="44.8197435" lon="9.2506096"><ele>831.0</ele><time>2026-04-19T15:20:18.725Z</time></trkpt><trkpt lat="44.8196859" lon="9.2504674"><ele>831.0</ele><time>2026-04-19T15:20:19.725Z</time></trkpt><trkpt lat="44.8196351" lon="9.2503231"><ele>828.5</ele><time>2026-04-19T15:20:20.724Z</time></trkpt><trkpt lat="44.8195826" lon="9.2501784"><ele>826.0</ele><time>2026-04-19T15:20:21.725Z</time></trkpt><trkpt lat="44.8195332" lon="9.2500348"><ele>823.5</ele><time>2026-04-19T15:20:22.725Z</time></trkpt><trkpt lat="44.8194835" lon="9.2498841"><ele>821.0</ele><time>2026-04-19T15:20:23.724Z</time></trkpt><trkpt lat="44.8194363" lon="9.2497408"><ele>821.25</ele><time>2026-04-19T15:20:24.725Z</time></trkpt><trkpt lat="44.8193854" lon="9.2495963"><ele>821.5</ele><time>2026-04-19T15:20:25.724Z</time></trkpt><trkpt lat="44.8193444" lon="9.2494441"><ele>821.75</ele><time>2026-04-19T15:20:26.724Z</time></trkpt><trkpt lat="44.81931" lon="9.2492933"><ele>822.0</ele><time>2026-04-19T15:20:27.725Z</time></trkpt><trkpt lat="44.8192745" lon="9.2491354"><ele>822.0</ele><time>2026-04-19T15:20:28.724Z</time></trkpt><trkpt lat="44.8192609" lon="9.2489722"><ele>822.0</ele><time>2026-04-19T15:20:29.725Z</time></trkpt><trkpt lat="44.8192596" lon="9.2488024"><ele>822.0</ele><time>2026-04-19T15:20:30.725Z</time></trkpt><trkpt lat="44.8192596" lon="9.2486329"><ele>822.0</ele><time>2026-04-19T15:20:31.725Z</time></trkpt><trkpt lat="44.8192614" lon="9.2484616"><ele>820.0</ele><time>2026-04-19T15:20:32.724Z</time></trkpt><trkpt lat="44.819263" lon="9.2482916"><ele>818.0</ele><time>2026-04-19T15:20:33.724Z</time></trkpt><trkpt lat="44.8192664" lon="9.2481262"><ele>816.0</ele><time>2026-04-19T15:20:34.725Z</time></trkpt><trkpt lat="44.8192667" lon="9.2479613"><ele>814.0</ele><time>2026-04-19T15:20:35.725Z</time></trkpt><trkpt lat="44.8192653" lon="9.2477891"><ele>813.25</ele><time>2026-04-19T15:20:36.724Z</time></trkpt><trkpt lat="44.8192574" lon="9.2476187"><ele>812.5</ele><time>2026-04-19T15:20:37.725Z</time></trkpt><trkpt lat="44.8192513" lon="9.24745"><ele>811.75</ele><time>2026-04-19T15:20:38.725Z</time></trkpt><trkpt lat="44.819243" lon="9.2472867"><ele>811.0</ele><time>2026-04-19T15:20:39.724Z</time></trkpt><trkpt lat="44.8192333" lon="9.2471331"><ele>811.0</ele><time>2026-04-19T15:20:40.725Z</time></trkpt><trkpt lat="44.8192209" lon="9.2469798"><ele>811.0</ele><time>2026-04-19T15:20:41.725Z</time></trkpt><trkpt lat="44.8192133" lon="9.2468254"><ele>811.0</ele><time>2026-04-19T15:20:42.725Z</time></trkpt><trkpt lat="44.8192051" lon="9.2466647"><ele>811.0</ele><time>2026-04-19T15:20:43.725Z</time></trkpt><trkpt lat="44.8191905" lon="9.2465047"><ele>811.0</ele><time>2026-04-19T15:20:44.725Z</time></trkpt><trkpt lat="44.8191712" lon="9.2463466"><ele>810.0</ele><time>2026-04-19T15:20:45.725Z</time></trkpt><trkpt lat="44.8191601" lon="9.2461911"><ele>809.0</ele><time>2026-04-19T15:20:46.724Z</time></trkpt><trkpt lat="44.8191585" lon="9.2460412"><ele>808.0</ele><time>2026-04-19T15:20:47.725Z</time></trkpt><trkpt lat="44.8191623" lon="9.2459074"><ele>807.0</ele><time>2026-04-19T15:20:48.725Z</time></trkpt><trkpt lat="44.8191815" lon="9.2457983"><ele>806.0</ele><time>2026-04-19T15:20:49.725Z</time></trkpt><trkpt lat="44.8192727" lon="9.2456921"><ele>805.0</ele><time>2026-04-19T15:20:51.725Z</time></trkpt><trkpt lat="44.8193424" lon="9.245702"><ele>804.0</ele><time>2026-04-19T15:20:52.725Z</time></trkpt><trkpt lat="44.8194179" lon="9.2457442"><ele>803.0</ele><time>2026-04-19T15:20:53.725Z</time></trkpt><trkpt lat="44.8195098" lon="9.2458355"><ele>802.0</ele><time>2026-04-19T15:20:54.725Z</time></trkpt><trkpt lat="44.8196172" lon="9.2459642"><ele>801.0</ele><time>2026-04-19T15:20:55.725Z</time></trkpt><trkpt lat="44.8197479" lon="9.2461198"><ele>801.0</ele><time>2026-04-19T15:20:56.725Z</time></trkpt><trkpt lat="44.8198818" lon="9.24628"><ele>801.0</ele><time>2026-04-19T15:20:57.725Z</time></trkpt><trkpt lat="44.8200119" lon="9.2464333"><ele>801.0</ele><time>2026-04-19T15:20:58.725Z</time></trkpt><trkpt lat="44.8201285" lon="9.2465682"><ele>800.75</ele><time>2026-04-19T15:20:59.725Z</time></trkpt><trkpt lat="44.8202333" lon="9.2466947"><ele>800.5</ele><time>2026-04-19T15:21:00.725Z</time></trkpt><trkpt lat="44.8203341" lon="9.2468079"><ele>800.25</ele><time>2026-04-19T15:21:01.725Z</time></trkpt><trkpt lat="44.8204272" lon="9.2469202"><ele>800.0</ele><time>2026-04-19T15:21:02.725Z</time></trkpt><trkpt lat="44.8205156" lon="9.2470193"><ele>800.0</ele><time>2026-04-19T15:21:03.725Z</time></trkpt><trkpt lat="44.8206053" lon="9.2471215"><ele>800.0</ele><time>2026-04-19T15:21:04.725Z</time></trkpt><trkpt lat="44.8206977" lon="9.247222"><ele>800.0</ele><time>2026-04-19T15:21:05.725Z</time></trkpt><trkpt lat="44.8207956" lon="9.247322"><ele>800.0</ele><time>2026-04-19T15:21:06.725Z</time></trkpt><trkpt lat="44.8208929" lon="9.2474226"><ele>799.25</ele><time>2026-04-19T15:21:07.725Z</time></trkpt><trkpt lat="44.8209901" lon="9.2475247"><ele>798.5</ele><time>2026-04-19T15:21:08.725Z</time></trkpt><trkpt lat="44.8210867" lon="9.247631"><ele>797.75</ele><time>2026-04-19T15:21:09.725Z</time></trkpt><trkpt lat="44.8211778" lon="9.247732"><ele>797.0</ele><time>2026-04-19T15:21:10.725Z</time></trkpt><trkpt lat="44.8212683" lon="9.2478227"><ele>797.0</ele><time>2026-04-19T15:21:11.725Z</time></trkpt><trkpt lat="44.821363" lon="9.2479041"><ele>797.0</ele><time>2026-04-19T15:21:12.725Z</time></trkpt><trkpt lat="44.8214627" lon="9.2479899"><ele>797.0</ele><time>2026-04-19T15:21:13.725Z</time></trkpt><trkpt lat="44.8215663" lon="9.2480676"><ele>797.0</ele><time>2026-04-19T15:21:14.725Z</time></trkpt><trkpt lat="44.8216679" lon="9.2481333"><ele>796.0</ele><time>2026-04-19T15:21:15.725Z</time></trkpt><trkpt lat="44.8217656" lon="9.2482032"><ele>795.0</ele><time>2026-04-19T15:21:16.725Z</time></trkpt><trkpt lat="44.8218513" lon="9.2482846"><ele>794.0</ele><time>2026-04-19T15:21:17.725Z</time></trkpt><trkpt lat="44.8219455" lon="9.2483858"><ele>793.0</ele><time>2026-04-19T15:21:18.725Z</time></trkpt><trkpt lat="44.8220309" lon="9.2484971"><ele>792.0</ele><time>2026-04-19T15:21:19.725Z</time></trkpt><trkpt lat="44.8221034" lon="9.248623"><ele>792.0</ele><time>2026-04-19T15:21:20.724Z</time></trkpt><trkpt lat="44.8221806" lon="9.24877"><ele>792.0</ele><time>2026-04-19T15:21:21.725Z</time></trkpt><trkpt lat="44.8222622" lon="9.2488911"><ele>792.0</ele><time>2026-04-19T15:21:22.725Z</time></trkpt><trkpt lat="44.822368" lon="9.2489691"><ele>792.0</ele><time>2026-04-19T15:21:23.725Z</time></trkpt><trkpt lat="44.8224963" lon="9.2490401"><ele>792.6666666666667</ele><time>2026-04-19T15:21:24.725Z</time></trkpt><trkpt lat="44.8226428" lon="9.249115"><ele>793.3333333333334</ele><time>2026-04-19T15:21:25.725Z</time></trkpt><trkpt lat="44.8228022" lon="9.2492072"><ele>794.0</ele><time>2026-04-19T15:21:26.725Z</time></trkpt><trkpt lat="44.8229448" lon="9.2492917"><ele>794.0</ele><time>2026-04-19T15:21:27.725Z</time></trkpt><trkpt lat="44.8230799" lon="9.2493754"><ele>794.0</ele><time>2026-04-19T15:21:28.725Z</time></trkpt><trkpt lat="44.8232075" lon="9.2494503"><ele>794.0</ele><time>2026-04-19T15:21:29.725Z</time></trkpt><trkpt lat="44.8233312" lon="9.2495134"><ele>794.0</ele><time>2026-04-19T15:21:30.724Z</time></trkpt><trkpt lat="44.8234362" lon="9.2495803"><ele>793.25</ele><time>2026-04-19T15:21:31.725Z</time></trkpt><trkpt lat="44.8235492" lon="9.2496397"><ele>792.5</ele><time>2026-04-19T15:21:32.725Z</time></trkpt><trkpt lat="44.8236847" lon="9.2496603"><ele>791.75</ele><time>2026-04-19T15:21:33.725Z</time></trkpt><trkpt lat="44.8238363" lon="9.249645"><ele>791.0</ele><time>2026-04-19T15:21:34.725Z</time></trkpt><trkpt lat="44.8239712" lon="9.249645"><ele>791.0</ele><time>2026-04-19T15:21:35.724Z</time></trkpt><trkpt lat="44.8240891" lon="9.2496797"><ele>791.0</ele><time>2026-04-19T15:21:36.724Z</time></trkpt><trkpt lat="44.8241964" lon="9.2497449"><ele>791.0</ele><time>2026-04-19T15:21:37.724Z</time></trkpt><trkpt lat="44.8243093" lon="9.2498341"><ele>791.0</ele><time>2026-04-19T15:21:38.725Z</time></trkpt><trkpt lat="44.8244271" lon="9.2499291"><ele>791.25</ele><time>2026-04-19T15:21:39.725Z</time></trkpt><trkpt lat="44.8245429" lon="9.2500149"><ele>791.5</ele><time>2026-04-19T15:21:40.725Z</time></trkpt><trkpt lat="44.8246551" lon="9.250082"><ele>791.75</ele><time>2026-04-19T15:21:41.725Z</time></trkpt><trkpt lat="44.8247666" lon="9.2501422"><ele>792.0</ele><time>2026-04-19T15:21:42.725Z</time></trkpt><trkpt lat="44.8248809" lon="9.2501764"><ele>792.0</ele><time>2026-04-19T15:21:43.724Z</time></trkpt><trkpt lat="44.8250131" lon="9.2501778"><ele>792.0</ele><time>2026-04-19T15:21:44.725Z</time></trkpt><trkpt lat="44.8251517" lon="9.2501418"><ele>792.0</ele><time>2026-04-19T15:21:45.724Z</time></trkpt><trkpt lat="44.8252744" lon="9.2500874"><ele>792.0</ele><time>2026-04-19T15:21:46.725Z</time></trkpt><trkpt lat="44.8253951" lon="9.2500318"><ele>790.4000000000001</ele><time>2026-04-19T15:21:47.725Z</time></trkpt><trkpt lat="44.8255126" lon="9.2499893"><ele>788.8000000000001</ele><time>2026-04-19T15:21:48.724Z</time></trkpt><trkpt lat="44.8256088" lon="9.2499605"><ele>787.2</ele><time>2026-04-19T15:21:49.724Z</time></trkpt><trkpt lat="44.8256754" lon="9.2499331"><ele>785.6</ele><time>2026-04-19T15:21:50.724Z</time></trkpt><trkpt lat="44.8257431" lon="9.2497876"><ele>784.0</ele><time>2026-04-19T15:21:52.725Z</time></trkpt><trkpt lat="44.8257392" lon="9.2496879"><ele>782.4000000000001</ele><time>2026-04-19T15:21:53.725Z</time></trkpt><trkpt lat="44.8256968" lon="9.2495763"><ele>780.8</ele><time>2026-04-19T15:21:54.724Z</time></trkpt><trkpt lat="44.8256153" lon="9.2494625"><ele>779.2</ele><time>2026-04-19T15:21:55.724Z</time></trkpt><trkpt lat="44.82551" lon="9.2493699"><ele>777.5999999999999</ele><time>2026-04-19T15:21:56.724Z</time></trkpt><trkpt lat="44.8254017" lon="9.2493076"><ele>776.0</ele><time>2026-04-19T15:21:57.725Z</time></trkpt><trkpt lat="44.8253083" lon="9.2492311"><ele>776.0</ele><time>2026-04-19T15:21:58.725Z</time></trkpt><trkpt lat="44.8252323" lon="9.2491453"><ele>776.0</ele><time>2026-04-19T15:21:59.725Z</time></trkpt><trkpt lat="44.8251834" lon="9.2490366"><ele>776.0</ele><time>2026-04-19T15:22:00.725Z</time></trkpt><trkpt lat="44.8251571" lon="9.2489196"><ele>776.0</ele><time>2026-04-19T15:22:01.725Z</time></trkpt><trkpt lat="44.8251506" lon="9.2487975"><ele>776.0</ele><time>2026-04-19T15:22:02.724Z</time></trkpt><trkpt lat="44.8251502" lon="9.2486638"><ele>775.1666666666667</ele><time>2026-04-19T15:22:03.724Z</time></trkpt><trkpt lat="44.8251646" lon="9.2485415"><ele>774.3333333333334</ele><time>2026-04-19T15:22:04.724Z</time></trkpt><trkpt lat="44.8251953" lon="9.2484242"><ele>773.5</ele><time>2026-04-19T15:22:05.725Z</time></trkpt><trkpt lat="44.8252549" lon="9.2483289"><ele>772.6666666666667</ele><time>2026-04-19T15:22:06.725Z</time></trkpt><trkpt lat="44.8253238" lon="9.2482563"><ele>771.8333333333334</ele><time>2026-04-19T15:22:07.725Z</time></trkpt><trkpt lat="44.825406" lon="9.2482345"><ele>771.0</ele><time>2026-04-19T15:22:08.725Z</time></trkpt><trkpt lat="44.8254916" lon="9.2482455"><ele>771.0</ele><time>2026-04-19T15:22:09.724Z</time></trkpt><trkpt lat="44.8255914" lon="9.2482934"><ele>771.0</ele><time>2026-04-19T15:22:10.724Z</time></trkpt><trkpt lat="44.8257129" lon="9.248361"><ele>771.0</ele><time>2026-04-19T15:22:11.724Z</time></trkpt><trkpt lat="44.8258456" lon="9.2484341"><ele>771.0</ele><time>2026-04-19T15:22:12.724Z</time></trkpt><trkpt lat="44.8259849" lon="9.2485023"><ele>768.25</ele><time>2026-04-19T15:22:13.725Z</time></trkpt><trkpt lat="44.8261219" lon="9.2485733"><ele>765.5</ele><time>2026-04-19T15:22:14.725Z</time></trkpt><trkpt lat="44.8262564" lon="9.2486442"><ele>762.75</ele><time>2026-04-19T15:22:15.725Z</time></trkpt><trkpt lat="44.8263789" lon="9.2487166"><ele>760.0</ele><time>2026-04-19T15:22:16.724Z</time></trkpt><trkpt lat="44.8264938" lon="9.2487991"><ele>760.0</ele><time>2026-04-19T15:22:17.725Z</time></trkpt><trkpt lat="44.8266038" lon="9.2488884"><ele>760.0</ele><time>2026-04-19T15:22:18.725Z</time></trkpt><trkpt lat="44.8267021" lon="9.2489779"><ele>760.0</ele><time>2026-04-19T15:22:19.725Z</time></trkpt><trkpt lat="44.8267857" lon="9.2490817"><ele>760.0</ele><time>2026-04-19T15:22:20.725Z</time></trkpt><trkpt lat="44.8268549" lon="9.2491905"><ele>758.6</ele><time>2026-04-19T15:22:21.725Z</time></trkpt><trkpt lat="44.8269093" lon="9.2493087"><ele>757.2</ele><time>2026-04-19T15:22:22.725Z</time></trkpt><trkpt lat="44.8269678" lon="9.2494207"><ele>755.8</ele><time>2026-04-19T15:22:23.724Z</time></trkpt><trkpt lat="44.8270359" lon="9.2495287"><ele>754.4</ele><time>2026-04-19T15:22:24.725Z</time></trkpt><trkpt lat="44.8271178" lon="9.2496271"><ele>753.0</ele><time>2026-04-19T15:22:25.725Z</time></trkpt><trkpt lat="44.8271948" lon="9.2497239"><ele>754.0</ele><time>2026-04-19T15:22:26.725Z</time></trkpt><trkpt lat="44.8272705" lon="9.2498153"><ele>755.0</ele><time>2026-04-19T15:22:27.725Z</time></trkpt><trkpt lat="44.8273301" lon="9.2499199"><ele>756.0</ele><time>2026-04-19T15:22:28.724Z</time></trkpt><trkpt lat="44.8273937" lon="9.2500357"><ele>757.0</ele><time>2026-04-19T15:22:29.725Z</time></trkpt><trkpt lat="44.8274554" lon="9.2501501"><ele>758.0</ele><time>2026-04-19T15:22:30.725Z</time></trkpt><trkpt lat="44.827521" lon="9.2502501"><ele>758.0</ele><time>2026-04-19T15:22:31.725Z</time></trkpt><trkpt lat="44.8275916" lon="9.2503382"><ele>758.0</ele><time>2026-04-19T15:22:32.725Z</time></trkpt><trkpt lat="44.8276634" lon="9.2504089"><ele>758.0</ele><time>2026-04-19T15:22:33.725Z</time></trkpt><trkpt lat="44.8277317" lon="9.2504664"><ele>758.0</ele><time>2026-04-19T15:22:34.725Z</time></trkpt><trkpt lat="44.8278044" lon="9.2504931"><ele>758.0</ele><time>2026-04-19T15:22:35.725Z</time></trkpt><trkpt lat="44.8278883" lon="9.2504822"><ele>758.0</ele><time>2026-04-19T15:22:36.725Z</time></trkpt><trkpt lat="44.8279809" lon="9.2504284"><ele>757.0</ele><time>2026-04-19T15:22:37.725Z</time></trkpt><trkpt lat="44.8280809" lon="9.2503411"><ele>756.0</ele><time>2026-04-19T15:22:38.725Z</time></trkpt><trkpt lat="44.8281856" lon="9.2502531"><ele>755.0</ele><time>2026-04-19T15:22:39.724Z</time></trkpt><trkpt lat="44.8282855" lon="9.2501791"><ele>754.0</ele><time>2026-04-19T15:22:40.725Z</time></trkpt><trkpt lat="44.8283853" lon="9.2501453"><ele>755.0</ele><time>2026-04-19T15:22:41.725Z</time></trkpt><trkpt lat="44.8284928" lon="9.2501334"><ele>756.0</ele><time>2026-04-19T15:22:42.724Z</time></trkpt><trkpt lat="44.8286122" lon="9.2501157"><ele>757.0</ele><time>2026-04-19T15:22:43.724Z</time></trkpt><trkpt lat="44.8287196" lon="9.2500718"><ele>758.0</ele><time>2026-04-19T15:22:44.724Z</time></trkpt><trkpt lat="44.8288167" lon="9.2499868"><ele>758.0</ele><time>2026-04-19T15:22:45.725Z</time></trkpt><trkpt lat="44.8289057" lon="9.2499041"><ele>758.0</ele><time>2026-04-19T15:22:46.725Z</time></trkpt><trkpt lat="44.828984" lon="9.2498341"><ele>758.0</ele><time>2026-04-19T15:22:47.725Z</time></trkpt><trkpt lat="44.8290471" lon="9.2497768"><ele>758.0</ele><time>2026-04-19T15:22:48.725Z</time></trkpt><trkpt lat="44.8291202" lon="9.2497042"><ele>758.0</ele><time>2026-04-19T15:22:50.725Z</time></trkpt><trkpt lat="44.829168" lon="9.2495579"><ele>756.8333333333333</ele><time>2026-04-19T15:22:53.725Z</time></trkpt><trkpt lat="44.8291969" lon="9.2494738"><ele>755.6666666666666</ele><time>2026-04-19T15:22:54.725Z</time></trkpt><trkpt lat="44.8292335" lon="9.2493919"><ele>754.5</ele><time>2026-04-19T15:22:55.725Z</time></trkpt><trkpt lat="44.8292749" lon="9.249321"><ele>753.3333333333334</ele><time>2026-04-19T15:22:56.725Z</time></trkpt><trkpt lat="44.8293136" lon="9.2492113"><ele>752.1666666666667</ele><time>2026-04-19T15:22:58.724Z</time></trkpt><trkpt lat="44.8292891" lon="9.2490277"><ele>751.0</ele><time>2026-04-19T15:23:00.725Z</time></trkpt><trkpt lat="44.8292515" lon="9.2489087"><ele>749.1666666666667</ele><time>2026-04-19T15:23:01.725Z</time></trkpt><trkpt lat="44.8292157" lon="9.2487751"><ele>747.3333333333334</ele><time>2026-04-19T15:23:02.724Z</time></trkpt><trkpt lat="44.8291969" lon="9.2486636"><ele>745.5</ele><time>2026-04-19T15:23:03.725Z</time></trkpt><trkpt lat="44.8292115" lon="9.248576"><ele>743.6666666666666</ele><time>2026-04-19T15:23:04.725Z</time></trkpt><trkpt lat="44.8292528" lon="9.2485047"><ele>741.8333333333333</ele><time>2026-04-19T15:23:05.725Z</time></trkpt><trkpt lat="44.8293284" lon="9.2484495"><ele>740.0</ele><time>2026-04-19T15:23:06.725Z</time></trkpt><trkpt lat="44.8294211" lon="9.2484047"><ele>740.0</ele><time>2026-04-19T15:23:07.724Z</time></trkpt><trkpt lat="44.8295199" lon="9.2483579"><ele>740.0</ele><time>2026-04-19T15:23:08.725Z</time></trkpt><trkpt lat="44.8296129" lon="9.2482918"><ele>740.0</ele><time>2026-04-19T15:23:09.725Z</time></trkpt><trkpt lat="44.8296761" lon="9.248225"><ele>740.0</ele><time>2026-04-19T15:23:10.725Z</time></trkpt><trkpt lat="44.8297263" lon="9.2481084"><ele>740.0</ele><time>2026-04-19T15:23:12.725Z</time></trkpt><trkpt lat="44.8296717" lon="9.2479952"><ele>738.6666666666666</ele><time>2026-04-19T15:23:14.725Z</time></trkpt><trkpt lat="44.82963" lon="9.2479265"><ele>737.3333333333333</ele><time>2026-04-19T15:23:15.725Z</time></trkpt><trkpt lat="44.8295732" lon="9.2478653"><ele>736.0</ele><time>2026-04-19T15:23:16.724Z</time></trkpt><trkpt lat="44.8295071" lon="9.2478467"><ele>734.6666666666666</ele><time>2026-04-19T15:23:17.725Z</time></trkpt><trkpt lat="44.8294244" lon="9.2478624"><ele>733.3333333333334</ele><time>2026-04-19T15:23:18.724Z</time></trkpt><trkpt lat="44.8293293" lon="9.2478999"><ele>732.0</ele><time>2026-04-19T15:23:19.725Z</time></trkpt><trkpt lat="44.8292229" lon="9.2479415"><ele>731.4000000000001</ele><time>2026-04-19T15:23:20.725Z</time></trkpt><trkpt lat="44.8291116" lon="9.2479796"><ele>730.8000000000001</ele><time>2026-04-19T15:23:21.725Z</time></trkpt><trkpt lat="44.8290074" lon="9.2480232"><ele>730.2</ele><time>2026-04-19T15:23:22.724Z</time></trkpt><trkpt lat="44.8289161" lon="9.248054"><ele>729.6</ele><time>2026-04-19T15:23:23.725Z</time></trkpt><trkpt lat="44.828833" lon="9.2480589"><ele>729.0</ele><time>2026-04-19T15:23:24.725Z</time></trkpt><trkpt lat="44.8287697" lon="9.2480379"><ele>729.0</ele><time>2026-04-19T15:23:25.724Z</time></trkpt><trkpt lat="44.8287186" lon="9.2479755"><ele>729.0</ele><time>2026-04-19T15:23:26.725Z</time></trkpt><trkpt lat="44.8286679" lon="9.2478504"><ele>729.0</ele><time>2026-04-19T15:23:27.725Z</time></trkpt><trkpt lat="44.8286203" lon="9.2476945"><ele>729.0</ele><time>2026-04-19T15:23:28.725Z</time></trkpt><trkpt lat="44.8285558" lon="9.2475325"><ele>729.0</ele><time>2026-04-19T15:23:29.724Z</time></trkpt><trkpt lat="44.8284852" lon="9.2473877"><ele>728.2</ele><time>2026-04-19T15:23:30.725Z</time></trkpt><trkpt lat="44.8284346" lon="9.2472708"><ele>727.4000000000001</ele><time>2026-04-19T15:23:31.725Z</time></trkpt><trkpt lat="44.8284142" lon="9.2471344"><ele>726.6</ele><time>2026-04-19T15:23:32.725Z</time></trkpt><trkpt lat="44.8284166" lon="9.2469615"><ele>725.8</ele><time>2026-04-19T15:23:33.724Z</time></trkpt><trkpt lat="44.828418" lon="9.2467882"><ele>725.0</ele><time>2026-04-19T15:23:34.725Z</time></trkpt><trkpt lat="44.8284015" lon="9.2466367"><ele>725.0</ele><time>2026-04-19T15:23:35.724Z</time></trkpt><trkpt lat="44.8283616" lon="9.2465029"><ele>725.0</ele><time>2026-04-19T15:23:36.725Z</time></trkpt><trkpt lat="44.8283021" lon="9.2463547"><ele>725.0</ele><time>2026-04-19T15:23:37.725Z</time></trkpt><trkpt lat="44.8282395" lon="9.2461928"><ele>725.0</ele><time>2026-04-19T15:23:38.724Z</time></trkpt><trkpt lat="44.8281738" lon="9.246003"><ele>724.0</ele><time>2026-04-19T15:23:39.725Z</time></trkpt><trkpt lat="44.8281029" lon="9.2458056"><ele>723.0</ele><time>2026-04-19T15:23:40.725Z</time></trkpt><trkpt lat="44.8280345" lon="9.245618"><ele>722.0</ele><time>2026-04-19T15:23:41.725Z</time></trkpt><trkpt lat="44.8279789" lon="9.2454319"><ele>720.5</ele><time>2026-04-19T15:23:42.725Z</time></trkpt><trkpt lat="44.8279324" lon="9.2452547"><ele>719.0</ele><time>2026-04-19T15:23:43.725Z</time></trkpt><trkpt lat="44.8279092" lon="9.2450805"><ele>717.5</ele><time>2026-04-19T15:23:44.725Z</time></trkpt><trkpt lat="44.8279122" lon="9.2448976"><ele>716.0</ele><time>2026-04-19T15:23:45.725Z</time></trkpt><trkpt lat="44.8279156" lon="9.2447291"><ele>715.0</ele><time>2026-04-19T15:23:46.725Z</time></trkpt><trkpt lat="44.8279066" lon="9.2445748"><ele>714.0</ele><time>2026-04-19T15:23:47.725Z</time></trkpt><trkpt lat="44.8278636" lon="9.2444413"><ele>713.0</ele><time>2026-04-19T15:23:48.725Z</time></trkpt><trkpt lat="44.8277919" lon="9.2443069"><ele>712.0</ele><time>2026-04-19T15:23:49.725Z</time></trkpt><trkpt lat="44.8277072" lon="9.2441644"><ele>713.0</ele><time>2026-04-19T15:23:50.724Z</time></trkpt><trkpt lat="44.8276058" lon="9.2440018"><ele>714.0</ele><time>2026-04-19T15:23:51.725Z</time></trkpt><trkpt lat="44.8275107" lon="9.2438325"><ele>715.0</ele><time>2026-04-19T15:23:52.725Z</time></trkpt><trkpt lat="44.8274144" lon="9.2436642"><ele>713.5</ele><time>2026-04-19T15:23:53.725Z</time></trkpt><trkpt lat="44.827326" lon="9.243496"><ele>712.0</ele><time>2026-04-19T15:23:54.725Z</time></trkpt><trkpt lat="44.8272419" lon="9.2433428"><ele>710.5</ele><time>2026-04-19T15:23:55.725Z</time></trkpt><trkpt lat="44.8271658" lon="9.2431894"><ele>709.0</ele><time>2026-04-19T15:23:56.725Z</time></trkpt><trkpt lat="44.8270943" lon="9.243026"><ele>708.6</ele><time>2026-04-19T15:23:57.725Z</time></trkpt><trkpt lat="44.8270423" lon="9.2428643"><ele>708.2</ele><time>2026-04-19T15:23:58.724Z</time></trkpt><trkpt lat="44.826995" lon="9.242718"><ele>707.8000000000001</ele><time>2026-04-19T15:23:59.725Z</time></trkpt><trkpt lat="44.8269344" lon="9.2426131"><ele>707.4000000000001</ele><time>2026-04-19T15:24:00.725Z</time></trkpt><trkpt lat="44.8268435" lon="9.2425337"><ele>707.0</ele><time>2026-04-19T15:24:01.724Z</time></trkpt><trkpt lat="44.8267241" lon="9.2424826"><ele>707.0</ele><time>2026-04-19T15:24:02.725Z</time></trkpt><trkpt lat="44.8265876" lon="9.242461"><ele>707.0</ele><time>2026-04-19T15:24:03.725Z</time></trkpt><trkpt lat="44.8264461" lon="9.242438"><ele>707.0</ele><time>2026-04-19T15:24:04.724Z</time></trkpt><trkpt lat="44.8263123" lon="9.2424168"><ele>707.0</ele><time>2026-04-19T15:24:05.724Z</time></trkpt><trkpt lat="44.8261994" lon="9.2423908"><ele>707.0</ele><time>2026-04-19T15:24:06.725Z</time></trkpt><trkpt lat="44.826109" lon="9.2423595"><ele>707.0</ele><time>2026-04-19T15:24:07.725Z</time></trkpt><trkpt lat="44.8260392" lon="9.2423104"><ele>707.0</ele><time>2026-04-19T15:24:08.725Z</time></trkpt><trkpt lat="44.8259788" lon="9.2422326"><ele>707.0</ele><time>2026-04-19T15:24:09.724Z</time></trkpt><trkpt lat="44.8259287" lon="9.24213"><ele>707.0</ele><time>2026-04-19T15:24:10.725Z</time></trkpt><trkpt lat="44.8258825" lon="9.242038"><ele>707.0</ele><time>2026-04-19T15:24:11.725Z</time></trkpt><trkpt lat="44.8258254" lon="9.2419724"><ele>706.8333333333333</ele><time>2026-04-19T15:24:12.725Z</time></trkpt><trkpt lat="44.8257584" lon="9.2419306"><ele>706.6666666666666</ele><time>2026-04-19T15:24:13.724Z</time></trkpt><trkpt lat="44.8256697" lon="9.2419474"><ele>706.5</ele><time>2026-04-19T15:24:14.725Z</time></trkpt><trkpt lat="44.8255849" lon="9.2419704"><ele>706.3333333333334</ele><time>2026-04-19T15:24:15.725Z</time></trkpt><trkpt lat="44.8255222" lon="9.2419796"><ele>706.1666666666667</ele><time>2026-04-19T15:24:16.724Z</time></trkpt><trkpt lat="44.825467" lon="9.241934"><ele>706.0</ele><time>2026-04-19T15:24:18.725Z</time></trkpt><trkpt lat="44.8254995" lon="9.2418099"><ele>706.0</ele><time>2026-04-19T15:24:20.725Z</time></trkpt><trkpt lat="44.8255387" lon="9.2417153"><ele>706.0</ele><time>2026-04-19T15:24:21.724Z</time></trkpt><trkpt lat="44.8255933" lon="9.2415893"><ele>706.0</ele><time>2026-04-19T15:24:22.725Z</time></trkpt><trkpt lat="44.8256571" lon="9.2414616"><ele>706.0</ele><time>2026-04-19T15:24:23.724Z</time></trkpt><trkpt lat="44.825731" lon="9.2413552"><ele>706.0</ele><time>2026-04-19T15:24:24.724Z</time></trkpt><trkpt lat="44.8258091" lon="9.2412682"><ele>705.5999999999999</ele><time>2026-04-19T15:24:25.724Z</time></trkpt><trkpt lat="44.8258782" lon="9.2411839"><ele>705.2</ele><time>2026-04-19T15:24:26.725Z</time></trkpt><trkpt lat="44.8259405" lon="9.241078"><ele>704.8</ele><time>2026-04-19T15:24:27.725Z</time></trkpt><trkpt lat="44.8259945" lon="9.2409532"><ele>704.4000000000001</ele><time>2026-04-19T15:24:28.725Z</time></trkpt><trkpt lat="44.8260459" lon="9.2408287"><ele>704.0</ele><time>2026-04-19T15:24:29.725Z</time></trkpt><trkpt lat="44.8260986" lon="9.2407079"><ele>699.8000000000001</ele><time>2026-04-19T15:24:30.725Z</time></trkpt><trkpt lat="44.8261502" lon="9.2405884"><ele>695.6</ele><time>2026-04-19T15:24:31.725Z</time></trkpt><trkpt lat="44.8261962" lon="9.2404609"><ele>691.4</ele><time>2026-04-19T15:24:32.725Z</time></trkpt><trkpt lat="44.8262267" lon="9.2403281"><ele>687.2</ele><time>2026-04-19T15:24:33.725Z</time></trkpt><trkpt lat="44.8262417" lon="9.2401982"><ele>683.0</ele><time>2026-04-19T15:24:34.725Z</time></trkpt><trkpt lat="44.8262486" lon="9.2400764"><ele>683.0</ele><time>2026-04-19T15:24:35.725Z</time></trkpt><trkpt lat="44.8262345" lon="9.239964"><ele>683.0</ele><time>2026-04-19T15:24:36.725Z</time></trkpt><trkpt lat="44.8261932" lon="9.2398563"><ele>683.0</ele><time>2026-04-19T15:24:37.725Z</time></trkpt><trkpt lat="44.8261284" lon="9.2397411"><ele>683.0</ele><time>2026-04-19T15:24:38.724Z</time></trkpt><trkpt lat="44.8260707" lon="9.2396048"><ele>683.0</ele><time>2026-04-19T15:24:39.725Z</time></trkpt><trkpt lat="44.8260307" lon="9.2394633"><ele>681.0</ele><time>2026-04-19T15:24:40.725Z</time></trkpt><trkpt lat="44.8260141" lon="9.2393117"><ele>679.0</ele><time>2026-04-19T15:24:41.725Z</time></trkpt><trkpt lat="44.8260112" lon="9.2391391"><ele>677.0</ele><time>2026-04-19T15:24:42.725Z</time></trkpt><trkpt lat="44.8260259" lon="9.2389579"><ele>675.0</ele><time>2026-04-19T15:24:43.724Z</time></trkpt><trkpt lat="44.8260447" lon="9.2387938"><ele>675.0</ele><time>2026-04-19T15:24:44.725Z</time></trkpt><trkpt lat="44.8261016" lon="9.2386701"><ele>675.0</ele><time>2026-04-19T15:24:45.724Z</time></trkpt><trkpt lat="44.8261825" lon="9.2385688"><ele>675.0</ele><time>2026-04-19T15:24:46.725Z</time></trkpt><trkpt lat="44.8262779" lon="9.2384836"><ele>675.0</ele><time>2026-04-19T15:24:47.724Z</time></trkpt><trkpt lat="44.8263749" lon="9.2384047"><ele>675.0</ele><time>2026-04-19T15:24:48.724Z</time></trkpt><trkpt lat="44.826454" lon="9.2383414"><ele>675.0</ele><time>2026-04-19T15:24:49.725Z</time></trkpt><trkpt lat="44.8265146" lon="9.2382901"><ele>675.0</ele><time>2026-04-19T15:24:50.725Z</time></trkpt><trkpt lat="44.8265687" lon="9.2382352"><ele>675.0</ele><time>2026-04-19T15:24:51.725Z</time></trkpt><trkpt lat="44.8266215" lon="9.2381769"><ele>675.0</ele><time>2026-04-19T15:24:52.725Z</time></trkpt><trkpt lat="44.8266647" lon="9.2381096"><ele>675.0</ele><time>2026-04-19T15:24:53.724Z</time></trkpt><trkpt lat="44.8266781" lon="9.2379671"><ele>675.0</ele><time>2026-04-19T15:24:55.725Z</time></trkpt><trkpt lat="44.8266339" lon="9.2378436"><ele>673.8</ele><time>2026-04-19T15:24:57.724Z</time></trkpt><trkpt lat="44.8265265" lon="9.2377924"><ele>672.6</ele><time>2026-04-19T15:24:59.724Z</time></trkpt><trkpt lat="44.8264511" lon="9.2378068"><ele>671.4000000000001</ele><time>2026-04-19T15:25:00.724Z</time></trkpt><trkpt lat="44.8263599" lon="9.2378355"><ele>670.2</ele><time>2026-04-19T15:25:01.724Z</time></trkpt><trkpt lat="44.8262525" lon="9.2378725"><ele>669.0</ele><time>2026-04-19T15:25:02.725Z</time></trkpt><trkpt lat="44.8261332" lon="9.2379124"><ele>669.0</ele><time>2026-04-19T15:25:03.724Z</time></trkpt><trkpt lat="44.8260087" lon="9.2379607"><ele>669.0</ele><time>2026-04-19T15:25:04.725Z</time></trkpt><trkpt lat="44.825887" lon="9.2380183"><ele>669.0</ele><time>2026-04-19T15:25:05.725Z</time></trkpt><trkpt lat="44.8257719" lon="9.2380681"><ele>669.0</ele><time>2026-04-19T15:25:06.725Z</time></trkpt><trkpt lat="44.8256636" lon="9.2380854"><ele>667.75</ele><time>2026-04-19T15:25:07.725Z</time></trkpt><trkpt lat="44.8255646" lon="9.2380613"><ele>666.5</ele><time>2026-04-19T15:25:08.725Z</time></trkpt><trkpt lat="44.8254565" lon="9.2379899"><ele>665.25</ele><time>2026-04-19T15:25:09.725Z</time></trkpt><trkpt lat="44.8253421" lon="9.2378966"><ele>664.0</ele><time>2026-04-19T15:25:10.725Z</time></trkpt><trkpt lat="44.825214" lon="9.2378292"><ele>665.4000000000001</ele><time>2026-04-19T15:25:11.725Z</time></trkpt><trkpt lat="44.8251025" lon="9.2378019"><ele>666.8</ele><time>2026-04-19T15:25:12.725Z</time></trkpt><trkpt lat="44.8250147" lon="9.2377893"><ele>668.2</ele><time>2026-04-19T15:25:13.725Z</time></trkpt><trkpt lat="44.8249574" lon="9.2377493"><ele>669.5999999999999</ele><time>2026-04-19T15:25:14.725Z</time></trkpt><trkpt lat="44.8249348" lon="9.2375945"><ele>671.0</ele><time>2026-04-19T15:25:16.724Z</time></trkpt><trkpt lat="44.8249753" lon="9.2374872"><ele>671.0</ele><time>2026-04-19T15:25:17.725Z</time></trkpt><trkpt lat="44.8250393" lon="9.2373797"><ele>671.0</ele><time>2026-04-19T15:25:18.724Z</time></trkpt><trkpt lat="44.8250669" lon="9.2372702"><ele>671.0</ele><time>2026-04-19T15:25:19.724Z</time></trkpt><trkpt lat="44.8250696" lon="9.2371476"><ele>671.0</ele><time>2026-04-19T15:25:20.724Z</time></trkpt><trkpt lat="44.8250512" lon="9.2370046"><ele>671.0</ele><time>2026-04-19T15:25:21.725Z</time></trkpt><trkpt lat="44.8250223" lon="9.2368485"><ele>671.0</ele><time>2026-04-19T15:25:22.725Z</time></trkpt><trkpt lat="44.8249746" lon="9.2367203"><ele>671.0</ele><time>2026-04-19T15:25:23.724Z</time></trkpt><trkpt lat="44.8249393" lon="9.2366187"><ele>671.0</ele><time>2026-04-19T15:25:24.725Z</time></trkpt><trkpt lat="44.8248583" lon="9.2364921"><ele>671.0</ele><time>2026-04-19T15:25:26.725Z</time></trkpt><trkpt lat="44.824799" lon="9.236414"><ele>671.0</ele><time>2026-04-19T15:25:27.725Z</time></trkpt><trkpt lat="44.824749" lon="9.2363052"><ele>670.25</ele><time>2026-04-19T15:25:28.725Z</time></trkpt><trkpt lat="44.8246928" lon="9.2361475"><ele>669.5</ele><time>2026-04-19T15:25:29.724Z</time></trkpt><trkpt lat="44.8246315" lon="9.2359751"><ele>668.75</ele><time>2026-04-19T15:25:30.724Z</time></trkpt><trkpt lat="44.8245578" lon="9.2358267"><ele>668.0</ele><time>2026-04-19T15:25:31.725Z</time></trkpt><trkpt lat="44.8244971" lon="9.2356898"><ele>665.0</ele><time>2026-04-19T15:25:32.725Z</time></trkpt><trkpt lat="44.8244594" lon="9.2355629"><ele>662.0</ele><time>2026-04-19T15:25:33.725Z</time></trkpt><trkpt lat="44.8244477" lon="9.2354305"><ele>659.0</ele><time>2026-04-19T15:25:34.725Z</time></trkpt><trkpt lat="44.8244562" lon="9.2352875"><ele>656.0</ele><time>2026-04-19T15:25:35.725Z</time></trkpt><trkpt lat="44.8244799" lon="9.2351382"><ele>653.0</ele><time>2026-04-19T15:25:36.725Z</time></trkpt><trkpt lat="44.8245084" lon="9.2349832"><ele>653.0</ele><time>2026-04-19T15:25:37.725Z</time></trkpt><trkpt lat="44.8245287" lon="9.2348046"><ele>653.0</ele><time>2026-04-19T15:25:38.724Z</time></trkpt><trkpt lat="44.8245489" lon="9.2346109"><ele>653.0</ele><time>2026-04-19T15:25:39.724Z</time></trkpt><trkpt lat="44.8245747" lon="9.2344161"><ele>653.0</ele><time>2026-04-19T15:25:40.725Z</time></trkpt><trkpt lat="44.8246062" lon="9.2342505"><ele>651.8333333333333</ele><time>2026-04-19T15:25:41.725Z</time></trkpt><trkpt lat="44.8246459" lon="9.234109"><ele>650.6666666666666</ele><time>2026-04-19T15:25:42.725Z</time></trkpt><trkpt lat="44.8246631" lon="9.234002"><ele>649.5</ele><time>2026-04-19T15:25:43.725Z</time></trkpt><trkpt lat="44.8246513" lon="9.2339018"><ele>648.3333333333334</ele><time>2026-04-19T15:25:44.725Z</time></trkpt><trkpt lat="44.82462" lon="9.2337917"><ele>647.1666666666667</ele><time>2026-04-19T15:25:45.725Z</time></trkpt><trkpt lat="44.8246046" lon="9.2336858"><ele>646.0</ele><time>2026-04-19T15:25:46.724Z</time></trkpt><trkpt lat="44.8246122" lon="9.233595"><ele>644.5</ele><time>2026-04-19T15:25:47.725Z</time></trkpt><trkpt lat="44.8247124" lon="9.2334819"><ele>643.0</ele><time>2026-04-19T15:25:49.724Z</time></trkpt><trkpt lat="44.8248086" lon="9.2334602"><ele>641.5</ele><time>2026-04-19T15:25:50.725Z</time></trkpt><trkpt lat="44.8249261" lon="9.2334433"><ele>640.0</ele><time>2026-04-19T15:25:51.725Z</time></trkpt><trkpt lat="44.8250515" lon="9.2334342"><ele>638.6</ele><time>2026-04-19T15:25:52.725Z</time></trkpt><trkpt lat="44.8251757" lon="9.2334183"><ele>637.2</ele><time>2026-04-19T15:25:53.725Z</time></trkpt><trkpt lat="44.8252866" lon="9.2333864"><ele>635.8</ele><time>2026-04-19T15:25:54.725Z</time></trkpt><trkpt lat="44.8253862" lon="9.2333627"><ele>634.4</ele><time>2026-04-19T15:25:55.725Z</time></trkpt><trkpt lat="44.8254703" lon="9.2333242"><ele>633.0</ele><time>2026-04-19T15:25:56.725Z</time></trkpt><trkpt lat="44.8255451" lon="9.2332501"><ele>633.0</ele><time>2026-04-19T15:25:57.725Z</time></trkpt><trkpt lat="44.8256054" lon="9.233148"><ele>633.0</ele><time>2026-04-19T15:25:58.725Z</time></trkpt><trkpt lat="44.8256451" lon="9.2330253"><ele>633.0</ele><time>2026-04-19T15:25:59.724Z</time></trkpt><trkpt lat="44.8256634" lon="9.2329019"><ele>633.0</ele><time>2026-04-19T15:26:00.725Z</time></trkpt><trkpt lat="44.825657" lon="9.2327759"><ele>633.0</ele><time>2026-04-19T15:26:01.724Z</time></trkpt><trkpt lat="44.825626" lon="9.232651"><ele>631.4</ele><time>2026-04-19T15:26:02.724Z</time></trkpt><trkpt lat="44.8255878" lon="9.2325369"><ele>629.8</ele><time>2026-04-19T15:26:03.725Z</time></trkpt><trkpt lat="44.8255325" lon="9.2324269"><ele>628.2</ele><time>2026-04-19T15:26:04.725Z</time></trkpt><trkpt lat="44.825497" lon="9.2323194"><ele>626.6</ele><time>2026-04-19T15:26:05.724Z</time></trkpt><trkpt lat="44.8254707" lon="9.2321888"><ele>625.0</ele><time>2026-04-19T15:26:06.725Z</time></trkpt><trkpt lat="44.8254632" lon="9.2320505"><ele>623.2</ele><time>2026-04-19T15:26:07.725Z</time></trkpt><trkpt lat="44.8254725" lon="9.2319092"><ele>621.4</ele><time>2026-04-19T15:26:08.724Z</time></trkpt><trkpt lat="44.8254729" lon="9.2317615"><ele>619.6</ele><time>2026-04-19T15:26:09.725Z</time></trkpt><trkpt lat="44.8254506" lon="9.2316304"><ele>617.8</ele><time>2026-04-19T15:26:10.725Z</time></trkpt><trkpt lat="44.8254173" lon="9.2315289"><ele>616.0</ele><time>2026-04-19T15:26:11.724Z</time></trkpt><trkpt lat="44.8254026" lon="9.2313832"><ele>614.2</ele><time>2026-04-19T15:26:13.725Z</time></trkpt><trkpt lat="44.8254845" lon="9.2312479"><ele>612.4000000000001</ele><time>2026-04-19T15:26:15.725Z</time></trkpt><trkpt lat="44.8255428" lon="9.2311739"><ele>610.6</ele><time>2026-04-19T15:26:16.725Z</time></trkpt><trkpt lat="44.8255995" lon="9.2311023"><ele>608.8000000000001</ele><time>2026-04-19T15:26:17.725Z</time></trkpt><trkpt lat="44.8256438" lon="9.2310032"><ele>607.0</ele><time>2026-04-19T15:26:18.724Z</time></trkpt><trkpt lat="44.8256859" lon="9.2308857"><ele>607.0</ele><time>2026-04-19T15:26:19.725Z</time></trkpt><trkpt lat="44.8257198" lon="9.2307604"><ele>607.0</ele><time>2026-04-19T15:26:20.724Z</time></trkpt><trkpt lat="44.8257531" lon="9.2306388"><ele>607.0</ele><time>2026-04-19T15:26:21.724Z</time></trkpt><trkpt lat="44.8257763" lon="9.2305254"><ele>607.0</ele><time>2026-04-19T15:26:22.725Z</time></trkpt><trkpt lat="44.8257587" lon="9.2303808"><ele>607.0</ele><time>2026-04-19T15:26:24.725Z</time></trkpt><trkpt lat="44.8256666" lon="9.2303065"><ele>604.8000000000001</ele><time>2026-04-19T15:26:26.725Z</time></trkpt><trkpt lat="44.825595" lon="9.2303112"><ele>602.6</ele><time>2026-04-19T15:26:27.724Z</time></trkpt><trkpt lat="44.8254965" lon="9.2303331"><ele>600.4000000000001</ele><time>2026-04-19T15:26:28.725Z</time></trkpt><trkpt lat="44.8253791" lon="9.2303418"><ele>598.2</ele><time>2026-04-19T15:26:29.725Z</time></trkpt><trkpt lat="44.825254" lon="9.2303272"><ele>596.0</ele><time>2026-04-19T15:26:30.725Z</time></trkpt><trkpt lat="44.8251347" lon="9.230292"><ele>596.0</ele><time>2026-04-19T15:26:31.725Z</time></trkpt><trkpt lat="44.8250167" lon="9.2302496"><ele>596.0</ele><time>2026-04-19T15:26:32.725Z</time></trkpt><trkpt lat="44.8249145" lon="9.2302021"><ele>596.0</ele><time>2026-04-19T15:26:33.725Z</time></trkpt><trkpt lat="44.8248107" lon="9.2301542"><ele>596.0</ele><time>2026-04-19T15:26:34.725Z</time></trkpt><trkpt lat="44.8247206" lon="9.2300938"><ele>596.0</ele><time>2026-04-19T15:26:35.725Z</time></trkpt><trkpt lat="44.8246538" lon="9.2300208"><ele>596.0</ele><time>2026-04-19T15:26:36.724Z</time></trkpt><trkpt lat="44.82461" lon="9.2299318"><ele>596.0</ele><time>2026-04-19T15:26:37.725Z</time></trkpt><trkpt lat="44.8245894" lon="9.2298222"><ele>596.0</ele><time>2026-04-19T15:26:38.725Z</time></trkpt><trkpt lat="44.8245825" lon="9.2296955"><ele>596.0</ele><time>2026-04-19T15:26:39.725Z</time></trkpt><trkpt lat="44.824583" lon="9.2295559"><ele>596.0</ele><time>2026-04-19T15:26:40.725Z</time></trkpt><trkpt lat="44.824578" lon="9.2294243"><ele>596.0</ele><time>2026-04-19T15:26:41.724Z</time></trkpt><trkpt lat="44.8245583" lon="9.2292964"><ele>593.6666666666666</ele><time>2026-04-19T15:26:42.725Z</time></trkpt><trkpt lat="44.8245207" lon="9.2291761"><ele>591.3333333333333</ele><time>2026-04-19T15:26:43.725Z</time></trkpt><trkpt lat="44.8244654" lon="9.2290669"><ele>589.0</ele><time>2026-04-19T15:26:44.725Z</time></trkpt><trkpt lat="44.8243968" lon="9.2289839"><ele>586.6666666666666</ele><time>2026-04-19T15:26:45.725Z</time></trkpt><trkpt lat="44.8243234" lon="9.2289168"><ele>584.3333333333334</ele><time>2026-04-19T15:26:46.724Z</time></trkpt><trkpt lat="44.8242541" lon="9.2288544"><ele>582.0</ele><time>2026-04-19T15:26:47.725Z</time></trkpt><trkpt lat="44.824174" lon="9.2287811"><ele>579.75</ele><time>2026-04-19T15:26:48.725Z</time></trkpt><trkpt lat="44.8240773" lon="9.2287016"><ele>577.5</ele><time>2026-04-19T15:26:49.725Z</time></trkpt><trkpt lat="44.8239736" lon="9.2286199"><ele>575.25</ele><time>2026-04-19T15:26:50.725Z</time></trkpt><trkpt lat="44.8238533" lon="9.22854"><ele>573.0</ele><time>2026-04-19T15:26:51.725Z</time></trkpt><trkpt lat="44.8237215" lon="9.2284755"><ele>573.0</ele><time>2026-04-19T15:26:52.724Z</time></trkpt><trkpt lat="44.823619" lon="9.2284221"><ele>573.0</ele><time>2026-04-19T15:26:53.725Z</time></trkpt><trkpt lat="44.8235438" lon="9.2283481"><ele>573.0</ele><time>2026-04-19T15:26:54.725Z</time></trkpt><trkpt lat="44.8234908" lon="9.2282485"><ele>573.0</ele><time>2026-04-19T15:26:55.725Z</time></trkpt><trkpt lat="44.8234458" lon="9.2280999"><ele>573.0</ele><time>2026-04-19T15:26:56.725Z</time></trkpt><trkpt lat="44.8233995" lon="9.2279115"><ele>572.5</ele><time>2026-04-19T15:26:57.725Z</time></trkpt><trkpt lat="44.8233325" lon="9.2277233"><ele>572.0</ele><time>2026-04-19T15:26:58.725Z</time></trkpt><trkpt lat="44.8232663" lon="9.2275711"><ele>571.5</ele><time>2026-04-19T15:26:59.724Z</time></trkpt><trkpt lat="44.8232" lon="9.227448"><ele>571.0</ele><time>2026-04-19T15:27:00.725Z</time></trkpt><trkpt lat="44.8231195" lon="9.227358"><ele>569.8</ele><time>2026-04-19T15:27:01.725Z</time></trkpt><trkpt lat="44.8230227" lon="9.2272664"><ele>568.6</ele><time>2026-04-19T15:27:02.725Z</time></trkpt><trkpt lat="44.8229385" lon="9.2271682"><ele>567.4</ele><time>2026-04-19T15:27:03.725Z</time></trkpt><trkpt lat="44.8228741" lon="9.2270872"><ele>566.2</ele><time>2026-04-19T15:27:04.725Z</time></trkpt><trkpt lat="44.8228378" lon="9.2269867"><ele>565.0</ele><time>2026-04-19T15:27:05.724Z</time></trkpt><trkpt lat="44.822825" lon="9.2268582"><ele>565.0</ele><time>2026-04-19T15:27:06.724Z</time></trkpt><trkpt lat="44.8228353" lon="9.2266964"><ele>565.0</ele><time>2026-04-19T15:27:07.725Z</time></trkpt><trkpt lat="44.8228412" lon="9.2265336"><ele>565.0</ele><time>2026-04-19T15:27:08.724Z</time></trkpt><trkpt lat="44.8228503" lon="9.2263869"><ele>565.0</ele><time>2026-04-19T15:27:09.724Z</time></trkpt><trkpt lat="44.8228481" lon="9.2262443"><ele>565.0</ele><time>2026-04-19T15:27:10.725Z</time></trkpt><trkpt lat="44.822831" lon="9.226106"><ele>565.1666666666667</ele><time>2026-04-19T15:27:11.725Z</time></trkpt><trkpt lat="44.8228194" lon="9.2259806"><ele>565.3333333333334</ele><time>2026-04-19T15:27:12.725Z</time></trkpt><trkpt lat="44.8228083" lon="9.2258503"><ele>565.5</ele><time>2026-04-19T15:27:13.725Z</time></trkpt><trkpt lat="44.8228055" lon="9.2257291"><ele>565.6666666666666</ele><time>2026-04-19T15:27:14.725Z</time></trkpt><trkpt lat="44.8227931" lon="9.2256152"><ele>565.8333333333333</ele><time>2026-04-19T15:27:15.725Z</time></trkpt><trkpt lat="44.8227949" lon="9.2254823"><ele>566.0</ele><time>2026-04-19T15:27:16.725Z</time></trkpt><trkpt lat="44.8228046" lon="9.2253129"><ele>564.75</ele><time>2026-04-19T15:27:17.725Z</time></trkpt><trkpt lat="44.8228257" lon="9.2251171"><ele>563.5</ele><time>2026-04-19T15:27:18.724Z</time></trkpt><trkpt lat="44.8228437" lon="9.224898"><ele>562.25</ele><time>2026-04-19T15:27:19.725Z</time></trkpt><trkpt lat="44.8228595" lon="9.224697"><ele>561.0</ele><time>2026-04-19T15:27:20.725Z</time></trkpt><trkpt lat="44.8228634" lon="9.2245399"><ele>560.2</ele><time>2026-04-19T15:27:21.725Z</time></trkpt><trkpt lat="44.8228597" lon="9.2244117"><ele>559.4000000000001</ele><time>2026-04-19T15:27:22.725Z</time></trkpt><trkpt lat="44.8228419" lon="9.2243058"><ele>558.6</ele><time>2026-04-19T15:27:23.725Z</time></trkpt><trkpt lat="44.822751" lon="9.2241951"><ele>557.8000000000001</ele><time>2026-04-19T15:27:25.725Z</time></trkpt><trkpt lat="44.8226758" lon="9.2241809"><ele>557.0</ele><time>2026-04-19T15:27:26.725Z</time></trkpt><trkpt lat="44.8225832" lon="9.2241871"><ele>557.0</ele><time>2026-04-19T15:27:27.724Z</time></trkpt><trkpt lat="44.8224803" lon="9.2241907"><ele>557.0</ele><time>2026-04-19T15:27:28.725Z</time></trkpt><trkpt lat="44.8223463" lon="9.2241812"><ele>557.0</ele><time>2026-04-19T15:27:29.725Z</time></trkpt><trkpt lat="44.8222034" lon="9.224151"><ele>557.0</ele><time>2026-04-19T15:27:30.725Z</time></trkpt><trkpt lat="44.8220846" lon="9.2241"><ele>557.0</ele><time>2026-04-19T15:27:31.725Z</time></trkpt><trkpt lat="44.8219799" lon="9.224048"><ele>557.0</ele><time>2026-04-19T15:27:32.725Z</time></trkpt><trkpt lat="44.8218812" lon="9.2239983"><ele>557.0</ele><time>2026-04-19T15:27:33.725Z</time></trkpt><trkpt lat="44.8217943" lon="9.2239453"><ele>557.0</ele><time>2026-04-19T15:27:34.724Z</time></trkpt><trkpt lat="44.821722" lon="9.2238813"><ele>557.0</ele><time>2026-04-19T15:27:35.725Z</time></trkpt><trkpt lat="44.8216683" lon="9.223805"><ele>557.6</ele><time>2026-04-19T15:27:36.724Z</time></trkpt><trkpt lat="44.821636" lon="9.2236873"><ele>558.2</ele><time>2026-04-19T15:27:37.725Z</time></trkpt><trkpt lat="44.8216258" lon="9.2235401"><ele>558.8</ele><time>2026-04-19T15:27:38.725Z</time></trkpt><trkpt lat="44.8216396" lon="9.2233802"><ele>559.4</ele><time>2026-04-19T15:27:39.725Z</time></trkpt><trkpt lat="44.8216585" lon="9.2232306"><ele>560.0</ele><time>2026-04-19T15:27:40.724Z</time></trkpt><trkpt lat="44.8216679" lon="9.2230893"><ele>560.0</ele><time>2026-04-19T15:27:41.724Z</time></trkpt><trkpt lat="44.8216556" lon="9.2229802"><ele>560.0</ele><time>2026-04-19T15:27:42.724Z</time></trkpt><trkpt lat="44.8216176" lon="9.2228967"><ele>560.0</ele><time>2026-04-19T15:27:43.725Z</time></trkpt><trkpt lat="44.8215511" lon="9.2228343"><ele>560.0</ele><time>2026-04-19T15:27:44.725Z</time></trkpt><trkpt lat="44.8214519" lon="9.2227965"><ele>560.0</ele><time>2026-04-19T15:27:45.725Z</time></trkpt><trkpt lat="44.8213319" lon="9.2227574"><ele>560.0</ele><time>2026-04-19T15:27:46.725Z</time></trkpt><trkpt lat="44.8211983" lon="9.2227019"><ele>560.0</ele><time>2026-04-19T15:27:47.725Z</time></trkpt><trkpt lat="44.8210554" lon="9.2226658"><ele>560.0</ele><time>2026-04-19T15:27:48.724Z</time></trkpt><trkpt lat="44.8209271" lon="9.2226339"><ele>560.0</ele><time>2026-04-19T15:27:49.725Z</time></trkpt><trkpt lat="44.8207988" lon="9.2226277"><ele>561.5</ele><time>2026-04-19T15:27:50.724Z</time></trkpt><trkpt lat="44.8206749" lon="9.2226319"><ele>563.0</ele><time>2026-04-19T15:27:51.725Z</time></trkpt><trkpt lat="44.8205517" lon="9.2226317"><ele>564.5</ele><time>2026-04-19T15:27:52.725Z</time></trkpt><trkpt lat="44.820433" lon="9.2226228"><ele>566.0</ele><time>2026-04-19T15:27:53.725Z</time></trkpt><trkpt lat="44.8203178" lon="9.2226181"><ele>566.0</ele><time>2026-04-19T15:27:54.725Z</time></trkpt><trkpt lat="44.8202044" lon="9.2226235"><ele>566.0</ele><time>2026-04-19T15:27:55.725Z</time></trkpt><trkpt lat="44.8200867" lon="9.2226242"><ele>566.0</ele><time>2026-04-19T15:27:56.725Z</time></trkpt><trkpt lat="44.8199773" lon="9.2225916"><ele>566.0</ele><time>2026-04-19T15:27:57.724Z</time></trkpt><trkpt lat="44.8198647" lon="9.2225301"><ele>565.5</ele><time>2026-04-19T15:27:58.724Z</time></trkpt><trkpt lat="44.8197408" lon="9.222441"><ele>565.0</ele><time>2026-04-19T15:27:59.725Z</time></trkpt><trkpt lat="44.8196202" lon="9.2223287"><ele>564.5</ele><time>2026-04-19T15:28:00.725Z</time></trkpt><trkpt lat="44.8194881" lon="9.2221933"><ele>564.0</ele><time>2026-04-19T15:28:01.725Z</time></trkpt><trkpt lat="44.8193629" lon="9.2220584"><ele>561.25</ele><time>2026-04-19T15:28:02.725Z</time></trkpt><trkpt lat="44.8192432" lon="9.2219286"><ele>558.5</ele><time>2026-04-19T15:28:03.724Z</time></trkpt><trkpt lat="44.8191428" lon="9.2218147"><ele>555.75</ele><time>2026-04-19T15:28:04.725Z</time></trkpt><trkpt lat="44.8190573" lon="9.2217062"><ele>553.0</ele><time>2026-04-19T15:28:05.725Z</time></trkpt><trkpt lat="44.8189884" lon="9.2215779"><ele>549.25</ele><time>2026-04-19T15:28:06.725Z</time></trkpt><trkpt lat="44.8189291" lon="9.2214357"><ele>545.5</ele><time>2026-04-19T15:28:07.724Z</time></trkpt><trkpt lat="44.8188745" lon="9.2212858"><ele>541.75</ele><time>2026-04-19T15:28:08.725Z</time></trkpt><trkpt lat="44.8188212" lon="9.2211297"><ele>538.0</ele><time>2026-04-19T15:28:09.724Z</time></trkpt><trkpt lat="44.8187769" lon="9.220986"><ele>538.0</ele><time>2026-04-19T15:28:10.724Z</time></trkpt><trkpt lat="44.8187455" lon="9.2208458"><ele>538.0</ele><time>2026-04-19T15:28:11.725Z</time></trkpt><trkpt lat="44.8187333" lon="9.2207065"><ele>538.0</ele><time>2026-04-19T15:28:12.725Z</time></trkpt><trkpt lat="44.8187226" lon="9.2205909"><ele>538.0</ele><time>2026-04-19T15:28:13.725Z</time></trkpt><trkpt lat="44.8187039" lon="9.2204958"><ele>538.0</ele><time>2026-04-19T15:28:14.724Z</time></trkpt><trkpt lat="44.8186283" lon="9.2203967"><ele>538.0</ele><time>2026-04-19T15:28:16.725Z</time></trkpt><trkpt lat="44.8185221" lon="9.2204542"><ele>538.0</ele><time>2026-04-19T15:28:18.724Z</time></trkpt><trkpt lat="44.8184404" lon="9.2205103"><ele>538.0</ele><time>2026-04-19T15:28:19.724Z</time></trkpt><trkpt lat="44.8183278" lon="9.2205458"><ele>538.0</ele><time>2026-04-19T15:28:20.725Z</time></trkpt><trkpt lat="44.8181819" lon="9.2205455"><ele>536.5</ele><time>2026-04-19T15:28:21.724Z</time></trkpt><trkpt lat="44.8180358" lon="9.2205075"><ele>535.0</ele><time>2026-04-19T15:28:22.725Z</time></trkpt><trkpt lat="44.8178951" lon="9.2204408"><ele>533.5</ele><time>2026-04-19T15:28:23.725Z</time></trkpt><trkpt lat="44.8177763" lon="9.2203514"><ele>532.0</ele><time>2026-04-19T15:28:24.725Z</time></trkpt><trkpt lat="44.8176733" lon="9.2202531"><ele>530.5</ele><time>2026-04-19T15:28:25.725Z</time></trkpt><trkpt lat="44.8175778" lon="9.2201556"><ele>529.0</ele><time>2026-04-19T15:28:26.725Z</time></trkpt><trkpt lat="44.817502" lon="9.220033"><ele>527.5</ele><time>2026-04-19T15:28:27.725Z</time></trkpt><trkpt lat="44.817439" lon="9.2198925"><ele>526.0</ele><time>2026-04-19T15:28:28.725Z</time></trkpt><trkpt lat="44.8173651" lon="9.2197388"><ele>526.0</ele><time>2026-04-19T15:28:29.725Z</time></trkpt><trkpt lat="44.8172854" lon="9.2195864"><ele>526.0</ele><time>2026-04-19T15:28:30.725Z</time></trkpt><trkpt lat="44.8172179" lon="9.219453"><ele>526.0</ele><time>2026-04-19T15:28:31.725Z</time></trkpt><trkpt lat="44.8171798" lon="9.219371"><ele>526.0</ele><time>2026-04-19T15:28:32.725Z</time></trkpt><trkpt lat="44.8171673" lon="9.219283"><ele>526.0</ele><time>2026-04-19T15:28:34.725Z</time></trkpt><trkpt lat="44.8172252" lon="9.2191841"><ele>526.0</ele><time>2026-04-19T15:28:36.725Z</time></trkpt><trkpt lat="44.8172716" lon="9.2191068"><ele>526.0</ele><time>2026-04-19T15:28:37.725Z</time></trkpt><trkpt lat="44.8173152" lon="9.2190118"><ele>526.0</ele><time>2026-04-19T15:28:38.725Z</time></trkpt><trkpt lat="44.8173408" lon="9.2189168"><ele>526.0</ele><time>2026-04-19T15:28:39.725Z</time></trkpt><trkpt lat="44.8173321" lon="9.2188244"><ele>526.0</ele><time>2026-04-19T15:28:40.725Z</time></trkpt><trkpt lat="44.8173062" lon="9.2187415"><ele>526.0</ele><time>2026-04-19T15:28:41.725Z</time></trkpt><trkpt lat="44.8172403" lon="9.2186732"><ele>526.0</ele><time>2026-04-19T15:28:42.725Z</time></trkpt><trkpt lat="44.8171458" lon="9.218642"><ele>524.25</ele><time>2026-04-19T15:28:43.725Z</time></trkpt><trkpt lat="44.817036" lon="9.2186685"><ele>522.5</ele><time>2026-04-19T15:28:44.725Z</time></trkpt><trkpt lat="44.8169132" lon="9.2187367"><ele>520.75</ele><time>2026-04-19T15:28:45.724Z</time></trkpt><trkpt lat="44.8167807" lon="9.2188377"><ele>519.0</ele><time>2026-04-19T15:28:46.725Z</time></trkpt><trkpt lat="44.8166409" lon="9.2189459"><ele>518.6</ele><time>2026-04-19T15:28:47.725Z</time></trkpt><trkpt lat="44.8165249" lon="9.2190204"><ele>518.2</ele><time>2026-04-19T15:28:48.725Z</time></trkpt><trkpt lat="44.8164246" lon="9.2190592"><ele>517.8000000000001</ele><time>2026-04-19T15:28:49.725Z</time></trkpt><trkpt lat="44.8163386" lon="9.2190509"><ele>517.4</ele><time>2026-04-19T15:28:50.725Z</time></trkpt><trkpt lat="44.8162753" lon="9.2189849"><ele>517.0</ele><time>2026-04-19T15:28:51.724Z</time></trkpt><trkpt lat="44.81625" lon="9.2188757"><ele>517.0</ele><time>2026-04-19T15:28:52.725Z</time></trkpt><trkpt lat="44.8162623" lon="9.2187521"><ele>517.0</ele><time>2026-04-19T15:28:53.725Z</time></trkpt><trkpt lat="44.8163115" lon="9.2186242"><ele>517.0</ele><time>2026-04-19T15:28:54.725Z</time></trkpt><trkpt lat="44.8163981" lon="9.2184838"><ele>517.0</ele><time>2026-04-19T15:28:55.725Z</time></trkpt><trkpt lat="44.8165033" lon="9.2183118"><ele>512.3333333333334</ele><time>2026-04-19T15:28:56.725Z</time></trkpt><trkpt lat="44.8166109" lon="9.2181368"><ele>507.66666666666663</ele><time>2026-04-19T15:28:57.725Z</time></trkpt><trkpt lat="44.8167053" lon="9.2179697"><ele>503.0</ele><time>2026-04-19T15:28:58.725Z</time></trkpt><trkpt lat="44.8168042" lon="9.2178092"><ele>504.3333333333333</ele><time>2026-04-19T15:28:59.725Z</time></trkpt><trkpt lat="44.8169094" lon="9.2176421"><ele>505.66666666666663</ele><time>2026-04-19T15:29:00.725Z</time></trkpt><trkpt lat="44.8170227" lon="9.2175022"><ele>507.0</ele><time>2026-04-19T15:29:01.725Z</time></trkpt><trkpt lat="44.8171486" lon="9.217385"><ele>504.25</ele><time>2026-04-19T15:29:02.725Z</time></trkpt><trkpt lat="44.8172825" lon="9.2173002"><ele>501.5</ele><time>2026-04-19T15:29:03.725Z</time></trkpt><trkpt lat="44.8174133" lon="9.2172425"><ele>498.75</ele><time>2026-04-19T15:29:04.724Z</time></trkpt><trkpt lat="44.8175218" lon="9.2172136"><ele>496.0</ele><time>2026-04-19T15:29:05.725Z</time></trkpt><trkpt lat="44.8176211" lon="9.2172384"><ele>497.25</ele><time>2026-04-19T15:29:06.724Z</time></trkpt><trkpt lat="44.8177187" lon="9.2173224"><ele>498.5</ele><time>2026-04-19T15:29:07.724Z</time></trkpt><trkpt lat="44.8178201" lon="9.2174491"><ele>499.75</ele><time>2026-04-19T15:29:08.725Z</time></trkpt><trkpt lat="44.8179194" lon="9.2175995"><ele>501.0</ele><time>2026-04-19T15:29:09.725Z</time></trkpt><trkpt lat="44.8180112" lon="9.2177361"><ele>501.0</ele><time>2026-04-19T15:29:10.725Z</time></trkpt><trkpt lat="44.8181003" lon="9.2178507"><ele>501.0</ele><time>2026-04-19T15:29:11.725Z</time></trkpt><trkpt lat="44.8181862" lon="9.2179329"><ele>501.0</ele><time>2026-04-19T15:29:12.725Z</time></trkpt><trkpt lat="44.8182775" lon="9.2179637"><ele>501.0</ele><time>2026-04-19T15:29:13.725Z</time></trkpt><trkpt lat="44.8183689" lon="9.2179419"><ele>501.0</ele><time>2026-04-19T15:29:14.725Z</time></trkpt><trkpt lat="44.8184549" lon="9.2178819"><ele>501.6</ele><time>2026-04-19T15:29:15.725Z</time></trkpt><trkpt lat="44.8185177" lon="9.2177757"><ele>502.20000000000005</ele><time>2026-04-19T15:29:16.725Z</time></trkpt><trkpt lat="44.818548" lon="9.2176491"><ele>502.79999999999995</ele><time>2026-04-19T15:29:17.725Z</time></trkpt><trkpt lat="44.818543" lon="9.2175252"><ele>503.4</ele><time>2026-04-19T15:29:18.725Z</time></trkpt><trkpt lat="44.8184861" lon="9.2173994"><ele>504.0</ele><time>2026-04-19T15:29:19.725Z</time></trkpt><trkpt lat="44.8183734" lon="9.2172845"><ele>500.25</ele><time>2026-04-19T15:29:20.725Z</time></trkpt><trkpt lat="44.8182377" lon="9.217163"><ele>496.5</ele><time>2026-04-19T15:29:21.724Z</time></trkpt><trkpt lat="44.8181254" lon="9.2170302"><ele>492.75</ele><time>2026-04-19T15:29:22.725Z</time></trkpt><trkpt lat="44.8180481" lon="9.216885"><ele>489.0</ele><time>2026-04-19T15:29:23.725Z</time></trkpt><trkpt lat="44.8179938" lon="9.2167273"><ele>489.0</ele><time>2026-04-19T15:29:24.725Z</time></trkpt><trkpt lat="44.8179566" lon="9.216569"><ele>489.0</ele><time>2026-04-19T15:29:25.724Z</time></trkpt><trkpt lat="44.8179305" lon="9.216417"><ele>489.0</ele><time>2026-04-19T15:29:26.725Z</time></trkpt><trkpt lat="44.8179216" lon="9.2162668"><ele>489.0</ele><time>2026-04-19T15:29:27.725Z</time></trkpt><trkpt lat="44.8179196" lon="9.2161212"><ele>489.0</ele><time>2026-04-19T15:29:28.724Z</time></trkpt><trkpt lat="44.8178983" lon="9.2159781"><ele>486.25</ele><time>2026-04-19T15:29:29.725Z</time></trkpt><trkpt lat="44.8178509" lon="9.2158389"><ele>483.5</ele><time>2026-04-19T15:29:30.725Z</time></trkpt><trkpt lat="44.8177834" lon="9.2157132"><ele>480.75</ele><time>2026-04-19T15:29:31.725Z</time></trkpt><trkpt lat="44.8177045" lon="9.2155883"><ele>478.0</ele><time>2026-04-19T15:29:32.725Z</time></trkpt><trkpt lat="44.8176324" lon="9.2154678"><ele>477.50000000000006</ele><time>2026-04-19T15:29:33.725Z</time></trkpt><trkpt lat="44.8175604" lon="9.2153528"><ele>477.0</ele><time>2026-04-19T15:29:34.725Z</time></trkpt><trkpt lat="44.8174989" lon="9.2152546"><ele>476.5</ele><time>2026-04-19T15:29:35.724Z</time></trkpt><trkpt lat="44.8174333" lon="9.2151654"><ele>476.0</ele><time>2026-04-19T15:29:36.725Z</time></trkpt><trkpt lat="44.8173684" lon="9.2151078"><ele>475.50000000000006</ele><time>2026-04-19T15:29:37.725Z</time></trkpt><trkpt lat="44.8172992" lon="9.2150731"><ele>475.0</ele><time>2026-04-19T15:29:38.725Z</time></trkpt><trkpt lat="44.8172249" lon="9.2150644"><ele>475.0</ele><time>2026-04-19T15:29:39.724Z</time></trkpt><trkpt lat="44.8171519" lon="9.2150832"><ele>475.0</ele><time>2026-04-19T15:29:40.724Z</time></trkpt><trkpt lat="44.8170818" lon="9.2151115"><ele>475.0</ele><time>2026-04-19T15:29:41.725Z</time></trkpt><trkpt lat="44.8170164" lon="9.2151241"><ele>475.0</ele><time>2026-04-19T15:29:42.724Z</time></trkpt><trkpt lat="44.8168938" lon="9.2150722"><ele>475.0</ele><time>2026-04-19T15:29:44.724Z</time></trkpt><trkpt lat="44.8168376" lon="9.2149215"><ele>475.00000000000006</ele><time>2026-04-19T15:29:46.725Z</time></trkpt><trkpt lat="44.816851" lon="9.2148249"><ele>475.0</ele><time>2026-04-19T15:29:47.724Z</time></trkpt><trkpt lat="44.8168915" lon="9.2147397"><ele>475.0</ele><time>2026-04-19T15:29:48.725Z</time></trkpt><trkpt lat="44.8169518" lon="9.2146852"><ele>475.0</ele><time>2026-04-19T15:29:49.725Z</time></trkpt><trkpt lat="44.8170273" lon="9.2146594"><ele>475.00000000000006</ele><time>2026-04-19T15:29:50.725Z</time></trkpt><trkpt lat="44.8171088" lon="9.2146248"><ele>475.0</ele><time>2026-04-19T15:29:51.725Z</time></trkpt><trkpt lat="44.81719" lon="9.2145788"><ele>472.6</ele><time>2026-04-19T15:29:52.725Z</time></trkpt><trkpt lat="44.8172734" lon="9.2145311"><ele>470.2</ele><time>2026-04-19T15:29:53.724Z</time></trkpt><trkpt lat="44.8173555" lon="9.2144974"><ele>467.79999999999995</ele><time>2026-04-19T15:29:54.725Z</time></trkpt><trkpt lat="44.8174405" lon="9.2144789"><ele>465.4</ele><time>2026-04-19T15:29:55.725Z</time></trkpt><trkpt lat="44.8175354" lon="9.2144782"><ele>463.0</ele><time>2026-04-19T15:29:56.725Z</time></trkpt><trkpt lat="44.8176404" lon="9.2144905"><ele>461.75</ele><time>2026-04-19T15:29:57.725Z</time></trkpt><trkpt lat="44.8177462" lon="9.2145325"><ele>460.5</ele><time>2026-04-19T15:29:58.725Z</time></trkpt><trkpt lat="44.8178491" lon="9.2145983"><ele>459.25</ele><time>2026-04-19T15:29:59.725Z</time></trkpt><trkpt lat="44.8179524" lon="9.2146885"><ele>458.0</ele><time>2026-04-19T15:30:00.725Z</time></trkpt><trkpt lat="44.8180575" lon="9.2147794"><ele>460.5</ele><time>2026-04-19T15:30:01.725Z</time></trkpt><trkpt lat="44.8181721" lon="9.2148705"><ele>463.0</ele><time>2026-04-19T15:30:02.725Z</time></trkpt><trkpt lat="44.8182834" lon="9.2149465"><ele>465.5</ele><time>2026-04-19T15:30:03.725Z</time></trkpt><trkpt lat="44.8183861" lon="9.2149929"><ele>468.0</ele><time>2026-04-19T15:30:04.725Z</time></trkpt><trkpt lat="44.8184813" lon="9.2149996"><ele>466.79999999999995</ele><time>2026-04-19T15:30:05.725Z</time></trkpt><trkpt lat="44.8185729" lon="9.2149539"><ele>465.59999999999997</ele><time>2026-04-19T15:30:06.725Z</time></trkpt><trkpt lat="44.8186607" lon="9.2148826"><ele>464.40000000000003</ele><time>2026-04-19T15:30:07.725Z</time></trkpt><trkpt lat="44.8187441" lon="9.2148109"><ele>463.20000000000005</ele><time>2026-04-19T15:30:08.725Z</time></trkpt><trkpt lat="44.8188244" lon="9.2147232"><ele>462.0</ele><time>2026-04-19T15:30:09.725Z</time></trkpt><trkpt lat="44.8188855" lon="9.2146284"><ele>460.20000000000005</ele><time>2026-04-19T15:30:10.725Z</time></trkpt><trkpt lat="44.8189227" lon="9.2145246"><ele>458.40000000000003</ele><time>2026-04-19T15:30:11.725Z</time></trkpt><trkpt lat="44.8189409" lon="9.2144042"><ele>456.59999999999997</ele><time>2026-04-19T15:30:12.725Z</time></trkpt><trkpt lat="44.8189325" lon="9.2142772"><ele>454.79999999999995</ele><time>2026-04-19T15:30:13.725Z</time></trkpt><trkpt lat="44.8189156" lon="9.2141449"><ele>453.0</ele><time>2026-04-19T15:30:14.725Z</time></trkpt><trkpt lat="44.8189049" lon="9.2140041"><ele>451.59999999999997</ele><time>2026-04-19T15:30:15.725Z</time></trkpt><trkpt lat="44.8189134" lon="9.2138601"><ele>450.19999999999993</ele><time>2026-04-19T15:30:16.725Z</time></trkpt><trkpt lat="44.8189578" lon="9.2137242"><ele>448.8</ele><time>2026-04-19T15:30:17.725Z</time></trkpt><trkpt lat="44.8190327" lon="9.2136032"><ele>447.4</ele><time>2026-04-19T15:30:18.725Z</time></trkpt><trkpt lat="44.8191297" lon="9.213511"><ele>446.0</ele><time>2026-04-19T15:30:19.725Z</time></trkpt><trkpt lat="44.8192219" lon="9.213429"><ele>446.0</ele><time>2026-04-19T15:30:20.725Z</time></trkpt><trkpt lat="44.8193149" lon="9.2133513"><ele>446.0</ele><time>2026-04-19T15:30:21.725Z</time></trkpt><trkpt lat="44.8194097" lon="9.2132684"><ele>446.0</ele><time>2026-04-19T15:30:22.724Z</time></trkpt><trkpt lat="44.8195019" lon="9.2131834"><ele>446.0</ele><time>2026-04-19T15:30:23.725Z</time></trkpt><trkpt lat="44.8195854" lon="9.213098"><ele>446.0</ele><time>2026-04-19T15:30:24.725Z</time></trkpt><trkpt lat="44.81965" lon="9.2129969"><ele>448.4</ele><time>2026-04-19T15:30:25.725Z</time></trkpt><trkpt lat="44.8196874" lon="9.2128593"><ele>450.8</ele><time>2026-04-19T15:30:26.725Z</time></trkpt><trkpt lat="44.819702" lon="9.2127122"><ele>453.19999999999993</ele><time>2026-04-19T15:30:27.725Z</time></trkpt><trkpt lat="44.8196877" lon="9.2125648"><ele>455.59999999999997</ele><time>2026-04-19T15:30:28.725Z</time></trkpt><trkpt lat="44.8196573" lon="9.2124143"><ele>458.0</ele><time>2026-04-19T15:30:29.724Z</time></trkpt><trkpt lat="44.8196181" lon="9.2122667"><ele>459.5</ele><time>2026-04-19T15:30:30.725Z</time></trkpt><trkpt lat="44.8195764" lon="9.2121127"><ele>461.0</ele><time>2026-04-19T15:30:31.725Z</time></trkpt><trkpt lat="44.8195351" lon="9.211959"><ele>462.5</ele><time>2026-04-19T15:30:32.725Z</time></trkpt><trkpt lat="44.8194925" lon="9.2117989"><ele>464.0</ele><time>2026-04-19T15:30:33.725Z</time></trkpt><trkpt lat="44.8194596" lon="9.2116423"><ele>464.79999999999995</ele><time>2026-04-19T15:30:34.725Z</time></trkpt><trkpt lat="44.8194307" lon="9.2114865"><ele>465.59999999999997</ele><time>2026-04-19T15:30:35.725Z</time></trkpt><trkpt lat="44.8193955" lon="9.2113466"><ele>466.4</ele><time>2026-04-19T15:30:36.724Z</time></trkpt><trkpt lat="44.8193573" lon="9.2112062"><ele>467.2</ele><time>2026-04-19T15:30:37.724Z</time></trkpt><trkpt lat="44.8193257" lon="9.2110606"><ele>468.0</ele><time>2026-04-19T15:30:38.725Z</time></trkpt><trkpt lat="44.8192918" lon="9.2109095"><ele>461.75</ele><time>2026-04-19T15:30:39.724Z</time></trkpt><trkpt lat="44.8192567" lon="9.2107468"><ele>455.5</ele><time>2026-04-19T15:30:40.724Z</time></trkpt><trkpt lat="44.8192143" lon="9.2105836"><ele>449.25</ele><time>2026-04-19T15:30:41.725Z</time></trkpt><trkpt lat="44.8191693" lon="9.210402"><ele>443.0</ele><time>2026-04-19T15:30:42.725Z</time></trkpt><trkpt lat="44.8191286" lon="9.2102246"><ele>443.0</ele><time>2026-04-19T15:30:43.725Z</time></trkpt><trkpt lat="44.8190882" lon="9.210051"><ele>443.0</ele><time>2026-04-19T15:30:44.725Z</time></trkpt><trkpt lat="44.8190541" lon="9.2098888"><ele>443.0</ele><time>2026-04-19T15:30:45.725Z</time></trkpt><trkpt lat="44.8190213" lon="9.2097293"><ele>443.0</ele><time>2026-04-19T15:30:46.725Z</time></trkpt><trkpt lat="44.8190097" lon="9.209568"><ele>442.0</ele><time>2026-04-19T15:30:47.725Z</time></trkpt><trkpt lat="44.8190198" lon="9.2094003"><ele>441.0</ele><time>2026-04-19T15:30:48.725Z</time></trkpt><trkpt lat="44.8190495" lon="9.2092397"><ele>440.0</ele><time>2026-04-19T15:30:49.724Z</time></trkpt><trkpt lat="44.8190945" lon="9.2090938"><ele>439.0</ele><time>2026-04-19T15:30:50.725Z</time></trkpt><trkpt lat="44.8191629" lon="9.2089662"><ele>439.25</ele><time>2026-04-19T15:30:51.725Z</time></trkpt><trkpt lat="44.8192458" lon="9.2088329"><ele>439.5</ele><time>2026-04-19T15:30:52.725Z</time></trkpt><trkpt lat="44.8193338" lon="9.208693"><ele>439.75</ele><time>2026-04-19T15:30:53.725Z</time></trkpt><trkpt lat="44.819441" lon="9.2085477"><ele>440.0</ele><time>2026-04-19T15:30:54.725Z</time></trkpt><trkpt lat="44.8195379" lon="9.2084021"><ele>440.0</ele><time>2026-04-19T15:30:55.724Z</time></trkpt><trkpt lat="44.8196297" lon="9.2082686"><ele>440.0</ele><time>2026-04-19T15:30:56.725Z</time></trkpt><trkpt lat="44.8197151" lon="9.2081376"><ele>440.0</ele><time>2026-04-19T15:30:57.725Z</time></trkpt><trkpt lat="44.8198044" lon="9.2080138"><ele>440.0</ele><time>2026-04-19T15:30:58.725Z</time></trkpt><trkpt lat="44.8198917" lon="9.2078873"><ele>440.75</ele><time>2026-04-19T15:30:59.725Z</time></trkpt><trkpt lat="44.8199687" lon="9.2077614"><ele>441.5</ele><time>2026-04-19T15:31:00.725Z</time></trkpt><trkpt lat="44.8200484" lon="9.2076386"><ele>442.25</ele><time>2026-04-19T15:31:01.725Z</time></trkpt><trkpt lat="44.8201315" lon="9.2075149"><ele>443.0</ele><time>2026-04-19T15:31:02.725Z</time></trkpt><trkpt lat="44.8202138" lon="9.2073916"><ele>440.25</ele><time>2026-04-19T15:31:03.725Z</time></trkpt><trkpt lat="44.8202968" lon="9.2072672"><ele>437.5</ele><time>2026-04-19T15:31:04.725Z</time></trkpt><trkpt lat="44.8203794" lon="9.2071495"><ele>434.75</ele><time>2026-04-19T15:31:05.724Z</time></trkpt><trkpt lat="44.8204581" lon="9.2070345"><ele>432.0</ele><time>2026-04-19T15:31:06.725Z</time></trkpt><trkpt lat="44.8205381" lon="9.2069129"><ele>432.0</ele><time>2026-04-19T15:31:07.725Z</time></trkpt><trkpt lat="44.820621" lon="9.2067919"><ele>432.0</ele><time>2026-04-19T15:31:08.725Z</time></trkpt><trkpt lat="44.8207047" lon="9.2066669"><ele>432.0</ele><time>2026-04-19T15:31:09.725Z</time></trkpt><trkpt lat="44.8207869" lon="9.2065409"><ele>432.0</ele><time>2026-04-19T15:31:10.725Z</time></trkpt><trkpt lat="44.8208699" lon="9.206413"><ele>432.0</ele><time>2026-04-19T15:31:11.725Z</time></trkpt><trkpt lat="44.8209572" lon="9.2062921"><ele>432.0</ele><time>2026-04-19T15:31:12.725Z</time></trkpt><trkpt lat="44.8210416" lon="9.2061784"><ele>432.0</ele><time>2026-04-19T15:31:13.725Z</time></trkpt><trkpt lat="44.8211255" lon="9.2060594"><ele>432.0</ele><time>2026-04-19T15:31:14.725Z</time></trkpt><trkpt lat="44.8212074" lon="9.2059503"><ele>432.0</ele><time>2026-04-19T15:31:15.725Z</time></trkpt><trkpt lat="44.8212889" lon="9.2058419"><ele>432.00000000000006</ele><time>2026-04-19T15:31:16.725Z</time></trkpt><trkpt lat="44.8213661" lon="9.205729"><ele>432.00000000000006</ele><time>2026-04-19T15:31:17.724Z</time></trkpt><trkpt lat="44.821441" lon="9.2056178"><ele>432.0</ele><time>2026-04-19T15:31:18.725Z</time></trkpt><trkpt lat="44.8215152" lon="9.2055082"><ele>432.0</ele><time>2026-04-19T15:31:19.725Z</time></trkpt><trkpt lat="44.8215792" lon="9.2053835"><ele>431.0</ele><time>2026-04-19T15:31:20.724Z</time></trkpt><trkpt lat="44.821636" lon="9.2052469"><ele>430.0</ele><time>2026-04-19T15:31:21.725Z</time></trkpt><trkpt lat="44.8216908" lon="9.2051055"><ele>429.0</ele><time>2026-04-19T15:31:22.725Z</time></trkpt><trkpt lat="44.8217442" lon="9.2049562"><ele>428.0</ele><time>2026-04-19T15:31:23.725Z</time></trkpt><trkpt lat="44.821791" lon="9.2047981"><ele>428.75</ele><time>2026-04-19T15:31:24.725Z</time></trkpt><trkpt lat="44.8218371" lon="9.2046464"><ele>429.5</ele><time>2026-04-19T15:31:25.724Z</time></trkpt><trkpt lat="44.8218857" lon="9.2044923"><ele>430.25</ele><time>2026-04-19T15:31:26.725Z</time></trkpt><trkpt lat="44.8219234" lon="9.2043423"><ele>431.0</ele><time>2026-04-19T15:31:27.725Z</time></trkpt><trkpt lat="44.8219642" lon="9.2041985"><ele>431.0</ele><time>2026-04-19T15:31:28.725Z</time></trkpt><trkpt lat="44.8219955" lon="9.2040486"><ele>431.0</ele><time>2026-04-19T15:31:29.725Z</time></trkpt><trkpt lat="44.8220211" lon="9.2039118"><ele>431.0</ele><time>2026-04-19T15:31:30.725Z</time></trkpt><trkpt lat="44.8220575" lon="9.2037856"><ele>431.0</ele><time>2026-04-19T15:31:31.724Z</time></trkpt><trkpt lat="44.8220966" lon="9.2036707"><ele>431.0</ele><time>2026-04-19T15:31:32.725Z</time></trkpt><trkpt lat="44.8221297" lon="9.2035653"><ele>429.4</ele><time>2026-04-19T15:31:33.725Z</time></trkpt><trkpt lat="44.8221574" lon="9.2034527"><ele>427.8</ele><time>2026-04-19T15:31:34.725Z</time></trkpt><trkpt lat="44.8221828" lon="9.2033296"><ele>426.2</ele><time>2026-04-19T15:31:35.725Z</time></trkpt><trkpt lat="44.8222143" lon="9.2032141"><ele>424.59999999999997</ele><time>2026-04-19T15:31:36.725Z</time></trkpt><trkpt lat="44.8222427" lon="9.2030959"><ele>423.0</ele><time>2026-04-19T15:31:37.725Z</time></trkpt><trkpt lat="44.8222772" lon="9.2029634"><ele>423.0</ele><time>2026-04-19T15:31:38.725Z</time></trkpt><trkpt lat="44.8223101" lon="9.2028221"><ele>423.0</ele><time>2026-04-19T15:31:39.724Z</time></trkpt><trkpt lat="44.8223448" lon="9.2026778"><ele>423.0</ele><time>2026-04-19T15:31:40.725Z</time></trkpt><trkpt lat="44.8223698" lon="9.2025266"><ele>423.0</ele><time>2026-04-19T15:31:41.725Z</time></trkpt><trkpt lat="44.8223985" lon="9.202397"><ele>423.0</ele><time>2026-04-19T15:31:42.724Z</time></trkpt><trkpt lat="44.8224372" lon="9.2022784"><ele>422.5</ele><time>2026-04-19T15:31:43.725Z</time></trkpt><trkpt lat="44.8224738" lon="9.20217"><ele>422.0</ele><time>2026-04-19T15:31:44.725Z</time></trkpt><trkpt lat="44.8225018" lon="9.2020656"><ele>421.5</ele><time>2026-04-19T15:31:45.725Z</time></trkpt><trkpt lat="44.8225148" lon="9.2019617"><ele>421.0</ele><time>2026-04-19T15:31:46.725Z</time></trkpt><trkpt lat="44.8225432" lon="9.2018463"><ele>420.5</ele><time>2026-04-19T15:31:47.725Z</time></trkpt><trkpt lat="44.8225762" lon="9.2017093"><ele>420.0</ele><time>2026-04-19T15:31:48.725Z</time></trkpt><trkpt lat="44.8226082" lon="9.2015649"><ele>419.8</ele><time>2026-04-19T15:31:49.724Z</time></trkpt><trkpt lat="44.8226379" lon="9.20142"><ele>419.6</ele><time>2026-04-19T15:31:50.724Z</time></trkpt><trkpt lat="44.8226709" lon="9.2012842"><ele>419.4</ele><time>2026-04-19T15:31:51.725Z</time></trkpt><trkpt lat="44.8227066" lon="9.2011608"><ele>419.2</ele><time>2026-04-19T15:31:52.725Z</time></trkpt><trkpt lat="44.8227409" lon="9.2010496"><ele>419.0</ele><time>2026-04-19T15:31:53.724Z</time></trkpt><trkpt lat="44.8227724" lon="9.2009397"><ele>418.99999999999994</ele><time>2026-04-19T15:31:54.725Z</time></trkpt><trkpt lat="44.8228011" lon="9.2008486"><ele>419.0</ele><time>2026-04-19T15:31:55.725Z</time></trkpt><trkpt lat="44.8228535" lon="9.2006978"><ele>419.0</ele><time>2026-04-19T15:31:57.724Z</time></trkpt><trkpt lat="44.8228556" lon="9.2005897"><ele>419.0</ele><time>2026-04-19T15:31:59.725Z</time></trkpt><trkpt lat="44.8227893" lon="9.200531"><ele>418.99999999999994</ele><time>2026-04-19T15:32:01.725Z</time></trkpt><trkpt lat="44.8227287" lon="9.2005019"><ele>419.0</ele><time>2026-04-19T15:32:02.724Z</time></trkpt><trkpt lat="44.8226623" lon="9.2004903"><ele>418.0</ele><time>2026-04-19T15:32:03.725Z</time></trkpt><trkpt lat="44.8225642" lon="9.2004233"><ele>417.0</ele><time>2026-04-19T15:32:05.725Z</time></trkpt><trkpt lat="44.8224888" lon="9.2003969"><ele>416.0</ele><time>2026-04-19T15:32:08.724Z</time></trkpt><trkpt lat="44.8223698" lon="9.2003415"><ele>415.0</ele><time>2026-04-19T15:32:10.725Z</time></trkpt><trkpt lat="44.8222756" lon="9.2002854"><ele>414.0</ele><time>2026-04-19T15:32:11.725Z</time></trkpt><trkpt lat="44.8221801" lon="9.2002271"><ele>414.0</ele><time>2026-04-19T15:32:12.725Z</time></trkpt><trkpt lat="44.8220906" lon="9.2001681"><ele>414.0</ele><time>2026-04-19T15:32:13.725Z</time></trkpt><trkpt lat="44.8220087" lon="9.2001162"><ele>414.0</ele><time>2026-04-19T15:32:14.724Z</time></trkpt><trkpt lat="44.8219304" lon="9.2000659"><ele>414.0</ele><time>2026-04-19T15:32:15.724Z</time></trkpt><trkpt lat="44.8218551" lon="9.2000205"><ele>414.0</ele><time>2026-04-19T15:32:16.724Z</time></trkpt><trkpt lat="44.8217898" lon="9.1999817"><ele>414.0</ele><time>2026-04-19T15:32:17.725Z</time></trkpt><trkpt lat="44.8216961" lon="9.1998738"><ele>412.6666666666667</ele><time>2026-04-19T15:32:19.724Z</time></trkpt><trkpt lat="44.8216597" lon="9.1997473"><ele>411.33333333333337</ele><time>2026-04-19T15:32:21.725Z</time></trkpt><trkpt lat="44.8216699" lon="9.1996437"><ele>410.0</ele><time>2026-04-19T15:32:23.725Z</time></trkpt><trkpt lat="44.8217311" lon="9.1995651"><ele>408.6666666666667</ele><time>2026-04-19T15:32:26.725Z</time></trkpt><trkpt lat="44.8217726" lon="9.1994525"><ele>407.33333333333337</ele><time>2026-04-19T15:32:29.725Z</time></trkpt><trkpt lat="44.8217864" lon="9.1993148"><ele>406.0</ele><time>2026-04-19T15:32:31.725Z</time></trkpt><trkpt lat="44.8218018" lon="9.1991641"><ele>406.6666666666667</ele><time>2026-04-19T15:32:33.725Z</time></trkpt><trkpt lat="44.8218178" lon="9.1990091"><ele>407.33333333333337</ele><time>2026-04-19T15:32:35.725Z</time></trkpt><trkpt lat="44.8218321" lon="9.1989155"><ele>408.0</ele><time>2026-04-19T15:32:36.725Z</time></trkpt><trkpt lat="44.8218511" lon="9.1988137"><ele>408.66666666666663</ele><time>2026-04-19T15:32:37.724Z</time></trkpt><trkpt lat="44.8218689" lon="9.1987157"><ele>409.3333333333333</ele><time>2026-04-19T15:32:38.725Z</time></trkpt><trkpt lat="44.8218839" lon="9.1986282"><ele>410.0</ele><time>2026-04-19T15:32:39.725Z</time></trkpt><trkpt lat="44.8219073" lon="9.1984974"><ele>410.0</ele><time>2026-04-19T15:32:41.725Z</time></trkpt><trkpt lat="44.8219263" lon="9.198362"><ele>410.0</ele><time>2026-04-19T15:32:43.725Z</time></trkpt><trkpt lat="44.8219502" lon="9.1981589"><ele>410.0</ele><time>2026-04-19T15:32:45.724Z</time></trkpt><trkpt lat="44.8219632" lon="9.1980554"><ele>410.0</ele><time>2026-04-19T15:32:46.725Z</time></trkpt><trkpt lat="44.8219915" lon="9.1979254"><ele>410.0</ele><time>2026-04-19T15:32:48.725Z</time></trkpt><trkpt lat="44.8220631" lon="9.1978552"><ele>409.66666666666663</ele><time>2026-04-19T15:32:51.725Z</time></trkpt><trkpt lat="44.822127" lon="9.1978878"><ele>409.3333333333333</ele><time>2026-04-19T15:32:54.725Z</time></trkpt><trkpt lat="44.8221848" lon="9.1979367"><ele>409.0</ele><time>2026-04-19T15:32:57.725Z</time></trkpt><trkpt lat="44.8222496" lon="9.1979873"><ele>408.66666666666663</ele><time>2026-04-19T15:32:59.725Z</time></trkpt><trkpt lat="44.8223133" lon="9.1980276"><ele>408.3333333333333</ele><time>2026-04-19T15:33:01.725Z</time></trkpt><trkpt lat="44.8224027" lon="9.1980799"><ele>408.0</ele><time>2026-04-19T15:33:04.724Z</time></trkpt><trkpt lat="44.8224728" lon="9.1981362"><ele>408.4</ele><time>2026-04-19T15:33:07.725Z</time></trkpt><trkpt lat="44.8225504" lon="9.1981755"><ele>408.79999999999995</ele><time>2026-04-19T15:33:11.725Z</time></trkpt><trkpt lat="44.8224907" lon="9.1982826"><ele>409.2</ele><time>2026-04-19T15:33:16.725Z</time></trkpt><trkpt lat="44.8224892" lon="9.1984103"><ele>409.6</ele><time>2026-04-19T15:33:18.725Z</time></trkpt><trkpt lat="44.8224728" lon="9.1985465"><ele>410.0</ele><time>2026-04-19T15:33:20.725Z</time></trkpt><trkpt lat="44.8224438" lon="9.1986925"><ele>409.99999999999994</ele><time>2026-04-19T15:33:22.725Z</time></trkpt><trkpt lat="44.8224136" lon="9.1988302"><ele>410.0</ele><time>2026-04-19T15:33:24.725Z</time></trkpt><trkpt lat="44.8223849" lon="9.198965"><ele>410.0</ele><time>2026-04-19T15:33:26.725Z</time></trkpt><trkpt lat="44.822349" lon="9.1990678"><ele>410.0</ele><time>2026-04-19T15:33:28.725Z</time></trkpt><trkpt lat="44.8223516" lon="9.1991736"><ele>409.99999999999994</ele><time>2026-04-19T15:33:35.725Z</time></trkpt><trkpt lat="44.822357" lon="9.1992777"><ele>410.0</ele><time>2026-04-19T15:33:37.725Z</time></trkpt><trkpt lat="44.8224363" lon="9.1993667"><ele>410.4</ele><time>2026-04-19T15:33:40.725Z</time></trkpt><trkpt lat="44.8225327" lon="9.1993697"><ele>410.8</ele><time>2026-04-19T15:33:42.724Z</time></trkpt><trkpt lat="44.8226126" lon="9.1993607"><ele>411.20000000000005</ele><time>2026-04-19T15:33:44.724Z</time></trkpt><trkpt lat="44.8226786" lon="9.1993783"><ele>411.6</ele><time>2026-04-19T15:33:46.725Z</time></trkpt><trkpt lat="44.8227566" lon="9.1992955"><ele>412.0</ele><time>2026-04-19T15:33:49.725Z</time></trkpt><trkpt lat="44.8228082" lon="9.1991595"><ele>413.1666666666667</ele><time>2026-04-19T15:33:51.725Z</time></trkpt><trkpt lat="44.8228558" lon="9.1990108"><ele>414.33333333333337</ele><time>2026-04-19T15:33:53.725Z</time></trkpt><trkpt lat="44.8228872" lon="9.1988597"><ele>415.5</ele><time>2026-04-19T15:33:55.725Z</time></trkpt><trkpt lat="44.8228991" lon="9.1987659"><ele>416.66666666666663</ele><time>2026-04-19T15:33:56.725Z</time></trkpt><trkpt lat="44.8229048" lon="9.1986628"><ele>417.8333333333333</ele><time>2026-04-19T15:33:57.724Z</time></trkpt><trkpt lat="44.8229098" lon="9.1985593"><ele>419.0</ele><time>2026-04-19T15:33:58.725Z</time></trkpt><trkpt lat="44.8229097" lon="9.1984644"><ele>418.99999999999994</ele><time>2026-04-19T15:33:59.725Z</time></trkpt><trkpt lat="44.8229224" lon="9.1983639"><ele>419.0</ele><time>2026-04-19T15:34:00.725Z</time></trkpt><trkpt lat="44.8229329" lon="9.1982664"><ele>419.0</ele><time>2026-04-19T15:34:01.725Z</time></trkpt><trkpt lat="44.822939" lon="9.1981692"><ele>419.0</ele><time>2026-04-19T15:34:02.725Z</time></trkpt><trkpt lat="44.8229513" lon="9.1980755"><ele>419.0</ele><time>2026-04-19T15:34:03.725Z</time></trkpt><trkpt lat="44.8229561" lon="9.1979792"><ele>418.99999999999994</ele><time>2026-04-19T15:34:04.725Z</time></trkpt><trkpt lat="44.8229723" lon="9.197881"><ele>419.0</ele><time>2026-04-19T15:34:05.725Z</time></trkpt><trkpt lat="44.8229828" lon="9.1977634"><ele>419.0</ele><time>2026-04-19T15:34:07.725Z</time></trkpt><trkpt lat="44.8230792" lon="9.1977203"><ele>419.0</ele><time>2026-04-19T15:34:11.725Z</time></trkpt><trkpt lat="44.8232043" lon="9.1977604"><ele>419.0</ele><time>2026-04-19T15:34:13.724Z</time></trkpt><trkpt lat="44.8233175" lon="9.1978045"><ele>419.0</ele><time>2026-04-19T15:34:15.725Z</time></trkpt><trkpt lat="44.8233784" lon="9.1978452"><ele>419.0</ele><time>2026-04-19T15:34:18.725Z</time></trkpt><trkpt lat="44.8234252" lon="9.1977085"><ele>418.99999999999994</ele><time>2026-04-19T15:34:23.725Z</time></trkpt><trkpt lat="44.8234469" lon="9.1976021"><ele>419.0</ele><time>2026-04-19T15:34:24.725Z</time></trkpt><trkpt lat="44.8234676" lon="9.1975115"><ele>419.0</ele><time>2026-04-19T15:34:25.725Z</time></trkpt><trkpt lat="44.8235087" lon="9.1974383"><ele>419.0</ele><time>2026-04-19T15:34:27.725Z</time></trkpt><trkpt lat="44.8236142" lon="9.1974704"><ele>418.99999999999994</ele><time>2026-04-19T15:34:30.725Z</time></trkpt><trkpt lat="44.8237175" lon="9.1975285"><ele>419.0</ele><time>2026-04-19T15:34:32.724Z</time></trkpt><trkpt lat="44.8237756" lon="9.1976164"><ele>421.0</ele><time>2026-04-19T15:34:34.725Z</time></trkpt></trkseg></trk></gpx>